<?xml version='1.0' encoding='UTF-8'?><gpx version="1.1" creator="JPX - https://github.com/jenetics/jpx" xmlns="http://www.topografix.com/GPX/1/1"><trk><trkseg><trkpt lat="43.655" lon="12.6015383"><ele>232.0</ele><time>2026-04-18T14:52:12.542Z</time></trkpt><trkpt lat="43.6550833" lon="12.6017333"><ele>232.0</ele><time>2026-04-18T14:52:13.539Z</time></trkpt><trkpt lat="43.65517" lon="12.6019333"><ele>232.0</ele><time>2026-04-18T14:52:14.536Z</time></trkpt><trkpt lat="43.6552583" lon="12.6021367"><ele>231.66666666666666</ele><time>2026-04-18T14:52:15.535Z</time></trkpt><trkpt lat="43.6553483" lon="12.602345"><ele>231.33333333333331</ele><time>2026-04-18T14:52:16.535Z</time></trkpt><trkpt lat="43.65544" lon="12.6025567"><ele>231.0</ele><time>2026-04-18T14:52:17.535Z</time></trkpt><trkpt lat="43.6555317" lon="12.60277"><ele>231.0</ele><time>2026-04-18T14:52:18.535Z</time></trkpt><trkpt lat="43.655625" lon="12.602985"><ele>231.0</ele><time>2026-04-18T14:52:19.534Z</time></trkpt><trkpt lat="43.6557217" lon="12.6032"><ele>231.0</ele><time>2026-04-18T14:52:20.535Z</time></trkpt><trkpt lat="43.655815" lon="12.60342"><ele>231.0</ele><time>2026-04-18T14:52:21.534Z</time></trkpt><trkpt lat="43.6559083" lon="12.60364"><ele>231.0</ele><time>2026-04-18T14:52:22.534Z</time></trkpt><trkpt lat="43.6560033" lon="12.6038567"><ele>231.0</ele><time>2026-04-18T14:52:23.534Z</time></trkpt><trkpt lat="43.6561017" lon="12.6040817"><ele>230.66666666666669</ele><time>2026-04-18T14:52:24.536Z</time></trkpt><trkpt lat="43.6562017" lon="12.6043183"><ele>230.33333333333334</ele><time>2026-04-18T14:52:25.535Z</time></trkpt><trkpt lat="43.6563017" lon="12.6045583"><ele>230.0</ele><time>2026-04-18T14:52:26.536Z</time></trkpt><trkpt lat="43.656405" lon="12.6048017"><ele>230.0</ele><time>2026-04-18T14:52:27.534Z</time></trkpt><trkpt lat="43.6565117" lon="12.6050467"><ele>230.0</ele><time>2026-04-18T14:52:28.536Z</time></trkpt><trkpt lat="43.6566183" lon="12.60529"><ele>230.0</ele><time>2026-04-18T14:52:29.534Z</time></trkpt><trkpt lat="43.6567283" lon="12.60553"><ele>230.0</ele><time>2026-04-18T14:52:30.536Z</time></trkpt><trkpt lat="43.65685" lon="12.6057617"><ele>230.0</ele><time>2026-04-18T14:52:31.534Z</time></trkpt><trkpt lat="43.6569967" lon="12.6059683"><ele>230.0</ele><time>2026-04-18T14:52:32.535Z</time></trkpt><trkpt lat="43.6571633" lon="12.6061417"><ele>228.66666666666669</ele><time>2026-04-18T14:52:33.533Z</time></trkpt><trkpt lat="43.657345" lon="12.60629"><ele>227.33333333333331</ele><time>2026-04-18T14:52:34.534Z</time></trkpt><trkpt lat="43.657535" lon="12.606425"><ele>226.0</ele><time>2026-04-18T14:52:35.535Z</time></trkpt><trkpt lat="43.6577267" lon="12.6065567"><ele>226.33333333333331</ele><time>2026-04-18T14:52:36.534Z</time></trkpt><trkpt lat="43.657915" lon="12.6066967"><ele>226.66666666666669</ele><time>2026-04-18T14:52:37.535Z</time></trkpt><trkpt lat="43.6581017" lon="12.6068367"><ele>227.0</ele><time>2026-04-18T14:52:38.535Z</time></trkpt><trkpt lat="43.65829" lon="12.6069783"><ele>226.66666666666669</ele><time>2026-04-18T14:52:39.534Z</time></trkpt><trkpt lat="43.6584767" lon="12.607115"><ele>226.33333333333331</ele><time>2026-04-18T14:52:40.534Z</time></trkpt><trkpt lat="43.6586633" lon="12.6072517"><ele>226.0</ele><time>2026-04-18T14:52:41.533Z</time></trkpt><trkpt lat="43.65885" lon="12.60739"><ele>226.0</ele><time>2026-04-18T14:52:42.534Z</time></trkpt><trkpt lat="43.6590383" lon="12.60753"><ele>226.0</ele><time>2026-04-18T14:52:43.534Z</time></trkpt><trkpt lat="43.6592267" lon="12.6076683"><ele>226.0</ele><time>2026-04-18T14:52:44.534Z</time></trkpt><trkpt lat="43.659415" lon="12.607805"><ele>224.0</ele><time>2026-04-18T14:52:45.534Z</time></trkpt><trkpt lat="43.659605" lon="12.6079467"><ele>222.0</ele><time>2026-04-18T14:52:46.535Z</time></trkpt><trkpt lat="43.6597933" lon="12.6080917"><ele>220.0</ele><time>2026-04-18T14:52:47.534Z</time></trkpt><trkpt lat="43.6599833" lon="12.6082333"><ele>220.0</ele><time>2026-04-18T14:52:48.534Z</time></trkpt><trkpt lat="43.66017" lon="12.6083767"><ele>220.0</ele><time>2026-04-18T14:52:49.535Z</time></trkpt><trkpt lat="43.6603583" lon="12.6085117"><ele>220.0</ele><time>2026-04-18T14:52:50.534Z</time></trkpt><trkpt lat="43.6605433" lon="12.6086533"><ele>218.66666666666666</ele><time>2026-04-18T14:52:51.535Z</time></trkpt><trkpt lat="43.660725" lon="12.6087917"><ele>217.33333333333331</ele><time>2026-04-18T14:52:52.534Z</time></trkpt><trkpt lat="43.6608917" lon="12.6089283"><ele>216.0</ele><time>2026-04-18T14:52:53.535Z</time></trkpt><trkpt lat="43.661055" lon="12.6090583"><ele>217.66666666666669</ele><time>2026-04-18T14:52:54.534Z</time></trkpt><trkpt lat="43.6612117" lon="12.60919"><ele>219.33333333333334</ele><time>2026-04-18T14:52:55.535Z</time></trkpt><trkpt lat="43.6613617" lon="12.60932"><ele>221.0</ele><time>2026-04-18T14:52:56.535Z</time></trkpt><trkpt lat="43.6615017" lon="12.60945"><ele>221.33333333333334</ele><time>2026-04-18T14:52:57.535Z</time></trkpt><trkpt lat="43.66164" lon="12.6095817"><ele>221.66666666666669</ele><time>2026-04-18T14:52:58.534Z</time></trkpt><trkpt lat="43.6617717" lon="12.609725"><ele>222.0</ele><time>2026-04-18T14:52:59.535Z</time></trkpt><trkpt lat="43.6618933" lon="12.609885"><ele>223.0</ele><time>2026-04-18T14:53:00.534Z</time></trkpt><trkpt lat="43.6620017" lon="12.610065"><ele>224.0</ele><time>2026-04-18T14:53:01.538Z</time></trkpt><trkpt lat="43.6621" lon="12.6102533"><ele>225.0</ele><time>2026-04-18T14:53:02.534Z</time></trkpt><trkpt lat="43.6621783" lon="12.610465"><ele>225.33333333333331</ele><time>2026-04-18T14:53:03.535Z</time></trkpt><trkpt lat="43.66225" lon="12.6106717"><ele>225.66666666666666</ele><time>2026-04-18T14:53:04.534Z</time></trkpt><trkpt lat="43.6623183" lon="12.6108667"><ele>226.0</ele><time>2026-04-18T14:53:05.534Z</time></trkpt><trkpt lat="43.6623833" lon="12.6110617"><ele>226.0</ele><time>2026-04-18T14:53:06.535Z</time></trkpt><trkpt lat="43.6624467" lon="12.6112517"><ele>226.0</ele><time>2026-04-18T14:53:07.535Z</time></trkpt><trkpt lat="43.6625067" lon="12.6114383"><ele>226.0</ele><time>2026-04-18T14:53:08.534Z</time></trkpt><trkpt lat="43.6625717" lon="12.6116167"><ele>226.0</ele><time>2026-04-18T14:53:09.534Z</time></trkpt><trkpt lat="43.6626317" lon="12.6117917"><ele>226.0</ele><time>2026-04-18T14:53:10.534Z</time></trkpt><trkpt lat="43.6626917" lon="12.611965"><ele>226.0</ele><time>2026-04-18T14:53:11.534Z</time></trkpt><trkpt lat="43.6627483" lon="12.61213"><ele>226.0</ele><time>2026-04-18T14:53:12.534Z</time></trkpt><trkpt lat="43.6628017" lon="12.61228"><ele>226.0</ele><time>2026-04-18T14:53:13.534Z</time></trkpt><trkpt lat="43.6628467" lon="12.6124233"><ele>226.4</ele><time>2026-04-18T14:53:14.539Z</time></trkpt><trkpt lat="43.6628933" lon="12.6125567"><ele>226.8</ele><time>2026-04-18T14:53:15.537Z</time></trkpt><trkpt lat="43.6629383" lon="12.6126867"><ele>227.20000000000002</ele><time>2026-04-18T14:53:16.532Z</time></trkpt><trkpt lat="43.662985" lon="12.612815"><ele>227.60000000000002</ele><time>2026-04-18T14:53:17.534Z</time></trkpt><trkpt lat="43.66303" lon="12.6129383"><ele>228.0</ele><time>2026-04-18T14:53:18.534Z</time></trkpt><trkpt lat="43.6630767" lon="12.6130633"><ele>228.0</ele><time>2026-04-18T14:53:19.539Z</time></trkpt><trkpt lat="43.66312" lon="12.6131867"><ele>228.0</ele><time>2026-04-18T14:53:20.534Z</time></trkpt><trkpt lat="43.663165" lon="12.6133117"><ele>228.0</ele><time>2026-04-18T14:53:21.533Z</time></trkpt><trkpt lat="43.6632083" lon="12.613435"><ele>228.0</ele><time>2026-04-18T14:53:22.534Z</time></trkpt><trkpt lat="43.6632467" lon="12.613555"><ele>228.0</ele><time>2026-04-18T14:53:23.535Z</time></trkpt><trkpt lat="43.66329" lon="12.6136733"><ele>227.8</ele><time>2026-04-18T14:53:24.534Z</time></trkpt><trkpt lat="43.6633367" lon="12.613795"><ele>227.60000000000002</ele><time>2026-04-18T14:53:25.537Z</time></trkpt><trkpt lat="43.6633817" lon="12.613925"><ele>227.39999999999998</ele><time>2026-04-18T14:53:26.533Z</time></trkpt><trkpt lat="43.6634267" lon="12.614055"><ele>227.2</ele><time>2026-04-18T14:53:27.533Z</time></trkpt><trkpt lat="43.6634733" lon="12.6141917"><ele>227.0</ele><time>2026-04-18T14:53:28.533Z</time></trkpt><trkpt lat="43.6635217" lon="12.61434"><ele>227.0</ele><time>2026-04-18T14:53:29.533Z</time></trkpt><trkpt lat="43.6635767" lon="12.6145017"><ele>227.0</ele><time>2026-04-18T14:53:30.533Z</time></trkpt><trkpt lat="43.663635" lon="12.61467"><ele>227.0</ele><time>2026-04-18T14:53:31.534Z</time></trkpt><trkpt lat="43.663695" lon="12.6148433"><ele>227.0</ele><time>2026-04-18T14:53:32.534Z</time></trkpt><trkpt lat="43.6637533" lon="12.615015"><ele>227.0</ele><time>2026-04-18T14:53:33.533Z</time></trkpt><trkpt lat="43.6638117" lon="12.615185"><ele>227.0</ele><time>2026-04-18T14:53:34.536Z</time></trkpt><trkpt lat="43.6638717" lon="12.615355"><ele>227.0</ele><time>2026-04-18T14:53:35.534Z</time></trkpt><trkpt lat="43.663935" lon="12.6155317"><ele>227.0</ele><time>2026-04-18T14:53:36.534Z</time></trkpt><trkpt lat="43.6640033" lon="12.61572"><ele>226.66666666666669</ele><time>2026-04-18T14:53:37.54Z</time></trkpt><trkpt lat="43.6640733" lon="12.6159183"><ele>226.33333333333331</ele><time>2026-04-18T14:53:38.538Z</time></trkpt><trkpt lat="43.6641433" lon="12.616125"><ele>226.0</ele><time>2026-04-18T14:53:39.534Z</time></trkpt><trkpt lat="43.664215" lon="12.6163367"><ele>225.66666666666666</ele><time>2026-04-18T14:53:40.534Z</time></trkpt><trkpt lat="43.6642883" lon="12.6165533"><ele>225.33333333333331</ele><time>2026-04-18T14:53:41.538Z</time></trkpt><trkpt lat="43.664365" lon="12.6167683"><ele>225.0</ele><time>2026-04-18T14:53:42.534Z</time></trkpt><trkpt lat="43.66444" lon="12.6169833"><ele>225.33333333333331</ele><time>2026-04-18T14:53:43.534Z</time></trkpt><trkpt lat="43.664515" lon="12.6171967"><ele>225.66666666666666</ele><time>2026-04-18T14:53:44.533Z</time></trkpt><trkpt lat="43.6645883" lon="12.6174117"><ele>226.0</ele><time>2026-04-18T14:53:45.533Z</time></trkpt><trkpt lat="43.6646667" lon="12.6176317"><ele>225.0</ele><time>2026-04-18T14:53:46.533Z</time></trkpt><trkpt lat="43.6647433" lon="12.6178583"><ele>224.0</ele><time>2026-04-18T14:53:47.533Z</time></trkpt><trkpt lat="43.6648217" lon="12.61809"><ele>223.0</ele><time>2026-04-18T14:53:48.533Z</time></trkpt><trkpt lat="43.6649033" lon="12.6183217"><ele>223.0</ele><time>2026-04-18T14:53:49.533Z</time></trkpt><trkpt lat="43.6649867" lon="12.6185567"><ele>223.0</ele><time>2026-04-18T14:53:50.534Z</time></trkpt><trkpt lat="43.6650683" lon="12.61879"><ele>223.0</ele><time>2026-04-18T14:53:51.533Z</time></trkpt><trkpt lat="43.6651517" lon="12.6190267"><ele>223.0</ele><time>2026-04-18T14:53:52.532Z</time></trkpt><trkpt lat="43.66523" lon="12.619265"><ele>223.0</ele><time>2026-04-18T14:53:53.533Z</time></trkpt><trkpt lat="43.6653117" lon="12.6194983"><ele>223.0</ele><time>2026-04-18T14:53:54.533Z</time></trkpt><trkpt lat="43.6653967" lon="12.6197333"><ele>221.33333333333331</ele><time>2026-04-18T14:53:55.533Z</time></trkpt><trkpt lat="43.6654783" lon="12.6199733"><ele>219.66666666666669</ele><time>2026-04-18T14:53:56.534Z</time></trkpt><trkpt lat="43.665565" lon="12.62021"><ele>218.0</ele><time>2026-04-18T14:53:57.533Z</time></trkpt><trkpt lat="43.6656483" lon="12.6204467"><ele>217.66666666666669</ele><time>2026-04-18T14:53:58.534Z</time></trkpt><trkpt lat="43.6657333" lon="12.6206817"><ele>217.33333333333331</ele><time>2026-04-18T14:53:59.533Z</time></trkpt><trkpt lat="43.6658167" lon="12.620915"><ele>217.0</ele><time>2026-04-18T14:54:00.533Z</time></trkpt><trkpt lat="43.6658983" lon="12.6211483"><ele>216.66666666666666</ele><time>2026-04-18T14:54:01.534Z</time></trkpt><trkpt lat="43.66598" lon="12.6213817"><ele>216.33333333333331</ele><time>2026-04-18T14:54:02.534Z</time></trkpt><trkpt lat="43.6660583" lon="12.621615"><ele>216.0</ele><time>2026-04-18T14:54:03.533Z</time></trkpt><trkpt lat="43.6661417" lon="12.621845"><ele>216.0</ele><time>2026-04-18T14:54:04.533Z</time></trkpt><trkpt lat="43.6662217" lon="12.622075"><ele>216.0</ele><time>2026-04-18T14:54:05.533Z</time></trkpt><trkpt lat="43.666302" lon="12.6223031"><ele>216.0</ele><time>2026-04-18T14:54:06.533Z</time></trkpt><trkpt lat="43.6663811" lon="12.6225255"><ele>216.0</ele><time>2026-04-18T14:54:07.533Z</time></trkpt><trkpt lat="43.666455" lon="12.6227415"><ele>216.0</ele><time>2026-04-18T14:54:08.534Z</time></trkpt><trkpt lat="43.6665288" lon="12.62295"><ele>216.0</ele><time>2026-04-18T14:54:09.533Z</time></trkpt><trkpt lat="43.6666017" lon="12.6231521"><ele>216.0</ele><time>2026-04-18T14:54:10.533Z</time></trkpt><trkpt lat="43.6666709" lon="12.6233525"><ele>216.0</ele><time>2026-04-18T14:54:11.533Z</time></trkpt><trkpt lat="43.6667406" lon="12.6235518"><ele>216.0</ele><time>2026-04-18T14:54:12.533Z</time></trkpt><trkpt lat="43.666813" lon="12.6237459"><ele>216.33333333333331</ele><time>2026-04-18T14:54:13.534Z</time></trkpt><trkpt lat="43.6668818" lon="12.6239403"><ele>216.66666666666666</ele><time>2026-04-18T14:54:14.533Z</time></trkpt><trkpt lat="43.6669498" lon="12.624141"><ele>217.0</ele><time>2026-04-18T14:54:15.533Z</time></trkpt><trkpt lat="43.6670195" lon="12.6243446"><ele>215.33333333333331</ele><time>2026-04-18T14:54:16.532Z</time></trkpt><trkpt lat="43.6670926" lon="12.6245483"><ele>213.66666666666669</ele><time>2026-04-18T14:54:17.533Z</time></trkpt><trkpt lat="43.6671637" lon="12.6247495"><ele>212.0</ele><time>2026-04-18T14:54:18.533Z</time></trkpt><trkpt lat="43.6672354" lon="12.6249538"><ele>212.0</ele><time>2026-04-18T14:54:19.532Z</time></trkpt><trkpt lat="43.6673098" lon="12.6251596"><ele>212.0</ele><time>2026-04-18T14:54:20.544Z</time></trkpt><trkpt lat="43.6673838" lon="12.6253649"><ele>212.0</ele><time>2026-04-18T14:54:21.533Z</time></trkpt><trkpt lat="43.6674565" lon="12.6255736"><ele>211.66666666666669</ele><time>2026-04-18T14:54:22.533Z</time></trkpt><trkpt lat="43.6675243" lon="12.6257851"><ele>211.33333333333331</ele><time>2026-04-18T14:54:23.532Z</time></trkpt><trkpt lat="43.6675888" lon="12.6259989"><ele>211.0</ele><time>2026-04-18T14:54:24.532Z</time></trkpt><trkpt lat="43.667659" lon="12.6262096"><ele>210.33333333333331</ele><time>2026-04-18T14:54:25.534Z</time></trkpt><trkpt lat="43.667727" lon="12.6264193"><ele>209.66666666666669</ele><time>2026-04-18T14:54:26.533Z</time></trkpt><trkpt lat="43.6678009" lon="12.6266277"><ele>209.0</ele><time>2026-04-18T14:54:27.533Z</time></trkpt><trkpt lat="43.6678735" lon="12.6268399"><ele>210.33333333333334</ele><time>2026-04-18T14:54:28.534Z</time></trkpt><trkpt lat="43.6679439" lon="12.6270549"><ele>211.66666666666669</ele><time>2026-04-18T14:54:29.533Z</time></trkpt><trkpt lat="43.6680155" lon="12.6272705"><ele>213.0</ele><time>2026-04-18T14:54:30.534Z</time></trkpt><trkpt lat="43.6680913" lon="12.6274847"><ele>213.0</ele><time>2026-04-18T14:54:31.534Z</time></trkpt><trkpt lat="43.6681669" lon="12.6276999"><ele>213.0</ele><time>2026-04-18T14:54:32.535Z</time></trkpt><trkpt lat="43.6682431" lon="12.627914"><ele>213.0</ele><time>2026-04-18T14:54:33.534Z</time></trkpt><trkpt lat="43.6683169" lon="12.628133"><ele>212.0</ele><time>2026-04-18T14:54:34.534Z</time></trkpt><trkpt lat="43.6683936" lon="12.6283532"><ele>211.0</ele><time>2026-04-18T14:54:35.534Z</time></trkpt><trkpt lat="43.6684695" lon="12.6285774"><ele>210.0</ele><time>2026-04-18T14:54:36.534Z</time></trkpt><trkpt lat="43.6685462" lon="12.6288041"><ele>210.0</ele><time>2026-04-18T14:54:37.534Z</time></trkpt><trkpt lat="43.668624" lon="12.629031"><ele>210.0</ele><time>2026-04-18T14:54:38.534Z</time></trkpt><trkpt lat="43.6687025" lon="12.6292594"><ele>210.0</ele><time>2026-04-18T14:54:39.534Z</time></trkpt><trkpt lat="43.6687822" lon="12.6294871"><ele>209.33333333333331</ele><time>2026-04-18T14:54:40.534Z</time></trkpt><trkpt lat="43.668861" lon="12.6297143"><ele>208.66666666666666</ele><time>2026-04-18T14:54:41.534Z</time></trkpt><trkpt lat="43.6689395" lon="12.6299436"><ele>208.0</ele><time>2026-04-18T14:54:42.534Z</time></trkpt><trkpt lat="43.669019" lon="12.6301698"><ele>207.66666666666666</ele><time>2026-04-18T14:54:43.534Z</time></trkpt><trkpt lat="43.6690975" lon="12.6303988"><ele>207.33333333333331</ele><time>2026-04-18T14:54:44.534Z</time></trkpt><trkpt lat="43.6691754" lon="12.6306284"><ele>207.0</ele><time>2026-04-18T14:54:45.534Z</time></trkpt><trkpt lat="43.6692548" lon="12.6308568"><ele>207.0</ele><time>2026-04-18T14:54:46.534Z</time></trkpt><trkpt lat="43.6693321" lon="12.631085"><ele>207.0</ele><time>2026-04-18T14:54:47.534Z</time></trkpt><trkpt lat="43.6694106" lon="12.6313142"><ele>207.0</ele><time>2026-04-18T14:54:48.534Z</time></trkpt><trkpt lat="43.669489" lon="12.6315442"><ele>207.0</ele><time>2026-04-18T14:54:49.533Z</time></trkpt><trkpt lat="43.6695667" lon="12.6317741"><ele>207.0</ele><time>2026-04-18T14:54:50.533Z</time></trkpt><trkpt lat="43.6696468" lon="12.6320018"><ele>207.0</ele><time>2026-04-18T14:54:51.533Z</time></trkpt><trkpt lat="43.6697258" lon="12.6322303"><ele>207.0</ele><time>2026-04-18T14:54:52.536Z</time></trkpt><trkpt lat="43.6698041" lon="12.6324571"><ele>207.0</ele><time>2026-04-18T14:54:53.534Z</time></trkpt><trkpt lat="43.6698803" lon="12.6326818"><ele>207.0</ele><time>2026-04-18T14:54:54.533Z</time></trkpt><trkpt lat="43.6699574" lon="12.632903"><ele>206.33333333333331</ele><time>2026-04-18T14:54:55.535Z</time></trkpt><trkpt lat="43.6700306" lon="12.6331236"><ele>205.66666666666666</ele><time>2026-04-18T14:54:56.533Z</time></trkpt><trkpt lat="43.6701057" lon="12.6333446"><ele>205.0</ele><time>2026-04-18T14:54:57.533Z</time></trkpt><trkpt lat="43.6701826" lon="12.6335677"><ele>204.66666666666666</ele><time>2026-04-18T14:54:58.534Z</time></trkpt><trkpt lat="43.6702603" lon="12.6337898"><ele>204.33333333333331</ele><time>2026-04-18T14:54:59.533Z</time></trkpt><trkpt lat="43.6703394" lon="12.6340125"><ele>204.0</ele><time>2026-04-18T14:55:00.533Z</time></trkpt><trkpt lat="43.6704168" lon="12.6342339"><ele>204.0</ele><time>2026-04-18T14:55:01.542Z</time></trkpt><trkpt lat="43.6704926" lon="12.6344543"><ele>204.0</ele><time>2026-04-18T14:55:02.535Z</time></trkpt><trkpt lat="43.6705702" lon="12.6346742"><ele>204.0</ele><time>2026-04-18T14:55:03.542Z</time></trkpt><trkpt lat="43.6706444" lon="12.6348904"><ele>204.33333333333331</ele><time>2026-04-18T14:55:04.533Z</time></trkpt><trkpt lat="43.6707204" lon="12.6351098"><ele>204.66666666666666</ele><time>2026-04-18T14:55:05.533Z</time></trkpt><trkpt lat="43.6707928" lon="12.6353288"><ele>205.0</ele><time>2026-04-18T14:55:06.533Z</time></trkpt><trkpt lat="43.67087" lon="12.6355498"><ele>204.0</ele><time>2026-04-18T14:55:07.533Z</time></trkpt><trkpt lat="43.6709472" lon="12.6357741"><ele>203.0</ele><time>2026-04-18T14:55:08.533Z</time></trkpt><trkpt lat="43.6710241" lon="12.6359992"><ele>202.0</ele><time>2026-04-18T14:55:09.533Z</time></trkpt><trkpt lat="43.6711032" lon="12.6362254"><ele>203.33333333333331</ele><time>2026-04-18T14:55:10.533Z</time></trkpt><trkpt lat="43.6711806" lon="12.6364507"><ele>204.66666666666669</ele><time>2026-04-18T14:55:11.534Z</time></trkpt><trkpt lat="43.6712549" lon="12.6366733"><ele>206.0</ele><time>2026-04-18T14:55:12.533Z</time></trkpt><trkpt lat="43.6713261" lon="12.636897"><ele>206.0</ele><time>2026-04-18T14:55:13.535Z</time></trkpt><trkpt lat="43.6713995" lon="12.6371188"><ele>206.0</ele><time>2026-04-18T14:55:14.534Z</time></trkpt><trkpt lat="43.6714758" lon="12.6373424"><ele>206.0</ele><time>2026-04-18T14:55:15.534Z</time></trkpt><trkpt lat="43.6715502" lon="12.6375649"><ele>206.0</ele><time>2026-04-18T14:55:16.533Z</time></trkpt><trkpt lat="43.6716286" lon="12.6377858"><ele>206.0</ele><time>2026-04-18T14:55:17.534Z</time></trkpt><trkpt lat="43.671707" lon="12.6380077"><ele>206.0</ele><time>2026-04-18T14:55:18.536Z</time></trkpt><trkpt lat="43.6717843" lon="12.6382317"><ele>205.66666666666669</ele><time>2026-04-18T14:55:19.534Z</time></trkpt><trkpt lat="43.6718601" lon="12.6384589"><ele>205.33333333333331</ele><time>2026-04-18T14:55:20.532Z</time></trkpt><trkpt lat="43.6719365" lon="12.6386845"><ele>205.0</ele><time>2026-04-18T14:55:21.534Z</time></trkpt><trkpt lat="43.6720138" lon="12.6389103"><ele>206.33333333333331</ele><time>2026-04-18T14:55:22.533Z</time></trkpt><trkpt lat="43.6720896" lon="12.6391333"><ele>207.66666666666669</ele><time>2026-04-18T14:55:23.532Z</time></trkpt><trkpt lat="43.6721647" lon="12.6393525"><ele>209.0</ele><time>2026-04-18T14:55:24.534Z</time></trkpt><trkpt lat="43.6722404" lon="12.6395688"><ele>209.0</ele><time>2026-04-18T14:55:25.533Z</time></trkpt><trkpt lat="43.6723107" lon="12.6397833"><ele>209.0</ele><time>2026-04-18T14:55:26.533Z</time></trkpt><trkpt lat="43.6723784" lon="12.6399902"><ele>209.0</ele><time>2026-04-18T14:55:27.535Z</time></trkpt><trkpt lat="43.6724425" lon="12.6401888"><ele>209.0</ele><time>2026-04-18T14:55:28.534Z</time></trkpt><trkpt lat="43.6725034" lon="12.6403783"><ele>209.0</ele><time>2026-04-18T14:55:29.534Z</time></trkpt><trkpt lat="43.6725655" lon="12.6405629"><ele>209.0</ele><time>2026-04-18T14:55:30.534Z</time></trkpt><trkpt lat="43.6726306" lon="12.6407501"><ele>209.0</ele><time>2026-04-18T14:55:31.535Z</time></trkpt><trkpt lat="43.6726885" lon="12.6409399"><ele>209.0</ele><time>2026-04-18T14:55:32.535Z</time></trkpt><trkpt lat="43.6727474" lon="12.6411254"><ele>209.0</ele><time>2026-04-18T14:55:33.533Z</time></trkpt><trkpt lat="43.6728075" lon="12.6413125"><ele>209.0</ele><time>2026-04-18T14:55:34.533Z</time></trkpt><trkpt lat="43.6728676" lon="12.6414957"><ele>209.0</ele><time>2026-04-18T14:55:35.533Z</time></trkpt><trkpt lat="43.6729266" lon="12.6416788"><ele>210.0</ele><time>2026-04-18T14:55:36.533Z</time></trkpt><trkpt lat="43.6729903" lon="12.6418564"><ele>211.0</ele><time>2026-04-18T14:55:37.533Z</time></trkpt><trkpt lat="43.6730519" lon="12.642025"><ele>212.0</ele><time>2026-04-18T14:55:38.533Z</time></trkpt><trkpt lat="43.6731135" lon="12.6421826"><ele>213.0</ele><time>2026-04-18T14:55:39.533Z</time></trkpt><trkpt lat="43.6731764" lon="12.6423309"><ele>213.0</ele><time>2026-04-18T14:55:40.533Z</time></trkpt><trkpt lat="43.6732366" lon="12.6424712"><ele>213.0</ele><time>2026-04-18T14:55:41.533Z</time></trkpt><trkpt lat="43.6732957" lon="12.6426081"><ele>213.0</ele><time>2026-04-18T14:55:42.532Z</time></trkpt><trkpt lat="43.6733543" lon="12.6427485"><ele>213.0</ele><time>2026-04-18T14:55:43.533Z</time></trkpt><trkpt lat="43.6734062" lon="12.6429026"><ele>210.0</ele><time>2026-04-18T14:55:44.534Z</time></trkpt><trkpt lat="43.6734399" lon="12.6430694"><ele>207.0</ele><time>2026-04-18T14:55:45.533Z</time></trkpt><trkpt lat="43.6734464" lon="12.6432505"><ele>204.0</ele><time>2026-04-18T14:55:46.533Z</time></trkpt><trkpt lat="43.6734297" lon="12.6434377"><ele>201.0</ele><time>2026-04-18T14:55:47.533Z</time></trkpt><trkpt lat="43.6734014" lon="12.643621"><ele>199.5</ele><time>2026-04-18T14:55:48.533Z</time></trkpt><trkpt lat="43.6733694" lon="12.6437947"><ele>198.0</ele><time>2026-04-18T14:55:49.531Z</time></trkpt><trkpt lat="43.6733395" lon="12.6439628"><ele>196.5</ele><time>2026-04-18T14:55:50.533Z</time></trkpt><trkpt lat="43.6733179" lon="12.6441219"><ele>195.0</ele><time>2026-04-18T14:55:51.532Z</time></trkpt><trkpt lat="43.6732991" lon="12.6442636"><ele>195.0</ele><time>2026-04-18T14:55:52.533Z</time></trkpt><trkpt lat="43.6732824" lon="12.6443792"><ele>195.0</ele><time>2026-04-18T14:55:53.533Z</time></trkpt><trkpt lat="43.6732671" lon="12.6444761"><ele>195.0</ele><time>2026-04-18T14:55:54.532Z</time></trkpt><trkpt lat="43.673243" lon="12.6446169"><ele>195.0</ele><time>2026-04-18T14:55:56.533Z</time></trkpt><trkpt lat="43.6732258" lon="12.6447094"><ele>195.0</ele><time>2026-04-18T14:55:58.533Z</time></trkpt><trkpt lat="43.6732116" lon="12.6448043"><ele>195.0</ele><time>2026-04-18T14:56:00.533Z</time></trkpt><trkpt lat="43.6731775" lon="12.644943"><ele>195.4</ele><time>2026-04-18T14:56:17.531Z</time></trkpt><trkpt lat="43.6731694" lon="12.6450375"><ele>195.8</ele><time>2026-04-18T14:56:18.532Z</time></trkpt><trkpt lat="43.6731553" lon="12.6451727"><ele>196.2</ele><time>2026-04-18T14:56:19.532Z</time></trkpt><trkpt lat="43.6731389" lon="12.6453344"><ele>196.6</ele><time>2026-04-18T14:56:20.532Z</time></trkpt><trkpt lat="43.6731256" lon="12.6455031"><ele>197.0</ele><time>2026-04-18T14:56:21.531Z</time></trkpt><trkpt lat="43.6731123" lon="12.645678"><ele>197.75</ele><time>2026-04-18T14:56:22.531Z</time></trkpt><trkpt lat="43.6731019" lon="12.6458611"><ele>198.5</ele><time>2026-04-18T14:56:23.532Z</time></trkpt><trkpt lat="43.6730964" lon="12.6460469"><ele>199.25</ele><time>2026-04-18T14:56:24.532Z</time></trkpt><trkpt lat="43.6730946" lon="12.6462406"><ele>200.0</ele><time>2026-04-18T14:56:25.532Z</time></trkpt><trkpt lat="43.6730918" lon="12.6464367"><ele>200.0</ele><time>2026-04-18T14:56:26.532Z</time></trkpt><trkpt lat="43.6730883" lon="12.6466379"><ele>200.0</ele><time>2026-04-18T14:56:27.532Z</time></trkpt><trkpt lat="43.6730809" lon="12.6468376"><ele>200.0</ele><time>2026-04-18T14:56:28.532Z</time></trkpt><trkpt lat="43.6730749" lon="12.6470239"><ele>200.0</ele><time>2026-04-18T14:56:29.532Z</time></trkpt><trkpt lat="43.6730714" lon="12.6471976"><ele>201.0</ele><time>2026-04-18T14:56:30.532Z</time></trkpt><trkpt lat="43.6730779" lon="12.6473639"><ele>202.0</ele><time>2026-04-18T14:56:31.532Z</time></trkpt><trkpt lat="43.6730963" lon="12.6475181"><ele>203.0</ele><time>2026-04-18T14:56:32.533Z</time></trkpt><trkpt lat="43.6731463" lon="12.6476523"><ele>204.0</ele><time>2026-04-18T14:56:33.532Z</time></trkpt><trkpt lat="43.6732174" lon="12.6477654"><ele>205.0</ele><time>2026-04-18T14:56:34.532Z</time></trkpt><trkpt lat="43.673318" lon="12.6478326"><ele>206.0</ele><time>2026-04-18T14:56:35.533Z</time></trkpt><trkpt lat="43.6734349" lon="12.6478646"><ele>207.0</ele><time>2026-04-18T14:56:36.532Z</time></trkpt><trkpt lat="43.673557" lon="12.6478748"><ele>208.0</ele><time>2026-04-18T14:56:37.538Z</time></trkpt><trkpt lat="43.6736852" lon="12.647877"><ele>208.0</ele><time>2026-04-18T14:56:38.532Z</time></trkpt><trkpt lat="43.6738201" lon="12.6478863"><ele>208.0</ele><time>2026-04-18T14:56:39.532Z</time></trkpt><trkpt lat="43.6739588" lon="12.647904"><ele>208.0</ele><time>2026-04-18T14:56:40.532Z</time></trkpt><trkpt lat="43.6740958" lon="12.6479316"><ele>208.0</ele><time>2026-04-18T14:56:41.532Z</time></trkpt><trkpt lat="43.6742306" lon="12.6479632"><ele>208.0</ele><time>2026-04-18T14:56:42.532Z</time></trkpt><trkpt lat="43.6743648" lon="12.6479898"><ele>208.0</ele><time>2026-04-18T14:56:43.533Z</time></trkpt><trkpt lat="43.6744961" lon="12.6480164"><ele>208.0</ele><time>2026-04-18T14:56:44.532Z</time></trkpt><trkpt lat="43.6746307" lon="12.6480423"><ele>208.0</ele><time>2026-04-18T14:56:45.533Z</time></trkpt><trkpt lat="43.6747772" lon="12.6480682"><ele>206.33333333333331</ele><time>2026-04-18T14:56:46.532Z</time></trkpt><trkpt lat="43.6749267" lon="12.6480963"><ele>204.66666666666669</ele><time>2026-04-18T14:56:47.533Z</time></trkpt><trkpt lat="43.6750764" lon="12.6481273"><ele>203.0</ele><time>2026-04-18T14:56:48.533Z</time></trkpt><trkpt lat="43.6752302" lon="12.648163"><ele>200.66666666666669</ele><time>2026-04-18T14:56:49.532Z</time></trkpt><trkpt lat="43.6753868" lon="12.6482035"><ele>198.33333333333331</ele><time>2026-04-18T14:56:50.533Z</time></trkpt><trkpt lat="43.6755483" lon="12.6482411"><ele>196.0</ele><time>2026-04-18T14:56:51.532Z</time></trkpt><trkpt lat="43.6757093" lon="12.6482728"><ele>196.0</ele><time>2026-04-18T14:56:52.532Z</time></trkpt><trkpt lat="43.6758674" lon="12.6482936"><ele>196.0</ele><time>2026-04-18T14:56:53.533Z</time></trkpt><trkpt lat="43.6760347" lon="12.6483163"><ele>196.0</ele><time>2026-04-18T14:56:54.533Z</time></trkpt><trkpt lat="43.6762028" lon="12.6483239"><ele>196.33333333333331</ele><time>2026-04-18T14:56:55.532Z</time></trkpt><trkpt lat="43.6763631" lon="12.6483028"><ele>196.66666666666669</ele><time>2026-04-18T14:56:56.532Z</time></trkpt><trkpt lat="43.6765198" lon="12.6482517"><ele>197.0</ele><time>2026-04-18T14:56:57.533Z</time></trkpt><trkpt lat="43.6766624" lon="12.6481711"><ele>197.0</ele><time>2026-04-18T14:56:58.533Z</time></trkpt><trkpt lat="43.6767983" lon="12.6480853"><ele>197.0</ele><time>2026-04-18T14:56:59.532Z</time></trkpt><trkpt lat="43.6769318" lon="12.647989"><ele>197.0</ele><time>2026-04-18T14:57:00.534Z</time></trkpt><trkpt lat="43.6770642" lon="12.6478899"><ele>195.66666666666669</ele><time>2026-04-18T14:57:01.532Z</time></trkpt><trkpt lat="43.6771984" lon="12.647793"><ele>194.33333333333331</ele><time>2026-04-18T14:57:02.533Z</time></trkpt><trkpt lat="43.6773336" lon="12.6476934"><ele>193.0</ele><time>2026-04-18T14:57:03.538Z</time></trkpt><trkpt lat="43.6774701" lon="12.6475963"><ele>193.0</ele><time>2026-04-18T14:57:04.533Z</time></trkpt><trkpt lat="43.6776082" lon="12.6474978"><ele>193.0</ele><time>2026-04-18T14:57:05.532Z</time></trkpt><trkpt lat="43.6777457" lon="12.6473973"><ele>193.0</ele><time>2026-04-18T14:57:06.532Z</time></trkpt><trkpt lat="43.6778853" lon="12.6472992"><ele>196.0</ele><time>2026-04-18T14:57:07.532Z</time></trkpt><trkpt lat="43.6780257" lon="12.6472061"><ele>199.0</ele><time>2026-04-18T14:57:08.532Z</time></trkpt><trkpt lat="43.6781645" lon="12.6471244"><ele>202.0</ele><time>2026-04-18T14:57:09.533Z</time></trkpt><trkpt lat="43.6783041" lon="12.6470637"><ele>202.0</ele><time>2026-04-18T14:57:10.534Z</time></trkpt><trkpt lat="43.678444" lon="12.6470338"><ele>202.0</ele><time>2026-04-18T14:57:11.534Z</time></trkpt><trkpt lat="43.6785804" lon="12.6470258"><ele>202.0</ele><time>2026-04-18T14:57:12.532Z</time></trkpt><trkpt lat="43.6787192" lon="12.6470398"><ele>202.0</ele><time>2026-04-18T14:57:13.532Z</time></trkpt><trkpt lat="43.6788561" lon="12.6470755"><ele>201.0</ele><time>2026-04-18T14:57:14.533Z</time></trkpt><trkpt lat="43.6789877" lon="12.647133"><ele>200.0</ele><time>2026-04-18T14:57:15.547Z</time></trkpt><trkpt lat="43.6791105" lon="12.6471991"><ele>199.0</ele><time>2026-04-18T14:57:16.538Z</time></trkpt><trkpt lat="43.6792232" lon="12.6472622"><ele>198.0</ele><time>2026-04-18T14:57:17.533Z</time></trkpt><trkpt lat="43.6793284" lon="12.6473202"><ele>198.0</ele><time>2026-04-18T14:57:18.533Z</time></trkpt><trkpt lat="43.6794289" lon="12.6473734"><ele>198.0</ele><time>2026-04-18T14:57:19.534Z</time></trkpt><trkpt lat="43.6795344" lon="12.6474281"><ele>198.0</ele><time>2026-04-18T14:57:20.532Z</time></trkpt><trkpt lat="43.6796479" lon="12.6474743"><ele>198.0</ele><time>2026-04-18T14:57:21.532Z</time></trkpt><trkpt lat="43.6797686" lon="12.6475004"><ele>196.25</ele><time>2026-04-18T14:57:22.532Z</time></trkpt><trkpt lat="43.6798883" lon="12.6475087"><ele>194.5</ele><time>2026-04-18T14:57:23.543Z</time></trkpt><trkpt lat="43.680005" lon="12.647511"><ele>192.75</ele><time>2026-04-18T14:57:24.536Z</time></trkpt><trkpt lat="43.680119" lon="12.6474987"><ele>191.0</ele><time>2026-04-18T14:57:25.533Z</time></trkpt><trkpt lat="43.6802292" lon="12.6474814"><ele>191.20000000000002</ele><time>2026-04-18T14:57:26.532Z</time></trkpt><trkpt lat="43.6803363" lon="12.6474648"><ele>191.4</ele><time>2026-04-18T14:57:27.532Z</time></trkpt><trkpt lat="43.6804438" lon="12.6474532"><ele>191.6</ele><time>2026-04-18T14:57:28.531Z</time></trkpt><trkpt lat="43.6805502" lon="12.6474457"><ele>191.8</ele><time>2026-04-18T14:57:29.532Z</time></trkpt><trkpt lat="43.6806571" lon="12.6474443"><ele>192.0</ele><time>2026-04-18T14:57:30.532Z</time></trkpt><trkpt lat="43.6807679" lon="12.6474516"><ele>192.0</ele><time>2026-04-18T14:57:31.531Z</time></trkpt><trkpt lat="43.680875" lon="12.6474802"><ele>192.0</ele><time>2026-04-18T14:57:32.532Z</time></trkpt><trkpt lat="43.68097" lon="12.6475221"><ele>192.0</ele><time>2026-04-18T14:57:33.533Z</time></trkpt><trkpt lat="43.6810584" lon="12.6475698"><ele>192.0</ele><time>2026-04-18T14:57:34.532Z</time></trkpt><trkpt lat="43.6811461" lon="12.6476245"><ele>192.0</ele><time>2026-04-18T14:57:35.533Z</time></trkpt><trkpt lat="43.6812359" lon="12.6476902"><ele>192.75</ele><time>2026-04-18T14:57:36.532Z</time></trkpt><trkpt lat="43.6813357" lon="12.6477718"><ele>193.5</ele><time>2026-04-18T14:57:37.531Z</time></trkpt><trkpt lat="43.6814444" lon="12.6478605"><ele>194.25</ele><time>2026-04-18T14:57:38.533Z</time></trkpt><trkpt lat="43.6815539" lon="12.6479687"><ele>195.0</ele><time>2026-04-18T14:57:39.532Z</time></trkpt><trkpt lat="43.6816675" lon="12.648082"><ele>194.0</ele><time>2026-04-18T14:57:40.531Z</time></trkpt><trkpt lat="43.6817874" lon="12.6481914"><ele>193.0</ele><time>2026-04-18T14:57:41.532Z</time></trkpt><trkpt lat="43.6819129" lon="12.6482967"><ele>192.0</ele><time>2026-04-18T14:57:42.532Z</time></trkpt><trkpt lat="43.6820386" lon="12.6484021"><ele>191.0</ele><time>2026-04-18T14:57:43.532Z</time></trkpt><trkpt lat="43.6821664" lon="12.6485076"><ele>191.0</ele><time>2026-04-18T14:57:44.532Z</time></trkpt><trkpt lat="43.6822949" lon="12.648613"><ele>191.0</ele><time>2026-04-18T14:57:45.532Z</time></trkpt><trkpt lat="43.682422" lon="12.6487185"><ele>191.0</ele><time>2026-04-18T14:57:46.531Z</time></trkpt><trkpt lat="43.6825518" lon="12.648826"><ele>191.0</ele><time>2026-04-18T14:57:47.532Z</time></trkpt><trkpt lat="43.6826891" lon="12.6489297"><ele>190.0</ele><time>2026-04-18T14:57:48.532Z</time></trkpt><trkpt lat="43.6828336" lon="12.6490204"><ele>189.0</ele><time>2026-04-18T14:57:49.532Z</time></trkpt><trkpt lat="43.682986" lon="12.6490949"><ele>188.0</ele><time>2026-04-18T14:57:50.532Z</time></trkpt><trkpt lat="43.6831411" lon="12.6491511"><ele>188.0</ele><time>2026-04-18T14:57:51.532Z</time></trkpt><trkpt lat="43.68329" lon="12.6491902"><ele>188.0</ele><time>2026-04-18T14:57:52.532Z</time></trkpt><trkpt lat="43.6834395" lon="12.6492162"><ele>188.0</ele><time>2026-04-18T14:57:53.532Z</time></trkpt><trkpt lat="43.6835887" lon="12.6492366"><ele>187.66666666666666</ele><time>2026-04-18T14:57:54.532Z</time></trkpt><trkpt lat="43.6837426" lon="12.6492553"><ele>187.33333333333334</ele><time>2026-04-18T14:57:55.532Z</time></trkpt><trkpt lat="43.6838964" lon="12.6492724"><ele>187.0</ele><time>2026-04-18T14:57:56.532Z</time></trkpt><trkpt lat="43.68405" lon="12.6492916"><ele>187.0</ele><time>2026-04-18T14:57:57.532Z</time></trkpt><trkpt lat="43.6842047" lon="12.6493125"><ele>187.0</ele><time>2026-04-18T14:57:58.531Z</time></trkpt><trkpt lat="43.6843623" lon="12.6493327"><ele>187.0</ele><time>2026-04-18T14:57:59.532Z</time></trkpt><trkpt lat="43.6845195" lon="12.6493531"><ele>186.0</ele><time>2026-04-18T14:58:00.532Z</time></trkpt><trkpt lat="43.6846776" lon="12.6493774"><ele>185.0</ele><time>2026-04-18T14:58:01.531Z</time></trkpt><trkpt lat="43.6848384" lon="12.6493975"><ele>184.0</ele><time>2026-04-18T14:58:02.532Z</time></trkpt><trkpt lat="43.6849997" lon="12.6494188"><ele>184.0</ele><time>2026-04-18T14:58:03.581Z</time></trkpt><trkpt lat="43.685159" lon="12.6494372"><ele>184.0</ele><time>2026-04-18T14:58:04.534Z</time></trkpt><trkpt lat="43.6853253" lon="12.6494609"><ele>184.0</ele><time>2026-04-18T14:58:05.532Z</time></trkpt><trkpt lat="43.6854948" lon="12.6494873"><ele>181.33333333333334</ele><time>2026-04-18T14:58:06.532Z</time></trkpt><trkpt lat="43.6856645" lon="12.6495129"><ele>178.66666666666666</ele><time>2026-04-18T14:58:07.532Z</time></trkpt><trkpt lat="43.6858395" lon="12.6495378"><ele>176.0</ele><time>2026-04-18T14:58:08.532Z</time></trkpt><trkpt lat="43.6860111" lon="12.6495622"><ele>176.33333333333331</ele><time>2026-04-18T14:58:09.534Z</time></trkpt><trkpt lat="43.686179" lon="12.6495825"><ele>176.66666666666666</ele><time>2026-04-18T14:58:10.533Z</time></trkpt><trkpt lat="43.6863497" lon="12.6496055"><ele>177.0</ele><time>2026-04-18T14:58:11.533Z</time></trkpt><trkpt lat="43.6865161" lon="12.64963"><ele>177.0</ele><time>2026-04-18T14:58:12.533Z</time></trkpt><trkpt lat="43.6866825" lon="12.6496525"><ele>177.0</ele><time>2026-04-18T14:58:13.532Z</time></trkpt><trkpt lat="43.6868491" lon="12.6496791"><ele>177.0</ele><time>2026-04-18T14:58:14.533Z</time></trkpt><trkpt lat="43.6870143" lon="12.6497094"><ele>177.33333333333334</ele><time>2026-04-18T14:58:15.532Z</time></trkpt><trkpt lat="43.687175" lon="12.6497327"><ele>177.66666666666669</ele><time>2026-04-18T14:58:16.532Z</time></trkpt><trkpt lat="43.6873362" lon="12.6497489"><ele>178.0</ele><time>2026-04-18T14:58:17.534Z</time></trkpt><trkpt lat="43.6874963" lon="12.6497688"><ele>178.0</ele><time>2026-04-18T14:58:18.535Z</time></trkpt><trkpt lat="43.6876546" lon="12.6497898"><ele>178.0</ele><time>2026-04-18T14:58:19.532Z</time></trkpt><trkpt lat="43.6878142" lon="12.6498091"><ele>178.0</ele><time>2026-04-18T14:58:20.534Z</time></trkpt><trkpt lat="43.6879713" lon="12.649833"><ele>178.66666666666669</ele><time>2026-04-18T14:58:21.532Z</time></trkpt><trkpt lat="43.6881291" lon="12.649859"><ele>179.33333333333334</ele><time>2026-04-18T14:58:22.534Z</time></trkpt><trkpt lat="43.6882841" lon="12.6498779"><ele>180.0</ele><time>2026-04-18T14:58:23.532Z</time></trkpt><trkpt lat="43.688438" lon="12.6498973"><ele>181.66666666666666</ele><time>2026-04-18T14:58:24.533Z</time></trkpt><trkpt lat="43.6885941" lon="12.64992"><ele>183.33333333333331</ele><time>2026-04-18T14:58:25.532Z</time></trkpt><trkpt lat="43.6887547" lon="12.6499449"><ele>185.0</ele><time>2026-04-18T14:58:26.531Z</time></trkpt><trkpt lat="43.6889165" lon="12.6499697"><ele>185.0</ele><time>2026-04-18T14:58:27.533Z</time></trkpt><trkpt lat="43.6890787" lon="12.6500067"><ele>185.0</ele><time>2026-04-18T14:58:28.545Z</time></trkpt><trkpt lat="43.6892373" lon="12.6500682"><ele>185.0</ele><time>2026-04-18T14:58:29.541Z</time></trkpt><trkpt lat="43.6893924" lon="12.6501534"><ele>185.33333333333331</ele><time>2026-04-18T14:58:30.533Z</time></trkpt><trkpt lat="43.6895471" lon="12.6502594"><ele>185.66666666666666</ele><time>2026-04-18T14:58:31.533Z</time></trkpt><trkpt lat="43.6896972" lon="12.6503841"><ele>186.0</ele><time>2026-04-18T14:58:32.533Z</time></trkpt><trkpt lat="43.6898373" lon="12.6505287"><ele>186.0</ele><time>2026-04-18T14:58:33.533Z</time></trkpt><trkpt lat="43.689965" lon="12.6506916"><ele>186.0</ele><time>2026-04-18T14:58:34.533Z</time></trkpt><trkpt lat="43.6900722" lon="12.6508652"><ele>186.0</ele><time>2026-04-18T14:58:35.531Z</time></trkpt><trkpt lat="43.6901661" lon="12.6510343"><ele>186.5</ele><time>2026-04-18T14:58:36.531Z</time></trkpt><trkpt lat="43.6902387" lon="12.6512046"><ele>187.0</ele><time>2026-04-18T14:58:37.531Z</time></trkpt><trkpt lat="43.6902981" lon="12.6513789"><ele>187.5</ele><time>2026-04-18T14:58:38.53Z</time></trkpt><trkpt lat="43.6903255" lon="12.651562"><ele>188.0</ele><time>2026-04-18T14:58:39.53Z</time></trkpt><trkpt lat="43.6903482" lon="12.6517509"><ele>188.0</ele><time>2026-04-18T14:58:40.53Z</time></trkpt><trkpt lat="43.6903692" lon="12.6519377"><ele>188.0</ele><time>2026-04-18T14:58:41.53Z</time></trkpt><trkpt lat="43.6903907" lon="12.6521231"><ele>188.0</ele><time>2026-04-18T14:58:42.531Z</time></trkpt><trkpt lat="43.6904215" lon="12.6523057"><ele>188.0</ele><time>2026-04-18T14:58:43.531Z</time></trkpt><trkpt lat="43.6904505" lon="12.6524877"><ele>188.0</ele><time>2026-04-18T14:58:44.531Z</time></trkpt><trkpt lat="43.6904803" lon="12.6526668"><ele>188.0</ele><time>2026-04-18T14:58:45.529Z</time></trkpt><trkpt lat="43.6905144" lon="12.6528422"><ele>188.0</ele><time>2026-04-18T14:58:46.532Z</time></trkpt><trkpt lat="43.6905522" lon="12.6530126"><ele>188.0</ele><time>2026-04-18T14:58:47.531Z</time></trkpt><trkpt lat="43.6905932" lon="12.6531736"><ele>187.25</ele><time>2026-04-18T14:58:48.531Z</time></trkpt><trkpt lat="43.6906398" lon="12.6533278"><ele>186.5</ele><time>2026-04-18T14:58:49.531Z</time></trkpt><trkpt lat="43.6906956" lon="12.6534912"><ele>185.75</ele><time>2026-04-18T14:58:50.531Z</time></trkpt><trkpt lat="43.6907617" lon="12.6536813"><ele>185.0</ele><time>2026-04-18T14:58:51.53Z</time></trkpt><trkpt lat="43.6908479" lon="12.6538966"><ele>185.0</ele><time>2026-04-18T14:58:52.531Z</time></trkpt><trkpt lat="43.6909587" lon="12.6541237"><ele>185.0</ele><time>2026-04-18T14:58:53.531Z</time></trkpt><trkpt lat="43.691093" lon="12.6543568"><ele>185.0</ele><time>2026-04-18T14:58:54.531Z</time></trkpt><trkpt lat="43.6912383" lon="12.6545925"><ele>185.0</ele><time>2026-04-18T14:58:55.532Z</time></trkpt><trkpt lat="43.6913924" lon="12.6548236"><ele>185.0</ele><time>2026-04-18T14:58:56.531Z</time></trkpt><trkpt lat="43.6915501" lon="12.6550566"><ele>182.5</ele><time>2026-04-18T14:58:57.53Z</time></trkpt><trkpt lat="43.6917145" lon="12.6553051"><ele>180.0</ele><time>2026-04-18T14:58:58.53Z</time></trkpt><trkpt lat="43.6918834" lon="12.6555607"><ele>183.0</ele><time>2026-04-18T14:58:59.531Z</time></trkpt><trkpt lat="43.6920525" lon="12.655812"><ele>186.0</ele><time>2026-04-18T14:59:00.531Z</time></trkpt><trkpt lat="43.6922235" lon="12.6560495"><ele>184.0</ele><time>2026-04-18T14:59:01.531Z</time></trkpt><trkpt lat="43.6923895" lon="12.656281"><ele>182.0</ele><time>2026-04-18T14:59:02.531Z</time></trkpt><trkpt lat="43.6925448" lon="12.6565119"><ele>182.0</ele><time>2026-04-18T14:59:03.53Z</time></trkpt><trkpt lat="43.6926908" lon="12.656747"><ele>182.0</ele><time>2026-04-18T14:59:04.53Z</time></trkpt><trkpt lat="43.6928323" lon="12.6569783"><ele>182.0</ele><time>2026-04-18T14:59:05.531Z</time></trkpt><trkpt lat="43.6929721" lon="12.6572061"><ele>182.33333333333331</ele><time>2026-04-18T14:59:06.531Z</time></trkpt><trkpt lat="43.6931063" lon="12.6574412"><ele>182.66666666666666</ele><time>2026-04-18T14:59:07.53Z</time></trkpt><trkpt lat="43.6932307" lon="12.6576996"><ele>183.0</ele><time>2026-04-18T14:59:08.531Z</time></trkpt><trkpt lat="43.6933483" lon="12.6579869"><ele>183.0</ele><time>2026-04-18T14:59:09.53Z</time></trkpt><trkpt lat="43.6934523" lon="12.6582967"><ele>183.0</ele><time>2026-04-18T14:59:10.531Z</time></trkpt><trkpt lat="43.6935529" lon="12.6586043"><ele>185.5</ele><time>2026-04-18T14:59:11.53Z</time></trkpt><trkpt lat="43.6936524" lon="12.6589083"><ele>188.0</ele><time>2026-04-18T14:59:12.531Z</time></trkpt><trkpt lat="43.6937543" lon="12.6592026"><ele>187.5</ele><time>2026-04-18T14:59:13.529Z</time></trkpt><trkpt lat="43.6938603" lon="12.6594861"><ele>187.0</ele><time>2026-04-18T14:59:14.53Z</time></trkpt><trkpt lat="43.6939773" lon="12.6597585"><ele>187.0</ele><time>2026-04-18T14:59:15.531Z</time></trkpt><trkpt lat="43.6941061" lon="12.6600207"><ele>187.0</ele><time>2026-04-18T14:59:16.53Z</time></trkpt><trkpt lat="43.6942447" lon="12.6602819"><ele>186.0</ele><time>2026-04-18T14:59:17.53Z</time></trkpt><trkpt lat="43.6943939" lon="12.6605493"><ele>185.0</ele><time>2026-04-18T14:59:18.531Z</time></trkpt><trkpt lat="43.694545" lon="12.6608153"><ele>185.0</ele><time>2026-04-18T14:59:19.53Z</time></trkpt><trkpt lat="43.6946944" lon="12.6610743"><ele>185.0</ele><time>2026-04-18T14:59:20.531Z</time></trkpt><trkpt lat="43.6948403" lon="12.661324"><ele>184.0</ele><time>2026-04-18T14:59:21.529Z</time></trkpt><trkpt lat="43.6949799" lon="12.6615687"><ele>183.0</ele><time>2026-04-18T14:59:22.53Z</time></trkpt><trkpt lat="43.6951137" lon="12.6618059"><ele>182.0</ele><time>2026-04-18T14:59:23.531Z</time></trkpt><trkpt lat="43.695243" lon="12.6620362"><ele>183.0</ele><time>2026-04-18T14:59:24.53Z</time></trkpt><trkpt lat="43.6953683" lon="12.6622596"><ele>184.0</ele><time>2026-04-18T14:59:25.532Z</time></trkpt><trkpt lat="43.6954929" lon="12.6624746"><ele>185.0</ele><time>2026-04-18T14:59:26.53Z</time></trkpt><trkpt lat="43.6956183" lon="12.6626805"><ele>185.0</ele><time>2026-04-18T14:59:27.53Z</time></trkpt><trkpt lat="43.6957582" lon="12.6628541"><ele>185.0</ele><time>2026-04-18T14:59:28.531Z</time></trkpt><trkpt lat="43.6959214" lon="12.6629768"><ele>185.0</ele><time>2026-04-18T14:59:29.532Z</time></trkpt><trkpt lat="43.6960991" lon="12.6630523"><ele>185.33333333333331</ele><time>2026-04-18T14:59:30.53Z</time></trkpt><trkpt lat="43.6962929" lon="12.6630725"><ele>185.66666666666666</ele><time>2026-04-18T14:59:31.535Z</time></trkpt><trkpt lat="43.6964988" lon="12.6630381"><ele>186.0</ele><time>2026-04-18T14:59:32.533Z</time></trkpt><trkpt lat="43.6967105" lon="12.6629488"><ele>186.0</ele><time>2026-04-18T14:59:33.531Z</time></trkpt><trkpt lat="43.6969117" lon="12.6628232"><ele>186.0</ele><time>2026-04-18T14:59:34.53Z</time></trkpt><trkpt lat="43.6970975" lon="12.6626963"><ele>186.0</ele><time>2026-04-18T14:59:35.531Z</time></trkpt><trkpt lat="43.6972747" lon="12.662576"><ele>186.66666666666666</ele><time>2026-04-18T14:59:36.53Z</time></trkpt><trkpt lat="43.6974367" lon="12.6624722"><ele>187.33333333333331</ele><time>2026-04-18T14:59:37.53Z</time></trkpt><trkpt lat="43.6975959" lon="12.6623745"><ele>188.0</ele><time>2026-04-18T14:59:38.53Z</time></trkpt><trkpt lat="43.6977588" lon="12.6622776"><ele>188.33333333333331</ele><time>2026-04-18T14:59:39.53Z</time></trkpt><trkpt lat="43.6979174" lon="12.662186"><ele>188.66666666666666</ele><time>2026-04-18T14:59:40.532Z</time></trkpt><trkpt lat="43.6980711" lon="12.6620952"><ele>189.0</ele><time>2026-04-18T14:59:41.531Z</time></trkpt><trkpt lat="43.6982199" lon="12.6620062"><ele>189.75</ele><time>2026-04-18T14:59:42.532Z</time></trkpt><trkpt lat="43.698362" lon="12.661921"><ele>190.5</ele><time>2026-04-18T14:59:43.529Z</time></trkpt><trkpt lat="43.6984961" lon="12.6618415"><ele>191.25</ele><time>2026-04-18T14:59:44.531Z</time></trkpt><trkpt lat="43.698623" lon="12.6617681"><ele>192.0</ele><time>2026-04-18T14:59:45.53Z</time></trkpt><trkpt lat="43.698747" lon="12.6616995"><ele>192.2</ele><time>2026-04-18T14:59:46.53Z</time></trkpt><trkpt lat="43.6988627" lon="12.6616371"><ele>192.39999999999998</ele><time>2026-04-18T14:59:47.53Z</time></trkpt><trkpt lat="43.6989696" lon="12.661575"><ele>192.60000000000002</ele><time>2026-04-18T14:59:48.531Z</time></trkpt><trkpt lat="43.6990674" lon="12.6615224"><ele>192.8</ele><time>2026-04-18T14:59:49.53Z</time></trkpt><trkpt lat="43.6991583" lon="12.6614942"><ele>193.0</ele><time>2026-04-18T14:59:50.53Z</time></trkpt><trkpt lat="43.69925" lon="12.6614948"><ele>193.0</ele><time>2026-04-18T14:59:51.53Z</time></trkpt><trkpt lat="43.6993376" lon="12.6615317"><ele>193.0</ele><time>2026-04-18T14:59:52.531Z</time></trkpt><trkpt lat="43.699417" lon="12.6616163"><ele>193.0</ele><time>2026-04-18T14:59:53.531Z</time></trkpt><trkpt lat="43.6994788" lon="12.6617379"><ele>193.0</ele><time>2026-04-18T14:59:54.53Z</time></trkpt><trkpt lat="43.699519" lon="12.6618867"><ele>193.0</ele><time>2026-04-18T14:59:55.53Z</time></trkpt><trkpt lat="43.6995415" lon="12.6620544"><ele>194.0</ele><time>2026-04-18T14:59:56.532Z</time></trkpt><trkpt lat="43.6995564" lon="12.6622225"><ele>195.0</ele><time>2026-04-18T14:59:57.53Z</time></trkpt><trkpt lat="43.6995753" lon="12.6623765"><ele>196.0</ele><time>2026-04-18T14:59:58.532Z</time></trkpt><trkpt lat="43.6996028" lon="12.6625116"><ele>197.0</ele><time>2026-04-18T14:59:59.531Z</time></trkpt><trkpt lat="43.6996324" lon="12.6626319"><ele>198.0</ele><time>2026-04-18T15:00:00.53Z</time></trkpt><trkpt lat="43.6996649" lon="12.6627355"><ele>196.66666666666666</ele><time>2026-04-18T15:00:01.531Z</time></trkpt><trkpt lat="43.6996939" lon="12.6628353"><ele>195.33333333333334</ele><time>2026-04-18T15:00:02.531Z</time></trkpt><trkpt lat="43.6997164" lon="12.662933"><ele>194.0</ele><time>2026-04-18T15:00:03.532Z</time></trkpt><trkpt lat="43.6997281" lon="12.6630366"><ele>192.66666666666669</ele><time>2026-04-18T15:00:04.53Z</time></trkpt><trkpt lat="43.69972" lon="12.6631557"><ele>191.33333333333334</ele><time>2026-04-18T15:00:05.531Z</time></trkpt><trkpt lat="43.6996999" lon="12.6632873"><ele>190.0</ele><time>2026-04-18T15:00:06.532Z</time></trkpt><trkpt lat="43.6997011" lon="12.6634114"><ele>190.0</ele><time>2026-04-18T15:00:07.531Z</time></trkpt><trkpt lat="43.6997325" lon="12.6635238"><ele>190.0</ele><time>2026-04-18T15:00:08.53Z</time></trkpt><trkpt lat="43.6997913" lon="12.6636013"><ele>190.0</ele><time>2026-04-18T15:00:09.531Z</time></trkpt><trkpt lat="43.6998846" lon="12.6636238"><ele>190.0</ele><time>2026-04-18T15:00:10.529Z</time></trkpt><trkpt lat="43.6999927" lon="12.6635907"><ele>190.0</ele><time>2026-04-18T15:00:11.532Z</time></trkpt><trkpt lat="43.7000873" lon="12.663501"><ele>190.0</ele><time>2026-04-18T15:00:12.529Z</time></trkpt><trkpt lat="43.7001696" lon="12.6633749"><ele>190.0</ele><time>2026-04-18T15:00:13.53Z</time></trkpt><trkpt lat="43.700263" lon="12.6632555"><ele>190.0</ele><time>2026-04-18T15:00:14.53Z</time></trkpt><trkpt lat="43.7003777" lon="12.6631766"><ele>190.0</ele><time>2026-04-18T15:00:15.53Z</time></trkpt><trkpt lat="43.7005036" lon="12.663162"><ele>191.75</ele><time>2026-04-18T15:00:16.53Z</time></trkpt><trkpt lat="43.7006292" lon="12.6632145"><ele>193.5</ele><time>2026-04-18T15:00:17.532Z</time></trkpt><trkpt lat="43.7007553" lon="12.6633178"><ele>195.25</ele><time>2026-04-18T15:00:18.53Z</time></trkpt><trkpt lat="43.7008847" lon="12.6634341"><ele>197.0</ele><time>2026-04-18T15:00:19.531Z</time></trkpt><trkpt lat="43.7010169" lon="12.6635454"><ele>196.0</ele><time>2026-04-18T15:00:20.531Z</time></trkpt><trkpt lat="43.7011586" lon="12.6636497"><ele>195.0</ele><time>2026-04-18T15:00:21.529Z</time></trkpt><trkpt lat="43.701313" lon="12.6637393"><ele>194.0</ele><time>2026-04-18T15:00:22.532Z</time></trkpt><trkpt lat="43.7014792" lon="12.6638028"><ele>194.0</ele><time>2026-04-18T15:00:23.533Z</time></trkpt><trkpt lat="43.7016543" lon="12.6638419"><ele>194.0</ele><time>2026-04-18T15:00:24.531Z</time></trkpt><trkpt lat="43.7018325" lon="12.6638616"><ele>194.0</ele><time>2026-04-18T15:00:25.53Z</time></trkpt><trkpt lat="43.7020076" lon="12.6638604"><ele>194.0</ele><time>2026-04-18T15:00:26.53Z</time></trkpt><trkpt lat="43.7021787" lon="12.6638317"><ele>194.0</ele><time>2026-04-18T15:00:27.53Z</time></trkpt><trkpt lat="43.7023474" lon="12.6637528"><ele>194.0</ele><time>2026-04-18T15:00:28.53Z</time></trkpt><trkpt lat="43.7025084" lon="12.6636129"><ele>194.0</ele><time>2026-04-18T15:00:29.531Z</time></trkpt><trkpt lat="43.7026602" lon="12.6634402"><ele>194.0</ele><time>2026-04-18T15:00:30.532Z</time></trkpt><trkpt lat="43.7028147" lon="12.6632649"><ele>194.0</ele><time>2026-04-18T15:00:31.531Z</time></trkpt><trkpt lat="43.7029732" lon="12.6630942"><ele>196.0</ele><time>2026-04-18T15:00:32.531Z</time></trkpt><trkpt lat="43.7031367" lon="12.6629346"><ele>198.0</ele><time>2026-04-18T15:00:33.531Z</time></trkpt><trkpt lat="43.7033002" lon="12.6627865"><ele>200.0</ele><time>2026-04-18T15:00:34.531Z</time></trkpt><trkpt lat="43.7034665" lon="12.6626464"><ele>204.33333333333334</ele><time>2026-04-18T15:00:35.53Z</time></trkpt><trkpt lat="43.7036327" lon="12.6625214"><ele>208.66666666666669</ele><time>2026-04-18T15:00:36.53Z</time></trkpt><trkpt lat="43.7037855" lon="12.6623862"><ele>213.0</ele><time>2026-04-18T15:00:37.53Z</time></trkpt><trkpt lat="43.7039229" lon="12.6622249"><ele>213.0</ele><time>2026-04-18T15:00:38.53Z</time></trkpt><trkpt lat="43.7040386" lon="12.6620352"><ele>213.0</ele><time>2026-04-18T15:00:39.535Z</time></trkpt><trkpt lat="43.7041352" lon="12.6618273"><ele>213.0</ele><time>2026-04-18T15:00:40.532Z</time></trkpt><trkpt lat="43.7041997" lon="12.6615932"><ele>212.66666666666669</ele><time>2026-04-18T15:00:41.531Z</time></trkpt><trkpt lat="43.7042349" lon="12.6613414"><ele>212.33333333333334</ele><time>2026-04-18T15:00:42.53Z</time></trkpt><trkpt lat="43.7042638" lon="12.6610775"><ele>212.0</ele><time>2026-04-18T15:00:43.532Z</time></trkpt><trkpt lat="43.7043009" lon="12.6608087"><ele>211.0</ele><time>2026-04-18T15:00:44.531Z</time></trkpt><trkpt lat="43.7043464" lon="12.6605421"><ele>210.0</ele><time>2026-04-18T15:00:45.53Z</time></trkpt><trkpt lat="43.7044026" lon="12.6602737"><ele>209.0</ele><time>2026-04-18T15:00:46.531Z</time></trkpt><trkpt lat="43.7044883" lon="12.6600256"><ele>207.66666666666669</ele><time>2026-04-18T15:00:47.53Z</time></trkpt><trkpt lat="43.7046116" lon="12.6597957"><ele>206.33333333333331</ele><time>2026-04-18T15:00:48.53Z</time></trkpt><trkpt lat="43.7047487" lon="12.6595729"><ele>205.0</ele><time>2026-04-18T15:00:49.531Z</time></trkpt><trkpt lat="43.7048838" lon="12.6593471"><ele>205.0</ele><time>2026-04-18T15:00:50.531Z</time></trkpt><trkpt lat="43.7050183" lon="12.6591189"><ele>205.0</ele><time>2026-04-18T15:00:51.53Z</time></trkpt><trkpt lat="43.7051514" lon="12.6588922"><ele>205.0</ele><time>2026-04-18T15:00:52.531Z</time></trkpt><trkpt lat="43.7052848" lon="12.6586673"><ele>206.66666666666666</ele><time>2026-04-18T15:00:53.531Z</time></trkpt><trkpt lat="43.7054183" lon="12.6584411"><ele>208.33333333333331</ele><time>2026-04-18T15:00:54.53Z</time></trkpt><trkpt lat="43.7055503" lon="12.6582168"><ele>210.0</ele><time>2026-04-18T15:00:55.531Z</time></trkpt><trkpt lat="43.7056788" lon="12.6579896"><ele>208.33333333333331</ele><time>2026-04-18T15:00:56.531Z</time></trkpt><trkpt lat="43.7058001" lon="12.6577601"><ele>206.66666666666666</ele><time>2026-04-18T15:00:57.53Z</time></trkpt><trkpt lat="43.7059148" lon="12.6575284"><ele>205.0</ele><time>2026-04-18T15:00:58.532Z</time></trkpt><trkpt lat="43.7060231" lon="12.6572923"><ele>206.66666666666666</ele><time>2026-04-18T15:00:59.531Z</time></trkpt><trkpt lat="43.7061267" lon="12.6570502"><ele>208.33333333333331</ele><time>2026-04-18T15:01:00.53Z</time></trkpt><trkpt lat="43.7062205" lon="12.6568041"><ele>210.0</ele><time>2026-04-18T15:01:01.531Z</time></trkpt><trkpt lat="43.7063068" lon="12.6565611"><ele>210.0</ele><time>2026-04-18T15:01:02.531Z</time></trkpt><trkpt lat="43.7063853" lon="12.6563162"><ele>210.0</ele><time>2026-04-18T15:01:03.53Z</time></trkpt><trkpt lat="43.7064574" lon="12.6560662"><ele>210.0</ele><time>2026-04-18T15:01:04.53Z</time></trkpt><trkpt lat="43.7065224" lon="12.6558118"><ele>209.0</ele><time>2026-04-18T15:01:05.531Z</time></trkpt><trkpt lat="43.7065788" lon="12.6555559"><ele>208.0</ele><time>2026-04-18T15:01:06.532Z</time></trkpt><trkpt lat="43.706631" lon="12.6552987"><ele>207.0</ele><time>2026-04-18T15:01:07.536Z</time></trkpt><trkpt lat="43.7066736" lon="12.6550372"><ele>206.66666666666669</ele><time>2026-04-18T15:01:08.53Z</time></trkpt><trkpt lat="43.7067115" lon="12.6547721"><ele>206.33333333333334</ele><time>2026-04-18T15:01:09.531Z</time></trkpt><trkpt lat="43.7067351" lon="12.6545043"><ele>206.0</ele><time>2026-04-18T15:01:10.534Z</time></trkpt><trkpt lat="43.7067516" lon="12.6542376"><ele>206.0</ele><time>2026-04-18T15:01:11.532Z</time></trkpt><trkpt lat="43.7067549" lon="12.6539708"><ele>206.0</ele><time>2026-04-18T15:01:12.53Z</time></trkpt><trkpt lat="43.7067494" lon="12.6537056"><ele>206.0</ele><time>2026-04-18T15:01:13.53Z</time></trkpt><trkpt lat="43.7067362" lon="12.6534351"><ele>206.33333333333334</ele><time>2026-04-18T15:01:14.53Z</time></trkpt><trkpt lat="43.7067207" lon="12.6531658"><ele>206.66666666666669</ele><time>2026-04-18T15:01:15.531Z</time></trkpt><trkpt lat="43.7066946" lon="12.6528988"><ele>207.0</ele><time>2026-04-18T15:01:16.531Z</time></trkpt><trkpt lat="43.706665" lon="12.6526471"><ele>207.66666666666669</ele><time>2026-04-18T15:01:17.532Z</time></trkpt><trkpt lat="43.7066302" lon="12.6524106"><ele>208.33333333333334</ele><time>2026-04-18T15:01:18.535Z</time></trkpt><trkpt lat="43.7065914" lon="12.6521788"><ele>209.0</ele><time>2026-04-18T15:01:19.531Z</time></trkpt><trkpt lat="43.7065462" lon="12.6519386"><ele>210.33333333333334</ele><time>2026-04-18T15:01:20.531Z</time></trkpt><trkpt lat="43.7064985" lon="12.6516909"><ele>211.66666666666669</ele><time>2026-04-18T15:01:21.531Z</time></trkpt><trkpt lat="43.7064475" lon="12.6514347"><ele>213.0</ele><time>2026-04-18T15:01:22.531Z</time></trkpt><trkpt lat="43.7063935" lon="12.6511717"><ele>214.0</ele><time>2026-04-18T15:01:23.531Z</time></trkpt><trkpt lat="43.7063383" lon="12.6509032"><ele>215.0</ele><time>2026-04-18T15:01:24.532Z</time></trkpt><trkpt lat="43.7062774" lon="12.6506302"><ele>216.0</ele><time>2026-04-18T15:01:25.531Z</time></trkpt><trkpt lat="43.7062143" lon="12.6503501"><ele>216.33333333333331</ele><time>2026-04-18T15:01:26.531Z</time></trkpt><trkpt lat="43.7061479" lon="12.650058"><ele>216.66666666666666</ele><time>2026-04-18T15:01:27.531Z</time></trkpt><trkpt lat="43.7060809" lon="12.6497604"><ele>217.0</ele><time>2026-04-18T15:01:28.531Z</time></trkpt><trkpt lat="43.7060185" lon="12.6494638"><ele>216.33333333333331</ele><time>2026-04-18T15:01:29.53Z</time></trkpt><trkpt lat="43.7059566" lon="12.6491671"><ele>215.66666666666669</ele><time>2026-04-18T15:01:30.53Z</time></trkpt><trkpt lat="43.7058962" lon="12.6488721"><ele>215.0</ele><time>2026-04-18T15:01:31.53Z</time></trkpt><trkpt lat="43.7058325" lon="12.6485815"><ele>215.0</ele><time>2026-04-18T15:01:32.534Z</time></trkpt><trkpt lat="43.7057661" lon="12.6482906"><ele>215.0</ele><time>2026-04-18T15:01:33.529Z</time></trkpt><trkpt lat="43.7056953" lon="12.6479958"><ele>215.0</ele><time>2026-04-18T15:01:34.529Z</time></trkpt><trkpt lat="43.7056301" lon="12.6477002"><ele>218.5</ele><time>2026-04-18T15:01:35.531Z</time></trkpt><trkpt lat="43.7055765" lon="12.6474047"><ele>222.0</ele><time>2026-04-18T15:01:36.53Z</time></trkpt><trkpt lat="43.7055383" lon="12.6470896"><ele>226.5</ele><time>2026-04-18T15:01:37.529Z</time></trkpt><trkpt lat="43.7055131" lon="12.6467617"><ele>231.0</ele><time>2026-04-18T15:01:38.53Z</time></trkpt><trkpt lat="43.7055077" lon="12.6464307"><ele>230.5</ele><time>2026-04-18T15:01:39.529Z</time></trkpt><trkpt lat="43.7055142" lon="12.6461037"><ele>230.0</ele><time>2026-04-18T15:01:40.529Z</time></trkpt><trkpt lat="43.7055334" lon="12.645785"><ele>230.0</ele><time>2026-04-18T15:01:41.531Z</time></trkpt><trkpt lat="43.7055675" lon="12.6454719"><ele>230.0</ele><time>2026-04-18T15:01:42.529Z</time></trkpt><trkpt lat="43.7056127" lon="12.6451668"><ele>230.66666666666669</ele><time>2026-04-18T15:01:43.53Z</time></trkpt><trkpt lat="43.7056693" lon="12.6448663"><ele>231.33333333333331</ele><time>2026-04-18T15:01:44.53Z</time></trkpt><trkpt lat="43.7057354" lon="12.6445743"><ele>232.0</ele><time>2026-04-18T15:01:45.529Z</time></trkpt><trkpt lat="43.7058135" lon="12.6442906"><ele>232.66666666666666</ele><time>2026-04-18T15:01:46.53Z</time></trkpt><trkpt lat="43.7059018" lon="12.6440114"><ele>233.33333333333331</ele><time>2026-04-18T15:01:47.529Z</time></trkpt><trkpt lat="43.7060013" lon="12.643743"><ele>234.0</ele><time>2026-04-18T15:01:48.529Z</time></trkpt><trkpt lat="43.7061047" lon="12.6434883"><ele>230.33333333333331</ele><time>2026-04-18T15:01:49.529Z</time></trkpt><trkpt lat="43.7062173" lon="12.6432508"><ele>226.66666666666666</ele><time>2026-04-18T15:01:50.53Z</time></trkpt><trkpt lat="43.7063395" lon="12.6430237"><ele>223.0</ele><time>2026-04-18T15:01:51.529Z</time></trkpt><trkpt lat="43.706473" lon="12.6428038"><ele>223.33333333333331</ele><time>2026-04-18T15:01:52.53Z</time></trkpt><trkpt lat="43.7066104" lon="12.6425876"><ele>223.66666666666669</ele><time>2026-04-18T15:01:53.528Z</time></trkpt><trkpt lat="43.7067516" lon="12.6423811"><ele>224.0</ele><time>2026-04-18T15:01:54.528Z</time></trkpt><trkpt lat="43.706899" lon="12.6421826"><ele>228.0</ele><time>2026-04-18T15:01:55.529Z</time></trkpt><trkpt lat="43.7070511" lon="12.6419952"><ele>232.0</ele><time>2026-04-18T15:01:56.53Z</time></trkpt><trkpt lat="43.7072065" lon="12.641817"><ele>236.0</ele><time>2026-04-18T15:01:57.529Z</time></trkpt><trkpt lat="43.7073633" lon="12.6416477"><ele>236.66666666666669</ele><time>2026-04-18T15:01:58.53Z</time></trkpt><trkpt lat="43.707519" lon="12.6414917"><ele>237.33333333333331</ele><time>2026-04-18T15:01:59.53Z</time></trkpt><trkpt lat="43.7076769" lon="12.6413482"><ele>238.0</ele><time>2026-04-18T15:02:00.529Z</time></trkpt><trkpt lat="43.7078289" lon="12.6412149"><ele>248.33333333333331</ele><time>2026-04-18T15:02:01.53Z</time></trkpt><trkpt lat="43.7079789" lon="12.6410942"><ele>258.6666666666667</ele><time>2026-04-18T15:02:02.53Z</time></trkpt><trkpt lat="43.7081285" lon="12.6409803"><ele>269.0</ele><time>2026-04-18T15:02:03.529Z</time></trkpt><trkpt lat="43.7082758" lon="12.6408657"><ele>269.0</ele><time>2026-04-18T15:02:04.53Z</time></trkpt><trkpt lat="43.70842" lon="12.6407498"><ele>269.0</ele><time>2026-04-18T15:02:05.53Z</time></trkpt><trkpt lat="43.7085659" lon="12.6406371"><ele>269.0</ele><time>2026-04-18T15:02:06.616Z</time></trkpt><trkpt lat="43.7087047" lon="12.6405515"><ele>281.0</ele><time>2026-04-18T15:02:07.529Z</time></trkpt><trkpt lat="43.708853" lon="12.6404655"><ele>293.0</ele><time>2026-04-18T15:02:08.53Z</time></trkpt><trkpt lat="43.7163448" lon="12.6407225"><ele>293.0</ele><time>2026-04-18T15:02:56.529Z</time></trkpt><trkpt lat="43.7164807" lon="12.6407516"><ele>293.0</ele><time>2026-04-18T15:02:57.532Z</time></trkpt><trkpt lat="43.7166148" lon="12.6407864"><ele>293.0</ele><time>2026-04-18T15:02:58.528Z</time></trkpt><trkpt lat="43.7167435" lon="12.6408159"><ele>293.0</ele><time>2026-04-18T15:02:59.529Z</time></trkpt><trkpt lat="43.716859" lon="12.6408432"><ele>294.6666666666667</ele><time>2026-04-18T15:03:00.541Z</time></trkpt><trkpt lat="43.7169635" lon="12.6408732"><ele>296.33333333333337</ele><time>2026-04-18T15:03:01.53Z</time></trkpt><trkpt lat="43.7170587" lon="12.6409009"><ele>298.0</ele><time>2026-04-18T15:03:02.528Z</time></trkpt><trkpt lat="43.7171452" lon="12.6409237"><ele>299.6666666666667</ele><time>2026-04-18T15:03:03.529Z</time></trkpt><trkpt lat="43.7172269" lon="12.6409468"><ele>301.3333333333333</ele><time>2026-04-18T15:03:04.528Z</time></trkpt><trkpt lat="43.7172936" lon="12.6409661"><ele>303.0</ele><time>2026-04-18T15:03:05.528Z</time></trkpt><trkpt lat="43.7173928" lon="12.6410292"><ele>304.0</ele><time>2026-04-18T15:03:07.533Z</time></trkpt><trkpt lat="43.717483" lon="12.6411548"><ele>305.0</ele><time>2026-04-18T15:03:09.531Z</time></trkpt><trkpt lat="43.7175489" lon="12.6412044"><ele>306.0</ele><time>2026-04-18T15:03:10.533Z</time></trkpt><trkpt lat="43.7176254" lon="12.6412265"><ele>307.0</ele><time>2026-04-18T15:03:11.528Z</time></trkpt><trkpt lat="43.7177048" lon="12.6411955"><ele>308.0</ele><time>2026-04-18T15:03:12.533Z</time></trkpt><trkpt lat="43.7177839" lon="12.6411048"><ele>310.5</ele><time>2026-04-18T15:03:13.529Z</time></trkpt><trkpt lat="43.7178835" lon="12.6409839"><ele>313.0</ele><time>2026-04-18T15:03:14.528Z</time></trkpt><trkpt lat="43.7180109" lon="12.6408747"><ele>315.5</ele><time>2026-04-18T15:03:15.529Z</time></trkpt><trkpt lat="43.7181569" lon="12.640772"><ele>318.0</ele><time>2026-04-18T15:03:16.528Z</time></trkpt><trkpt lat="43.71832" lon="12.6406719"><ele>318.0</ele><time>2026-04-18T15:03:17.528Z</time></trkpt><trkpt lat="43.7184795" lon="12.6405724"><ele>318.0</ele><time>2026-04-18T15:03:18.528Z</time></trkpt><trkpt lat="43.7186433" lon="12.6405066"><ele>318.0</ele><time>2026-04-18T15:03:19.528Z</time></trkpt><trkpt lat="43.7188248" lon="12.6404787"><ele>320.3333333333333</ele><time>2026-04-18T15:03:20.529Z</time></trkpt><trkpt lat="43.7190183" lon="12.6404609"><ele>322.66666666666663</ele><time>2026-04-18T15:03:21.529Z</time></trkpt><trkpt lat="43.7192128" lon="12.6404511"><ele>325.0</ele><time>2026-04-18T15:03:22.53Z</time></trkpt><trkpt lat="43.7193954" lon="12.6404566"><ele>324.66666666666663</ele><time>2026-04-18T15:03:23.528Z</time></trkpt><trkpt lat="43.7195684" lon="12.6404938"><ele>324.3333333333333</ele><time>2026-04-18T15:03:24.529Z</time></trkpt><trkpt lat="43.7197313" lon="12.6405821"><ele>324.0</ele><time>2026-04-18T15:03:25.528Z</time></trkpt><trkpt lat="43.7198784" lon="12.6407056"><ele>324.0</ele><time>2026-04-18T15:03:26.529Z</time></trkpt><trkpt lat="43.7200181" lon="12.6408483"><ele>324.0</ele><time>2026-04-18T15:03:27.528Z</time></trkpt><trkpt lat="43.7201419" lon="12.6409989"><ele>324.0</ele><time>2026-04-18T15:03:28.528Z</time></trkpt><trkpt lat="43.7202421" lon="12.6411652"><ele>322.3333333333333</ele><time>2026-04-18T15:03:29.528Z</time></trkpt><trkpt lat="43.7203094" lon="12.6413655"><ele>320.66666666666663</ele><time>2026-04-18T15:03:30.529Z</time></trkpt><trkpt lat="43.7203592" lon="12.6415831"><ele>319.0</ele><time>2026-04-18T15:03:31.529Z</time></trkpt><trkpt lat="43.7204056" lon="12.6418056"><ele>320.66666666666663</ele><time>2026-04-18T15:03:32.53Z</time></trkpt><trkpt lat="43.7204743" lon="12.6420144"><ele>322.3333333333333</ele><time>2026-04-18T15:03:33.528Z</time></trkpt><trkpt lat="43.7205742" lon="12.6422042"><ele>324.0</ele><time>2026-04-18T15:03:34.531Z</time></trkpt><trkpt lat="43.7207" lon="12.6423708"><ele>324.0</ele><time>2026-04-18T15:03:35.531Z</time></trkpt><trkpt lat="43.72083" lon="12.6425325"><ele>324.0</ele><time>2026-04-18T15:03:36.528Z</time></trkpt><trkpt lat="43.7209672" lon="12.6426836"><ele>324.0</ele><time>2026-04-18T15:03:37.529Z</time></trkpt><trkpt lat="43.721112" lon="12.6428051"><ele>326.3333333333333</ele><time>2026-04-18T15:03:38.53Z</time></trkpt><trkpt lat="43.7212616" lon="12.6429063"><ele>328.66666666666663</ele><time>2026-04-18T15:03:39.528Z</time></trkpt><trkpt lat="43.7214035" lon="12.6430146"><ele>331.0</ele><time>2026-04-18T15:03:40.531Z</time></trkpt><trkpt lat="43.7215228" lon="12.6431621"><ele>331.0</ele><time>2026-04-18T15:03:41.529Z</time></trkpt><trkpt lat="43.7216246" lon="12.6433442"><ele>331.0</ele><time>2026-04-18T15:03:42.528Z</time></trkpt><trkpt lat="43.7217185" lon="12.6435379"><ele>331.0</ele><time>2026-04-18T15:03:43.528Z</time></trkpt><trkpt lat="43.7218338" lon="12.6437131"><ele>334.3333333333333</ele><time>2026-04-18T15:03:44.529Z</time></trkpt><trkpt lat="43.7219698" lon="12.643855"><ele>337.6666666666667</ele><time>2026-04-18T15:03:45.53Z</time></trkpt><trkpt lat="43.7221293" lon="12.6439562"><ele>341.0</ele><time>2026-04-18T15:03:46.528Z</time></trkpt><trkpt lat="43.7222907" lon="12.6440534"><ele>341.0</ele><time>2026-04-18T15:03:47.529Z</time></trkpt><trkpt lat="43.7224386" lon="12.6441889"><ele>341.0</ele><time>2026-04-18T15:03:48.528Z</time></trkpt><trkpt lat="43.7225719" lon="12.6443502"><ele>341.0</ele><time>2026-04-18T15:03:49.529Z</time></trkpt><trkpt lat="43.7226958" lon="12.6445123"><ele>342.0</ele><time>2026-04-18T15:03:50.528Z</time></trkpt><trkpt lat="43.7228159" lon="12.6446697"><ele>343.0</ele><time>2026-04-18T15:03:51.53Z</time></trkpt><trkpt lat="43.7229353" lon="12.6448244"><ele>344.0</ele><time>2026-04-18T15:03:52.53Z</time></trkpt><trkpt lat="43.7230587" lon="12.6449743"><ele>344.0</ele><time>2026-04-18T15:03:53.533Z</time></trkpt><trkpt lat="43.7231844" lon="12.6451148"><ele>344.0</ele><time>2026-04-18T15:03:54.53Z</time></trkpt><trkpt lat="43.7233033" lon="12.6452605"><ele>344.0</ele><time>2026-04-18T15:03:55.53Z</time></trkpt><trkpt lat="43.7234065" lon="12.6454212"><ele>345.6666666666667</ele><time>2026-04-18T15:03:56.53Z</time></trkpt><trkpt lat="43.7234907" lon="12.6456011"><ele>347.3333333333333</ele><time>2026-04-18T15:03:57.528Z</time></trkpt><trkpt lat="43.7235556" lon="12.645802"><ele>349.0</ele><time>2026-04-18T15:03:58.531Z</time></trkpt><trkpt lat="43.7236161" lon="12.6459999"><ele>352.66666666666663</ele><time>2026-04-18T15:03:59.528Z</time></trkpt><trkpt lat="43.7236882" lon="12.6461891"><ele>356.3333333333333</ele><time>2026-04-18T15:04:00.528Z</time></trkpt><trkpt lat="43.723784" lon="12.6463535"><ele>360.0</ele><time>2026-04-18T15:04:01.528Z</time></trkpt><trkpt lat="43.7239108" lon="12.6464783"><ele>360.0</ele><time>2026-04-18T15:04:02.529Z</time></trkpt><trkpt lat="43.724061" lon="12.6465408"><ele>360.0</ele><time>2026-04-18T15:04:03.528Z</time></trkpt><trkpt lat="43.7242156" lon="12.6465563"><ele>360.0</ele><time>2026-04-18T15:04:04.528Z</time></trkpt><trkpt lat="43.7243646" lon="12.6465475"><ele>361.5</ele><time>2026-04-18T15:04:05.529Z</time></trkpt><trkpt lat="43.7245062" lon="12.6465158"><ele>363.0</ele><time>2026-04-18T15:04:06.529Z</time></trkpt><trkpt lat="43.7246346" lon="12.6464371"><ele>364.5</ele><time>2026-04-18T15:04:07.529Z</time></trkpt><trkpt lat="43.7247392" lon="12.6463044"><ele>366.0</ele><time>2026-04-18T15:04:08.53Z</time></trkpt><trkpt lat="43.7248226" lon="12.6461191"><ele>366.0</ele><time>2026-04-18T15:04:09.528Z</time></trkpt><trkpt lat="43.7248976" lon="12.6459163"><ele>366.0</ele><time>2026-04-18T15:04:10.528Z</time></trkpt><trkpt lat="43.7249709" lon="12.6457016"><ele>366.0</ele><time>2026-04-18T15:04:11.529Z</time></trkpt><trkpt lat="43.7250532" lon="12.6454944"><ele>366.0</ele><time>2026-04-18T15:04:12.528Z</time></trkpt><trkpt lat="43.7251486" lon="12.6453024"><ele>366.0</ele><time>2026-04-18T15:04:13.528Z</time></trkpt><trkpt lat="43.7252634" lon="12.6451385"><ele>366.0</ele><time>2026-04-18T15:04:14.531Z</time></trkpt><trkpt lat="43.7253716" lon="12.6449798"><ele>368.25</ele><time>2026-04-18T15:04:15.529Z</time></trkpt><trkpt lat="43.7254636" lon="12.6448141"><ele>370.5</ele><time>2026-04-18T15:04:16.53Z</time></trkpt><trkpt lat="43.7255283" lon="12.6446351"><ele>372.75</ele><time>2026-04-18T15:04:17.53Z</time></trkpt><trkpt lat="43.7255399" lon="12.6444405"><ele>375.0</ele><time>2026-04-18T15:04:18.528Z</time></trkpt><trkpt lat="43.7255031" lon="12.6442508"><ele>375.6666666666667</ele><time>2026-04-18T15:04:19.529Z</time></trkpt><trkpt lat="43.7254209" lon="12.6440747"><ele>376.33333333333337</ele><time>2026-04-18T15:04:20.529Z</time></trkpt><trkpt lat="43.7253142" lon="12.6439155"><ele>377.0</ele><time>2026-04-18T15:04:21.529Z</time></trkpt><trkpt lat="43.7252098" lon="12.6437643"><ele>376.25</ele><time>2026-04-18T15:04:22.531Z</time></trkpt><trkpt lat="43.7251168" lon="12.6436174"><ele>375.5</ele><time>2026-04-18T15:04:23.538Z</time></trkpt><trkpt lat="43.7250353" lon="12.6434667"><ele>374.75</ele><time>2026-04-18T15:04:24.534Z</time></trkpt><trkpt lat="43.7249719" lon="12.6433024"><ele>374.0</ele><time>2026-04-18T15:04:25.529Z</time></trkpt><trkpt lat="43.7249396" lon="12.6431303"><ele>374.0</ele><time>2026-04-18T15:04:26.529Z</time></trkpt><trkpt lat="43.7249499" lon="12.642958"><ele>374.0</ele><time>2026-04-18T15:04:27.53Z</time></trkpt><trkpt lat="43.725" lon="12.6427872"><ele>374.0</ele><time>2026-04-18T15:04:28.53Z</time></trkpt><trkpt lat="43.7250719" lon="12.6426216"><ele>374.0</ele><time>2026-04-18T15:04:29.528Z</time></trkpt><trkpt lat="43.7251496" lon="12.642455"><ele>374.5</ele><time>2026-04-18T15:04:30.544Z</time></trkpt><trkpt lat="43.7252246" lon="12.6422925"><ele>375.0</ele><time>2026-04-18T15:04:31.53Z</time></trkpt><trkpt lat="43.7252991" lon="12.6421356"><ele>375.5</ele><time>2026-04-18T15:04:32.529Z</time></trkpt><trkpt lat="43.7253701" lon="12.6419822"><ele>376.0</ele><time>2026-04-18T15:04:33.527Z</time></trkpt><trkpt lat="43.7254378" lon="12.6418334"><ele>377.16666666666663</ele><time>2026-04-18T15:04:34.528Z</time></trkpt><trkpt lat="43.7254963" lon="12.6417002"><ele>378.3333333333333</ele><time>2026-04-18T15:04:35.529Z</time></trkpt><trkpt lat="43.7255501" lon="12.6415886"><ele>379.5</ele><time>2026-04-18T15:04:36.527Z</time></trkpt><trkpt lat="43.7256033" lon="12.6414961"><ele>380.6666666666667</ele><time>2026-04-18T15:04:37.527Z</time></trkpt><trkpt lat="43.7256671" lon="12.6414402"><ele>381.83333333333337</ele><time>2026-04-18T15:04:38.528Z</time></trkpt><trkpt lat="43.7257403" lon="12.6414169"><ele>383.0</ele><time>2026-04-18T15:04:39.527Z</time></trkpt><trkpt lat="43.7258187" lon="12.6413985"><ele>383.0</ele><time>2026-04-18T15:04:40.527Z</time></trkpt><trkpt lat="43.7258865" lon="12.6413715"><ele>383.0</ele><time>2026-04-18T15:04:41.527Z</time></trkpt><trkpt lat="43.7259949" lon="12.6413153"><ele>383.0</ele><time>2026-04-18T15:04:43.527Z</time></trkpt><trkpt lat="43.72607" lon="12.6412907"><ele>383.0</ele><time>2026-04-18T15:04:45.527Z</time></trkpt><trkpt lat="43.7261511" lon="12.6412781"><ele>383.0</ele><time>2026-04-18T15:04:47.528Z</time></trkpt><trkpt lat="43.726283" lon="12.6412814"><ele>382.85714285714283</ele><time>2026-04-18T15:04:49.527Z</time></trkpt><trkpt lat="43.7263615" lon="12.6412968"><ele>382.71428571428567</ele><time>2026-04-18T15:04:50.528Z</time></trkpt><trkpt lat="43.7264371" lon="12.641313"><ele>382.57142857142856</ele><time>2026-04-18T15:04:51.527Z</time></trkpt><trkpt lat="43.7265096" lon="12.6413307"><ele>382.42857142857144</ele><time>2026-04-18T15:04:52.53Z</time></trkpt><trkpt lat="43.726577" lon="12.641343"><ele>382.2857142857143</ele><time>2026-04-18T15:04:53.527Z</time></trkpt><trkpt lat="43.7266425" lon="12.6413564"><ele>382.14285714285717</ele><time>2026-04-18T15:04:54.528Z</time></trkpt><trkpt lat="43.7267117" lon="12.6413699"><ele>382.0</ele><time>2026-04-18T15:04:55.527Z</time></trkpt><trkpt lat="43.7267833" lon="12.6413833"><ele>382.0</ele><time>2026-04-18T15:04:56.528Z</time></trkpt><trkpt lat="43.7268606" lon="12.6413963"><ele>382.0</ele><time>2026-04-18T15:04:57.528Z</time></trkpt><trkpt lat="43.7269468" lon="12.6414078"><ele>382.0</ele><time>2026-04-18T15:04:58.527Z</time></trkpt><trkpt lat="43.7270409" lon="12.6414287"><ele>382.0</ele><time>2026-04-18T15:04:59.528Z</time></trkpt><trkpt lat="43.7271486" lon="12.6414566"><ele>382.0</ele><time>2026-04-18T15:05:00.527Z</time></trkpt><trkpt lat="43.7272618" lon="12.641493"><ele>379.25</ele><time>2026-04-18T15:05:01.529Z</time></trkpt><trkpt lat="43.7273871" lon="12.6415185"><ele>376.5</ele><time>2026-04-18T15:05:02.529Z</time></trkpt><trkpt lat="43.7275187" lon="12.6415408"><ele>373.75</ele><time>2026-04-18T15:05:03.528Z</time></trkpt><trkpt lat="43.7276462" lon="12.6415612"><ele>371.0</ele><time>2026-04-18T15:05:04.528Z</time></trkpt><trkpt lat="43.7277711" lon="12.6415896"><ele>369.5</ele><time>2026-04-18T15:05:05.527Z</time></trkpt><trkpt lat="43.7278921" lon="12.6416235"><ele>368.0</ele><time>2026-04-18T15:05:06.527Z</time></trkpt><trkpt lat="43.7280088" lon="12.6416645"><ele>366.5</ele><time>2026-04-18T15:05:07.528Z</time></trkpt><trkpt lat="43.7281188" lon="12.6417134"><ele>365.0</ele><time>2026-04-18T15:05:08.529Z</time></trkpt><trkpt lat="43.7282278" lon="12.6417689"><ele>365.0</ele><time>2026-04-18T15:05:09.528Z</time></trkpt><trkpt lat="43.728323" lon="12.64183"><ele>365.0</ele><time>2026-04-18T15:05:10.528Z</time></trkpt><trkpt lat="43.7284092" lon="12.6418931"><ele>365.0</ele><time>2026-04-18T15:05:11.527Z</time></trkpt><trkpt lat="43.728488" lon="12.641947"><ele>365.0</ele><time>2026-04-18T15:05:12.528Z</time></trkpt><trkpt lat="43.7285667" lon="12.641988"><ele>365.0</ele><time>2026-04-18T15:05:13.528Z</time></trkpt><trkpt lat="43.7286476" lon="12.642014"><ele>363.83333333333337</ele><time>2026-04-18T15:05:14.529Z</time></trkpt><trkpt lat="43.7287298" lon="12.6419832"><ele>362.6666666666667</ele><time>2026-04-18T15:05:15.528Z</time></trkpt><trkpt lat="43.7288022" lon="12.6419145"><ele>361.5</ele><time>2026-04-18T15:05:16.527Z</time></trkpt><trkpt lat="43.7288371" lon="12.6418042"><ele>360.3333333333333</ele><time>2026-04-18T15:05:17.527Z</time></trkpt><trkpt lat="43.728837" lon="12.6416787"><ele>359.16666666666663</ele><time>2026-04-18T15:05:18.528Z</time></trkpt><trkpt lat="43.7288082" lon="12.6415595"><ele>358.0</ele><time>2026-04-18T15:05:19.527Z</time></trkpt><trkpt lat="43.7287581" lon="12.6414566"><ele>358.0</ele><time>2026-04-18T15:05:20.527Z</time></trkpt><trkpt lat="43.7286828" lon="12.6413857"><ele>358.0</ele><time>2026-04-18T15:05:21.528Z</time></trkpt><trkpt lat="43.7285942" lon="12.6413439"><ele>358.0</ele><time>2026-04-18T15:05:22.528Z</time></trkpt><trkpt lat="43.7285031" lon="12.641327"><ele>358.0</ele><time>2026-04-18T15:05:23.528Z</time></trkpt><trkpt lat="43.7284087" lon="12.6413266"><ele>358.0</ele><time>2026-04-18T15:05:24.527Z</time></trkpt><trkpt lat="43.7283158" lon="12.6413327"><ele>357.5</ele><time>2026-04-18T15:05:25.527Z</time></trkpt><trkpt lat="43.7282238" lon="12.6413347"><ele>357.0</ele><time>2026-04-18T15:05:26.528Z</time></trkpt><trkpt lat="43.7281347" lon="12.6413219"><ele>356.5</ele><time>2026-04-18T15:05:27.527Z</time></trkpt><trkpt lat="43.7280489" lon="12.6412938"><ele>356.0</ele><time>2026-04-18T15:05:28.528Z</time></trkpt><trkpt lat="43.7279777" lon="12.6412412"><ele>355.5</ele><time>2026-04-18T15:05:29.528Z</time></trkpt><trkpt lat="43.727932" lon="12.6411651"><ele>355.0</ele><time>2026-04-18T15:05:30.526Z</time></trkpt><trkpt lat="43.7279123" lon="12.641071"><ele>355.0</ele><time>2026-04-18T15:05:31.529Z</time></trkpt><trkpt lat="43.7279383" lon="12.6409621"><ele>355.0</ele><time>2026-04-18T15:05:32.529Z</time></trkpt><trkpt lat="43.7280035" lon="12.6408748"><ele>355.0</ele><time>2026-04-18T15:05:33.527Z</time></trkpt><trkpt lat="43.7280965" lon="12.6408384"><ele>355.0</ele><time>2026-04-18T15:05:34.527Z</time></trkpt><trkpt lat="43.7282075" lon="12.6408586"><ele>355.0</ele><time>2026-04-18T15:05:35.528Z</time></trkpt><trkpt lat="43.7283264" lon="12.6409071"><ele>355.0</ele><time>2026-04-18T15:05:36.53Z</time></trkpt><trkpt lat="43.7284535" lon="12.6409688"><ele>355.0</ele><time>2026-04-18T15:05:37.528Z</time></trkpt><trkpt lat="43.7285925" lon="12.6410243"><ele>355.0</ele><time>2026-04-18T15:05:38.528Z</time></trkpt><trkpt lat="43.7287441" lon="12.6410658"><ele>355.0</ele><time>2026-04-18T15:05:39.53Z</time></trkpt><trkpt lat="43.7289075" lon="12.6410894"><ele>352.0</ele><time>2026-04-18T15:05:40.527Z</time></trkpt><trkpt lat="43.7290852" lon="12.6410945"><ele>349.0</ele><time>2026-04-18T15:05:41.527Z</time></trkpt><trkpt lat="43.7292891" lon="12.6410859"><ele>346.0</ele><time>2026-04-18T15:05:42.528Z</time></trkpt><trkpt lat="43.7295101" lon="12.6410698"><ele>342.0</ele><time>2026-04-18T15:05:43.527Z</time></trkpt><trkpt lat="43.7297426" lon="12.6410547"><ele>338.0</ele><time>2026-04-18T15:05:44.527Z</time></trkpt><trkpt lat="43.7299661" lon="12.6410396"><ele>338.0</ele><time>2026-04-18T15:05:45.527Z</time></trkpt><trkpt lat="43.7301684" lon="12.6410226"><ele>338.0</ele><time>2026-04-18T15:05:46.528Z</time></trkpt><trkpt lat="43.7303452" lon="12.6410108"><ele>338.0</ele><time>2026-04-18T15:05:47.528Z</time></trkpt><trkpt lat="43.7305101" lon="12.6410029"><ele>336.5</ele><time>2026-04-18T15:05:48.529Z</time></trkpt><trkpt lat="43.7306575" lon="12.6409939"><ele>335.0</ele><time>2026-04-18T15:05:49.528Z</time></trkpt><trkpt lat="43.7307943" lon="12.6409842"><ele>333.5</ele><time>2026-04-18T15:05:50.528Z</time></trkpt><trkpt lat="43.7309197" lon="12.6409742"><ele>332.0</ele><time>2026-04-18T15:05:51.528Z</time></trkpt><trkpt lat="43.7310386" lon="12.6409642"><ele>331.0</ele><time>2026-04-18T15:05:52.526Z</time></trkpt><trkpt lat="43.7311551" lon="12.6409581"><ele>330.0</ele><time>2026-04-18T15:05:53.528Z</time></trkpt><trkpt lat="43.7312631" lon="12.6409539"><ele>329.0</ele><time>2026-04-18T15:05:54.53Z</time></trkpt><trkpt lat="43.7313639" lon="12.6409522"><ele>328.0</ele><time>2026-04-18T15:05:55.528Z</time></trkpt><trkpt lat="43.7314628" lon="12.6409431"><ele>327.0</ele><time>2026-04-18T15:05:56.528Z</time></trkpt><trkpt lat="43.7315589" lon="12.6409322"><ele>327.0</ele><time>2026-04-18T15:05:57.528Z</time></trkpt><trkpt lat="43.7316544" lon="12.6409268"><ele>327.0</ele><time>2026-04-18T15:05:58.529Z</time></trkpt><trkpt lat="43.7317467" lon="12.6409335"><ele>327.0</ele><time>2026-04-18T15:05:59.527Z</time></trkpt><trkpt lat="43.7318461" lon="12.6409634"><ele>327.0</ele><time>2026-04-18T15:06:00.528Z</time></trkpt><trkpt lat="43.7319444" lon="12.6410255"><ele>327.0</ele><time>2026-04-18T15:06:01.527Z</time></trkpt><trkpt lat="43.7320383" lon="12.6411084"><ele>326.25</ele><time>2026-04-18T15:06:02.527Z</time></trkpt><trkpt lat="43.7321233" lon="12.6412152"><ele>325.5</ele><time>2026-04-18T15:06:03.528Z</time></trkpt><trkpt lat="43.732201" lon="12.6413341"><ele>324.75</ele><time>2026-04-18T15:06:04.527Z</time></trkpt><trkpt lat="43.7322731" lon="12.6414631"><ele>324.0</ele><time>2026-04-18T15:06:05.528Z</time></trkpt><trkpt lat="43.7323457" lon="12.6415985"><ele>324.0</ele><time>2026-04-18T15:06:06.528Z</time></trkpt><trkpt lat="43.7324189" lon="12.6417379"><ele>324.0</ele><time>2026-04-18T15:06:07.527Z</time></trkpt><trkpt lat="43.7324955" lon="12.641879"><ele>324.0</ele><time>2026-04-18T15:06:08.528Z</time></trkpt><trkpt lat="43.7325849" lon="12.6420242"><ele>324.0</ele><time>2026-04-18T15:06:09.528Z</time></trkpt><trkpt lat="43.7326904" lon="12.6421745"><ele>322.6666666666667</ele><time>2026-04-18T15:06:10.527Z</time></trkpt><trkpt lat="43.7328115" lon="12.6423283"><ele>321.33333333333337</ele><time>2026-04-18T15:06:11.527Z</time></trkpt><trkpt lat="43.7329473" lon="12.6424821"><ele>320.0</ele><time>2026-04-18T15:06:12.527Z</time></trkpt><trkpt lat="43.7330981" lon="12.6426211"><ele>320.0</ele><time>2026-04-18T15:06:13.526Z</time></trkpt><trkpt lat="43.7332556" lon="12.6427333"><ele>320.0</ele><time>2026-04-18T15:06:14.528Z</time></trkpt><trkpt lat="43.7334134" lon="12.6428198"><ele>320.0</ele><time>2026-04-18T15:06:15.528Z</time></trkpt><trkpt lat="43.7335628" lon="12.642882"><ele>320.6666666666667</ele><time>2026-04-18T15:06:16.528Z</time></trkpt><trkpt lat="43.7337059" lon="12.6429277"><ele>321.3333333333333</ele><time>2026-04-18T15:06:17.528Z</time></trkpt><trkpt lat="43.7338549" lon="12.6429533"><ele>322.0</ele><time>2026-04-18T15:06:18.528Z</time></trkpt><trkpt lat="43.7340215" lon="12.6429728"><ele>322.0</ele><time>2026-04-18T15:06:19.528Z</time></trkpt><trkpt lat="43.7341984" lon="12.6429952"><ele>322.0</ele><time>2026-04-18T15:06:20.527Z</time></trkpt><trkpt lat="43.7343639" lon="12.6430241"><ele>322.0</ele><time>2026-04-18T15:06:21.529Z</time></trkpt><trkpt lat="43.7345193" lon="12.6430476"><ele>319.25</ele><time>2026-04-18T15:06:22.527Z</time></trkpt><trkpt lat="43.7346596" lon="12.6430704"><ele>316.5</ele><time>2026-04-18T15:06:23.528Z</time></trkpt><trkpt lat="43.7347812" lon="12.6430941"><ele>313.75</ele><time>2026-04-18T15:06:24.527Z</time></trkpt><trkpt lat="43.7348791" lon="12.6431135"><ele>311.0</ele><time>2026-04-18T15:06:25.527Z</time></trkpt><trkpt lat="43.7349681" lon="12.6431247"><ele>311.0</ele><time>2026-04-18T15:06:26.53Z</time></trkpt><trkpt lat="43.7350444" lon="12.6431275"><ele>311.0</ele><time>2026-04-18T15:06:27.527Z</time></trkpt><trkpt lat="43.73511" lon="12.6431293"><ele>311.0</ele><time>2026-04-18T15:06:28.528Z</time></trkpt><trkpt lat="43.735232" lon="12.6431182"><ele>311.0</ele><time>2026-04-18T15:06:30.527Z</time></trkpt><trkpt lat="43.7353515" lon="12.6431039"><ele>311.0</ele><time>2026-04-18T15:06:32.528Z</time></trkpt><trkpt lat="43.7354154" lon="12.643113"><ele>311.0</ele><time>2026-04-18T15:06:33.527Z</time></trkpt><trkpt lat="43.7355253" lon="12.6431405"><ele>310.1666666666667</ele><time>2026-04-18T15:06:35.529Z</time></trkpt><trkpt lat="43.7355977" lon="12.6431356"><ele>309.33333333333337</ele><time>2026-04-18T15:06:36.528Z</time></trkpt><trkpt lat="43.7356669" lon="12.6431147"><ele>308.5</ele><time>2026-04-18T15:06:37.527Z</time></trkpt><trkpt lat="43.7357349" lon="12.6430812"><ele>307.6666666666667</ele><time>2026-04-18T15:06:38.527Z</time></trkpt><trkpt lat="43.7358108" lon="12.6430399"><ele>306.8333333333333</ele><time>2026-04-18T15:06:39.527Z</time></trkpt><trkpt lat="43.7358933" lon="12.6429971"><ele>306.0</ele><time>2026-04-18T15:06:40.527Z</time></trkpt><trkpt lat="43.735976" lon="12.6429547"><ele>305.40000000000003</ele><time>2026-04-18T15:06:41.527Z</time></trkpt><trkpt lat="43.736058" lon="12.6429054"><ele>304.8</ele><time>2026-04-18T15:06:42.527Z</time></trkpt><trkpt lat="43.7361399" lon="12.6428495"><ele>304.20000000000005</ele><time>2026-04-18T15:06:43.527Z</time></trkpt><trkpt lat="43.7362221" lon="12.6427868"><ele>303.6</ele><time>2026-04-18T15:06:44.527Z</time></trkpt><trkpt lat="43.7363064" lon="12.6427229"><ele>303.0</ele><time>2026-04-18T15:06:45.527Z</time></trkpt><trkpt lat="43.7363926" lon="12.6426669"><ele>305.2</ele><time>2026-04-18T15:06:46.527Z</time></trkpt><trkpt lat="43.7364852" lon="12.6426135"><ele>307.4</ele><time>2026-04-18T15:06:47.532Z</time></trkpt><trkpt lat="43.7365824" lon="12.6425614"><ele>309.59999999999997</ele><time>2026-04-18T15:06:48.526Z</time></trkpt><trkpt lat="43.7366877" lon="12.6425255"><ele>311.8</ele><time>2026-04-18T15:06:49.528Z</time></trkpt><trkpt lat="43.7367967" lon="12.6425103"><ele>314.0</ele><time>2026-04-18T15:06:50.527Z</time></trkpt><trkpt lat="43.7369112" lon="12.6425126"><ele>315.25</ele><time>2026-04-18T15:06:51.527Z</time></trkpt><trkpt lat="43.7370293" lon="12.6425379"><ele>316.5</ele><time>2026-04-18T15:06:52.528Z</time></trkpt><trkpt lat="43.7371456" lon="12.6425805"><ele>317.75</ele><time>2026-04-18T15:06:53.527Z</time></trkpt><trkpt lat="43.7372585" lon="12.6426305"><ele>319.0</ele><time>2026-04-18T15:06:54.527Z</time></trkpt><trkpt lat="43.7373679" lon="12.6426842"><ele>319.0</ele><time>2026-04-18T15:06:55.526Z</time></trkpt><trkpt lat="43.7374726" lon="12.6427388"><ele>319.0</ele><time>2026-04-18T15:06:56.527Z</time></trkpt><trkpt lat="43.7375746" lon="12.642793"><ele>319.0</ele><time>2026-04-18T15:06:57.527Z</time></trkpt><trkpt lat="43.7376772" lon="12.6428525"><ele>319.0</ele><time>2026-04-18T15:06:58.527Z</time></trkpt><trkpt lat="43.737779" lon="12.6429091"><ele>319.0</ele><time>2026-04-18T15:06:59.527Z</time></trkpt><trkpt lat="43.7378846" lon="12.6429682"><ele>315.75</ele><time>2026-04-18T15:07:00.526Z</time></trkpt><trkpt lat="43.7379884" lon="12.6430287"><ele>312.5</ele><time>2026-04-18T15:07:01.527Z</time></trkpt><trkpt lat="43.738088" lon="12.6431006"><ele>309.25</ele><time>2026-04-18T15:07:02.527Z</time></trkpt><trkpt lat="43.7381875" lon="12.643183"><ele>306.0</ele><time>2026-04-18T15:07:03.527Z</time></trkpt><trkpt lat="43.7382839" lon="12.6432874"><ele>306.0</ele><time>2026-04-18T15:07:04.528Z</time></trkpt><trkpt lat="43.7383744" lon="12.6434045"><ele>306.0</ele><time>2026-04-18T15:07:05.527Z</time></trkpt><trkpt lat="43.7384595" lon="12.6435324"><ele>306.0</ele><time>2026-04-18T15:07:06.527Z</time></trkpt><trkpt lat="43.7385426" lon="12.6436666"><ele>306.0</ele><time>2026-04-18T15:07:07.529Z</time></trkpt><trkpt lat="43.7386229" lon="12.6438026"><ele>308.0</ele><time>2026-04-18T15:07:08.527Z</time></trkpt><trkpt lat="43.7387012" lon="12.6439392"><ele>310.0</ele><time>2026-04-18T15:07:09.526Z</time></trkpt><trkpt lat="43.738778" lon="12.6440764"><ele>312.0</ele><time>2026-04-18T15:07:10.527Z</time></trkpt><trkpt lat="43.7388572" lon="12.6442095"><ele>314.0</ele><time>2026-04-18T15:07:11.528Z</time></trkpt><trkpt lat="43.7389374" lon="12.6443426"><ele>309.5</ele><time>2026-04-18T15:07:12.528Z</time></trkpt><trkpt lat="43.7390186" lon="12.6444711"><ele>305.0</ele><time>2026-04-18T15:07:13.525Z</time></trkpt><trkpt lat="43.7390904" lon="12.6446124"><ele>300.5</ele><time>2026-04-18T15:07:14.526Z</time></trkpt><trkpt lat="43.7391665" lon="12.6447386"><ele>296.0</ele><time>2026-04-18T15:07:15.528Z</time></trkpt><trkpt lat="43.7392396" lon="12.6448564"><ele>296.0</ele><time>2026-04-18T15:07:16.526Z</time></trkpt><trkpt lat="43.7393096" lon="12.644967"><ele>296.0</ele><time>2026-04-18T15:07:17.527Z</time></trkpt><trkpt lat="43.7393831" lon="12.6450722"><ele>296.0</ele><time>2026-04-18T15:07:18.528Z</time></trkpt><trkpt lat="43.7394637" lon="12.6451733"><ele>296.0</ele><time>2026-04-18T15:07:19.528Z</time></trkpt><trkpt lat="43.7395614" lon="12.6452565"><ele>296.0</ele><time>2026-04-18T15:07:20.527Z</time></trkpt><trkpt lat="43.7396699" lon="12.6453322"><ele>293.75</ele><time>2026-04-18T15:07:21.527Z</time></trkpt><trkpt lat="43.7397894" lon="12.6453895"><ele>291.5</ele><time>2026-04-18T15:07:22.527Z</time></trkpt><trkpt lat="43.7399247" lon="12.6454291"><ele>289.25</ele><time>2026-04-18T15:07:23.528Z</time></trkpt><trkpt lat="43.7400887" lon="12.6454512"><ele>287.0</ele><time>2026-04-18T15:07:24.527Z</time></trkpt><trkpt lat="43.7402813" lon="12.6454598"><ele>287.0</ele><time>2026-04-18T15:07:25.526Z</time></trkpt><trkpt lat="43.7404995" lon="12.6454749"><ele>287.0</ele><time>2026-04-18T15:07:26.527Z</time></trkpt><trkpt lat="43.7407199" lon="12.6455072"><ele>287.0</ele><time>2026-04-18T15:07:27.528Z</time></trkpt><trkpt lat="43.7409381" lon="12.6455272"><ele>289.0</ele><time>2026-04-18T15:07:28.529Z</time></trkpt><trkpt lat="43.7411514" lon="12.6455808"><ele>291.0</ele><time>2026-04-18T15:07:29.536Z</time></trkpt><trkpt lat="43.7413593" lon="12.645682"><ele>293.0</ele><time>2026-04-18T15:07:30.532Z</time></trkpt><trkpt lat="43.7415667" lon="12.6458187"><ele>293.0</ele><time>2026-04-18T15:07:31.531Z</time></trkpt><trkpt lat="43.7417658" lon="12.6459572"><ele>293.0</ele><time>2026-04-18T15:07:32.527Z</time></trkpt><trkpt lat="43.7419578" lon="12.6460746"><ele>293.0</ele><time>2026-04-18T15:07:33.528Z</time></trkpt><trkpt lat="43.7421496" lon="12.6461609"><ele>288.6666666666667</ele><time>2026-04-18T15:07:34.527Z</time></trkpt><trkpt lat="43.7423506" lon="12.646216"><ele>284.3333333333333</ele><time>2026-04-18T15:07:35.529Z</time></trkpt><trkpt lat="43.7425576" lon="12.6462326"><ele>280.0</ele><time>2026-04-18T15:07:36.527Z</time></trkpt><trkpt lat="43.7427688" lon="12.6462092"><ele>279.0</ele><time>2026-04-18T15:07:37.526Z</time></trkpt><trkpt lat="43.7429745" lon="12.6461446"><ele>278.0</ele><time>2026-04-18T15:07:38.527Z</time></trkpt><trkpt lat="43.7431815" lon="12.646055"><ele>277.0</ele><time>2026-04-18T15:07:39.525Z</time></trkpt><trkpt lat="43.7433769" lon="12.6459733"><ele>281.0</ele><time>2026-04-18T15:07:40.526Z</time></trkpt><trkpt lat="43.7435735" lon="12.6459266"><ele>285.0</ele><time>2026-04-18T15:07:41.526Z</time></trkpt><trkpt lat="43.7437766" lon="12.6459269"><ele>289.0</ele><time>2026-04-18T15:07:42.527Z</time></trkpt><trkpt lat="43.7439789" lon="12.6459918"><ele>289.0</ele><time>2026-04-18T15:07:43.526Z</time></trkpt><trkpt lat="43.744186" lon="12.6460996"><ele>289.0</ele><time>2026-04-18T15:07:44.526Z</time></trkpt><trkpt lat="43.74439" lon="12.6462124"><ele>289.0</ele><time>2026-04-18T15:07:45.525Z</time></trkpt><trkpt lat="43.7445854" lon="12.6463177"><ele>285.3333333333333</ele><time>2026-04-18T15:07:46.527Z</time></trkpt><trkpt lat="43.7447683" lon="12.6464188"><ele>281.6666666666667</ele><time>2026-04-18T15:07:47.529Z</time></trkpt><trkpt lat="43.7449417" lon="12.646518"><ele>278.0</ele><time>2026-04-18T15:07:48.525Z</time></trkpt><trkpt lat="43.7450975" lon="12.6466255"><ele>279.6666666666667</ele><time>2026-04-18T15:07:49.527Z</time></trkpt><trkpt lat="43.745241" lon="12.6467556"><ele>281.3333333333333</ele><time>2026-04-18T15:07:50.528Z</time></trkpt><trkpt lat="43.7453648" lon="12.6469243"><ele>283.0</ele><time>2026-04-18T15:07:51.528Z</time></trkpt><trkpt lat="43.7454474" lon="12.6471443"><ele>283.0</ele><time>2026-04-18T15:07:52.526Z</time></trkpt><trkpt lat="43.7454885" lon="12.6473989"><ele>283.0</ele><time>2026-04-18T15:07:53.526Z</time></trkpt><trkpt lat="43.7454841" lon="12.6476803"><ele>283.0</ele><time>2026-04-18T15:07:54.526Z</time></trkpt><trkpt lat="43.7454622" lon="12.6479744"><ele>281.3333333333333</ele><time>2026-04-18T15:07:55.526Z</time></trkpt><trkpt lat="43.7454573" lon="12.6482704"><ele>279.6666666666667</ele><time>2026-04-18T15:07:56.526Z</time></trkpt><trkpt lat="43.7454862" lon="12.6485665"><ele>278.0</ele><time>2026-04-18T15:07:57.525Z</time></trkpt><trkpt lat="43.745542" lon="12.6488558"><ele>274.0</ele><time>2026-04-18T15:07:58.526Z</time></trkpt><trkpt lat="43.7456277" lon="12.649135"><ele>270.0</ele><time>2026-04-18T15:07:59.527Z</time></trkpt><trkpt lat="43.7457343" lon="12.6494042"><ele>266.0</ele><time>2026-04-18T15:08:00.525Z</time></trkpt><trkpt lat="43.7458504" lon="12.6496668"><ele>268.0</ele><time>2026-04-18T15:08:01.525Z</time></trkpt><trkpt lat="43.745971" lon="12.6499239"><ele>270.0</ele><time>2026-04-18T15:08:02.526Z</time></trkpt><trkpt lat="43.7460966" lon="12.6501733"><ele>272.0</ele><time>2026-04-18T15:08:03.526Z</time></trkpt><trkpt lat="43.7462278" lon="12.6504155"><ele>267.0</ele><time>2026-04-18T15:08:04.529Z</time></trkpt><trkpt lat="43.7463699" lon="12.6506496"><ele>262.0</ele><time>2026-04-18T15:08:05.526Z</time></trkpt><trkpt lat="43.7465293" lon="12.6508637"><ele>257.0</ele><time>2026-04-18T15:08:06.525Z</time></trkpt><trkpt lat="43.7467033" lon="12.6510567"><ele>256.5</ele><time>2026-04-18T15:08:07.528Z</time></trkpt><trkpt lat="43.7468898" lon="12.6512407"><ele>256.0</ele><time>2026-04-18T15:08:08.527Z</time></trkpt><trkpt lat="43.7470839" lon="12.6514134"><ele>256.0</ele><time>2026-04-18T15:08:09.526Z</time></trkpt><trkpt lat="43.7472804" lon="12.6515871"><ele>256.0</ele><time>2026-04-18T15:08:10.527Z</time></trkpt><trkpt lat="43.747478" lon="12.6517609"><ele>256.0</ele><time>2026-04-18T15:08:11.526Z</time></trkpt><trkpt lat="43.747669" lon="12.6519395"><ele>256.0</ele><time>2026-04-18T15:08:12.526Z</time></trkpt><trkpt lat="43.7478582" lon="12.6521208"><ele>253.33333333333331</ele><time>2026-04-18T15:08:13.527Z</time></trkpt><trkpt lat="43.7480452" lon="12.6522902"><ele>250.66666666666669</ele><time>2026-04-18T15:08:14.526Z</time></trkpt><trkpt lat="43.7482264" lon="12.6524522"><ele>248.0</ele><time>2026-04-18T15:08:15.527Z</time></trkpt><trkpt lat="43.7484024" lon="12.6526108"><ele>246.33333333333334</ele><time>2026-04-18T15:08:16.526Z</time></trkpt><trkpt lat="43.7485767" lon="12.6527751"><ele>244.66666666666669</ele><time>2026-04-18T15:08:17.528Z</time></trkpt><trkpt lat="43.7487411" lon="12.6529419"><ele>243.0</ele><time>2026-04-18T15:08:18.527Z</time></trkpt><trkpt lat="43.7488977" lon="12.6531245"><ele>243.0</ele><time>2026-04-18T15:08:19.526Z</time></trkpt><trkpt lat="43.7490431" lon="12.6533106"><ele>243.0</ele><time>2026-04-18T15:08:20.528Z</time></trkpt><trkpt lat="43.7491833" lon="12.653491"><ele>243.0</ele><time>2026-04-18T15:08:21.532Z</time></trkpt><trkpt lat="43.7493159" lon="12.6536623"><ele>242.33333333333331</ele><time>2026-04-18T15:08:22.526Z</time></trkpt><trkpt lat="43.7494465" lon="12.6538272"><ele>241.66666666666666</ele><time>2026-04-18T15:08:23.528Z</time></trkpt><trkpt lat="43.749574" lon="12.6539874"><ele>241.0</ele><time>2026-04-18T15:08:24.527Z</time></trkpt><trkpt lat="43.7496948" lon="12.6541403"><ele>241.0</ele><time>2026-04-18T15:08:25.526Z</time></trkpt><trkpt lat="43.7498117" lon="12.6542876"><ele>241.0</ele><time>2026-04-18T15:08:26.528Z</time></trkpt><trkpt lat="43.7499211" lon="12.6544351"><ele>241.0</ele><time>2026-04-18T15:08:27.527Z</time></trkpt><trkpt lat="43.7500269" lon="12.6545901"><ele>241.33333333333331</ele><time>2026-04-18T15:08:28.528Z</time></trkpt><trkpt lat="43.7501267" lon="12.654754"><ele>241.66666666666669</ele><time>2026-04-18T15:08:29.528Z</time></trkpt><trkpt lat="43.7502173" lon="12.6549319"><ele>242.0</ele><time>2026-04-18T15:08:30.527Z</time></trkpt><trkpt lat="43.7503007" lon="12.6551241"><ele>239.66666666666669</ele><time>2026-04-18T15:08:31.526Z</time></trkpt><trkpt lat="43.750379" lon="12.6553244"><ele>237.33333333333331</ele><time>2026-04-18T15:08:32.528Z</time></trkpt><trkpt lat="43.7504581" lon="12.6555389"><ele>235.0</ele><time>2026-04-18T15:08:33.526Z</time></trkpt><trkpt lat="43.7505452" lon="12.655767"><ele>235.0</ele><time>2026-04-18T15:08:34.529Z</time></trkpt><trkpt lat="43.7506392" lon="12.6560021"><ele>235.0</ele><time>2026-04-18T15:08:35.532Z</time></trkpt><trkpt lat="43.7507277" lon="12.6562379"><ele>235.0</ele><time>2026-04-18T15:08:36.526Z</time></trkpt><trkpt lat="43.7508139" lon="12.6564762"><ele>233.66666666666666</ele><time>2026-04-18T15:08:37.526Z</time></trkpt><trkpt lat="43.7509012" lon="12.6567096"><ele>232.33333333333331</ele><time>2026-04-18T15:08:38.527Z</time></trkpt><trkpt lat="43.7509862" lon="12.6569366"><ele>231.0</ele><time>2026-04-18T15:08:39.525Z</time></trkpt><trkpt lat="43.751066" lon="12.657154"><ele>231.0</ele><time>2026-04-18T15:08:40.526Z</time></trkpt><trkpt lat="43.7511422" lon="12.6573588"><ele>231.0</ele><time>2026-04-18T15:08:41.526Z</time></trkpt><trkpt lat="43.7512142" lon="12.6575541"><ele>231.0</ele><time>2026-04-18T15:08:42.527Z</time></trkpt><trkpt lat="43.7512854" lon="12.6577369"><ele>228.0</ele><time>2026-04-18T15:08:43.526Z</time></trkpt><trkpt lat="43.7513542" lon="12.6579144"><ele>225.0</ele><time>2026-04-18T15:08:44.527Z</time></trkpt><trkpt lat="43.7514236" lon="12.658084"><ele>222.0</ele><time>2026-04-18T15:08:45.527Z</time></trkpt><trkpt lat="43.7514854" lon="12.6582489"><ele>219.0</ele><time>2026-04-18T15:08:46.526Z</time></trkpt><trkpt lat="43.751548" lon="12.6584081"><ele>219.0</ele><time>2026-04-18T15:08:47.526Z</time></trkpt><trkpt lat="43.7516119" lon="12.6585557"><ele>219.0</ele><time>2026-04-18T15:08:48.526Z</time></trkpt><trkpt lat="43.7516764" lon="12.6586955"><ele>219.0</ele><time>2026-04-18T15:08:49.527Z</time></trkpt><trkpt lat="43.7517378" lon="12.6588227"><ele>219.0</ele><time>2026-04-18T15:08:50.526Z</time></trkpt><trkpt lat="43.7517958" lon="12.6589417"><ele>218.66666666666666</ele><time>2026-04-18T15:08:51.526Z</time></trkpt><trkpt lat="43.7518494" lon="12.6590491"><ele>218.33333333333331</ele><time>2026-04-18T15:08:52.529Z</time></trkpt><trkpt lat="43.7518963" lon="12.6591466"><ele>218.0</ele><time>2026-04-18T15:08:53.526Z</time></trkpt><trkpt lat="43.7519304" lon="12.6592466"><ele>217.66666666666666</ele><time>2026-04-18T15:08:54.527Z</time></trkpt><trkpt lat="43.7519506" lon="12.6593544"><ele>217.33333333333331</ele><time>2026-04-18T15:08:55.527Z</time></trkpt><trkpt lat="43.7519693" lon="12.6594664"><ele>217.0</ele><time>2026-04-18T15:08:56.55Z</time></trkpt><trkpt lat="43.7520108" lon="12.6595621"><ele>217.0</ele><time>2026-04-18T15:08:57.525Z</time></trkpt><trkpt lat="43.7520729" lon="12.659651"><ele>217.0</ele><time>2026-04-18T15:08:58.526Z</time></trkpt><trkpt lat="43.7521484" lon="12.6597564"><ele>217.0</ele><time>2026-04-18T15:08:59.526Z</time></trkpt><trkpt lat="43.7522294" lon="12.6598776"><ele>217.0</ele><time>2026-04-18T15:09:00.525Z</time></trkpt><trkpt lat="43.752322" lon="12.6600148"><ele>217.0</ele><time>2026-04-18T15:09:01.526Z</time></trkpt><trkpt lat="43.7524225" lon="12.6601635"><ele>217.0</ele><time>2026-04-18T15:09:02.527Z</time></trkpt><trkpt lat="43.7525338" lon="12.6603147"><ele>217.0</ele><time>2026-04-18T15:09:03.526Z</time></trkpt><trkpt lat="43.7526474" lon="12.660469"><ele>216.66666666666666</ele><time>2026-04-18T15:09:04.525Z</time></trkpt><trkpt lat="43.7527601" lon="12.6606342"><ele>216.33333333333331</ele><time>2026-04-18T15:09:05.526Z</time></trkpt><trkpt lat="43.7528717" lon="12.6607957"><ele>216.0</ele><time>2026-04-18T15:09:06.526Z</time></trkpt><trkpt lat="43.7529804" lon="12.6609542"><ele>216.0</ele><time>2026-04-18T15:09:07.526Z</time></trkpt><trkpt lat="43.7530883" lon="12.6611074"><ele>216.0</ele><time>2026-04-18T15:09:08.526Z</time></trkpt><trkpt lat="43.7531946" lon="12.6612591"><ele>216.0</ele><time>2026-04-18T15:09:09.526Z</time></trkpt><trkpt lat="43.7532966" lon="12.6614155"><ele>215.0</ele><time>2026-04-18T15:09:10.526Z</time></trkpt><trkpt lat="43.7533981" lon="12.6615753"><ele>214.0</ele><time>2026-04-18T15:09:11.525Z</time></trkpt><trkpt lat="43.7534945" lon="12.6617429"><ele>213.0</ele><time>2026-04-18T15:09:12.525Z</time></trkpt><trkpt lat="43.7535904" lon="12.6619141"><ele>209.33333333333331</ele><time>2026-04-18T15:09:13.526Z</time></trkpt><trkpt lat="43.7536841" lon="12.662086"><ele>205.66666666666666</ele><time>2026-04-18T15:09:14.526Z</time></trkpt><trkpt lat="43.7537774" lon="12.6622481"><ele>202.0</ele><time>2026-04-18T15:09:15.525Z</time></trkpt><trkpt lat="43.7538647" lon="12.6624141"><ele>202.0</ele><time>2026-04-18T15:09:16.526Z</time></trkpt><trkpt lat="43.753948" lon="12.6625821"><ele>202.0</ele><time>2026-04-18T15:09:17.526Z</time></trkpt><trkpt lat="43.7540256" lon="12.6627527"><ele>202.0</ele><time>2026-04-18T15:09:18.526Z</time></trkpt><trkpt lat="43.7541018" lon="12.6629315"><ele>202.0</ele><time>2026-04-18T15:09:19.525Z</time></trkpt><trkpt lat="43.7541763" lon="12.6631107"><ele>201.5</ele><time>2026-04-18T15:09:20.526Z</time></trkpt><trkpt lat="43.7542452" lon="12.6632837"><ele>201.0</ele><time>2026-04-18T15:09:21.525Z</time></trkpt><trkpt lat="43.7543116" lon="12.6634507"><ele>200.5</ele><time>2026-04-18T15:09:22.525Z</time></trkpt><trkpt lat="43.7543739" lon="12.6636183"><ele>200.0</ele><time>2026-04-18T15:09:23.526Z</time></trkpt><trkpt lat="43.7544362" lon="12.6637878"><ele>200.0</ele><time>2026-04-18T15:09:24.526Z</time></trkpt><trkpt lat="43.7544991" lon="12.6639567"><ele>200.0</ele><time>2026-04-18T15:09:25.527Z</time></trkpt><trkpt lat="43.7545582" lon="12.6641258"><ele>200.0</ele><time>2026-04-18T15:09:26.526Z</time></trkpt><trkpt lat="43.7546114" lon="12.6643013"><ele>200.0</ele><time>2026-04-18T15:09:27.526Z</time></trkpt><trkpt lat="43.754661" lon="12.6644797"><ele>197.75</ele><time>2026-04-18T15:09:28.526Z</time></trkpt><trkpt lat="43.7547035" lon="12.6646682"><ele>195.5</ele><time>2026-04-18T15:09:29.526Z</time></trkpt><trkpt lat="43.7547446" lon="12.6648664"><ele>193.25</ele><time>2026-04-18T15:09:30.526Z</time></trkpt><trkpt lat="43.7547805" lon="12.6650696"><ele>191.0</ele><time>2026-04-18T15:09:31.526Z</time></trkpt><trkpt lat="43.7548238" lon="12.6652763"><ele>188.0</ele><time>2026-04-18T15:09:32.527Z</time></trkpt><trkpt lat="43.7548798" lon="12.6654792"><ele>185.0</ele><time>2026-04-18T15:09:33.525Z</time></trkpt><trkpt lat="43.7549524" lon="12.6656754"><ele>182.0</ele><time>2026-04-18T15:09:34.526Z</time></trkpt><trkpt lat="43.7550342" lon="12.665865"><ele>182.0</ele><time>2026-04-18T15:09:35.526Z</time></trkpt><trkpt lat="43.7551314" lon="12.6660389"><ele>182.0</ele><time>2026-04-18T15:09:36.526Z</time></trkpt><trkpt lat="43.7552424" lon="12.6661874"><ele>182.0</ele><time>2026-04-18T15:09:37.526Z</time></trkpt><trkpt lat="43.7553624" lon="12.6663076"><ele>181.5</ele><time>2026-04-18T15:09:38.526Z</time></trkpt><trkpt lat="43.7554867" lon="12.6664035"><ele>181.0</ele><time>2026-04-18T15:09:39.526Z</time></trkpt><trkpt lat="43.7556139" lon="12.6664809"><ele>180.5</ele><time>2026-04-18T15:09:40.526Z</time></trkpt><trkpt lat="43.7557396" lon="12.666544"><ele>180.0</ele><time>2026-04-18T15:09:41.526Z</time></trkpt><trkpt lat="43.7558606" lon="12.6665984"><ele>180.0</ele><time>2026-04-18T15:09:42.526Z</time></trkpt><trkpt lat="43.7559769" lon="12.6666448"><ele>180.0</ele><time>2026-04-18T15:09:43.526Z</time></trkpt><trkpt lat="43.7560929" lon="12.6666885"><ele>180.0</ele><time>2026-04-18T15:09:44.526Z</time></trkpt><trkpt lat="43.756213" lon="12.6667274"><ele>180.0</ele><time>2026-04-18T15:09:45.526Z</time></trkpt><trkpt lat="43.7563361" lon="12.6667651"><ele>179.75</ele><time>2026-04-18T15:09:46.526Z</time></trkpt><trkpt lat="43.7564615" lon="12.6667971"><ele>179.5</ele><time>2026-04-18T15:09:47.526Z</time></trkpt><trkpt lat="43.756589" lon="12.6668263"><ele>179.25</ele><time>2026-04-18T15:09:48.526Z</time></trkpt><trkpt lat="43.7567227" lon="12.6668495"><ele>179.0</ele><time>2026-04-18T15:09:49.527Z</time></trkpt><trkpt lat="43.7568602" lon="12.6668716"><ele>177.66666666666666</ele><time>2026-04-18T15:09:50.526Z</time></trkpt><trkpt lat="43.7570043" lon="12.6668891"><ele>176.33333333333334</ele><time>2026-04-18T15:09:51.527Z</time></trkpt><trkpt lat="43.7571601" lon="12.6668899"><ele>175.0</ele><time>2026-04-18T15:09:52.527Z</time></trkpt><trkpt lat="43.7573197" lon="12.6668794"><ele>175.0</ele><time>2026-04-18T15:09:53.528Z</time></trkpt><trkpt lat="43.7574775" lon="12.6668572"><ele>175.0</ele><time>2026-04-18T15:09:54.528Z</time></trkpt><trkpt lat="43.7576362" lon="12.6668385"><ele>175.0</ele><time>2026-04-18T15:09:55.526Z</time></trkpt><trkpt lat="43.7578035" lon="12.6668375"><ele>174.0</ele><time>2026-04-18T15:09:56.525Z</time></trkpt><trkpt lat="43.7579781" lon="12.6668679"><ele>173.0</ele><time>2026-04-18T15:09:57.524Z</time></trkpt><trkpt lat="43.7581511" lon="12.6669469"><ele>172.0</ele><time>2026-04-18T15:09:58.525Z</time></trkpt><trkpt lat="43.7583162" lon="12.6670758"><ele>172.0</ele><time>2026-04-18T15:09:59.525Z</time></trkpt><trkpt lat="43.7584761" lon="12.667237"><ele>172.0</ele><time>2026-04-18T15:10:00.525Z</time></trkpt><trkpt lat="43.7586323" lon="12.6674113"><ele>172.0</ele><time>2026-04-18T15:10:01.526Z</time></trkpt><trkpt lat="43.7588137" lon="12.6675404"><ele>171.33333333333334</ele><time>2026-04-18T15:10:02.525Z</time></trkpt><trkpt lat="43.7590228" lon="12.6676252"><ele>170.66666666666666</ele><time>2026-04-18T15:10:03.526Z</time></trkpt><trkpt lat="43.75925" lon="12.6676637"><ele>170.0</ele><time>2026-04-18T15:10:04.525Z</time></trkpt><trkpt lat="43.7594866" lon="12.6676844"><ele>173.0</ele><time>2026-04-18T15:10:05.526Z</time></trkpt><trkpt lat="43.759725" lon="12.6677024"><ele>176.0</ele><time>2026-04-18T15:10:06.526Z</time></trkpt><trkpt lat="43.7599629" lon="12.6677185"><ele>179.0</ele><time>2026-04-18T15:10:07.526Z</time></trkpt><trkpt lat="43.7602017" lon="12.6677378"><ele>182.0</ele><time>2026-04-18T15:10:08.526Z</time></trkpt><trkpt lat="43.7604405" lon="12.667766"><ele>176.0</ele><time>2026-04-18T15:10:09.526Z</time></trkpt><trkpt lat="43.7606793" lon="12.6678183"><ele>170.0</ele><time>2026-04-18T15:10:10.526Z</time></trkpt><trkpt lat="43.7609194" lon="12.6678926"><ele>169.5</ele><time>2026-04-18T15:10:11.526Z</time></trkpt><trkpt lat="43.7611567" lon="12.6679987"><ele>169.0</ele><time>2026-04-18T15:10:12.526Z</time></trkpt><trkpt lat="43.7613915" lon="12.6681316"><ele>169.0</ele><time>2026-04-18T15:10:13.525Z</time></trkpt><trkpt lat="43.7616148" lon="12.668302"><ele>169.0</ele><time>2026-04-18T15:10:14.525Z</time></trkpt><trkpt lat="43.7618212" lon="12.6685071"><ele>167.0</ele><time>2026-04-18T15:10:15.525Z</time></trkpt><trkpt lat="43.7620112" lon="12.6687344"><ele>165.0</ele><time>2026-04-18T15:10:16.526Z</time></trkpt><trkpt lat="43.7621969" lon="12.6689634"><ele>165.0</ele><time>2026-04-18T15:10:17.526Z</time></trkpt><trkpt lat="43.7623751" lon="12.6691825"><ele>165.0</ele><time>2026-04-18T15:10:18.526Z</time></trkpt><trkpt lat="43.7625516" lon="12.6693699"><ele>162.33333333333334</ele><time>2026-04-18T15:10:19.526Z</time></trkpt><trkpt lat="43.7627351" lon="12.6695094"><ele>159.66666666666669</ele><time>2026-04-18T15:10:20.526Z</time></trkpt><trkpt lat="43.7629452" lon="12.6695967"><ele>157.0</ele><time>2026-04-18T15:10:21.527Z</time></trkpt><trkpt lat="43.7631875" lon="12.6696482"><ele>157.0</ele><time>2026-04-18T15:10:22.525Z</time></trkpt><trkpt lat="43.7634512" lon="12.669684"><ele>157.0</ele><time>2026-04-18T15:10:23.526Z</time></trkpt><trkpt lat="43.7637189" lon="12.6697074"><ele>157.0</ele><time>2026-04-18T15:10:24.526Z</time></trkpt><trkpt lat="43.7639908" lon="12.6697191"><ele>157.0</ele><time>2026-04-18T15:10:25.526Z</time></trkpt><trkpt lat="43.764255" lon="12.6697047"><ele>157.0</ele><time>2026-04-18T15:10:26.526Z</time></trkpt><trkpt lat="43.7645125" lon="12.6696673"><ele>157.0</ele><time>2026-04-18T15:10:27.526Z</time></trkpt><trkpt lat="43.7647591" lon="12.6696017"><ele>157.0</ele><time>2026-04-18T15:10:28.525Z</time></trkpt><trkpt lat="43.7649975" lon="12.6695121"><ele>157.0</ele><time>2026-04-18T15:10:29.525Z</time></trkpt><trkpt lat="43.7652286" lon="12.669434"><ele>158.0</ele><time>2026-04-18T15:10:30.525Z</time></trkpt><trkpt lat="43.7654568" lon="12.669394"><ele>159.0</ele><time>2026-04-18T15:10:31.525Z</time></trkpt><trkpt lat="43.7656812" lon="12.6694341"><ele>158.5</ele><time>2026-04-18T15:10:32.526Z</time></trkpt><trkpt lat="43.7658973" lon="12.6695427"><ele>158.0</ele><time>2026-04-18T15:10:33.525Z</time></trkpt><trkpt lat="43.7661041" lon="12.6697145"><ele>158.0</ele><time>2026-04-18T15:10:34.528Z</time></trkpt><trkpt lat="43.7662955" lon="12.6699418"><ele>158.0</ele><time>2026-04-18T15:10:35.526Z</time></trkpt><trkpt lat="43.7664921" lon="12.6701843"><ele>155.5</ele><time>2026-04-18T15:10:36.525Z</time></trkpt><trkpt lat="43.7666906" lon="12.6704237"><ele>153.0</ele><time>2026-04-18T15:10:37.526Z</time></trkpt><trkpt lat="43.7668836" lon="12.6706608"><ele>153.5</ele><time>2026-04-18T15:10:38.527Z</time></trkpt><trkpt lat="43.7670679" lon="12.6708957"><ele>154.0</ele><time>2026-04-18T15:10:39.526Z</time></trkpt><trkpt lat="43.7672434" lon="12.6711275"><ele>154.0</ele><time>2026-04-18T15:10:40.526Z</time></trkpt><trkpt lat="43.7674261" lon="12.6713427"><ele>154.0</ele><time>2026-04-18T15:10:41.526Z</time></trkpt><trkpt lat="43.76763" lon="12.6715292"><ele>154.5</ele><time>2026-04-18T15:10:42.526Z</time></trkpt><trkpt lat="43.7678523" lon="12.6716872"><ele>155.0</ele><time>2026-04-18T15:10:43.525Z</time></trkpt><trkpt lat="43.7680924" lon="12.6718173"><ele>155.0</ele><time>2026-04-18T15:10:44.527Z</time></trkpt><trkpt lat="43.768342" lon="12.6719295"><ele>155.0</ele><time>2026-04-18T15:10:45.526Z</time></trkpt><trkpt lat="43.7685946" lon="12.6720369"><ele>153.5</ele><time>2026-04-18T15:10:46.525Z</time></trkpt><trkpt lat="43.7688492" lon="12.6721444"><ele>152.0</ele><time>2026-04-18T15:10:47.526Z</time></trkpt><trkpt lat="43.7691065" lon="12.672256"><ele>151.0</ele><time>2026-04-18T15:10:48.527Z</time></trkpt><trkpt lat="43.7693627" lon="12.6723686"><ele>150.0</ele><time>2026-04-18T15:10:49.529Z</time></trkpt><trkpt lat="43.7696196" lon="12.6724806"><ele>150.0</ele><time>2026-04-18T15:10:50.526Z</time></trkpt><trkpt lat="43.7698766" lon="12.6725969"><ele>150.0</ele><time>2026-04-18T15:10:51.525Z</time></trkpt><trkpt lat="43.770135" lon="12.6727101"><ele>150.0</ele><time>2026-04-18T15:10:52.525Z</time></trkpt><trkpt lat="43.7703935" lon="12.6728246"><ele>150.0</ele><time>2026-04-18T15:10:53.525Z</time></trkpt><trkpt lat="43.7706453" lon="12.6729369"><ele>150.0</ele><time>2026-04-18T15:10:54.526Z</time></trkpt><trkpt lat="43.7708945" lon="12.6730517"><ele>150.0</ele><time>2026-04-18T15:10:55.526Z</time></trkpt><trkpt lat="43.7711356" lon="12.6731658"><ele>152.0</ele><time>2026-04-18T15:10:56.526Z</time></trkpt><trkpt lat="43.771366" lon="12.6732881"><ele>154.0</ele><time>2026-04-18T15:10:57.526Z</time></trkpt><trkpt lat="43.7715894" lon="12.6734181"><ele>154.0</ele><time>2026-04-18T15:10:58.525Z</time></trkpt><trkpt lat="43.7718148" lon="12.6735634"><ele>154.0</ele><time>2026-04-18T15:10:59.524Z</time></trkpt><trkpt lat="43.7720429" lon="12.6737255"><ele>150.5</ele><time>2026-04-18T15:11:00.525Z</time></trkpt><trkpt lat="43.7722769" lon="12.6738972"><ele>147.0</ele><time>2026-04-18T15:11:01.525Z</time></trkpt><trkpt lat="43.7725149" lon="12.6740709"><ele>148.5</ele><time>2026-04-18T15:11:02.525Z</time></trkpt><trkpt lat="43.7727559" lon="12.6742502"><ele>150.0</ele><time>2026-04-18T15:11:03.526Z</time></trkpt><trkpt lat="43.7729934" lon="12.6744366"><ele>148.0</ele><time>2026-04-18T15:11:04.525Z</time></trkpt><trkpt lat="43.7732261" lon="12.674632"><ele>146.0</ele><time>2026-04-18T15:11:05.526Z</time></trkpt><trkpt lat="43.7734539" lon="12.6748358"><ele>146.5</ele><time>2026-04-18T15:11:06.526Z</time></trkpt><trkpt lat="43.7736684" lon="12.6750543"><ele>147.0</ele><time>2026-04-18T15:11:07.526Z</time></trkpt><trkpt lat="43.7738656" lon="12.6752973"><ele>146.0</ele><time>2026-04-18T15:11:08.525Z</time></trkpt><trkpt lat="43.7740443" lon="12.6755541"><ele>145.0</ele><time>2026-04-18T15:11:09.524Z</time></trkpt><trkpt lat="43.7742057" lon="12.6758033"><ele>149.5</ele><time>2026-04-18T15:11:10.524Z</time></trkpt><trkpt lat="43.7743607" lon="12.6760396"><ele>154.0</ele><time>2026-04-18T15:11:11.524Z</time></trkpt><trkpt lat="43.7745139" lon="12.6762646"><ele>154.0</ele><time>2026-04-18T15:11:12.526Z</time></trkpt><trkpt lat="43.7746557" lon="12.6764883"><ele>154.0</ele><time>2026-04-18T15:11:13.525Z</time></trkpt><trkpt lat="43.7747823" lon="12.6767184"><ele>154.0</ele><time>2026-04-18T15:11:14.526Z</time></trkpt><trkpt lat="43.774881" lon="12.6769652"><ele>150.66666666666669</ele><time>2026-04-18T15:11:15.525Z</time></trkpt><trkpt lat="43.7749588" lon="12.677223"><ele>147.33333333333334</ele><time>2026-04-18T15:11:16.525Z</time></trkpt><trkpt lat="43.7750332" lon="12.6774834"><ele>144.0</ele><time>2026-04-18T15:11:17.527Z</time></trkpt><trkpt lat="43.7751145" lon="12.6777406"><ele>145.0</ele><time>2026-04-18T15:11:18.526Z</time></trkpt><trkpt lat="43.7752107" lon="12.6779892"><ele>146.0</ele><time>2026-04-18T15:11:19.525Z</time></trkpt><trkpt lat="43.7753278" lon="12.6782163"><ele>147.0</ele><time>2026-04-18T15:11:20.526Z</time></trkpt><trkpt lat="43.7754671" lon="12.6784239"><ele>145.0</ele><time>2026-04-18T15:11:21.525Z</time></trkpt><trkpt lat="43.7756181" lon="12.6786227"><ele>143.0</ele><time>2026-04-18T15:11:22.525Z</time></trkpt><trkpt lat="43.7757672" lon="12.6788377"><ele>141.0</ele><time>2026-04-18T15:11:23.526Z</time></trkpt><trkpt lat="43.7759041" lon="12.6790807"><ele>143.0</ele><time>2026-04-18T15:11:24.526Z</time></trkpt><trkpt lat="43.776033" lon="12.6793491"><ele>145.0</ele><time>2026-04-18T15:11:25.526Z</time></trkpt><trkpt lat="43.776157" lon="12.6796519"><ele>145.0</ele><time>2026-04-18T15:11:26.523Z</time></trkpt><trkpt lat="43.7762785" lon="12.6799878"><ele>145.0</ele><time>2026-04-18T15:11:27.524Z</time></trkpt><trkpt lat="43.7764008" lon="12.6803428"><ele>144.0</ele><time>2026-04-18T15:11:28.527Z</time></trkpt><trkpt lat="43.7765119" lon="12.6806878"><ele>143.0</ele><time>2026-04-18T15:11:29.525Z</time></trkpt><trkpt lat="43.7766112" lon="12.6810163"><ele>140.5</ele><time>2026-04-18T15:11:30.526Z</time></trkpt><trkpt lat="43.7767062" lon="12.6813353"><ele>138.0</ele><time>2026-04-18T15:11:31.524Z</time></trkpt><trkpt lat="43.7767971" lon="12.6816523"><ele>146.0</ele><time>2026-04-18T15:11:32.525Z</time></trkpt><trkpt lat="43.776878" lon="12.6819704"><ele>154.0</ele><time>2026-04-18T15:11:33.524Z</time></trkpt><trkpt lat="43.776947" lon="12.6822888"><ele>154.0</ele><time>2026-04-18T15:11:34.524Z</time></trkpt><trkpt lat="43.776994" lon="12.6826136"><ele>154.0</ele><time>2026-04-18T15:11:35.525Z</time></trkpt><trkpt lat="43.7770033" lon="12.6829325"><ele>152.5</ele><time>2026-04-18T15:11:36.525Z</time></trkpt><trkpt lat="43.7769814" lon="12.6832518"><ele>151.0</ele><time>2026-04-18T15:11:37.524Z</time></trkpt><trkpt lat="43.7769586" lon="12.6835632"><ele>148.66666666666669</ele><time>2026-04-18T15:11:38.525Z</time></trkpt><trkpt lat="43.7769401" lon="12.6838514"><ele>146.33333333333334</ele><time>2026-04-18T15:11:39.524Z</time></trkpt><trkpt lat="43.776926" lon="12.6841181"><ele>144.0</ele><time>2026-04-18T15:11:40.525Z</time></trkpt><trkpt lat="43.7769322" lon="12.6843783"><ele>140.33333333333334</ele><time>2026-04-18T15:11:41.526Z</time></trkpt><trkpt lat="43.7769525" lon="12.6846307"><ele>136.66666666666669</ele><time>2026-04-18T15:11:42.524Z</time></trkpt><trkpt lat="43.77703" lon="12.6848758"><ele>133.0</ele><time>2026-04-18T15:11:43.524Z</time></trkpt><trkpt lat="43.777166" lon="12.6851002"><ele>131.5</ele><time>2026-04-18T15:11:44.524Z</time></trkpt><trkpt lat="43.7773527" lon="12.6852965"><ele>130.0</ele><time>2026-04-18T15:11:45.524Z</time></trkpt><trkpt lat="43.7775807" lon="12.6854709"><ele>130.5</ele><time>2026-04-18T15:11:46.524Z</time></trkpt><trkpt lat="43.7778248" lon="12.6856535"><ele>131.0</ele><time>2026-04-18T15:11:47.525Z</time></trkpt><trkpt lat="43.7780664" lon="12.6858469"><ele>131.0</ele><time>2026-04-18T15:11:48.525Z</time></trkpt><trkpt lat="43.7783026" lon="12.6860374"><ele>131.0</ele><time>2026-04-18T15:11:49.524Z</time></trkpt><trkpt lat="43.7785333" lon="12.6862226"><ele>130.5</ele><time>2026-04-18T15:11:50.526Z</time></trkpt><trkpt lat="43.7787557" lon="12.6864065"><ele>130.0</ele><time>2026-04-18T15:11:51.525Z</time></trkpt><trkpt lat="43.7789772" lon="12.6865857"><ele>130.0</ele><time>2026-04-18T15:11:52.524Z</time></trkpt><trkpt lat="43.7791973" lon="12.6867453"><ele>130.0</ele><time>2026-04-18T15:11:53.525Z</time></trkpt><trkpt lat="43.7794213" lon="12.6868881"><ele>129.5</ele><time>2026-04-18T15:11:54.526Z</time></trkpt><trkpt lat="43.779648" lon="12.6870239"><ele>129.0</ele><time>2026-04-18T15:11:55.526Z</time></trkpt><trkpt lat="43.7798781" lon="12.6871649"><ele>129.0</ele><time>2026-04-18T15:11:56.526Z</time></trkpt><trkpt lat="43.78011" lon="12.6873183"><ele>129.0</ele><time>2026-04-18T15:11:57.526Z</time></trkpt><trkpt lat="43.7803417" lon="12.6874833"><ele>129.5</ele><time>2026-04-18T15:11:58.525Z</time></trkpt><trkpt lat="43.7805533" lon="12.687675"><ele>130.0</ele><time>2026-04-18T15:11:59.524Z</time></trkpt><trkpt lat="43.7807517" lon="12.6879067"><ele>129.0</ele><time>2026-04-18T15:12:00.527Z</time></trkpt><trkpt lat="43.78093" lon="12.68817"><ele>128.0</ele><time>2026-04-18T15:12:01.524Z</time></trkpt><trkpt lat="43.781095" lon="12.68844"><ele>129.0</ele><time>2026-04-18T15:12:02.525Z</time></trkpt><trkpt lat="43.781245" lon="12.68872"><ele>130.0</ele><time>2026-04-18T15:12:03.525Z</time></trkpt><trkpt lat="43.781385" lon="12.6890067"><ele>130.0</ele><time>2026-04-18T15:12:04.523Z</time></trkpt><trkpt lat="43.78151" lon="12.6893"><ele>130.0</ele><time>2026-04-18T15:12:05.524Z</time></trkpt><trkpt lat="43.78161" lon="12.68961"><ele>128.0</ele><time>2026-04-18T15:12:06.524Z</time></trkpt><trkpt lat="43.7816983" lon="12.6899367"><ele>126.0</ele><time>2026-04-18T15:12:07.529Z</time></trkpt><trkpt lat="43.7817867" lon="12.6902667"><ele>131.5</ele><time>2026-04-18T15:12:08.525Z</time></trkpt><trkpt lat="43.7818683" lon="12.6905983"><ele>137.0</ele><time>2026-04-18T15:12:09.525Z</time></trkpt><trkpt lat="43.7819467" lon="12.6909183"><ele>137.0</ele><time>2026-04-18T15:12:10.525Z</time></trkpt><trkpt lat="43.7820117" lon="12.6912517"><ele>137.0</ele><time>2026-04-18T15:12:11.524Z</time></trkpt><trkpt lat="43.7820517" lon="12.6915967"><ele>134.5</ele><time>2026-04-18T15:12:12.524Z</time></trkpt><trkpt lat="43.782075" lon="12.6919467"><ele>132.0</ele><time>2026-04-18T15:12:13.524Z</time></trkpt><trkpt lat="43.7820717" lon="12.6923117"><ele>132.0</ele><time>2026-04-18T15:12:14.524Z</time></trkpt><trkpt lat="43.7820533" lon="12.6926717"><ele>132.0</ele><time>2026-04-18T15:12:15.525Z</time></trkpt><trkpt lat="43.7820133" lon="12.6930267"><ele>132.0</ele><time>2026-04-18T15:12:16.525Z</time></trkpt><trkpt lat="43.7819533" lon="12.6933767"><ele>132.0</ele><time>2026-04-18T15:12:17.525Z</time></trkpt><trkpt lat="43.7818883" lon="12.693715"><ele>128.0</ele><time>2026-04-18T15:12:18.525Z</time></trkpt><trkpt lat="43.7818183" lon="12.6940517"><ele>124.0</ele><time>2026-04-18T15:12:19.525Z</time></trkpt><trkpt lat="43.7817467" lon="12.6943833"><ele>125.5</ele><time>2026-04-18T15:12:20.525Z</time></trkpt><trkpt lat="43.7816767" lon="12.694715"><ele>127.0</ele><time>2026-04-18T15:12:21.524Z</time></trkpt><trkpt lat="43.7816133" lon="12.6950433"><ele>125.5</ele><time>2026-04-18T15:12:22.523Z</time></trkpt><trkpt lat="43.7815517" lon="12.6953683"><ele>124.0</ele><time>2026-04-18T15:12:23.524Z</time></trkpt><trkpt lat="43.7814933" lon="12.69569"><ele>124.0</ele><time>2026-04-18T15:12:24.525Z</time></trkpt><trkpt lat="43.7814267" lon="12.6960167"><ele>124.0</ele><time>2026-04-18T15:12:25.524Z</time></trkpt><trkpt lat="43.7813617" lon="12.696335"><ele>124.0</ele><time>2026-04-18T15:12:26.524Z</time></trkpt><trkpt lat="43.7812983" lon="12.6966517"><ele>124.0</ele><time>2026-04-18T15:12:27.524Z</time></trkpt><trkpt lat="43.781235" lon="12.6969683"><ele>124.0</ele><time>2026-04-18T15:12:28.525Z</time></trkpt><trkpt lat="43.7811683" lon="12.6972783"><ele>124.0</ele><time>2026-04-18T15:12:29.526Z</time></trkpt><trkpt lat="43.7811067" lon="12.6975883"><ele>123.0</ele><time>2026-04-18T15:12:30.524Z</time></trkpt><trkpt lat="43.78104" lon="12.697895"><ele>122.0</ele><time>2026-04-18T15:12:31.524Z</time></trkpt><trkpt lat="43.7809777" lon="12.6982116"><ele>122.0</ele><time>2026-04-18T15:12:32.528Z</time></trkpt><trkpt lat="43.7809164" lon="12.6985286"><ele>122.0</ele><time>2026-04-18T15:12:33.525Z</time></trkpt><trkpt lat="43.7808572" lon="12.6988474"><ele>122.0</ele><time>2026-04-18T15:12:34.524Z</time></trkpt><trkpt lat="43.7807966" lon="12.69917"><ele>122.0</ele><time>2026-04-18T15:12:35.525Z</time></trkpt><trkpt lat="43.7807369" lon="12.699493"><ele>122.0</ele><time>2026-04-18T15:12:36.524Z</time></trkpt><trkpt lat="43.7806741" lon="12.6998114"><ele>122.0</ele><time>2026-04-18T15:12:37.524Z</time></trkpt><trkpt lat="43.7806166" lon="12.700132"><ele>122.0</ele><time>2026-04-18T15:12:38.523Z</time></trkpt><trkpt lat="43.7805592" lon="12.7004531"><ele>122.0</ele><time>2026-04-18T15:12:39.524Z</time></trkpt><trkpt lat="43.7805194" lon="12.7007867"><ele>121.5</ele><time>2026-04-18T15:12:40.524Z</time></trkpt><trkpt lat="43.7804972" lon="12.7011322"><ele>121.0</ele><time>2026-04-18T15:12:41.525Z</time></trkpt><trkpt lat="43.7804953" lon="12.7014836"><ele>121.0</ele><time>2026-04-18T15:12:42.524Z</time></trkpt><trkpt lat="43.7805072" lon="12.7018389"><ele>121.0</ele><time>2026-04-18T15:12:43.524Z</time></trkpt><trkpt lat="43.7805283" lon="12.7021995"><ele>121.0</ele><time>2026-04-18T15:12:44.524Z</time></trkpt><trkpt lat="43.7805667" lon="12.702559"><ele>121.0</ele><time>2026-04-18T15:12:45.53Z</time></trkpt><trkpt lat="43.7806251" lon="12.7029146"><ele>120.5</ele><time>2026-04-18T15:12:46.525Z</time></trkpt><trkpt lat="43.7806981" lon="12.7032632"><ele>120.0</ele><time>2026-04-18T15:12:47.527Z</time></trkpt><trkpt lat="43.7807787" lon="12.7036051"><ele>118.5</ele><time>2026-04-18T15:12:48.527Z</time></trkpt><trkpt lat="43.7808393" lon="12.7039462"><ele>117.0</ele><time>2026-04-18T15:12:49.526Z</time></trkpt><trkpt lat="43.7808731" lon="12.7042929"><ele>115.5</ele><time>2026-04-18T15:12:50.526Z</time></trkpt><trkpt lat="43.7808678" lon="12.7046435"><ele>114.0</ele><time>2026-04-18T15:12:51.526Z</time></trkpt><trkpt lat="43.7808389" lon="12.7049963"><ele>113.5</ele><time>2026-04-18T15:12:52.525Z</time></trkpt><trkpt lat="43.7807911" lon="12.7053466"><ele>113.0</ele><time>2026-04-18T15:12:53.53Z</time></trkpt><trkpt lat="43.7807281" lon="12.7056861"><ele>113.0</ele><time>2026-04-18T15:12:54.526Z</time></trkpt><trkpt lat="43.7806721" lon="12.706024"><ele>113.0</ele><time>2026-04-18T15:12:55.529Z</time></trkpt><trkpt lat="43.7806267" lon="12.7063704"><ele>113.0</ele><time>2026-04-18T15:12:56.525Z</time></trkpt><trkpt lat="43.7806034" lon="12.7067256"><ele>113.0</ele><time>2026-04-18T15:12:57.525Z</time></trkpt><trkpt lat="43.7806063" lon="12.7070846"><ele>113.0</ele><time>2026-04-18T15:12:58.524Z</time></trkpt><trkpt lat="43.7806268" lon="12.7074432"><ele>113.0</ele><time>2026-04-18T15:12:59.524Z</time></trkpt><trkpt lat="43.7806447" lon="12.7077997"><ele>114.0</ele><time>2026-04-18T15:13:00.524Z</time></trkpt><trkpt lat="43.780664" lon="12.7081573"><ele>115.0</ele><time>2026-04-18T15:13:01.524Z</time></trkpt><trkpt lat="43.780699" lon="12.7085161"><ele>117.5</ele><time>2026-04-18T15:13:02.525Z</time></trkpt><trkpt lat="43.7807281" lon="12.7088679"><ele>120.0</ele><time>2026-04-18T15:13:03.524Z</time></trkpt><trkpt lat="43.7807785" lon="12.709213"><ele>122.5</ele><time>2026-04-18T15:13:04.524Z</time></trkpt><trkpt lat="43.7808517" lon="12.709545"><ele>125.0</ele><time>2026-04-18T15:13:05.525Z</time></trkpt><trkpt lat="43.7809567" lon="12.70985"><ele>121.0</ele><time>2026-04-18T15:13:06.527Z</time></trkpt><trkpt lat="43.781085" lon="12.71014"><ele>117.0</ele><time>2026-04-18T15:13:07.525Z</time></trkpt><trkpt lat="43.78122" lon="12.7104167"><ele>117.0</ele><time>2026-04-18T15:13:08.525Z</time></trkpt><trkpt lat="43.7813783" lon="12.71069"><ele>117.0</ele><time>2026-04-18T15:13:09.526Z</time></trkpt><trkpt lat="43.781535" lon="12.7109683"><ele>122.0</ele><time>2026-04-18T15:13:10.524Z</time></trkpt><trkpt lat="43.7816833" lon="12.7112617"><ele>127.0</ele><time>2026-04-18T15:13:11.525Z</time></trkpt><trkpt lat="43.7818283" lon="12.7115517"><ele>127.0</ele><time>2026-04-18T15:13:12.525Z</time></trkpt><trkpt lat="43.7819583" lon="12.71186"><ele>127.0</ele><time>2026-04-18T15:13:13.526Z</time></trkpt><trkpt lat="43.7820517" lon="12.7121933"><ele>127.0</ele><time>2026-04-18T15:13:14.527Z</time></trkpt><trkpt lat="43.7821167" lon="12.7125317"><ele>127.0</ele><time>2026-04-18T15:13:15.524Z</time></trkpt><trkpt lat="43.7821567" lon="12.712885"><ele>127.5</ele><time>2026-04-18T15:13:16.524Z</time></trkpt><trkpt lat="43.7821767" lon="12.7132517"><ele>128.0</ele><time>2026-04-18T15:13:17.525Z</time></trkpt><trkpt lat="43.7821833" lon="12.71363"><ele>128.0</ele><time>2026-04-18T15:13:18.525Z</time></trkpt><trkpt lat="43.782185" lon="12.714005"><ele>128.0</ele><time>2026-04-18T15:13:19.525Z</time></trkpt><trkpt lat="43.7821967" lon="12.7143633"><ele>127.0</ele><time>2026-04-18T15:13:20.524Z</time></trkpt><trkpt lat="43.7822183" lon="12.71471"><ele>126.0</ele><time>2026-04-18T15:13:21.525Z</time></trkpt><trkpt lat="43.7822483" lon="12.7150567"><ele>123.0</ele><time>2026-04-18T15:13:22.526Z</time></trkpt><trkpt lat="43.7822967" lon="12.7154067"><ele>120.0</ele><time>2026-04-18T15:13:23.53Z</time></trkpt><trkpt lat="43.7823867" lon="12.7157567"><ele>116.5</ele><time>2026-04-18T15:13:24.529Z</time></trkpt><trkpt lat="43.7825167" lon="12.7160967"><ele>113.0</ele><time>2026-04-18T15:13:25.524Z</time></trkpt><trkpt lat="43.782685" lon="12.7164217"><ele>109.5</ele><time>2026-04-18T15:13:26.526Z</time></trkpt><trkpt lat="43.782865" lon="12.7167483"><ele>106.0</ele><time>2026-04-18T15:13:27.525Z</time></trkpt><trkpt lat="43.7830817" lon="12.71706"><ele>105.5</ele><time>2026-04-18T15:13:28.529Z</time></trkpt><trkpt lat="43.7832933" lon="12.7173817"><ele>105.0</ele><time>2026-04-18T15:13:29.524Z</time></trkpt><trkpt lat="43.783495" lon="12.717695"><ele>105.5</ele><time>2026-04-18T15:13:30.525Z</time></trkpt><trkpt lat="43.783685" lon="12.717995"><ele>106.0</ele><time>2026-04-18T15:13:31.525Z</time></trkpt><trkpt lat="43.783875" lon="12.71828"><ele>106.0</ele><time>2026-04-18T15:13:32.536Z</time></trkpt><trkpt lat="43.78407" lon="12.718535"><ele>106.0</ele><time>2026-04-18T15:13:33.547Z</time></trkpt><trkpt lat="43.7842717" lon="12.7187633"><ele>106.5</ele><time>2026-04-18T15:13:34.526Z</time></trkpt><trkpt lat="43.7845067" lon="12.7189333"><ele>107.0</ele><time>2026-04-18T15:13:35.525Z</time></trkpt><trkpt lat="43.784755" lon="12.7190717"><ele>107.0</ele><time>2026-04-18T15:13:36.525Z</time></trkpt><trkpt lat="43.785005" lon="12.7191983"><ele>107.0</ele><time>2026-04-18T15:13:37.529Z</time></trkpt><trkpt lat="43.7852517" lon="12.7193383"><ele>106.0</ele><time>2026-04-18T15:13:38.524Z</time></trkpt><trkpt lat="43.7854883" lon="12.7195217"><ele>105.0</ele><time>2026-04-18T15:13:39.525Z</time></trkpt><trkpt lat="43.7857147" lon="12.7197483"><ele>105.0</ele><time>2026-04-18T15:13:40.524Z</time></trkpt><trkpt lat="43.785933" lon="12.7199996"><ele>105.0</ele><time>2026-04-18T15:13:41.53Z</time></trkpt><trkpt lat="43.7861441" lon="12.7202674"><ele>105.5</ele><time>2026-04-18T15:13:42.523Z</time></trkpt><trkpt lat="43.7863556" lon="12.7205411"><ele>106.0</ele><time>2026-04-18T15:13:43.523Z</time></trkpt><trkpt lat="43.7865729" lon="12.7208068"><ele>104.5</ele><time>2026-04-18T15:13:44.525Z</time></trkpt><trkpt lat="43.7867957" lon="12.7210664"><ele>103.0</ele><time>2026-04-18T15:13:45.526Z</time></trkpt><trkpt lat="43.787023" lon="12.7213249"><ele>103.0</ele><time>2026-04-18T15:13:46.524Z</time></trkpt><trkpt lat="43.7872543" lon="12.7215858"><ele>103.0</ele><time>2026-04-18T15:13:47.525Z</time></trkpt><trkpt lat="43.7874876" lon="12.72185"><ele>102.0</ele><time>2026-04-18T15:13:48.525Z</time></trkpt><trkpt lat="43.7877189" lon="12.7221137"><ele>101.0</ele><time>2026-04-18T15:13:49.524Z</time></trkpt><trkpt lat="43.7879474" lon="12.7223741"><ele>101.0</ele><time>2026-04-18T15:13:50.525Z</time></trkpt><trkpt lat="43.7881695" lon="12.7226327"><ele>101.0</ele><time>2026-04-18T15:13:51.525Z</time></trkpt><trkpt lat="43.7883909" lon="12.7228858"><ele>99.5</ele><time>2026-04-18T15:13:52.524Z</time></trkpt><trkpt lat="43.788605" lon="12.7231387"><ele>98.0</ele><time>2026-04-18T15:13:53.524Z</time></trkpt><trkpt lat="43.7888127" lon="12.7233823"><ele>98.5</ele><time>2026-04-18T15:13:54.524Z</time></trkpt><trkpt lat="43.7890209" lon="12.7236084"><ele>99.0</ele><time>2026-04-18T15:13:55.526Z</time></trkpt><trkpt lat="43.7892367" lon="12.7238098"><ele>98.5</ele><time>2026-04-18T15:13:56.524Z</time></trkpt><trkpt lat="43.7894583" lon="12.7239892"><ele>98.0</ele><time>2026-04-18T15:13:57.525Z</time></trkpt><trkpt lat="43.7896986" lon="12.7241345"><ele>98.0</ele><time>2026-04-18T15:13:58.524Z</time></trkpt><trkpt lat="43.7899493" lon="12.7242516"><ele>98.0</ele><time>2026-04-18T15:13:59.524Z</time></trkpt><trkpt lat="43.7902146" lon="12.7243358"><ele>100.0</ele><time>2026-04-18T15:14:00.524Z</time></trkpt><trkpt lat="43.7904862" lon="12.7243776"><ele>102.0</ele><time>2026-04-18T15:14:01.526Z</time></trkpt><trkpt lat="43.7907681" lon="12.7243723"><ele>103.5</ele><time>2026-04-18T15:14:02.524Z</time></trkpt><trkpt lat="43.7910584" lon="12.7243267"><ele>105.0</ele><time>2026-04-18T15:14:03.524Z</time></trkpt><trkpt lat="43.7913512" lon="12.7242594"><ele>105.0</ele><time>2026-04-18T15:14:04.525Z</time></trkpt><trkpt lat="43.791642" lon="12.7241598"><ele>105.0</ele><time>2026-04-18T15:14:05.525Z</time></trkpt><trkpt lat="43.7919344" lon="12.7240475"><ele>106.0</ele><time>2026-04-18T15:14:06.525Z</time></trkpt><trkpt lat="43.7922224" lon="12.7239426"><ele>107.0</ele><time>2026-04-18T15:14:07.525Z</time></trkpt><trkpt lat="43.7925056" lon="12.7238426"><ele>107.5</ele><time>2026-04-18T15:14:08.524Z</time></trkpt><trkpt lat="43.7927888" lon="12.7237408"><ele>108.0</ele><time>2026-04-18T15:14:09.523Z</time></trkpt><trkpt lat="43.7930716" lon="12.7236358"><ele>103.5</ele><time>2026-04-18T15:14:10.523Z</time></trkpt><trkpt lat="43.793352" lon="12.7235351"><ele>99.0</ele><time>2026-04-18T15:14:11.525Z</time></trkpt><trkpt lat="43.7936285" lon="12.7234364"><ele>98.0</ele><time>2026-04-18T15:14:12.523Z</time></trkpt><trkpt lat="43.793897" lon="12.7233426"><ele>97.0</ele><time>2026-04-18T15:14:13.523Z</time></trkpt><trkpt lat="43.7941445" lon="12.7232543"><ele>95.0</ele><time>2026-04-18T15:14:14.524Z</time></trkpt><trkpt lat="43.794376" lon="12.7231711"><ele>93.0</ele><time>2026-04-18T15:14:15.523Z</time></trkpt><trkpt lat="43.7945944" lon="12.723094"><ele>93.0</ele><time>2026-04-18T15:14:16.524Z</time></trkpt><trkpt lat="43.7947984" lon="12.7230221"><ele>93.0</ele><time>2026-04-18T15:14:17.525Z</time></trkpt><trkpt lat="43.7949964" lon="12.7229534"><ele>93.0</ele><time>2026-04-18T15:14:18.522Z</time></trkpt><trkpt lat="43.795179" lon="12.7228981"><ele>93.66666666666667</ele><time>2026-04-18T15:14:19.523Z</time></trkpt><trkpt lat="43.7953537" lon="12.7228449"><ele>94.33333333333334</ele><time>2026-04-18T15:14:20.524Z</time></trkpt><trkpt lat="43.795525" lon="12.7227957"><ele>95.0</ele><time>2026-04-18T15:14:21.523Z</time></trkpt><trkpt lat="43.7956964" lon="12.7227506"><ele>96.0</ele><time>2026-04-18T15:14:22.523Z</time></trkpt><trkpt lat="43.7958582" lon="12.7227202"><ele>97.0</ele><time>2026-04-18T15:14:23.523Z</time></trkpt><trkpt lat="43.7960105" lon="12.7226917"><ele>98.0</ele><time>2026-04-18T15:14:24.523Z</time></trkpt><trkpt lat="43.7961517" lon="12.7226661"><ele>100.0</ele><time>2026-04-18T15:14:25.522Z</time></trkpt><trkpt lat="43.7962815" lon="12.7226547"><ele>102.0</ele><time>2026-04-18T15:14:26.526Z</time></trkpt><trkpt lat="43.7964083" lon="12.7226593"><ele>104.0</ele><time>2026-04-18T15:14:27.523Z</time></trkpt><trkpt lat="43.7965387" lon="12.7226824"><ele>106.0</ele><time>2026-04-18T15:14:28.523Z</time></trkpt><trkpt lat="43.796674" lon="12.7227085"><ele>106.0</ele><time>2026-04-18T15:14:29.523Z</time></trkpt><trkpt lat="43.7968192" lon="12.7227244"><ele>106.0</ele><time>2026-04-18T15:14:30.523Z</time></trkpt><trkpt lat="43.7969635" lon="12.7227373"><ele>106.0</ele><time>2026-04-18T15:14:31.522Z</time></trkpt><trkpt lat="43.797109" lon="12.7227509"><ele>106.0</ele><time>2026-04-18T15:14:32.523Z</time></trkpt><trkpt lat="43.7972573" lon="12.7227683"><ele>103.33333333333334</ele><time>2026-04-18T15:14:33.524Z</time></trkpt><trkpt lat="43.7974111" lon="12.7227882"><ele>100.66666666666666</ele><time>2026-04-18T15:14:34.523Z</time></trkpt><trkpt lat="43.7975679" lon="12.722806"><ele>98.0</ele><time>2026-04-18T15:14:35.525Z</time></trkpt><trkpt lat="43.7977268" lon="12.7228253"><ele>97.66666666666666</ele><time>2026-04-18T15:14:36.524Z</time></trkpt><trkpt lat="43.7978881" lon="12.722845"><ele>97.33333333333334</ele><time>2026-04-18T15:14:37.526Z</time></trkpt><trkpt lat="43.7980489" lon="12.7228671"><ele>97.0</ele><time>2026-04-18T15:14:38.529Z</time></trkpt><trkpt lat="43.7982116" lon="12.7228824"><ele>97.0</ele><time>2026-04-18T15:14:39.523Z</time></trkpt><trkpt lat="43.7983762" lon="12.7228964"><ele>97.0</ele><time>2026-04-18T15:14:40.542Z</time></trkpt><trkpt lat="43.7985348" lon="12.7229164"><ele>97.0</ele><time>2026-04-18T15:14:41.525Z</time></trkpt><trkpt lat="43.7986933" lon="12.7229378"><ele>96.33333333333334</ele><time>2026-04-18T15:14:42.527Z</time></trkpt><trkpt lat="43.7988459" lon="12.7229568"><ele>95.66666666666667</ele><time>2026-04-18T15:14:43.523Z</time></trkpt><trkpt lat="43.7989958" lon="12.7229725"><ele>95.0</ele><time>2026-04-18T15:14:44.524Z</time></trkpt><trkpt lat="43.7991416" lon="12.7229858"><ele>95.0</ele><time>2026-04-18T15:14:45.523Z</time></trkpt><trkpt lat="43.7992853" lon="12.722993"><ele>95.0</ele><time>2026-04-18T15:14:46.533Z</time></trkpt><trkpt lat="43.7994247" lon="12.7229862"><ele>95.0</ele><time>2026-04-18T15:14:47.525Z</time></trkpt><trkpt lat="43.7995673" lon="12.7229688"><ele>95.0</ele><time>2026-04-18T15:14:48.523Z</time></trkpt><trkpt lat="43.7997134" lon="12.7229433"><ele>95.33333333333334</ele><time>2026-04-18T15:14:49.524Z</time></trkpt><trkpt lat="43.7998641" lon="12.7229085"><ele>95.66666666666667</ele><time>2026-04-18T15:14:50.525Z</time></trkpt><trkpt lat="43.8000188" lon="12.7228672"><ele>96.0</ele><time>2026-04-18T15:14:51.531Z</time></trkpt><trkpt lat="43.8001754" lon="12.7228222"><ele>97.0</ele><time>2026-04-18T15:14:52.523Z</time></trkpt><trkpt lat="43.8003391" lon="12.7227763"><ele>98.0</ele><time>2026-04-18T15:14:53.54Z</time></trkpt><trkpt lat="43.8005007" lon="12.7227296"><ele>99.0</ele><time>2026-04-18T15:14:54.525Z</time></trkpt><trkpt lat="43.8006686" lon="12.7226821"><ele>99.0</ele><time>2026-04-18T15:14:55.527Z</time></trkpt><trkpt lat="43.8008386" lon="12.7226426"><ele>99.0</ele><time>2026-04-18T15:14:56.525Z</time></trkpt><trkpt lat="43.8010109" lon="12.7226064"><ele>99.0</ele><time>2026-04-18T15:14:57.528Z</time></trkpt><trkpt lat="43.801187" lon="12.7225767"><ele>95.0</ele><time>2026-04-18T15:14:58.524Z</time></trkpt><trkpt lat="43.8015483" lon="12.7225497"><ele>91.0</ele><time>2026-04-18T15:15:00.537Z</time></trkpt><trkpt lat="43.8017279" lon="12.7225606"><ele>90.66666666666666</ele><time>2026-04-18T15:15:01.526Z</time></trkpt><trkpt lat="43.8019109" lon="12.7225902"><ele>90.33333333333333</ele><time>2026-04-18T15:15:02.528Z</time></trkpt><trkpt lat="43.8020919" lon="12.7226334"><ele>90.0</ele><time>2026-04-18T15:15:03.526Z</time></trkpt><trkpt lat="43.8022682" lon="12.7226909"><ele>88.5</ele><time>2026-04-18T15:15:04.527Z</time></trkpt><trkpt lat="43.8024404" lon="12.7227669"><ele>87.0</ele><time>2026-04-18T15:15:05.529Z</time></trkpt><trkpt lat="43.8027766" lon="12.7229609"><ele>90.66666666666666</ele><time>2026-04-18T15:15:07.543Z</time></trkpt><trkpt lat="43.8029408" lon="12.7230752"><ele>94.33333333333333</ele><time>2026-04-18T15:15:08.526Z</time></trkpt><trkpt lat="43.8031053" lon="12.7232006"><ele>98.0</ele><time>2026-04-18T15:15:09.641Z</time></trkpt><trkpt lat="43.8034073" lon="12.7234652"><ele>97.33333333333333</ele><time>2026-04-18T15:15:11.524Z</time></trkpt><trkpt lat="43.8035622" lon="12.7236043"><ele>96.66666666666666</ele><time>2026-04-18T15:15:12.528Z</time></trkpt><trkpt lat="43.8037169" lon="12.7237472"><ele>96.0</ele><time>2026-04-18T15:15:13.533Z</time></trkpt><trkpt lat="43.8038706" lon="12.7238866"><ele>96.0</ele><time>2026-04-18T15:15:14.536Z</time></trkpt><trkpt lat="43.8040261" lon="12.7240154"><ele>96.0</ele><time>2026-04-18T15:15:15.524Z</time></trkpt><trkpt lat="43.804184" lon="12.7241403"><ele>96.0</ele><time>2026-04-18T15:15:16.532Z</time></trkpt><trkpt lat="43.8043433" lon="12.7242576"><ele>94.33333333333333</ele><time>2026-04-18T15:15:17.527Z</time></trkpt><trkpt lat="43.8045061" lon="12.7243702"><ele>92.66666666666666</ele><time>2026-04-18T15:15:18.523Z</time></trkpt><trkpt lat="43.8046712" lon="12.7244839"><ele>91.0</ele><time>2026-04-18T15:15:19.526Z</time></trkpt><trkpt lat="43.8048352" lon="12.7245939"><ele>91.0</ele><time>2026-04-18T15:15:20.525Z</time></trkpt><trkpt lat="43.8050004" lon="12.7247047"><ele>91.0</ele><time>2026-04-18T15:15:21.534Z</time></trkpt><trkpt lat="43.8051633" lon="12.7248159"><ele>91.0</ele><time>2026-04-18T15:15:22.527Z</time></trkpt><trkpt lat="43.8053251" lon="12.7249321"><ele>90.33333333333333</ele><time>2026-04-18T15:15:23.526Z</time></trkpt><trkpt lat="43.8054855" lon="12.7250567"><ele>89.66666666666667</ele><time>2026-04-18T15:15:24.54Z</time></trkpt><trkpt lat="43.8056489" lon="12.7251823"><ele>89.0</ele><time>2026-04-18T15:15:25.532Z</time></trkpt><trkpt lat="43.8058119" lon="12.7253059"><ele>89.0</ele><time>2026-04-18T15:15:26.527Z</time></trkpt><trkpt lat="43.8059718" lon="12.7254206"><ele>89.0</ele><time>2026-04-18T15:15:27.529Z</time></trkpt><trkpt lat="43.806133" lon="12.7255241"><ele>89.0</ele><time>2026-04-18T15:15:28.526Z</time></trkpt><trkpt lat="43.8062982" lon="12.7256237"><ele>91.33333333333334</ele><time>2026-04-18T15:15:29.53Z</time></trkpt><trkpt lat="43.8064648" lon="12.7257173"><ele>93.66666666666667</ele><time>2026-04-18T15:15:30.526Z</time></trkpt><trkpt lat="43.8066331" lon="12.7258186"><ele>96.0</ele><time>2026-04-18T15:15:31.526Z</time></trkpt><trkpt lat="43.806966" lon="12.7260029"><ele>96.33333333333334</ele><time>2026-04-18T15:15:33.536Z</time></trkpt><trkpt lat="43.8071285" lon="12.7260885"><ele>96.66666666666667</ele><time>2026-04-18T15:15:34.523Z</time></trkpt><trkpt lat="43.8072948" lon="12.7261583"><ele>97.0</ele><time>2026-04-18T15:15:35.522Z</time></trkpt><trkpt lat="43.8074601" lon="12.7262241"><ele>97.0</ele><time>2026-04-18T15:15:36.523Z</time></trkpt><trkpt lat="43.8076325" lon="12.7262825"><ele>97.0</ele><time>2026-04-18T15:15:37.524Z</time></trkpt><trkpt lat="43.8078071" lon="12.7263352"><ele>97.0</ele><time>2026-04-18T15:15:38.523Z</time></trkpt><trkpt lat="43.8079792" lon="12.726394"><ele>96.5</ele><time>2026-04-18T15:15:39.524Z</time></trkpt><trkpt lat="43.80833" lon="12.7265126"><ele>96.0</ele><time>2026-04-18T15:15:41.523Z</time></trkpt><trkpt lat="43.8086413" lon="12.7266085"><ele>96.0</ele><time>2026-04-18T15:15:43.531Z</time></trkpt><trkpt lat="43.8087834" lon="12.7266499"><ele>96.0</ele><time>2026-04-18T15:15:44.553Z</time></trkpt><trkpt lat="43.8089155" lon="12.7266899"><ele>96.0</ele><time>2026-04-18T15:15:45.521Z</time></trkpt><trkpt lat="43.8090467" lon="12.726726"><ele>96.0</ele><time>2026-04-18T15:15:46.529Z</time></trkpt><trkpt lat="43.8091811" lon="12.726763"><ele>98.0</ele><time>2026-04-18T15:15:47.533Z</time></trkpt><trkpt lat="43.8093312" lon="12.7268018"><ele>100.0</ele><time>2026-04-18T15:15:48.531Z</time></trkpt><trkpt lat="43.8094994" lon="12.7268411"><ele>102.0</ele><time>2026-04-18T15:15:49.557Z</time></trkpt><trkpt lat="43.8096822" lon="12.7268657"><ele>102.0</ele><time>2026-04-18T15:15:50.528Z</time></trkpt><trkpt lat="43.8098754" lon="12.7268883"><ele>102.0</ele><time>2026-04-18T15:15:51.528Z</time></trkpt><trkpt lat="43.8100694" lon="12.7269137"><ele>102.0</ele><time>2026-04-18T15:15:52.527Z</time></trkpt><trkpt lat="43.8102648" lon="12.726948"><ele>99.33333333333333</ele><time>2026-04-18T15:15:53.53Z</time></trkpt><trkpt lat="43.8104632" lon="12.7270036"><ele>96.66666666666666</ele><time>2026-04-18T15:15:54.526Z</time></trkpt><trkpt lat="43.8106574" lon="12.7270906"><ele>94.0</ele><time>2026-04-18T15:15:55.525Z</time></trkpt><trkpt lat="43.8108489" lon="12.7271988"><ele>96.33333333333333</ele><time>2026-04-18T15:15:56.531Z</time></trkpt><trkpt lat="43.8110401" lon="12.7273178"><ele>98.66666666666666</ele><time>2026-04-18T15:15:57.528Z</time></trkpt><trkpt lat="43.8112338" lon="12.7274264"><ele>101.0</ele><time>2026-04-18T15:15:58.533Z</time></trkpt><trkpt lat="43.811435" lon="12.7275207"><ele>101.0</ele><time>2026-04-18T15:15:59.543Z</time></trkpt><trkpt lat="43.8116381" lon="12.727603"><ele>101.0</ele><time>2026-04-18T15:16:00.525Z</time></trkpt><trkpt lat="43.8120684" lon="12.7277425"><ele>100.33333333333333</ele><time>2026-04-18T15:16:02.523Z</time></trkpt><trkpt lat="43.8122909" lon="12.7277979"><ele>99.66666666666666</ele><time>2026-04-18T15:16:03.537Z</time></trkpt><trkpt lat="43.8125104" lon="12.7278519"><ele>99.0</ele><time>2026-04-18T15:16:04.526Z</time></trkpt><trkpt lat="43.8127274" lon="12.727925"><ele>99.0</ele><time>2026-04-18T15:16:05.523Z</time></trkpt><trkpt lat="43.8129401" lon="12.728017"><ele>99.0</ele><time>2026-04-18T15:16:06.526Z</time></trkpt><trkpt lat="43.8131476" lon="12.7281463"><ele>99.0</ele><time>2026-04-18T15:16:07.526Z</time></trkpt><trkpt lat="43.8133514" lon="12.728294"><ele>99.0</ele><time>2026-04-18T15:16:08.525Z</time></trkpt><trkpt lat="43.813552" lon="12.7284517"><ele>97.5</ele><time>2026-04-18T15:16:09.526Z</time></trkpt><trkpt lat="43.8137532" lon="12.7286113"><ele>96.0</ele><time>2026-04-18T15:16:10.53Z</time></trkpt><trkpt lat="43.8139553" lon="12.7287706"><ele>96.0</ele><time>2026-04-18T15:16:11.523Z</time></trkpt><trkpt lat="43.81416" lon="12.7289284"><ele>96.0</ele><time>2026-04-18T15:16:12.524Z</time></trkpt><trkpt lat="43.8143652" lon="12.72909"><ele>95.0</ele><time>2026-04-18T15:16:13.526Z</time></trkpt><trkpt lat="43.8145716" lon="12.729251"><ele>94.0</ele><time>2026-04-18T15:16:14.525Z</time></trkpt><trkpt lat="43.8147807" lon="12.729417"><ele>93.5</ele><time>2026-04-18T15:16:15.524Z</time></trkpt><trkpt lat="43.8149829" lon="12.7295804"><ele>93.0</ele><time>2026-04-18T15:16:16.53Z</time></trkpt><trkpt lat="43.8151763" lon="12.7297336"><ele>93.0</ele><time>2026-04-18T15:16:17.541Z</time></trkpt><trkpt lat="43.8153546" lon="12.7298723"><ele>93.0</ele><time>2026-04-18T15:16:18.526Z</time></trkpt><trkpt lat="43.8155227" lon="12.730007"><ele>93.0</ele><time>2026-04-18T15:16:19.524Z</time></trkpt><trkpt lat="43.8156828" lon="12.7301341"><ele>93.0</ele><time>2026-04-18T15:16:20.53Z</time></trkpt><trkpt lat="43.8158358" lon="12.730254"><ele>93.0</ele><time>2026-04-18T15:16:21.531Z</time></trkpt><trkpt lat="43.8159866" lon="12.7303688"><ele>93.0</ele><time>2026-04-18T15:16:22.533Z</time></trkpt><trkpt lat="43.8161367" lon="12.730481"><ele>93.0</ele><time>2026-04-18T15:16:23.523Z</time></trkpt><trkpt lat="43.8162886" lon="12.7305903"><ele>93.0</ele><time>2026-04-18T15:16:24.534Z</time></trkpt><trkpt lat="43.8164418" lon="12.730696"><ele>93.0</ele><time>2026-04-18T15:16:25.525Z</time></trkpt><trkpt lat="43.8165969" lon="12.7307977"><ele>93.0</ele><time>2026-04-18T15:16:26.523Z</time></trkpt><trkpt lat="43.8167535" lon="12.7308955"><ele>93.0</ele><time>2026-04-18T15:16:27.525Z</time></trkpt><trkpt lat="43.816913" lon="12.7309914"><ele>93.0</ele><time>2026-04-18T15:16:28.526Z</time></trkpt><trkpt lat="43.8170731" lon="12.7310849"><ele>92.66666666666667</ele><time>2026-04-18T15:16:29.529Z</time></trkpt><trkpt lat="43.8172345" lon="12.7311757"><ele>92.33333333333334</ele><time>2026-04-18T15:16:30.529Z</time></trkpt><trkpt lat="43.8173977" lon="12.7312677"><ele>92.0</ele><time>2026-04-18T15:16:31.523Z</time></trkpt><trkpt lat="43.817563" lon="12.7313633"><ele>92.0</ele><time>2026-04-18T15:16:32.525Z</time></trkpt><trkpt lat="43.8177286" lon="12.7314562"><ele>92.0</ele><time>2026-04-18T15:16:33.525Z</time></trkpt><trkpt lat="43.8178991" lon="12.7315516"><ele>92.0</ele><time>2026-04-18T15:16:34.524Z</time></trkpt><trkpt lat="43.8180711" lon="12.7316457"><ele>92.0</ele><time>2026-04-18T15:16:35.526Z</time></trkpt><trkpt lat="43.8182463" lon="12.731736"><ele>92.0</ele><time>2026-04-18T15:16:36.535Z</time></trkpt><trkpt lat="43.8184206" lon="12.7318298"><ele>92.0</ele><time>2026-04-18T15:16:37.525Z</time></trkpt><trkpt lat="43.8185907" lon="12.7319392"><ele>91.0</ele><time>2026-04-18T15:16:38.523Z</time></trkpt><trkpt lat="43.8187564" lon="12.7320646"><ele>90.0</ele><time>2026-04-18T15:16:39.523Z</time></trkpt><trkpt lat="43.8189158" lon="12.7322085"><ele>89.0</ele><time>2026-04-18T15:16:40.529Z</time></trkpt><trkpt lat="43.8190691" lon="12.7323634"><ele>89.0</ele><time>2026-04-18T15:16:41.524Z</time></trkpt><trkpt lat="43.8192204" lon="12.732526"><ele>89.0</ele><time>2026-04-18T15:16:42.527Z</time></trkpt><trkpt lat="43.8193727" lon="12.7326872"><ele>89.0</ele><time>2026-04-18T15:16:43.533Z</time></trkpt><trkpt lat="43.8195242" lon="12.7328486"><ele>88.33333333333334</ele><time>2026-04-18T15:16:44.532Z</time></trkpt><trkpt lat="43.8196757" lon="12.7330074"><ele>87.66666666666667</ele><time>2026-04-18T15:16:45.53Z</time></trkpt><trkpt lat="43.8198287" lon="12.7331679"><ele>87.0</ele><time>2026-04-18T15:16:46.534Z</time></trkpt><trkpt lat="43.8199826" lon="12.7333266"><ele>87.0</ele><time>2026-04-18T15:16:47.526Z</time></trkpt><trkpt lat="43.8201365" lon="12.7334867"><ele>87.0</ele><time>2026-04-18T15:16:48.524Z</time></trkpt><trkpt lat="43.8202905" lon="12.7336473"><ele>87.0</ele><time>2026-04-18T15:16:49.531Z</time></trkpt><trkpt lat="43.8204435" lon="12.7338094"><ele>86.0</ele><time>2026-04-18T15:16:50.526Z</time></trkpt><trkpt lat="43.8205961" lon="12.7339747"><ele>85.0</ele><time>2026-04-18T15:16:51.538Z</time></trkpt><trkpt lat="43.8207425" lon="12.7341433"><ele>84.0</ele><time>2026-04-18T15:16:52.525Z</time></trkpt><trkpt lat="43.8208864" lon="12.7343184"><ele>84.66666666666667</ele><time>2026-04-18T15:16:53.527Z</time></trkpt><trkpt lat="43.8210184" lon="12.7344996"><ele>85.33333333333334</ele><time>2026-04-18T15:16:54.525Z</time></trkpt><trkpt lat="43.8211423" lon="12.7346866"><ele>86.0</ele><time>2026-04-18T15:16:55.53Z</time></trkpt><trkpt lat="43.8212603" lon="12.7348775"><ele>84.0</ele><time>2026-04-18T15:16:56.525Z</time></trkpt><trkpt lat="43.8215083" lon="12.7352524"><ele>82.0</ele><time>2026-04-18T15:16:58.707Z</time></trkpt><trkpt lat="43.8216323" lon="12.7354134"><ele>83.5</ele><time>2026-04-18T15:16:59.659Z</time></trkpt><trkpt lat="43.8219001" lon="12.7357308"><ele>85.0</ele><time>2026-04-18T15:17:01.523Z</time></trkpt><trkpt lat="43.8220429" lon="12.7358769"><ele>85.0</ele><time>2026-04-18T15:17:02.523Z</time></trkpt><trkpt lat="43.8221871" lon="12.7360125"><ele>85.0</ele><time>2026-04-18T15:17:03.522Z</time></trkpt><trkpt lat="43.8223316" lon="12.7361431"><ele>85.0</ele><time>2026-04-18T15:17:04.521Z</time></trkpt><trkpt lat="43.8224778" lon="12.7362722"><ele>84.0</ele><time>2026-04-18T15:17:05.524Z</time></trkpt><trkpt lat="43.822618" lon="12.7364017"><ele>83.0</ele><time>2026-04-18T15:17:06.522Z</time></trkpt><trkpt lat="43.8227533" lon="12.7365284"><ele>82.0</ele><time>2026-04-18T15:17:07.526Z</time></trkpt><trkpt lat="43.8228895" lon="12.7366526"><ele>82.0</ele><time>2026-04-18T15:17:08.525Z</time></trkpt><trkpt lat="43.8230191" lon="12.7367754"><ele>82.0</ele><time>2026-04-18T15:17:09.522Z</time></trkpt><trkpt lat="43.8231488" lon="12.7368922"><ele>82.0</ele><time>2026-04-18T15:17:10.522Z</time></trkpt><trkpt lat="43.8232785" lon="12.7370127"><ele>82.0</ele><time>2026-04-18T15:17:11.523Z</time></trkpt><trkpt lat="43.8234084" lon="12.7371258"><ele>82.0</ele><time>2026-04-18T15:17:12.522Z</time></trkpt><trkpt lat="43.8235367" lon="12.7372435"><ele>82.0</ele><time>2026-04-18T15:17:13.523Z</time></trkpt><trkpt lat="43.8236697" lon="12.7373588"><ele>82.0</ele><time>2026-04-18T15:17:14.522Z</time></trkpt><trkpt lat="43.8238076" lon="12.7374759"><ele>82.0</ele><time>2026-04-18T15:17:15.522Z</time></trkpt><trkpt lat="43.8239453" lon="12.7375981"><ele>82.0</ele><time>2026-04-18T15:17:16.522Z</time></trkpt><trkpt lat="43.8240751" lon="12.7377266"><ele>82.0</ele><time>2026-04-18T15:17:17.522Z</time></trkpt><trkpt lat="43.8241998" lon="12.7378494"><ele>82.0</ele><time>2026-04-18T15:17:18.522Z</time></trkpt><trkpt lat="43.8243203" lon="12.737976"><ele>82.0</ele><time>2026-04-18T15:17:19.524Z</time></trkpt><trkpt lat="43.8244375" lon="12.7381061"><ele>82.0</ele><time>2026-04-18T15:17:20.526Z</time></trkpt><trkpt lat="43.8245505" lon="12.7382429"><ele>82.0</ele><time>2026-04-18T15:17:21.524Z</time></trkpt><trkpt lat="43.8246575" lon="12.7383852"><ele>82.0</ele><time>2026-04-18T15:17:22.528Z</time></trkpt><trkpt lat="43.8247621" lon="12.7385297"><ele>82.0</ele><time>2026-04-18T15:17:23.523Z</time></trkpt><trkpt lat="43.8248683" lon="12.7386795"><ele>82.0</ele><time>2026-04-18T15:17:24.527Z</time></trkpt><trkpt lat="43.8249717" lon="12.7388339"><ele>82.0</ele><time>2026-04-18T15:17:25.523Z</time></trkpt><trkpt lat="43.8250757" lon="12.7389783"><ele>82.0</ele><time>2026-04-18T15:17:26.53Z</time></trkpt><trkpt lat="43.8251849" lon="12.7391184"><ele>82.0</ele><time>2026-04-18T15:17:27.527Z</time></trkpt><trkpt lat="43.8253002" lon="12.7392613"><ele>81.33333333333333</ele><time>2026-04-18T15:17:28.526Z</time></trkpt><trkpt lat="43.8254093" lon="12.7394098"><ele>80.66666666666667</ele><time>2026-04-18T15:17:29.527Z</time></trkpt><trkpt lat="43.8255247" lon="12.7395596"><ele>80.0</ele><time>2026-04-18T15:17:30.524Z</time></trkpt><trkpt lat="43.8256464" lon="12.7397099"><ele>80.0</ele><time>2026-04-18T15:17:31.529Z</time></trkpt><trkpt lat="43.8257684" lon="12.7398582"><ele>80.0</ele><time>2026-04-18T15:17:32.524Z</time></trkpt><trkpt lat="43.825896" lon="12.7400054"><ele>80.0</ele><time>2026-04-18T15:17:33.521Z</time></trkpt><trkpt lat="43.826021" lon="12.7401573"><ele>79.33333333333334</ele><time>2026-04-18T15:17:34.522Z</time></trkpt><trkpt lat="43.8261382" lon="12.7403126"><ele>78.66666666666667</ele><time>2026-04-18T15:17:35.524Z</time></trkpt><trkpt lat="43.8262454" lon="12.7404723"><ele>78.0</ele><time>2026-04-18T15:17:36.534Z</time></trkpt><trkpt lat="43.8263476" lon="12.7406345"><ele>78.0</ele><time>2026-04-18T15:17:37.523Z</time></trkpt><trkpt lat="43.8264382" lon="12.740809"><ele>78.0</ele><time>2026-04-18T15:17:38.525Z</time></trkpt><trkpt lat="43.8265153" lon="12.7409919"><ele>78.0</ele><time>2026-04-18T15:17:39.529Z</time></trkpt><trkpt lat="43.826584" lon="12.741169"><ele>77.66666666666667</ele><time>2026-04-18T15:17:40.527Z</time></trkpt><trkpt lat="43.826645" lon="12.7413611"><ele>77.33333333333334</ele><time>2026-04-18T15:17:41.535Z</time></trkpt><trkpt lat="43.8267027" lon="12.7415607"><ele>77.0</ele><time>2026-04-18T15:17:42.524Z</time></trkpt><trkpt lat="43.8267613" lon="12.7417597"><ele>76.66666666666667</ele><time>2026-04-18T15:17:43.524Z</time></trkpt><trkpt lat="43.8268175" lon="12.7419624"><ele>76.33333333333333</ele><time>2026-04-18T15:17:44.526Z</time></trkpt><trkpt lat="43.8268735" lon="12.7421656"><ele>76.0</ele><time>2026-04-18T15:17:45.523Z</time></trkpt><trkpt lat="43.8269361" lon="12.7423689"><ele>76.0</ele><time>2026-04-18T15:17:46.523Z</time></trkpt><trkpt lat="43.826997" lon="12.7425753"><ele>76.0</ele><time>2026-04-18T15:17:47.535Z</time></trkpt><trkpt lat="43.827059" lon="12.7427782"><ele>76.0</ele><time>2026-04-18T15:17:48.524Z</time></trkpt><trkpt lat="43.8271272" lon="12.7429822"><ele>76.0</ele><time>2026-04-18T15:17:49.523Z</time></trkpt><trkpt lat="43.8271998" lon="12.7431851"><ele>76.0</ele><time>2026-04-18T15:17:50.525Z</time></trkpt><trkpt lat="43.827284" lon="12.7433816"><ele>76.0</ele><time>2026-04-18T15:17:51.523Z</time></trkpt><trkpt lat="43.8273815" lon="12.7435692"><ele>76.0</ele><time>2026-04-18T15:17:52.525Z</time></trkpt><trkpt lat="43.8274819" lon="12.7437527"><ele>76.0</ele><time>2026-04-18T15:17:53.524Z</time></trkpt><trkpt lat="43.8275869" lon="12.7439337"><ele>76.0</ele><time>2026-04-18T15:17:54.523Z</time></trkpt><trkpt lat="43.8276966" lon="12.7441083"><ele>76.33333333333333</ele><time>2026-04-18T15:17:55.523Z</time></trkpt><trkpt lat="43.8278018" lon="12.7442795"><ele>76.66666666666667</ele><time>2026-04-18T15:17:56.523Z</time></trkpt><trkpt lat="43.8279073" lon="12.7444458"><ele>77.0</ele><time>2026-04-18T15:17:57.523Z</time></trkpt><trkpt lat="43.8280208" lon="12.7446037"><ele>76.33333333333334</ele><time>2026-04-18T15:17:58.522Z</time></trkpt><trkpt lat="43.8281391" lon="12.7447442"><ele>75.66666666666667</ele><time>2026-04-18T15:17:59.523Z</time></trkpt><trkpt lat="43.8282587" lon="12.7448685"><ele>75.0</ele><time>2026-04-18T15:18:00.523Z</time></trkpt><trkpt lat="43.8283817" lon="12.7449795"><ele>75.5</ele><time>2026-04-18T15:18:01.523Z</time></trkpt><trkpt lat="43.8285056" lon="12.7450751"><ele>76.0</ele><time>2026-04-18T15:18:02.524Z</time></trkpt><trkpt lat="43.8286323" lon="12.7451574"><ele>76.5</ele><time>2026-04-18T15:18:03.523Z</time></trkpt><trkpt lat="43.8287605" lon="12.7452299"><ele>77.0</ele><time>2026-04-18T15:18:04.522Z</time></trkpt><trkpt lat="43.8288894" lon="12.7452909"><ele>76.25</ele><time>2026-04-18T15:18:05.523Z</time></trkpt><trkpt lat="43.8290195" lon="12.7453401"><ele>75.5</ele><time>2026-04-18T15:18:06.521Z</time></trkpt><trkpt lat="43.8291513" lon="12.7453811"><ele>74.75</ele><time>2026-04-18T15:18:07.522Z</time></trkpt><trkpt lat="43.8292852" lon="12.7454115"><ele>74.0</ele><time>2026-04-18T15:18:08.523Z</time></trkpt><trkpt lat="43.8294169" lon="12.7454305"><ele>74.0</ele><time>2026-04-18T15:18:09.52Z</time></trkpt><trkpt lat="43.8295468" lon="12.7454468"><ele>74.0</ele><time>2026-04-18T15:18:10.523Z</time></trkpt><trkpt lat="43.8296755" lon="12.7454475"><ele>74.0</ele><time>2026-04-18T15:18:11.522Z</time></trkpt><trkpt lat="43.829794" lon="12.7454476"><ele>74.0</ele><time>2026-04-18T15:18:12.523Z</time></trkpt><trkpt lat="43.8299064" lon="12.7454491"><ele>74.0</ele><time>2026-04-18T15:18:13.523Z</time></trkpt><trkpt lat="43.8300162" lon="12.7454558"><ele>74.0</ele><time>2026-04-18T15:18:14.524Z</time></trkpt><trkpt lat="43.8301255" lon="12.7454573"><ele>74.0</ele><time>2026-04-18T15:18:15.524Z</time></trkpt><trkpt lat="43.8302376" lon="12.7454577"><ele>74.0</ele><time>2026-04-18T15:18:16.525Z</time></trkpt><trkpt lat="43.8303482" lon="12.7454613"><ele>74.0</ele><time>2026-04-18T15:18:17.523Z</time></trkpt><trkpt lat="43.8304568" lon="12.7454685"><ele>74.0</ele><time>2026-04-18T15:18:18.524Z</time></trkpt><trkpt lat="43.8305636" lon="12.7454752"><ele>74.0</ele><time>2026-04-18T15:18:19.524Z</time></trkpt><trkpt lat="43.8306714" lon="12.745491"><ele>74.0</ele><time>2026-04-18T15:18:20.524Z</time></trkpt><trkpt lat="43.8307782" lon="12.7455175"><ele>74.0</ele><time>2026-04-18T15:18:21.527Z</time></trkpt><trkpt lat="43.8308742" lon="12.7455486"><ele>74.0</ele><time>2026-04-18T15:18:22.523Z</time></trkpt><trkpt lat="43.8309644" lon="12.7455976"><ele>73.60000000000001</ele><time>2026-04-18T15:18:23.524Z</time></trkpt><trkpt lat="43.8310527" lon="12.7456359"><ele>73.2</ele><time>2026-04-18T15:18:24.523Z</time></trkpt><trkpt lat="43.8311405" lon="12.7456419"><ele>72.80000000000001</ele><time>2026-04-18T15:18:25.521Z</time></trkpt><trkpt lat="43.8312239" lon="12.7456091"><ele>72.4</ele><time>2026-04-18T15:18:26.523Z</time></trkpt><trkpt lat="43.8313104" lon="12.745559"><ele>72.0</ele><time>2026-04-18T15:18:27.522Z</time></trkpt><trkpt lat="43.8314077" lon="12.7455252"><ele>72.0</ele><time>2026-04-18T15:18:28.522Z</time></trkpt><trkpt lat="43.8315098" lon="12.745508"><ele>72.0</ele><time>2026-04-18T15:18:29.521Z</time></trkpt><trkpt lat="43.8316151" lon="12.7455216"><ele>72.0</ele><time>2026-04-18T15:18:30.521Z</time></trkpt><trkpt lat="43.8317224" lon="12.7455414"><ele>72.0</ele><time>2026-04-18T15:18:31.523Z</time></trkpt><trkpt lat="43.8318288" lon="12.7455679"><ele>72.0</ele><time>2026-04-18T15:18:32.523Z</time></trkpt><trkpt lat="43.8319406" lon="12.7455987"><ele>71.75</ele><time>2026-04-18T15:18:33.522Z</time></trkpt><trkpt lat="43.8320529" lon="12.7456315"><ele>71.5</ele><time>2026-04-18T15:18:34.521Z</time></trkpt><trkpt lat="43.8321637" lon="12.7456608"><ele>71.25</ele><time>2026-04-18T15:18:35.522Z</time></trkpt><trkpt lat="43.8322789" lon="12.7456888"><ele>71.0</ele><time>2026-04-18T15:18:36.522Z</time></trkpt><trkpt lat="43.8323947" lon="12.7457238"><ele>71.0</ele><time>2026-04-18T15:18:37.523Z</time></trkpt><trkpt lat="43.8325155" lon="12.745755"><ele>71.0</ele><time>2026-04-18T15:18:38.524Z</time></trkpt><trkpt lat="43.8326351" lon="12.7457873"><ele>71.0</ele><time>2026-04-18T15:18:39.524Z</time></trkpt><trkpt lat="43.8327545" lon="12.7458079"><ele>71.0</ele><time>2026-04-18T15:18:40.522Z</time></trkpt><trkpt lat="43.832866" lon="12.7458173"><ele>70.8</ele><time>2026-04-18T15:18:41.522Z</time></trkpt><trkpt lat="43.8329704" lon="12.745824"><ele>70.6</ele><time>2026-04-18T15:18:42.522Z</time></trkpt><trkpt lat="43.8330734" lon="12.7458234"><ele>70.4</ele><time>2026-04-18T15:18:43.523Z</time></trkpt><trkpt lat="43.8331752" lon="12.7458211"><ele>70.2</ele><time>2026-04-18T15:18:44.523Z</time></trkpt><trkpt lat="43.8332721" lon="12.7458216"><ele>70.0</ele><time>2026-04-18T15:18:45.521Z</time></trkpt><trkpt lat="43.8333648" lon="12.7458235"><ele>70.0</ele><time>2026-04-18T15:18:46.522Z</time></trkpt><trkpt lat="43.8334514" lon="12.7458267"><ele>70.0</ele><time>2026-04-18T15:18:47.521Z</time></trkpt><trkpt lat="43.8335386" lon="12.7458314"><ele>70.0</ele><time>2026-04-18T15:18:48.521Z</time></trkpt><trkpt lat="43.8336166" lon="12.7458582"><ele>70.0</ele><time>2026-04-18T15:18:49.522Z</time></trkpt><trkpt lat="43.8336937" lon="12.745912"><ele>70.0</ele><time>2026-04-18T15:18:50.522Z</time></trkpt><trkpt lat="43.8337664" lon="12.7459762"><ele>70.0</ele><time>2026-04-18T15:18:51.522Z</time></trkpt><trkpt lat="43.833843" lon="12.7460424"><ele>69.25</ele><time>2026-04-18T15:18:52.533Z</time></trkpt><trkpt lat="43.8339112" lon="12.7461574"><ele>68.5</ele><time>2026-04-18T15:18:53.531Z</time></trkpt><trkpt lat="43.8339727" lon="12.7462886"><ele>67.75</ele><time>2026-04-18T15:18:54.522Z</time></trkpt><trkpt lat="43.8340407" lon="12.7464205"><ele>67.0</ele><time>2026-04-18T15:18:55.523Z</time></trkpt><trkpt lat="43.8341095" lon="12.7465608"><ele>67.0</ele><time>2026-04-18T15:18:56.522Z</time></trkpt><trkpt lat="43.8341768" lon="12.7467061"><ele>67.0</ele><time>2026-04-18T15:18:57.522Z</time></trkpt><trkpt lat="43.8342463" lon="12.7468595"><ele>67.0</ele><time>2026-04-18T15:18:58.523Z</time></trkpt><trkpt lat="43.834326" lon="12.7470192"><ele>67.0</ele><time>2026-04-18T15:18:59.522Z</time></trkpt><trkpt lat="43.8344107" lon="12.7471909"><ele>66.33333333333333</ele><time>2026-04-18T15:19:00.52Z</time></trkpt><trkpt lat="43.834508" lon="12.7473739"><ele>65.66666666666667</ele><time>2026-04-18T15:19:01.521Z</time></trkpt><trkpt lat="43.8346165" lon="12.7475721"><ele>65.0</ele><time>2026-04-18T15:19:02.522Z</time></trkpt><trkpt lat="43.8347365" lon="12.747796"><ele>65.0</ele><time>2026-04-18T15:19:03.521Z</time></trkpt><trkpt lat="43.8348657" lon="12.7480336"><ele>65.0</ele><time>2026-04-18T15:19:04.521Z</time></trkpt><trkpt lat="43.8349959" lon="12.7482715"><ele>65.0</ele><time>2026-04-18T15:19:05.522Z</time></trkpt><trkpt lat="43.8351285" lon="12.7485155"><ele>65.0</ele><time>2026-04-18T15:19:06.523Z</time></trkpt><trkpt lat="43.8352531" lon="12.7487526"><ele>65.0</ele><time>2026-04-18T15:19:07.521Z</time></trkpt><trkpt lat="43.8353651" lon="12.7489817"><ele>65.0</ele><time>2026-04-18T15:19:08.524Z</time></trkpt><trkpt lat="43.8354665" lon="12.7492012"><ele>64.33333333333334</ele><time>2026-04-18T15:19:09.523Z</time></trkpt><trkpt lat="43.8355563" lon="12.7494168"><ele>63.66666666666667</ele><time>2026-04-18T15:19:10.521Z</time></trkpt><trkpt lat="43.8356351" lon="12.7496248"><ele>63.0</ele><time>2026-04-18T15:19:11.522Z</time></trkpt><trkpt lat="43.8357093" lon="12.7498166"><ele>63.0</ele><time>2026-04-18T15:19:12.521Z</time></trkpt><trkpt lat="43.8357796" lon="12.7499916"><ele>63.0</ele><time>2026-04-18T15:19:13.521Z</time></trkpt><trkpt lat="43.8358386" lon="12.7501376"><ele>63.0</ele><time>2026-04-18T15:19:14.523Z</time></trkpt><trkpt lat="43.8358872" lon="12.7502631"><ele>63.0</ele><time>2026-04-18T15:19:15.522Z</time></trkpt><trkpt lat="43.8359245" lon="12.7503768"><ele>62.8</ele><time>2026-04-18T15:19:16.522Z</time></trkpt><trkpt lat="43.8359528" lon="12.7504894"><ele>62.599999999999994</ele><time>2026-04-18T15:19:17.522Z</time></trkpt><trkpt lat="43.8359753" lon="12.7506047"><ele>62.400000000000006</ele><time>2026-04-18T15:19:18.522Z</time></trkpt><trkpt lat="43.8360003" lon="12.75072"><ele>62.2</ele><time>2026-04-18T15:19:19.525Z</time></trkpt><trkpt lat="43.836031" lon="12.7508397"><ele>62.0</ele><time>2026-04-18T15:19:20.522Z</time></trkpt><trkpt lat="43.8360752" lon="12.7509647"><ele>60.0</ele><time>2026-04-18T15:19:21.523Z</time></trkpt><trkpt lat="43.8361256" lon="12.7511028"><ele>58.0</ele><time>2026-04-18T15:19:22.522Z</time></trkpt><trkpt lat="43.8361775" lon="12.7512611"><ele>56.0</ele><time>2026-04-18T15:19:23.522Z</time></trkpt><trkpt lat="43.8362222" lon="12.7514507"><ele>54.0</ele><time>2026-04-18T15:19:24.524Z</time></trkpt><trkpt lat="43.8362696" lon="12.7516611"><ele>54.33333333333333</ele><time>2026-04-18T15:19:25.521Z</time></trkpt><trkpt lat="43.8363245" lon="12.7518897"><ele>54.666666666666664</ele><time>2026-04-18T15:19:26.525Z</time></trkpt><trkpt lat="43.8363886" lon="12.7521344"><ele>55.0</ele><time>2026-04-18T15:19:27.521Z</time></trkpt><trkpt lat="43.8364615" lon="12.7524"><ele>55.0</ele><time>2026-04-18T15:19:28.524Z</time></trkpt><trkpt lat="43.8365457" lon="12.7526809"><ele>55.0</ele><time>2026-04-18T15:19:29.526Z</time></trkpt><trkpt lat="43.836636" lon="12.7529877"><ele>55.5</ele><time>2026-04-18T15:19:30.543Z</time></trkpt><trkpt lat="43.8367335" lon="12.7533133"><ele>56.0</ele><time>2026-04-18T15:19:31.522Z</time></trkpt><trkpt lat="43.8369335" lon="12.7540159"><ele>57.0</ele><time>2026-04-18T15:19:33.522Z</time></trkpt><trkpt lat="43.8370422" lon="12.754388"><ele>58.0</ele><time>2026-04-18T15:19:34.549Z</time></trkpt><trkpt lat="43.8372587" lon="12.755113"><ele>60.0</ele><time>2026-04-18T15:19:36.526Z</time></trkpt><trkpt lat="43.8373616" lon="12.7554649"><ele>62.0</ele><time>2026-04-18T15:19:37.524Z</time></trkpt><trkpt lat="43.8374627" lon="12.755822"><ele>64.0</ele><time>2026-04-18T15:19:38.53Z</time></trkpt><trkpt lat="43.8376604" lon="12.7565523"><ele>64.5</ele><time>2026-04-18T15:19:40.535Z</time></trkpt><trkpt lat="43.8377441" lon="12.7568878"><ele>65.0</ele><time>2026-04-18T15:19:41.523Z</time></trkpt><trkpt lat="43.8378171" lon="12.7572064"><ele>65.0</ele><time>2026-04-18T15:19:42.527Z</time></trkpt><trkpt lat="43.8378806" lon="12.7575039"><ele>65.0</ele><time>2026-04-18T15:19:43.529Z</time></trkpt><trkpt lat="43.8379393" lon="12.7577853"><ele>65.0</ele><time>2026-04-18T15:19:44.533Z</time></trkpt><trkpt lat="43.8379957" lon="12.7580597"><ele>66.0</ele><time>2026-04-18T15:19:45.533Z</time></trkpt><trkpt lat="43.8380482" lon="12.7583279"><ele>67.0</ele><time>2026-04-18T15:19:46.521Z</time></trkpt><trkpt lat="43.838098" lon="12.7585949"><ele>68.0</ele><time>2026-04-18T15:19:47.521Z</time></trkpt><trkpt lat="43.8381466" lon="12.7588556"><ele>68.33333333333334</ele><time>2026-04-18T15:19:48.525Z</time></trkpt><trkpt lat="43.8381965" lon="12.7591123"><ele>68.66666666666667</ele><time>2026-04-18T15:19:49.533Z</time></trkpt><trkpt lat="43.8382454" lon="12.7593632"><ele>69.0</ele><time>2026-04-18T15:19:50.528Z</time></trkpt><trkpt lat="43.8382933" lon="12.7596124"><ele>69.33333333333333</ele><time>2026-04-18T15:19:51.522Z</time></trkpt><trkpt lat="43.8383416" lon="12.7598569"><ele>69.66666666666666</ele><time>2026-04-18T15:19:52.521Z</time></trkpt><trkpt lat="43.8383888" lon="12.7600906"><ele>70.0</ele><time>2026-04-18T15:19:53.521Z</time></trkpt><trkpt lat="43.8384297" lon="12.7603117"><ele>70.0</ele><time>2026-04-18T15:19:54.521Z</time></trkpt><trkpt lat="43.8384688" lon="12.7605116"><ele>70.0</ele><time>2026-04-18T15:19:55.527Z</time></trkpt><trkpt lat="43.8385058" lon="12.7607007"><ele>70.0</ele><time>2026-04-18T15:19:56.526Z</time></trkpt><trkpt lat="43.8385401" lon="12.7608831"><ele>70.0</ele><time>2026-04-18T15:19:57.523Z</time></trkpt><trkpt lat="43.8385736" lon="12.7610564"><ele>70.0</ele><time>2026-04-18T15:19:58.525Z</time></trkpt><trkpt lat="43.8386069" lon="12.7612168"><ele>70.0</ele><time>2026-04-18T15:19:59.524Z</time></trkpt><trkpt lat="43.8386322" lon="12.761364"><ele>70.0</ele><time>2026-04-18T15:20:00.523Z</time></trkpt><trkpt lat="43.8386447" lon="12.7614829"><ele>70.0</ele><time>2026-04-18T15:20:01.523Z</time></trkpt><trkpt lat="43.8386406" lon="12.7615779"><ele>70.0</ele><time>2026-04-18T15:20:02.528Z</time></trkpt><trkpt lat="43.8386118" lon="12.761658"><ele>70.0</ele><time>2026-04-18T15:20:03.52Z</time></trkpt><trkpt lat="43.8385599" lon="12.7617207"><ele>70.75</ele><time>2026-04-18T15:20:04.522Z</time></trkpt><trkpt lat="43.8384462" lon="12.7617677"><ele>71.5</ele><time>2026-04-18T15:20:06.521Z</time></trkpt><trkpt lat="43.8383608" lon="12.7616162"><ele>72.25</ele><time>2026-04-18T15:20:08.521Z</time></trkpt><trkpt lat="43.838339" lon="12.7614589"><ele>73.0</ele><time>2026-04-18T15:20:09.526Z</time></trkpt><trkpt lat="43.838322" lon="12.761295"><ele>73.0</ele><time>2026-04-18T15:20:10.52Z</time></trkpt><trkpt lat="43.8383168" lon="12.7611059"><ele>73.0</ele><time>2026-04-18T15:20:11.522Z</time></trkpt><trkpt lat="43.8383084" lon="12.7609128"><ele>73.0</ele><time>2026-04-18T15:20:12.52Z</time></trkpt><trkpt lat="43.8382978" lon="12.7607279"><ele>73.0</ele><time>2026-04-18T15:20:13.52Z</time></trkpt><trkpt lat="43.8382784" lon="12.7605603"><ele>72.75</ele><time>2026-04-18T15:20:14.521Z</time></trkpt><trkpt lat="43.8382479" lon="12.7603827"><ele>72.5</ele><time>2026-04-18T15:20:15.52Z</time></trkpt><trkpt lat="43.8382098" lon="12.7601936"><ele>72.25</ele><time>2026-04-18T15:20:16.52Z</time></trkpt><trkpt lat="43.8381618" lon="12.7599945"><ele>72.0</ele><time>2026-04-18T15:20:17.52Z</time></trkpt><trkpt lat="43.8381054" lon="12.7597717"><ele>71.33333333333333</ele><time>2026-04-18T15:20:18.52Z</time></trkpt><trkpt lat="43.8380422" lon="12.7594958"><ele>70.66666666666666</ele><time>2026-04-18T15:20:19.521Z</time></trkpt><trkpt lat="43.8379866" lon="12.7591863"><ele>70.0</ele><time>2026-04-18T15:20:20.52Z</time></trkpt><trkpt lat="43.8379368" lon="12.7588595"><ele>69.66666666666666</ele><time>2026-04-18T15:20:21.52Z</time></trkpt><trkpt lat="43.837906" lon="12.758551"><ele>69.33333333333333</ele><time>2026-04-18T15:20:22.519Z</time></trkpt><trkpt lat="43.837886" lon="12.7582582"><ele>69.0</ele><time>2026-04-18T15:20:23.52Z</time></trkpt><trkpt lat="43.8378616" lon="12.7579816"><ele>68.66666666666667</ele><time>2026-04-18T15:20:24.52Z</time></trkpt><trkpt lat="43.837832" lon="12.757731"><ele>68.33333333333334</ele><time>2026-04-18T15:20:25.521Z</time></trkpt><trkpt lat="43.8377999" lon="12.7575037"><ele>68.0</ele><time>2026-04-18T15:20:26.522Z</time></trkpt><trkpt lat="43.8377692" lon="12.7573001"><ele>68.25</ele><time>2026-04-18T15:20:27.52Z</time></trkpt><trkpt lat="43.8377309" lon="12.7571111"><ele>68.5</ele><time>2026-04-18T15:20:28.523Z</time></trkpt><trkpt lat="43.837685" lon="12.7569422"><ele>68.75</ele><time>2026-04-18T15:20:29.522Z</time></trkpt><trkpt lat="43.8376378" lon="12.7567812"><ele>69.0</ele><time>2026-04-18T15:20:30.52Z</time></trkpt><trkpt lat="43.8375806" lon="12.7566262"><ele>69.0</ele><time>2026-04-18T15:20:31.522Z</time></trkpt><trkpt lat="43.8375212" lon="12.75648"><ele>69.0</ele><time>2026-04-18T15:20:32.523Z</time></trkpt><trkpt lat="43.8374493" lon="12.7563379"><ele>69.0</ele><time>2026-04-18T15:20:33.522Z</time></trkpt><trkpt lat="43.8373722" lon="12.7562155"><ele>69.0</ele><time>2026-04-18T15:20:34.521Z</time></trkpt><trkpt lat="43.8373023" lon="12.7561001"><ele>67.60000000000001</ele><time>2026-04-18T15:20:35.521Z</time></trkpt><trkpt lat="43.8372413" lon="12.7559922"><ele>66.2</ele><time>2026-04-18T15:20:36.522Z</time></trkpt><trkpt lat="43.8371798" lon="12.7558996"><ele>64.80000000000001</ele><time>2026-04-18T15:20:37.521Z</time></trkpt><trkpt lat="43.8371084" lon="12.7558162"><ele>63.400000000000006</ele><time>2026-04-18T15:20:38.52Z</time></trkpt><trkpt lat="43.8370394" lon="12.7557376"><ele>62.0</ele><time>2026-04-18T15:20:39.519Z</time></trkpt><trkpt lat="43.8369778" lon="12.7556328"><ele>62.0</ele><time>2026-04-18T15:20:40.521Z</time></trkpt><trkpt lat="43.8369217" lon="12.7555189"><ele>62.0</ele><time>2026-04-18T15:20:41.523Z</time></trkpt><trkpt lat="43.8368724" lon="12.7553954"><ele>62.0</ele><time>2026-04-18T15:20:42.52Z</time></trkpt><trkpt lat="43.8368281" lon="12.7552717"><ele>62.0</ele><time>2026-04-18T15:20:43.521Z</time></trkpt><trkpt lat="43.8367814" lon="12.7551597"><ele>62.0</ele><time>2026-04-18T15:20:44.52Z</time></trkpt><trkpt lat="43.8367356" lon="12.755055"><ele>62.66666666666667</ele><time>2026-04-18T15:20:45.521Z</time></trkpt><trkpt lat="43.8366952" lon="12.7549537"><ele>63.333333333333336</ele><time>2026-04-18T15:20:46.521Z</time></trkpt><trkpt lat="43.8366621" lon="12.7548513"><ele>64.0</ele><time>2026-04-18T15:20:47.52Z</time></trkpt><trkpt lat="43.8366384" lon="12.7547583"><ele>64.66666666666667</ele><time>2026-04-18T15:20:48.522Z</time></trkpt><trkpt lat="43.8366057" lon="12.7546518"><ele>65.33333333333333</ele><time>2026-04-18T15:20:49.521Z</time></trkpt><trkpt lat="43.8365865" lon="12.7545601"><ele>66.0</ele><time>2026-04-18T15:20:50.521Z</time></trkpt><trkpt lat="43.8365664" lon="12.7544539"><ele>64.83333333333333</ele><time>2026-04-18T15:20:51.521Z</time></trkpt><trkpt lat="43.8365303" lon="12.7543398"><ele>63.66666666666667</ele><time>2026-04-18T15:20:52.522Z</time></trkpt><trkpt lat="43.8364835" lon="12.7542389"><ele>62.5</ele><time>2026-04-18T15:20:53.521Z</time></trkpt><trkpt lat="43.8364324" lon="12.7541641"><ele>61.333333333333336</ele><time>2026-04-18T15:20:54.52Z</time></trkpt><trkpt lat="43.836378" lon="12.7540923"><ele>60.16666666666667</ele><time>2026-04-18T15:20:55.52Z</time></trkpt><trkpt lat="43.836313" lon="12.754026"><ele>59.0</ele><time>2026-04-18T15:20:56.52Z</time></trkpt><trkpt lat="43.8362445" lon="12.753985"><ele>59.0</ele><time>2026-04-18T15:20:57.52Z</time></trkpt><trkpt lat="43.8361689" lon="12.7539541"><ele>59.00000000000001</ele><time>2026-04-18T15:20:58.52Z</time></trkpt><trkpt lat="43.8360874" lon="12.7539213"><ele>59.00000000000001</ele><time>2026-04-18T15:20:59.52Z</time></trkpt><trkpt lat="43.8360042" lon="12.7538696"><ele>59.0</ele><time>2026-04-18T15:21:00.522Z</time></trkpt><trkpt lat="43.8359226" lon="12.7537934"><ele>59.0</ele><time>2026-04-18T15:21:01.523Z</time></trkpt><trkpt lat="43.8358443" lon="12.7537151"><ele>59.6</ele><time>2026-04-18T15:21:02.524Z</time></trkpt><trkpt lat="43.8357676" lon="12.7536309"><ele>60.2</ele><time>2026-04-18T15:21:03.522Z</time></trkpt><trkpt lat="43.8356972" lon="12.7535365"><ele>60.800000000000004</ele><time>2026-04-18T15:21:04.519Z</time></trkpt><trkpt lat="43.8356255" lon="12.7534447"><ele>61.400000000000006</ele><time>2026-04-18T15:21:05.522Z</time></trkpt><trkpt lat="43.8355554" lon="12.7533617"><ele>62.0</ele><time>2026-04-18T15:21:06.519Z</time></trkpt><trkpt lat="43.8354852" lon="12.753294"><ele>60.400000000000006</ele><time>2026-04-18T15:21:07.521Z</time></trkpt><trkpt lat="43.8354002" lon="12.753258"><ele>58.800000000000004</ele><time>2026-04-18T15:21:08.525Z</time></trkpt><trkpt lat="43.835302" lon="12.753262"><ele>57.2</ele><time>2026-04-18T15:21:09.519Z</time></trkpt><trkpt lat="43.8352048" lon="12.7532827"><ele>55.6</ele><time>2026-04-18T15:21:10.52Z</time></trkpt><trkpt lat="43.8351089" lon="12.7533204"><ele>54.0</ele><time>2026-04-18T15:21:11.52Z</time></trkpt><trkpt lat="43.8350125" lon="12.7533545"><ele>53.800000000000004</ele><time>2026-04-18T15:21:12.524Z</time></trkpt><trkpt lat="43.834915" lon="12.7533818"><ele>53.60000000000001</ele><time>2026-04-18T15:21:13.521Z</time></trkpt><trkpt lat="43.8348176" lon="12.7534041"><ele>53.4</ele><time>2026-04-18T15:21:14.521Z</time></trkpt><trkpt lat="43.8347212" lon="12.7534206"><ele>53.2</ele><time>2026-04-18T15:21:15.521Z</time></trkpt><trkpt lat="43.8346313" lon="12.7534327"><ele>53.0</ele><time>2026-04-18T15:21:16.52Z</time></trkpt><trkpt lat="43.8345406" lon="12.7534344"><ele>53.0</ele><time>2026-04-18T15:21:17.522Z</time></trkpt><trkpt lat="43.8344531" lon="12.7534273"><ele>53.0</ele><time>2026-04-18T15:21:18.52Z</time></trkpt><trkpt lat="43.8343639" lon="12.7534151"><ele>53.0</ele><time>2026-04-18T15:21:19.521Z</time></trkpt><trkpt lat="43.834275" lon="12.7534001"><ele>53.0</ele><time>2026-04-18T15:21:20.521Z</time></trkpt><trkpt lat="43.8341824" lon="12.7533829"><ele>53.0</ele><time>2026-04-18T15:21:21.521Z</time></trkpt><trkpt lat="43.8340847" lon="12.7533651"><ele>53.0</ele><time>2026-04-18T15:21:22.52Z</time></trkpt><trkpt lat="43.833982" lon="12.7533497"><ele>53.0</ele><time>2026-04-18T15:21:23.52Z</time></trkpt><trkpt lat="43.8338792" lon="12.7533351"><ele>53.0</ele><time>2026-04-18T15:21:24.525Z</time></trkpt><trkpt lat="43.8337784" lon="12.7533179"><ele>53.0</ele><time>2026-04-18T15:21:25.521Z</time></trkpt><trkpt lat="43.8336822" lon="12.7533022"><ele>53.0</ele><time>2026-04-18T15:21:26.521Z</time></trkpt><trkpt lat="43.8335891" lon="12.7532869"><ele>53.00000000000001</ele><time>2026-04-18T15:21:27.521Z</time></trkpt><trkpt lat="43.8335071" lon="12.7532792"><ele>53.0</ele><time>2026-04-18T15:21:28.521Z</time></trkpt><trkpt lat="43.8334247" lon="12.7532796"><ele>53.0</ele><time>2026-04-18T15:21:29.52Z</time></trkpt><trkpt lat="43.8333417" lon="12.7532936"><ele>53.0</ele><time>2026-04-18T15:21:30.521Z</time></trkpt><trkpt lat="43.8332589" lon="12.7533225"><ele>53.00000000000001</ele><time>2026-04-18T15:21:31.522Z</time></trkpt><trkpt lat="43.8331761" lon="12.7533595"><ele>53.0</ele><time>2026-04-18T15:21:32.524Z</time></trkpt><trkpt lat="43.8330971" lon="12.7534014"><ele>53.66666666666667</ele><time>2026-04-18T15:21:33.522Z</time></trkpt><trkpt lat="43.8330267" lon="12.7534521"><ele>54.333333333333336</ele><time>2026-04-18T15:21:34.522Z</time></trkpt><trkpt lat="43.8329599" lon="12.7534849"><ele>55.0</ele><time>2026-04-18T15:21:35.52Z</time></trkpt><trkpt lat="43.8328928" lon="12.7534962"><ele>55.66666666666667</ele><time>2026-04-18T15:21:36.52Z</time></trkpt><trkpt lat="43.8328189" lon="12.7534933"><ele>56.333333333333336</ele><time>2026-04-18T15:21:37.521Z</time></trkpt><trkpt lat="43.8327382" lon="12.7534948"><ele>57.0</ele><time>2026-04-18T15:21:38.522Z</time></trkpt><trkpt lat="43.8326204" lon="12.7535134"><ele>60.5</ele><time>2026-04-18T15:21:39.522Z</time></trkpt><trkpt lat="43.8324906" lon="12.7535542"><ele>64.0</ele><time>2026-04-18T15:21:40.521Z</time></trkpt><trkpt lat="43.8323663" lon="12.7535872"><ele>67.5</ele><time>2026-04-18T15:21:41.52Z</time></trkpt><trkpt lat="43.8322501" lon="12.7536099"><ele>71.0</ele><time>2026-04-18T15:21:42.521Z</time></trkpt><trkpt lat="43.8321457" lon="12.7536112"><ele>71.0</ele><time>2026-04-18T15:21:43.519Z</time></trkpt><trkpt lat="43.8320548" lon="12.7536017"><ele>71.0</ele><time>2026-04-18T15:21:44.52Z</time></trkpt><trkpt lat="43.831963" lon="12.7535907"><ele>71.0</ele><time>2026-04-18T15:21:45.52Z</time></trkpt><trkpt lat="43.8318743" lon="12.7535772"><ele>71.0</ele><time>2026-04-18T15:21:46.52Z</time></trkpt><trkpt lat="43.8317811" lon="12.7535648"><ele>71.0</ele><time>2026-04-18T15:21:47.519Z</time></trkpt><trkpt lat="43.8316884" lon="12.7535486"><ele>69.33333333333334</ele><time>2026-04-18T15:21:48.521Z</time></trkpt><trkpt lat="43.831601" lon="12.7535329"><ele>67.66666666666667</ele><time>2026-04-18T15:21:49.521Z</time></trkpt><trkpt lat="43.8315133" lon="12.7535198"><ele>66.0</ele><time>2026-04-18T15:21:50.521Z</time></trkpt><trkpt lat="43.8314287" lon="12.7535038"><ele>64.33333333333333</ele><time>2026-04-18T15:21:51.52Z</time></trkpt><trkpt lat="43.8313412" lon="12.7534964"><ele>62.666666666666664</ele><time>2026-04-18T15:21:52.52Z</time></trkpt><trkpt lat="43.8312545" lon="12.7534988"><ele>61.0</ele><time>2026-04-18T15:21:53.52Z</time></trkpt><trkpt lat="43.8311702" lon="12.7535108"><ele>60.99999999999999</ele><time>2026-04-18T15:21:54.521Z</time></trkpt><trkpt lat="43.8310818" lon="12.7535284"><ele>61.0</ele><time>2026-04-18T15:21:55.521Z</time></trkpt><trkpt lat="43.8309968" lon="12.7535486"><ele>61.0</ele><time>2026-04-18T15:21:56.52Z</time></trkpt><trkpt lat="43.83092" lon="12.753572"><ele>61.0</ele><time>2026-04-18T15:21:57.522Z</time></trkpt><trkpt lat="43.8308479" lon="12.7535823"><ele>60.99999999999999</ele><time>2026-04-18T15:21:58.52Z</time></trkpt><trkpt lat="43.8307852" lon="12.7535681"><ele>61.0</ele><time>2026-04-18T15:21:59.52Z</time></trkpt><trkpt lat="43.8307332" lon="12.7534266"><ele>62.0</ele><time>2026-04-18T15:22:01.522Z</time></trkpt><trkpt lat="43.8307226" lon="12.7533141"><ele>62.99999999999999</ele><time>2026-04-18T15:22:02.521Z</time></trkpt><trkpt lat="43.8306905" lon="12.7532088"><ele>63.99999999999999</ele><time>2026-04-18T15:22:03.521Z</time></trkpt><trkpt lat="43.8306397" lon="12.7530904"><ele>65.0</ele><time>2026-04-18T15:22:04.521Z</time></trkpt><trkpt lat="43.8305615" lon="12.7529804"><ele>66.0</ele><time>2026-04-18T15:22:05.521Z</time></trkpt><trkpt lat="43.83046" lon="12.7528908"><ele>66.0</ele><time>2026-04-18T15:22:06.52Z</time></trkpt><trkpt lat="43.8303529" lon="12.7528156"><ele>66.0</ele><time>2026-04-18T15:22:07.52Z</time></trkpt><trkpt lat="43.8302403" lon="12.7527556"><ele>66.0</ele><time>2026-04-18T15:22:08.521Z</time></trkpt><trkpt lat="43.830114" lon="12.7527677"><ele>66.0</ele><time>2026-04-18T15:22:09.52Z</time></trkpt><trkpt lat="43.8299711" lon="12.7528124"><ele>69.66666666666667</ele><time>2026-04-18T15:22:10.521Z</time></trkpt><trkpt lat="43.8298106" lon="12.7528733"><ele>73.33333333333334</ele><time>2026-04-18T15:22:11.53Z</time></trkpt><trkpt lat="43.8296439" lon="12.7529365"><ele>77.0</ele><time>2026-04-18T15:22:12.52Z</time></trkpt><trkpt lat="43.8294854" lon="12.7529914"><ele>77.0</ele><time>2026-04-18T15:22:13.52Z</time></trkpt><trkpt lat="43.8293468" lon="12.7530351"><ele>77.0</ele><time>2026-04-18T15:22:14.52Z</time></trkpt><trkpt lat="43.8292217" lon="12.7530794"><ele>77.0</ele><time>2026-04-18T15:22:15.519Z</time></trkpt><trkpt lat="43.8291201" lon="12.7531271"><ele>77.0</ele><time>2026-04-18T15:22:16.52Z</time></trkpt><trkpt lat="43.8290264" lon="12.7531691"><ele>79.66666666666667</ele><time>2026-04-18T15:22:17.521Z</time></trkpt><trkpt lat="43.8289407" lon="12.7531948"><ele>82.33333333333334</ele><time>2026-04-18T15:22:18.52Z</time></trkpt><trkpt lat="43.8288564" lon="12.7532139"><ele>85.0</ele><time>2026-04-18T15:22:19.521Z</time></trkpt><trkpt lat="43.8287776" lon="12.7532099"><ele>87.66666666666667</ele><time>2026-04-18T15:22:20.52Z</time></trkpt><trkpt lat="43.8287041" lon="12.7531895"><ele>90.33333333333333</ele><time>2026-04-18T15:22:21.52Z</time></trkpt><trkpt lat="43.8286298" lon="12.7531627"><ele>93.0</ele><time>2026-04-18T15:22:22.52Z</time></trkpt><trkpt lat="43.8285528" lon="12.7531351"><ele>94.2</ele><time>2026-04-18T15:22:23.52Z</time></trkpt><trkpt lat="43.8284732" lon="12.7531075"><ele>95.4</ele><time>2026-04-18T15:22:24.52Z</time></trkpt><trkpt lat="43.8283786" lon="12.7530546"><ele>96.60000000000001</ele><time>2026-04-18T15:22:25.52Z</time></trkpt><trkpt lat="43.8282821" lon="12.7529932"><ele>97.80000000000001</ele><time>2026-04-18T15:22:26.52Z</time></trkpt><trkpt lat="43.8281827" lon="12.7529211"><ele>99.0</ele><time>2026-04-18T15:22:27.52Z</time></trkpt><trkpt lat="43.8280775" lon="12.7528449"><ele>99.0</ele><time>2026-04-18T15:22:28.52Z</time></trkpt><trkpt lat="43.8279729" lon="12.7527779"><ele>99.0</ele><time>2026-04-18T15:22:29.522Z</time></trkpt><trkpt lat="43.8278597" lon="12.7527399"><ele>99.0</ele><time>2026-04-18T15:22:30.521Z</time></trkpt><trkpt lat="43.8277415" lon="12.7527181"><ele>99.0</ele><time>2026-04-18T15:22:31.523Z</time></trkpt><trkpt lat="43.8276239" lon="12.7527059"><ele>99.80000000000001</ele><time>2026-04-18T15:22:32.519Z</time></trkpt><trkpt lat="43.8275081" lon="12.7527084"><ele>100.60000000000001</ele><time>2026-04-18T15:22:33.52Z</time></trkpt><trkpt lat="43.8273996" lon="12.7527174"><ele>101.4</ele><time>2026-04-18T15:22:34.52Z</time></trkpt><trkpt lat="43.82729" lon="12.7527341"><ele>102.2</ele><time>2026-04-18T15:22:35.519Z</time></trkpt><trkpt lat="43.8271774" lon="12.752755"><ele>103.0</ele><time>2026-04-18T15:22:36.521Z</time></trkpt><trkpt lat="43.8270651" lon="12.7527683"><ele>103.0</ele><time>2026-04-18T15:22:37.52Z</time></trkpt><trkpt lat="43.8269502" lon="12.7527764"><ele>103.0</ele><time>2026-04-18T15:22:38.52Z</time></trkpt><trkpt lat="43.8268291" lon="12.7527729"><ele>103.0</ele><time>2026-04-18T15:22:39.52Z</time></trkpt><trkpt lat="43.8267055" lon="12.752759"><ele>103.0</ele><time>2026-04-18T15:22:40.521Z</time></trkpt><trkpt lat="43.8265771" lon="12.7527422"><ele>105.25</ele><time>2026-04-18T15:22:41.522Z</time></trkpt><trkpt lat="43.8264555" lon="12.7527299"><ele>107.5</ele><time>2026-04-18T15:22:42.52Z</time></trkpt><trkpt lat="43.8263378" lon="12.7527323"><ele>109.75</ele><time>2026-04-18T15:22:43.52Z</time></trkpt><trkpt lat="43.8262126" lon="12.7527471"><ele>112.0</ele><time>2026-04-18T15:22:44.52Z</time></trkpt><trkpt lat="43.8260549" lon="12.7527687"><ele>113.33333333333334</ele><time>2026-04-18T15:22:45.52Z</time></trkpt><trkpt lat="43.8258692" lon="12.7528013"><ele>114.66666666666666</ele><time>2026-04-18T15:22:46.52Z</time></trkpt><trkpt lat="43.8256734" lon="12.7528479"><ele>116.0</ele><time>2026-04-18T15:22:47.522Z</time></trkpt><trkpt lat="43.8254845" lon="12.7528987"><ele>116.0</ele><time>2026-04-18T15:22:48.521Z</time></trkpt><trkpt lat="43.825313" lon="12.7529504"><ele>116.0</ele><time>2026-04-18T15:22:49.523Z</time></trkpt><trkpt lat="43.8251595" lon="12.7529995"><ele>116.0</ele><time>2026-04-18T15:22:50.524Z</time></trkpt><trkpt lat="43.8250133" lon="12.7530468"><ele>119.25</ele><time>2026-04-18T15:22:51.521Z</time></trkpt><trkpt lat="43.8248817" lon="12.7530972"><ele>122.5</ele><time>2026-04-18T15:22:52.521Z</time></trkpt><trkpt lat="43.8247804" lon="12.7531584"><ele>125.75</ele><time>2026-04-18T15:22:53.521Z</time></trkpt><trkpt lat="43.8246883" lon="12.7532298"><ele>129.0</ele><time>2026-04-18T15:22:54.521Z</time></trkpt><trkpt lat="43.8246031" lon="12.7533066"><ele>129.0</ele><time>2026-04-18T15:22:55.519Z</time></trkpt><trkpt lat="43.8245211" lon="12.7533771"><ele>129.0</ele><time>2026-04-18T15:22:56.521Z</time></trkpt><trkpt lat="43.8244397" lon="12.7534436"><ele>129.0</ele><time>2026-04-18T15:22:57.519Z</time></trkpt><trkpt lat="43.8243549" lon="12.7535168"><ele>129.0</ele><time>2026-04-18T15:22:58.52Z</time></trkpt><trkpt lat="43.8242668" lon="12.7535901"><ele>129.0</ele><time>2026-04-18T15:22:59.52Z</time></trkpt><trkpt lat="43.8241632" lon="12.7536527"><ele>130.5</ele><time>2026-04-18T15:23:00.519Z</time></trkpt><trkpt lat="43.8240472" lon="12.753708"><ele>132.0</ele><time>2026-04-18T15:23:01.52Z</time></trkpt><trkpt lat="43.8239301" lon="12.7537556"><ele>133.5</ele><time>2026-04-18T15:23:02.52Z</time></trkpt><trkpt lat="43.8238194" lon="12.7537975"><ele>135.0</ele><time>2026-04-18T15:23:03.519Z</time></trkpt><trkpt lat="43.8237161" lon="12.753832"><ele>135.0</ele><time>2026-04-18T15:23:04.519Z</time></trkpt><trkpt lat="43.8236172" lon="12.7538691"><ele>135.0</ele><time>2026-04-18T15:23:05.52Z</time></trkpt><trkpt lat="43.8235234" lon="12.7539136"><ele>135.0</ele><time>2026-04-18T15:23:06.52Z</time></trkpt><trkpt lat="43.8234362" lon="12.7539639"><ele>135.0</ele><time>2026-04-18T15:23:07.52Z</time></trkpt><trkpt lat="43.8233517" lon="12.7540196"><ele>135.0</ele><time>2026-04-18T15:23:08.521Z</time></trkpt><trkpt lat="43.8232699" lon="12.7540761"><ele>136.71428571428572</ele><time>2026-04-18T15:23:09.531Z</time></trkpt><trkpt lat="43.8231943" lon="12.7541247"><ele>138.42857142857142</ele><time>2026-04-18T15:23:10.519Z</time></trkpt><trkpt lat="43.8231213" lon="12.7541698"><ele>140.14285714285714</ele><time>2026-04-18T15:23:11.519Z</time></trkpt><trkpt lat="43.8230517" lon="12.7542064"><ele>141.85714285714286</ele><time>2026-04-18T15:23:12.52Z</time></trkpt><trkpt lat="43.8229871" lon="12.7542373"><ele>143.57142857142856</ele><time>2026-04-18T15:23:13.521Z</time></trkpt><trkpt lat="43.8229194" lon="12.7542619"><ele>145.28571428571428</ele><time>2026-04-18T15:23:14.52Z</time></trkpt><trkpt lat="43.8228553" lon="12.7542843"><ele>147.0</ele><time>2026-04-18T15:23:15.522Z</time></trkpt><trkpt lat="43.8227922" lon="12.754301"><ele>147.0</ele><time>2026-04-18T15:23:16.519Z</time></trkpt><trkpt lat="43.8227278" lon="12.7543099"><ele>147.0</ele><time>2026-04-18T15:23:17.519Z</time></trkpt><trkpt lat="43.8226602" lon="12.7543064"><ele>147.0</ele><time>2026-04-18T15:23:18.52Z</time></trkpt><trkpt lat="43.8225895" lon="12.7542962"><ele>147.0</ele><time>2026-04-18T15:23:19.52Z</time></trkpt><trkpt lat="43.8225245" lon="12.7542829"><ele>147.0</ele><time>2026-04-18T15:23:20.52Z</time></trkpt><trkpt lat="43.8224029" lon="12.7542622"><ele>147.0</ele><time>2026-04-18T15:23:22.518Z</time></trkpt><trkpt lat="43.8223349" lon="12.7542519"><ele>149.14285714285714</ele><time>2026-04-18T15:23:23.518Z</time></trkpt><trkpt lat="43.8222652" lon="12.7542442"><ele>151.28571428571428</ele><time>2026-04-18T15:23:24.519Z</time></trkpt><trkpt lat="43.8221951" lon="12.7542347"><ele>153.42857142857144</ele><time>2026-04-18T15:23:25.518Z</time></trkpt><trkpt lat="43.8221287" lon="12.7542162"><ele>155.57142857142856</ele><time>2026-04-18T15:23:26.519Z</time></trkpt><trkpt lat="43.8220657" lon="12.7541793"><ele>157.71428571428572</ele><time>2026-04-18T15:23:27.518Z</time></trkpt><trkpt lat="43.8220109" lon="12.7541209"><ele>159.85714285714286</ele><time>2026-04-18T15:23:28.518Z</time></trkpt><trkpt lat="43.8219612" lon="12.7540577"><ele>162.0</ele><time>2026-04-18T15:23:29.518Z</time></trkpt><trkpt lat="43.8219095" lon="12.7539938"><ele>162.0</ele><time>2026-04-18T15:23:30.518Z</time></trkpt><trkpt lat="43.821858" lon="12.7539228"><ele>162.0</ele><time>2026-04-18T15:23:31.519Z</time></trkpt><trkpt lat="43.8217998" lon="12.7538496"><ele>162.0</ele><time>2026-04-18T15:23:32.519Z</time></trkpt><trkpt lat="43.8217366" lon="12.7537822"><ele>162.0</ele><time>2026-04-18T15:23:33.52Z</time></trkpt><trkpt lat="43.8216728" lon="12.7537382"><ele>162.0</ele><time>2026-04-18T15:23:34.519Z</time></trkpt><trkpt lat="43.821609" lon="12.7537051"><ele>162.0</ele><time>2026-04-18T15:23:35.519Z</time></trkpt><trkpt lat="43.8215404" lon="12.7536767"><ele>162.0</ele><time>2026-04-18T15:23:36.519Z</time></trkpt><trkpt lat="43.8214172" lon="12.7536826"><ele>164.8</ele><time>2026-04-18T15:23:38.519Z</time></trkpt><trkpt lat="43.8213523" lon="12.7537164"><ele>167.6</ele><time>2026-04-18T15:23:39.518Z</time></trkpt><trkpt lat="43.8212566" lon="12.7537838"><ele>170.4</ele><time>2026-04-18T15:23:41.518Z</time></trkpt><trkpt lat="43.821172" lon="12.7538467"><ele>173.20000000000002</ele><time>2026-04-18T15:23:43.519Z</time></trkpt><trkpt lat="43.8210902" lon="12.7538918"><ele>176.0</ele><time>2026-04-18T15:23:45.52Z</time></trkpt><trkpt lat="43.8210112" lon="12.7539562"><ele>177.20000000000002</ele><time>2026-04-18T15:23:47.519Z</time></trkpt><trkpt lat="43.8209395" lon="12.7540002"><ele>178.4</ele><time>2026-04-18T15:23:50.522Z</time></trkpt><trkpt lat="43.82087" lon="12.7540983"><ele>179.6</ele><time>2026-04-18T15:24:20.519Z</time></trkpt><trkpt lat="43.820775" lon="12.75416"><ele>180.8</ele><time>2026-04-18T15:24:22.519Z</time></trkpt><trkpt lat="43.8206683" lon="12.7542383"><ele>182.0</ele><time>2026-04-18T15:24:24.519Z</time></trkpt><trkpt lat="43.8206117" lon="12.7542783"><ele>182.0</ele><time>2026-04-18T15:24:25.519Z</time></trkpt><trkpt lat="43.8205017" lon="12.7543417"><ele>182.0</ele><time>2026-04-18T15:24:27.519Z</time></trkpt><trkpt lat="43.8203767" lon="12.7543917"><ele>182.0</ele><time>2026-04-18T15:24:29.52Z</time></trkpt><trkpt lat="43.82026" lon="12.7544283"><ele>182.0</ele><time>2026-04-18T15:24:31.518Z</time></trkpt><trkpt lat="43.8201933" lon="12.7544333"><ele>182.0</ele><time>2026-04-18T15:24:32.52Z</time></trkpt><trkpt lat="43.8200717" lon="12.754405"><ele>182.6</ele><time>2026-04-18T15:24:34.518Z</time></trkpt><trkpt lat="43.819955" lon="12.7543617"><ele>183.2</ele><time>2026-04-18T15:24:36.519Z</time></trkpt><trkpt lat="43.81982" lon="12.75436"><ele>183.8</ele><time>2026-04-18T15:24:38.518Z</time></trkpt><trkpt lat="43.819755" lon="12.754375"><ele>184.4</ele><time>2026-04-18T15:24:39.518Z</time></trkpt><trkpt lat="43.819695" lon="12.7544167"><ele>185.0</ele><time>2026-04-18T15:24:40.519Z</time></trkpt><trkpt lat="43.819655" lon="12.7544933"><ele>185.0</ele><time>2026-04-18T15:24:41.519Z</time></trkpt><trkpt lat="43.8196167" lon="12.7545767"><ele>185.0</ele><time>2026-04-18T15:24:42.519Z</time></trkpt><trkpt lat="43.8195683" lon="12.75464"><ele>185.0</ele><time>2026-04-18T15:24:43.518Z</time></trkpt><trkpt lat="43.8195367" lon="12.7547233"><ele>185.0</ele><time>2026-04-18T15:24:44.519Z</time></trkpt><trkpt lat="43.8195" lon="12.7548017"><ele>185.0</ele><time>2026-04-18T15:24:45.518Z</time></trkpt><trkpt lat="43.8194667" lon="12.75488"><ele>185.0</ele><time>2026-04-18T15:24:46.519Z</time></trkpt><trkpt lat="43.81941" lon="12.7550283"><ele>185.0</ele><time>2026-04-18T15:24:48.519Z</time></trkpt><trkpt lat="43.8193533" lon="12.7551217"><ele>185.0</ele><time>2026-04-18T15:24:50.521Z</time></trkpt><trkpt lat="43.8192767" lon="12.7550983"><ele>185.0</ele><time>2026-04-18T15:24:52.519Z</time></trkpt><trkpt lat="43.819235" lon="12.754965"><ele>185.0</ele><time>2026-04-18T15:24:54.526Z</time></trkpt><trkpt lat="43.81918" lon="12.754845"><ele>185.0</ele><time>2026-04-18T15:24:56.522Z</time></trkpt><trkpt lat="43.8190933" lon="12.754825"><ele>188.4</ele><time>2026-04-18T15:24:58.518Z</time></trkpt><trkpt lat="43.8190217" lon="12.7549367"><ele>191.8</ele><time>2026-04-18T15:25:00.519Z</time></trkpt><trkpt lat="43.81897" lon="12.7549917"><ele>195.2</ele><time>2026-04-18T15:25:01.518Z</time></trkpt><trkpt lat="43.818875" lon="12.75508"><ele>198.6</ele><time>2026-04-18T15:25:03.518Z</time></trkpt><trkpt lat="43.818755" lon="12.755105"><ele>202.0</ele><time>2026-04-18T15:25:05.525Z</time></trkpt><trkpt lat="43.8186883" lon="12.7551117"><ele>201.99999999999997</ele><time>2026-04-18T15:25:06.518Z</time></trkpt><trkpt lat="43.81862" lon="12.75513"><ele>202.0</ele><time>2026-04-18T15:25:07.52Z</time></trkpt><trkpt lat="43.8185567" lon="12.7551683"><ele>202.0</ele><time>2026-04-18T15:25:08.521Z</time></trkpt><trkpt lat="43.818445" lon="12.7552233"><ele>202.0</ele><time>2026-04-18T15:25:10.519Z</time></trkpt><trkpt lat="43.8183817" lon="12.7552517"><ele>201.99999999999997</ele><time>2026-04-18T15:25:11.519Z</time></trkpt><trkpt lat="43.8183167" lon="12.7552767"><ele>202.0</ele><time>2026-04-18T15:25:12.519Z</time></trkpt><trkpt lat="43.8182533" lon="12.7552967"><ele>204.16666666666666</ele><time>2026-04-18T15:25:13.519Z</time></trkpt><trkpt lat="43.81813" lon="12.7553267"><ele>206.33333333333331</ele><time>2026-04-18T15:25:15.518Z</time></trkpt><trkpt lat="43.8180583" lon="12.7553483"><ele>208.5</ele><time>2026-04-18T15:25:16.518Z</time></trkpt><trkpt lat="43.8179883" lon="12.7553667"><ele>210.66666666666669</ele><time>2026-04-18T15:25:17.519Z</time></trkpt><trkpt lat="43.81792" lon="12.7553933"><ele>212.83333333333334</ele><time>2026-04-18T15:25:18.518Z</time></trkpt><trkpt lat="43.8178517" lon="12.7554133"><ele>215.0</ele><time>2026-04-18T15:25:19.519Z</time></trkpt><trkpt lat="43.817785" lon="12.75543"><ele>215.00000000000003</ele><time>2026-04-18T15:25:20.518Z</time></trkpt><trkpt lat="43.81772" lon="12.755445"><ele>215.0</ele><time>2026-04-18T15:25:21.518Z</time></trkpt><trkpt lat="43.8176533" lon="12.75546"><ele>215.0</ele><time>2026-04-18T15:25:22.52Z</time></trkpt><trkpt lat="43.81759" lon="12.75548"><ele>215.0</ele><time>2026-04-18T15:25:23.518Z</time></trkpt><trkpt lat="43.81747" lon="12.75553"><ele>215.00000000000003</ele><time>2026-04-18T15:25:25.519Z</time></trkpt><trkpt lat="43.8174083" lon="12.7555617"><ele>215.0</ele><time>2026-04-18T15:25:26.519Z</time></trkpt><trkpt lat="43.8173033" lon="12.7556133"><ele>218.00000000000003</ele><time>2026-04-18T15:25:28.518Z</time></trkpt><trkpt lat="43.8172" lon="12.7557317"><ele>221.0</ele><time>2026-04-18T15:25:30.521Z</time></trkpt><trkpt lat="43.8171217" lon="12.7557667"><ele>224.0</ele><time>2026-04-18T15:25:31.521Z</time></trkpt><trkpt lat="43.817045" lon="12.7557983"><ele>227.0</ele><time>2026-04-18T15:25:32.52Z</time></trkpt><trkpt lat="43.8169733" lon="12.7558233"><ele>230.00000000000003</ele><time>2026-04-18T15:25:33.518Z</time></trkpt><trkpt lat="43.816905" lon="12.7558417"><ele>233.0</ele><time>2026-04-18T15:25:34.518Z</time></trkpt><trkpt lat="43.8168367" lon="12.7558633"><ele>235.2</ele><time>2026-04-18T15:25:35.518Z</time></trkpt><trkpt lat="43.81677" lon="12.75588"><ele>237.4</ele><time>2026-04-18T15:25:36.518Z</time></trkpt><trkpt lat="43.816651" lon="12.7559185"><ele>239.59999999999997</ele><time>2026-04-18T15:25:38.519Z</time></trkpt><trkpt lat="43.8165272" lon="12.7559504"><ele>241.79999999999998</ele><time>2026-04-18T15:25:40.518Z</time></trkpt><trkpt lat="43.8164073" lon="12.7559654"><ele>244.0</ele><time>2026-04-18T15:25:42.518Z</time></trkpt><trkpt lat="43.8162925" lon="12.7559456"><ele>243.99999999999997</ele><time>2026-04-18T15:25:44.52Z</time></trkpt><trkpt lat="43.8161751" lon="12.7558694"><ele>244.0</ele><time>2026-04-18T15:25:46.518Z</time></trkpt><trkpt lat="43.816119" lon="12.7558166"><ele>244.0</ele><time>2026-04-18T15:25:47.521Z</time></trkpt><trkpt lat="43.8160623" lon="12.7557771"><ele>244.0</ele><time>2026-04-18T15:25:48.518Z</time></trkpt><trkpt lat="43.8159749" lon="12.7557064"><ele>243.99999999999997</ele><time>2026-04-18T15:25:50.519Z</time></trkpt><trkpt lat="43.8159007" lon="12.7556913"><ele>244.0</ele><time>2026-04-18T15:25:52.517Z</time></trkpt><trkpt lat="43.8158296" lon="12.7558084"><ele>246.0</ele><time>2026-04-18T15:25:54.519Z</time></trkpt><trkpt lat="43.8157925" lon="12.7558865"><ele>247.99999999999997</ele><time>2026-04-18T15:25:55.518Z</time></trkpt><trkpt lat="43.8157604" lon="12.7559649"><ele>249.99999999999997</ele><time>2026-04-18T15:25:56.518Z</time></trkpt><trkpt lat="43.8157251" lon="12.7560491"><ele>252.0</ele><time>2026-04-18T15:25:57.518Z</time></trkpt><trkpt lat="43.8156535" lon="12.7561887"><ele>254.0</ele><time>2026-04-18T15:25:59.518Z</time></trkpt><trkpt lat="43.8155771" lon="12.7563241"><ele>254.0</ele><time>2026-04-18T15:26:01.518Z</time></trkpt><trkpt lat="43.8155006" lon="12.756459"><ele>254.0</ele><time>2026-04-18T15:26:03.518Z</time></trkpt><trkpt lat="43.8154566" lon="12.7565227"><ele>254.0</ele><time>2026-04-18T15:26:04.519Z</time></trkpt><trkpt lat="43.8154079" lon="12.7565816"><ele>254.0</ele><time>2026-04-18T15:26:05.518Z</time></trkpt><trkpt lat="43.8153527" lon="12.7566373"><ele>254.0</ele><time>2026-04-18T15:26:06.522Z</time></trkpt><trkpt lat="43.8152945" lon="12.7566791"><ele>254.0</ele><time>2026-04-18T15:26:07.518Z</time></trkpt><trkpt lat="43.8152356" lon="12.7567121"><ele>254.0</ele><time>2026-04-18T15:26:08.522Z</time></trkpt><trkpt lat="43.8151742" lon="12.7567314"><ele>258.2</ele><time>2026-04-18T15:26:09.518Z</time></trkpt><trkpt lat="43.8150495" lon="12.7567594"><ele>262.4</ele><time>2026-04-18T15:26:11.519Z</time></trkpt><trkpt lat="43.814982" lon="12.7567693"><ele>266.6</ele><time>2026-04-18T15:26:12.521Z</time></trkpt><trkpt lat="43.8149155" lon="12.7567794"><ele>270.8</ele><time>2026-04-18T15:26:13.519Z</time></trkpt><trkpt lat="43.8148076" lon="12.7567918"><ele>275.0</ele><time>2026-04-18T15:26:15.52Z</time></trkpt><trkpt lat="43.8146993" lon="12.7568013"><ele>275.0</ele><time>2026-04-18T15:26:17.52Z</time></trkpt><trkpt lat="43.8145841" lon="12.7568078"><ele>275.0</ele><time>2026-04-18T15:26:19.525Z</time></trkpt><trkpt lat="43.8144851" lon="12.7568182"><ele>275.0</ele><time>2026-04-18T15:26:21.527Z</time></trkpt><trkpt lat="43.8143899" lon="12.7568484"><ele>275.0</ele><time>2026-04-18T15:26:23.518Z</time></trkpt><trkpt lat="43.8143014" lon="12.7569343"><ele>275.0</ele><time>2026-04-18T15:26:25.52Z</time></trkpt><trkpt lat="43.8142238" lon="12.7570498"><ele>275.8</ele><time>2026-04-18T15:26:27.518Z</time></trkpt><trkpt lat="43.8141456" lon="12.7571433"><ele>276.6</ele><time>2026-04-18T15:26:29.521Z</time></trkpt><trkpt lat="43.8140696" lon="12.7572472"><ele>277.4</ele><time>2026-04-18T15:26:31.522Z</time></trkpt><trkpt lat="43.8139907" lon="12.7573253"><ele>278.2</ele><time>2026-04-18T15:26:33.524Z</time></trkpt><trkpt lat="43.8139194" lon="12.7574084"><ele>279.0</ele><time>2026-04-18T15:26:35.519Z</time></trkpt><trkpt lat="43.813844" lon="12.7574854"><ele>279.0</ele><time>2026-04-18T15:26:37.519Z</time></trkpt><trkpt lat="43.8137602" lon="12.7575694"><ele>279.0</ele><time>2026-04-18T15:26:39.517Z</time></trkpt><trkpt lat="43.8136769" lon="12.7576437"><ele>279.0</ele><time>2026-04-18T15:26:41.517Z</time></trkpt><trkpt lat="43.8136011" lon="12.7577134"><ele>279.0</ele><time>2026-04-18T15:26:43.517Z</time></trkpt><trkpt lat="43.8135286" lon="12.7577863"><ele>279.0</ele><time>2026-04-18T15:26:45.525Z</time></trkpt><trkpt lat="43.8134612" lon="12.7578751"><ele>280.0</ele><time>2026-04-18T15:26:47.52Z</time></trkpt><trkpt lat="43.8134064" lon="12.7579627"><ele>281.0</ele><time>2026-04-18T15:26:49.519Z</time></trkpt><trkpt lat="43.8133392" lon="12.7580568"><ele>282.0</ele><time>2026-04-18T15:26:51.519Z</time></trkpt><trkpt lat="43.8132848" lon="12.7581238"><ele>283.0</ele><time>2026-04-18T15:26:53.517Z</time></trkpt><trkpt lat="43.813239" lon="12.7581918"><ele>284.0</ele><time>2026-04-18T15:26:55.517Z</time></trkpt><trkpt lat="43.8132012" lon="12.7582718"><ele>285.0</ele><time>2026-04-18T15:26:58.572Z</time></trkpt><trkpt lat="43.8131503" lon="12.7583282"><ele>285.0</ele><time>2026-04-18T15:27:02.517Z</time></trkpt><trkpt lat="43.8131267" lon="12.75843"><ele>285.0</ele><time>2026-04-18T15:27:12.517Z</time></trkpt><trkpt lat="43.8131733" lon="12.7585317"><ele>285.0</ele><time>2026-04-18T15:27:14.517Z</time></trkpt><trkpt lat="43.813225" lon="12.75865"><ele>285.0</ele><time>2026-04-18T15:27:16.516Z</time></trkpt><trkpt lat="43.8132667" lon="12.7588"><ele>285.0</ele><time>2026-04-18T15:27:18.517Z</time></trkpt><trkpt lat="43.8132983" lon="12.7589417"><ele>284.0</ele><time>2026-04-18T15:27:20.518Z</time></trkpt><trkpt lat="43.813325" lon="12.75908"><ele>283.0</ele><time>2026-04-18T15:27:22.518Z</time></trkpt><trkpt lat="43.81336" lon="12.75923"><ele>282.0</ele><time>2026-04-18T15:27:24.516Z</time></trkpt><trkpt lat="43.8133867" lon="12.7593917"><ele>281.0</ele><time>2026-04-18T15:27:26.517Z</time></trkpt><trkpt lat="43.8134083" lon="12.75954"><ele>280.0</ele><time>2026-04-18T15:27:28.517Z</time></trkpt><trkpt lat="43.8134117" lon="12.7596483"><ele>279.4</ele><time>2026-04-18T15:27:30.517Z</time></trkpt><trkpt lat="43.81339" lon="12.7597417"><ele>278.8</ele><time>2026-04-18T15:27:34.517Z</time></trkpt><trkpt lat="43.8133217" lon="12.7598017"><ele>278.2</ele><time>2026-04-18T15:27:37.517Z</time></trkpt><trkpt lat="43.8132517" lon="12.75986"><ele>277.6</ele><time>2026-04-18T15:27:39.521Z</time></trkpt><trkpt lat="43.81316" lon="12.7599667"><ele>277.0</ele><time>2026-04-18T15:27:41.517Z</time></trkpt><trkpt lat="43.8130867" lon="12.76009"><ele>278.0</ele><time>2026-04-18T15:27:43.517Z</time></trkpt><trkpt lat="43.8130317" lon="12.7602283"><ele>279.0</ele><time>2026-04-18T15:27:45.517Z</time></trkpt><trkpt lat="43.812985" lon="12.7603833"><ele>280.0</ele><time>2026-04-18T15:27:47.517Z</time></trkpt><trkpt lat="43.8129567" lon="12.7605367"><ele>281.0</ele><time>2026-04-18T15:27:49.518Z</time></trkpt><trkpt lat="43.812915" lon="12.76069"><ele>281.0</ele><time>2026-04-18T15:27:51.517Z</time></trkpt><trkpt lat="43.8128617" lon="12.7608417"><ele>281.0</ele><time>2026-04-18T15:27:53.517Z</time></trkpt><trkpt lat="43.8128167" lon="12.7609133"><ele>281.0</ele><time>2026-04-18T15:27:54.516Z</time></trkpt><trkpt lat="43.8127633" lon="12.7609833"><ele>281.0</ele><time>2026-04-18T15:27:55.518Z</time></trkpt><trkpt lat="43.8127117" lon="12.76105"><ele>281.0</ele><time>2026-04-18T15:27:56.518Z</time></trkpt><trkpt lat="43.812665" lon="12.7611133"><ele>281.0</ele><time>2026-04-18T15:27:57.517Z</time></trkpt><trkpt lat="43.8125883" lon="12.7612317"><ele>277.2</ele><time>2026-04-18T15:27:59.517Z</time></trkpt><trkpt lat="43.81252" lon="12.76136"><ele>273.40000000000003</ele><time>2026-04-18T15:28:01.518Z</time></trkpt><trkpt lat="43.81245" lon="12.7615067"><ele>269.6</ele><time>2026-04-18T15:28:03.516Z</time></trkpt><trkpt lat="43.8124167" lon="12.76166"><ele>265.8</ele><time>2026-04-18T15:28:05.517Z</time></trkpt><trkpt lat="43.812405" lon="12.7617467"><ele>262.0</ele><time>2026-04-18T15:28:06.517Z</time></trkpt><trkpt lat="43.8123933" lon="12.7618333"><ele>262.0</ele><time>2026-04-18T15:28:07.517Z</time></trkpt><trkpt lat="43.81237" lon="12.762005"><ele>262.0</ele><time>2026-04-18T15:28:09.516Z</time></trkpt><trkpt lat="43.8123517" lon="12.7620933"><ele>262.0</ele><time>2026-04-18T15:28:10.516Z</time></trkpt><trkpt lat="43.8123233" lon="12.762265"><ele>262.0</ele><time>2026-04-18T15:28:12.517Z</time></trkpt><trkpt lat="43.8123117" lon="12.76236"><ele>262.0</ele><time>2026-04-18T15:28:13.517Z</time></trkpt><trkpt lat="43.8122967" lon="12.76247"><ele>262.0</ele><time>2026-04-18T15:28:14.518Z</time></trkpt><trkpt lat="43.8122867" lon="12.7625917"><ele>262.0</ele><time>2026-04-18T15:28:15.516Z</time></trkpt><trkpt lat="43.812275" lon="12.7627033"><ele>262.0</ele><time>2026-04-18T15:28:16.517Z</time></trkpt><trkpt lat="43.8122583" lon="12.7628133"><ele>262.0</ele><time>2026-04-18T15:28:17.517Z</time></trkpt><trkpt lat="43.8122383" lon="12.762925"><ele>262.0</ele><time>2026-04-18T15:28:18.517Z</time></trkpt><trkpt lat="43.8122217" lon="12.7630317"><ele>262.0</ele><time>2026-04-18T15:28:19.516Z</time></trkpt><trkpt lat="43.8122117" lon="12.7631283"><ele>262.3333333333333</ele><time>2026-04-18T15:28:20.517Z</time></trkpt><trkpt lat="43.812205" lon="12.76323"><ele>262.66666666666663</ele><time>2026-04-18T15:28:21.516Z</time></trkpt><trkpt lat="43.8122017" lon="12.7633267"><ele>263.0</ele><time>2026-04-18T15:28:22.517Z</time></trkpt><trkpt lat="43.812195" lon="12.7634267"><ele>263.3333333333333</ele><time>2026-04-18T15:28:23.517Z</time></trkpt><trkpt lat="43.8122067" lon="12.7635417"><ele>263.6666666666667</ele><time>2026-04-18T15:28:24.517Z</time></trkpt><trkpt lat="43.8122" lon="12.7636583"><ele>264.0</ele><time>2026-04-18T15:28:25.518Z</time></trkpt><trkpt lat="43.8121983" lon="12.7637767"><ele>263.8333333333333</ele><time>2026-04-18T15:28:26.517Z</time></trkpt><trkpt lat="43.8121917" lon="12.7638967"><ele>263.6666666666667</ele><time>2026-04-18T15:28:27.517Z</time></trkpt><trkpt lat="43.812175" lon="12.76403"><ele>263.5</ele><time>2026-04-18T15:28:28.518Z</time></trkpt><trkpt lat="43.812145" lon="12.76414"><ele>263.33333333333337</ele><time>2026-04-18T15:28:29.517Z</time></trkpt><trkpt lat="43.81212" lon="12.7642367"><ele>263.1666666666667</ele><time>2026-04-18T15:28:30.518Z</time></trkpt><trkpt lat="43.81208" lon="12.76431"><ele>263.0</ele><time>2026-04-18T15:28:31.518Z</time></trkpt><trkpt lat="43.8120517" lon="12.7644017"><ele>263.0</ele><time>2026-04-18T15:28:32.517Z</time></trkpt><trkpt lat="43.811995" lon="12.7644467"><ele>263.0</ele><time>2026-04-18T15:28:33.517Z</time></trkpt><trkpt lat="43.8119383" lon="12.7645133"><ele>263.0</ele><time>2026-04-18T15:28:34.517Z</time></trkpt><trkpt lat="43.811875" lon="12.7645633"><ele>263.0</ele><time>2026-04-18T15:28:35.517Z</time></trkpt><trkpt lat="43.8117917" lon="12.7646017"><ele>263.0</ele><time>2026-04-18T15:28:36.517Z</time></trkpt><trkpt lat="43.8117133" lon="12.7646483"><ele>263.0</ele><time>2026-04-18T15:28:37.517Z</time></trkpt><trkpt lat="43.811635" lon="12.76469"><ele>262.1666666666667</ele><time>2026-04-18T15:28:38.518Z</time></trkpt><trkpt lat="43.811555" lon="12.7647383"><ele>261.33333333333337</ele><time>2026-04-18T15:28:39.517Z</time></trkpt><trkpt lat="43.8114683" lon="12.7647883"><ele>260.5</ele><time>2026-04-18T15:28:40.517Z</time></trkpt><trkpt lat="43.8114" lon="12.76484"><ele>259.6666666666667</ele><time>2026-04-18T15:28:41.517Z</time></trkpt><trkpt lat="43.8113367" lon="12.7648833"><ele>258.8333333333333</ele><time>2026-04-18T15:28:42.517Z</time></trkpt><trkpt lat="43.8112683" lon="12.7649233"><ele>258.0</ele><time>2026-04-18T15:28:43.518Z</time></trkpt><trkpt lat="43.8112083" lon="12.7649883"><ele>258.0</ele><time>2026-04-18T15:28:44.528Z</time></trkpt><trkpt lat="43.8111583" lon="12.7650817"><ele>258.0</ele><time>2026-04-18T15:28:45.518Z</time></trkpt><trkpt lat="43.8111233" lon="12.765185"><ele>258.0</ele><time>2026-04-18T15:28:46.519Z</time></trkpt><trkpt lat="43.8110883" lon="12.7652817"><ele>258.0</ele><time>2026-04-18T15:28:47.522Z</time></trkpt><trkpt lat="43.8110317" lon="12.76537"><ele>258.0</ele><time>2026-04-18T15:28:48.517Z</time></trkpt><trkpt lat="43.8109767" lon="12.7654583"><ele>258.0</ele><time>2026-04-18T15:28:49.52Z</time></trkpt><trkpt lat="43.8109267" lon="12.765545"><ele>257.71428571428567</ele><time>2026-04-18T15:28:50.518Z</time></trkpt><trkpt lat="43.810875" lon="12.7656283"><ele>257.42857142857144</ele><time>2026-04-18T15:28:51.517Z</time></trkpt><trkpt lat="43.8108183" lon="12.7657083"><ele>257.1428571428571</ele><time>2026-04-18T15:28:52.522Z</time></trkpt><trkpt lat="43.8107733" lon="12.7657883"><ele>256.85714285714283</ele><time>2026-04-18T15:28:53.522Z</time></trkpt><trkpt lat="43.8107283" lon="12.76587"><ele>256.57142857142856</ele><time>2026-04-18T15:28:54.517Z</time></trkpt><trkpt lat="43.8106917" lon="12.7659483"><ele>256.2857142857143</ele><time>2026-04-18T15:28:55.517Z</time></trkpt><trkpt lat="43.810645" lon="12.766015"><ele>256.0</ele><time>2026-04-18T15:28:56.517Z</time></trkpt><trkpt lat="43.8105917" lon="12.766085"><ele>255.99999999999997</ele><time>2026-04-18T15:28:57.517Z</time></trkpt><trkpt lat="43.8105267" lon="12.7661417"><ele>256.0</ele><time>2026-04-18T15:28:58.517Z</time></trkpt><trkpt lat="43.8104533" lon="12.7661683"><ele>256.0</ele><time>2026-04-18T15:28:59.517Z</time></trkpt><trkpt lat="43.81037" lon="12.7661883"><ele>256.0</ele><time>2026-04-18T15:29:00.52Z</time></trkpt><trkpt lat="43.8102883" lon="12.76622"><ele>255.99999999999997</ele><time>2026-04-18T15:29:01.522Z</time></trkpt><trkpt lat="43.81021" lon="12.76626"><ele>256.0</ele><time>2026-04-18T15:29:02.517Z</time></trkpt><trkpt lat="43.81014" lon="12.7662733"><ele>258.0</ele><time>2026-04-18T15:29:03.516Z</time></trkpt><trkpt lat="43.810075" lon="12.7662817"><ele>260.0</ele><time>2026-04-18T15:29:04.516Z</time></trkpt><trkpt lat="43.809955" lon="12.7662867"><ele>262.0</ele><time>2026-04-18T15:29:06.516Z</time></trkpt><trkpt lat="43.8098417" lon="12.7662967"><ele>264.0</ele><time>2026-04-18T15:29:08.517Z</time></trkpt><trkpt lat="43.809725" lon="12.7663133"><ele>266.0</ele><time>2026-04-18T15:29:10.516Z</time></trkpt><trkpt lat="43.809605" lon="12.7663433"><ele>266.0</ele><time>2026-04-18T15:29:12.517Z</time></trkpt><trkpt lat="43.8095367" lon="12.7663667"><ele>266.0</ele><time>2026-04-18T15:29:13.517Z</time></trkpt><trkpt lat="43.8094717" lon="12.7663933"><ele>266.0</ele><time>2026-04-18T15:29:14.517Z</time></trkpt><trkpt lat="43.8094017" lon="12.7664217"><ele>266.0</ele><time>2026-04-18T15:29:15.516Z</time></trkpt><trkpt lat="43.8093267" lon="12.76645"><ele>266.0</ele><time>2026-04-18T15:29:16.516Z</time></trkpt><trkpt lat="43.8092617" lon="12.76648"><ele>266.0</ele><time>2026-04-18T15:29:17.517Z</time></trkpt><trkpt lat="43.8091883" lon="12.76653"><ele>266.0</ele><time>2026-04-18T15:29:18.518Z</time></trkpt><trkpt lat="43.8091117" lon="12.7666"><ele>266.6</ele><time>2026-04-18T15:29:19.518Z</time></trkpt><trkpt lat="43.8090433" lon="12.76666"><ele>267.20000000000005</ele><time>2026-04-18T15:29:20.518Z</time></trkpt><trkpt lat="43.8089817" lon="12.76674"><ele>267.79999999999995</ele><time>2026-04-18T15:29:21.517Z</time></trkpt><trkpt lat="43.8089167" lon="12.7668233"><ele>268.4</ele><time>2026-04-18T15:29:22.516Z</time></trkpt><trkpt lat="43.8088533" lon="12.7669183"><ele>269.0</ele><time>2026-04-18T15:29:23.517Z</time></trkpt><trkpt lat="43.8087817" lon="12.7670317"><ele>269.2</ele><time>2026-04-18T15:29:24.515Z</time></trkpt><trkpt lat="43.8087083" lon="12.7671483"><ele>269.4</ele><time>2026-04-18T15:29:25.516Z</time></trkpt><trkpt lat="43.8086367" lon="12.7672667"><ele>269.6</ele><time>2026-04-18T15:29:26.516Z</time></trkpt><trkpt lat="43.80857" lon="12.76738"><ele>269.8</ele><time>2026-04-18T15:29:27.517Z</time></trkpt><trkpt lat="43.808505" lon="12.76748"><ele>270.0</ele><time>2026-04-18T15:29:28.52Z</time></trkpt><trkpt lat="43.8084267" lon="12.7675633"><ele>271.6</ele><time>2026-04-18T15:29:29.516Z</time></trkpt><trkpt lat="43.8083483" lon="12.7676333"><ele>273.2</ele><time>2026-04-18T15:29:30.515Z</time></trkpt><trkpt lat="43.8082567" lon="12.7676833"><ele>274.8</ele><time>2026-04-18T15:29:31.52Z</time></trkpt><trkpt lat="43.8081633" lon="12.7677333"><ele>276.4</ele><time>2026-04-18T15:29:32.518Z</time></trkpt><trkpt lat="43.80807" lon="12.7677667"><ele>278.0</ele><time>2026-04-18T15:29:33.515Z</time></trkpt><trkpt lat="43.8079683" lon="12.7677867"><ele>278.4</ele><time>2026-04-18T15:29:34.518Z</time></trkpt><trkpt lat="43.8078817" lon="12.76783"><ele>278.8</ele><time>2026-04-18T15:29:35.518Z</time></trkpt><trkpt lat="43.8078033" lon="12.7678883"><ele>279.2</ele><time>2026-04-18T15:29:36.53Z</time></trkpt><trkpt lat="43.80773" lon="12.7679633"><ele>279.6</ele><time>2026-04-18T15:29:37.518Z</time></trkpt><trkpt lat="43.8076567" lon="12.7680483"><ele>280.0</ele><time>2026-04-18T15:29:38.515Z</time></trkpt><trkpt lat="43.8075883" lon="12.7681383"><ele>281.0</ele><time>2026-04-18T15:29:39.517Z</time></trkpt><trkpt lat="43.807515" lon="12.7682217"><ele>282.0</ele><time>2026-04-18T15:29:40.515Z</time></trkpt><trkpt lat="43.8074367" lon="12.7682883"><ele>283.0</ele><time>2026-04-18T15:29:41.517Z</time></trkpt><trkpt lat="43.8073633" lon="12.7683567"><ele>284.0</ele><time>2026-04-18T15:29:42.515Z</time></trkpt><trkpt lat="43.8072817" lon="12.7684067"><ele>285.0</ele><time>2026-04-18T15:29:43.517Z</time></trkpt><trkpt lat="43.8072148" lon="12.768464"><ele>286.0</ele><time>2026-04-18T15:29:44.519Z</time></trkpt><trkpt lat="43.8071393" lon="12.7685126"><ele>283.5</ele><time>2026-04-18T15:29:45.515Z</time></trkpt><trkpt lat="43.8070778" lon="12.7685801"><ele>281.0</ele><time>2026-04-18T15:29:46.515Z</time></trkpt><trkpt lat="43.8070209" lon="12.768651"><ele>278.5</ele><time>2026-04-18T15:29:47.516Z</time></trkpt><trkpt lat="43.8069747" lon="12.7687252"><ele>276.0</ele><time>2026-04-18T15:29:48.516Z</time></trkpt><trkpt lat="43.8069334" lon="12.768793"><ele>273.5</ele><time>2026-04-18T15:29:49.516Z</time></trkpt><trkpt lat="43.8068747" lon="12.7689418"><ele>271.0</ele><time>2026-04-18T15:29:51.517Z</time></trkpt><trkpt lat="43.8068413" lon="12.7690188"><ele>272.0</ele><time>2026-04-18T15:29:52.517Z</time></trkpt><trkpt lat="43.8067948" lon="12.7690883"><ele>273.0</ele><time>2026-04-18T15:29:53.517Z</time></trkpt><trkpt lat="43.8067477" lon="12.7691542"><ele>274.0</ele><time>2026-04-18T15:29:54.517Z</time></trkpt><trkpt lat="43.8067004" lon="12.7692195"><ele>275.0</ele><time>2026-04-18T15:29:55.517Z</time></trkpt><trkpt lat="43.8066472" lon="12.7692883"><ele>276.0</ele><time>2026-04-18T15:29:56.517Z</time></trkpt><trkpt lat="43.8065968" lon="12.7693929"><ele>277.0</ele><time>2026-04-18T15:29:57.517Z</time></trkpt><trkpt lat="43.8065601" lon="12.7695032"><ele>277.0</ele><time>2026-04-18T15:29:58.516Z</time></trkpt><trkpt lat="43.8065301" lon="12.7696185"><ele>277.0</ele><time>2026-04-18T15:29:59.517Z</time></trkpt><trkpt lat="43.8065047" lon="12.7697361"><ele>277.0</ele><time>2026-04-18T15:30:00.517Z</time></trkpt><trkpt lat="43.806484" lon="12.7698529"><ele>277.0</ele><time>2026-04-18T15:30:01.515Z</time></trkpt><trkpt lat="43.8064666" lon="12.7699649"><ele>277.0</ele><time>2026-04-18T15:30:02.517Z</time></trkpt><trkpt lat="43.8064516" lon="12.7700711"><ele>277.0</ele><time>2026-04-18T15:30:03.516Z</time></trkpt><trkpt lat="43.8064331" lon="12.7701681"><ele>276.16666666666663</ele><time>2026-04-18T15:30:04.517Z</time></trkpt><trkpt lat="43.8064121" lon="12.7702602"><ele>275.3333333333333</ele><time>2026-04-18T15:30:05.518Z</time></trkpt><trkpt lat="43.8063992" lon="12.7703571"><ele>274.5</ele><time>2026-04-18T15:30:06.517Z</time></trkpt><trkpt lat="43.806394" lon="12.7704513"><ele>273.6666666666667</ele><time>2026-04-18T15:30:07.517Z</time></trkpt><trkpt lat="43.8064079" lon="12.7705634"><ele>272.83333333333337</ele><time>2026-04-18T15:30:08.517Z</time></trkpt><trkpt lat="43.8064246" lon="12.7706858"><ele>272.0</ele><time>2026-04-18T15:30:09.517Z</time></trkpt><trkpt lat="43.8064494" lon="12.7708082"><ele>272.0</ele><time>2026-04-18T15:30:10.517Z</time></trkpt><trkpt lat="43.8064791" lon="12.7709375"><ele>272.0</ele><time>2026-04-18T15:30:11.517Z</time></trkpt><trkpt lat="43.8065123" lon="12.7710734"><ele>272.0</ele><time>2026-04-18T15:30:12.516Z</time></trkpt><trkpt lat="43.8065447" lon="12.771215"><ele>272.0</ele><time>2026-04-18T15:30:13.517Z</time></trkpt><trkpt lat="43.8065724" lon="12.7713629"><ele>272.0</ele><time>2026-04-18T15:30:14.517Z</time></trkpt><trkpt lat="43.8065976" lon="12.7715102"><ele>273.0</ele><time>2026-04-18T15:30:15.515Z</time></trkpt><trkpt lat="43.8066268" lon="12.7716536"><ele>274.0</ele><time>2026-04-18T15:30:16.515Z</time></trkpt><trkpt lat="43.8066545" lon="12.7717965"><ele>275.0</ele><time>2026-04-18T15:30:17.516Z</time></trkpt><trkpt lat="43.8066797" lon="12.7719323"><ele>276.0</ele><time>2026-04-18T15:30:18.514Z</time></trkpt><trkpt lat="43.8067067" lon="12.7720498"><ele>277.0</ele><time>2026-04-18T15:30:19.516Z</time></trkpt><trkpt lat="43.8067393" lon="12.772162"><ele>276.4</ele><time>2026-04-18T15:30:20.519Z</time></trkpt><trkpt lat="43.8067772" lon="12.7722795"><ele>275.79999999999995</ele><time>2026-04-18T15:30:21.516Z</time></trkpt><trkpt lat="43.806811" lon="12.7724037"><ele>275.2</ele><time>2026-04-18T15:30:22.515Z</time></trkpt><trkpt lat="43.8068425" lon="12.7725319"><ele>274.59999999999997</ele><time>2026-04-18T15:30:23.536Z</time></trkpt><trkpt lat="43.8068644" lon="12.7726516"><ele>274.0</ele><time>2026-04-18T15:30:24.515Z</time></trkpt><trkpt lat="43.806882" lon="12.7727718"><ele>276.16666666666663</ele><time>2026-04-18T15:30:25.516Z</time></trkpt><trkpt lat="43.8068969" lon="12.7728895"><ele>278.3333333333333</ele><time>2026-04-18T15:30:26.516Z</time></trkpt><trkpt lat="43.8069199" lon="12.7729959"><ele>280.5</ele><time>2026-04-18T15:30:27.516Z</time></trkpt><trkpt lat="43.8069557" lon="12.7730866"><ele>282.6666666666667</ele><time>2026-04-18T15:30:28.516Z</time></trkpt><trkpt lat="43.8070018" lon="12.7731589"><ele>284.83333333333337</ele><time>2026-04-18T15:30:29.516Z</time></trkpt><trkpt lat="43.8070557" lon="12.7732296"><ele>287.0</ele><time>2026-04-18T15:30:30.516Z</time></trkpt><trkpt lat="43.8071179" lon="12.7732908"><ele>287.0</ele><time>2026-04-18T15:30:31.517Z</time></trkpt><trkpt lat="43.8071712" lon="12.7733517"><ele>287.0</ele><time>2026-04-18T15:30:32.516Z</time></trkpt><trkpt lat="43.8072461" lon="12.7734379"><ele>287.0</ele><time>2026-04-18T15:30:34.515Z</time></trkpt><trkpt lat="43.8073152" lon="12.7734877"><ele>287.0</ele><time>2026-04-18T15:30:37.516Z</time></trkpt><trkpt lat="43.8074033" lon="12.7734948"><ele>287.0</ele><time>2026-04-18T15:30:39.515Z</time></trkpt><trkpt lat="43.8075136" lon="12.7734378"><ele>287.0</ele><time>2026-04-18T15:30:41.515Z</time></trkpt><trkpt lat="43.8075819" lon="12.773402"><ele>287.0</ele><time>2026-04-18T15:30:42.518Z</time></trkpt><trkpt lat="43.807658" lon="12.7733801"><ele>287.0</ele><time>2026-04-18T15:30:43.516Z</time></trkpt><trkpt lat="43.8077368" lon="12.7733626"><ele>287.0</ele><time>2026-04-18T15:30:44.518Z</time></trkpt><trkpt lat="43.8078097" lon="12.773354"><ele>287.0</ele><time>2026-04-18T15:30:45.515Z</time></trkpt><trkpt lat="43.8078769" lon="12.7733516"><ele>287.0</ele><time>2026-04-18T15:30:46.515Z</time></trkpt><trkpt lat="43.8079444" lon="12.7733494"><ele>287.0</ele><time>2026-04-18T15:30:47.515Z</time></trkpt><trkpt lat="43.8080099" lon="12.7733531"><ele>286.14285714285717</ele><time>2026-04-18T15:30:48.517Z</time></trkpt><trkpt lat="43.8080745" lon="12.773354"><ele>285.2857142857143</ele><time>2026-04-18T15:30:49.596Z</time></trkpt><trkpt lat="43.8081952" lon="12.7733687"><ele>284.42857142857144</ele><time>2026-04-18T15:30:51.517Z</time></trkpt><trkpt lat="43.8082586" lon="12.7733862"><ele>283.57142857142856</ele><time>2026-04-18T15:30:52.596Z</time></trkpt><trkpt lat="43.8083211" lon="12.7734041"><ele>282.7142857142857</ele><time>2026-04-18T15:30:53.516Z</time></trkpt><trkpt lat="43.8083861" lon="12.7734331"><ele>281.8571428571429</ele><time>2026-04-18T15:30:54.516Z</time></trkpt><trkpt lat="43.8084461" lon="12.7734687"><ele>281.0</ele><time>2026-04-18T15:30:55.515Z</time></trkpt><trkpt lat="43.8085082" lon="12.7735191"><ele>279.8</ele><time>2026-04-18T15:30:56.516Z</time></trkpt><trkpt lat="43.8085629" lon="12.7735668"><ele>278.6</ele><time>2026-04-18T15:30:57.516Z</time></trkpt><trkpt lat="43.8086147" lon="12.7736167"><ele>277.4</ele><time>2026-04-18T15:30:58.515Z</time></trkpt><trkpt lat="43.8087108" lon="12.7737101"><ele>276.2</ele><time>2026-04-18T15:31:00.516Z</time></trkpt><trkpt lat="43.8088063" lon="12.7738063"><ele>275.0</ele><time>2026-04-18T15:31:02.516Z</time></trkpt><trkpt lat="43.8088857" lon="12.7739073"><ele>275.0</ele><time>2026-04-18T15:31:04.517Z</time></trkpt><trkpt lat="43.8089545" lon="12.7740345"><ele>275.0</ele><time>2026-04-18T15:31:06.517Z</time></trkpt><trkpt lat="43.8090006" lon="12.7741128"><ele>275.0</ele><time>2026-04-18T15:31:07.518Z</time></trkpt><trkpt lat="43.809051" lon="12.7741872"><ele>275.0</ele><time>2026-04-18T15:31:08.518Z</time></trkpt><trkpt lat="43.8091019" lon="12.7742615"><ele>275.0</ele><time>2026-04-18T15:31:09.518Z</time></trkpt><trkpt lat="43.8091534" lon="12.7743383"><ele>275.0</ele><time>2026-04-18T15:31:10.517Z</time></trkpt><trkpt lat="43.8092055" lon="12.7744084"><ele>273.42857142857144</ele><time>2026-04-18T15:31:11.515Z</time></trkpt><trkpt lat="43.8092638" lon="12.7744752"><ele>271.85714285714283</ele><time>2026-04-18T15:31:12.514Z</time></trkpt><trkpt lat="43.8093223" lon="12.774544"><ele>270.2857142857143</ele><time>2026-04-18T15:31:13.515Z</time></trkpt><trkpt lat="43.8093806" lon="12.7746133"><ele>268.7142857142857</ele><time>2026-04-18T15:31:14.515Z</time></trkpt><trkpt lat="43.8094362" lon="12.7746773"><ele>267.14285714285717</ele><time>2026-04-18T15:31:15.515Z</time></trkpt><trkpt lat="43.8094879" lon="12.7747301"><ele>265.57142857142856</ele><time>2026-04-18T15:31:16.516Z</time></trkpt><trkpt lat="43.8095434" lon="12.7747805"><ele>264.0</ele><time>2026-04-18T15:31:17.516Z</time></trkpt><trkpt lat="43.8096137" lon="12.7748242"><ele>264.0</ele><time>2026-04-18T15:31:18.516Z</time></trkpt><trkpt lat="43.8096969" lon="12.7748444"><ele>264.0</ele><time>2026-04-18T15:31:19.516Z</time></trkpt><trkpt lat="43.8097811" lon="12.7748517"><ele>264.0</ele><time>2026-04-18T15:31:20.516Z</time></trkpt><trkpt lat="43.8098618" lon="12.7748714"><ele>264.0</ele><time>2026-04-18T15:31:21.515Z</time></trkpt><trkpt lat="43.8099376" lon="12.7748929"><ele>264.0</ele><time>2026-04-18T15:31:22.518Z</time></trkpt><trkpt lat="43.810004" lon="12.7749001"><ele>264.0</ele><time>2026-04-18T15:31:23.518Z</time></trkpt><trkpt lat="43.8100687" lon="12.7748822"><ele>262.6666666666667</ele><time>2026-04-18T15:31:24.516Z</time></trkpt><trkpt lat="43.8101983" lon="12.7748467"><ele>261.3333333333333</ele><time>2026-04-18T15:31:26.516Z</time></trkpt><trkpt lat="43.8102583" lon="12.7748183"><ele>260.0</ele><time>2026-04-18T15:31:27.515Z</time></trkpt><trkpt lat="43.8103233" lon="12.7747767"><ele>258.66666666666663</ele><time>2026-04-18T15:31:28.516Z</time></trkpt><trkpt lat="43.8103833" lon="12.7747333"><ele>257.3333333333333</ele><time>2026-04-18T15:31:29.516Z</time></trkpt><trkpt lat="43.8104483" lon="12.77469"><ele>256.0</ele><time>2026-04-18T15:31:30.517Z</time></trkpt><trkpt lat="43.8105267" lon="12.7746383"><ele>255.99999999999997</ele><time>2026-04-18T15:31:31.517Z</time></trkpt><trkpt lat="43.8106067" lon="12.7745883"><ele>256.0</ele><time>2026-04-18T15:31:32.517Z</time></trkpt><trkpt lat="43.8106817" lon="12.7745433"><ele>256.0</ele><time>2026-04-18T15:31:33.517Z</time></trkpt><trkpt lat="43.8107583" lon="12.7745133"><ele>256.0</ele><time>2026-04-18T15:31:34.517Z</time></trkpt><trkpt lat="43.8108383" lon="12.7744783"><ele>255.99999999999997</ele><time>2026-04-18T15:31:35.516Z</time></trkpt><trkpt lat="43.8109117" lon="12.7744517"><ele>256.0</ele><time>2026-04-18T15:31:36.517Z</time></trkpt><trkpt lat="43.8109867" lon="12.7744233"><ele>254.33333333333331</ele><time>2026-04-18T15:31:37.517Z</time></trkpt><trkpt lat="43.81106" lon="12.7743733"><ele>252.66666666666666</ele><time>2026-04-18T15:31:38.517Z</time></trkpt><trkpt lat="43.811125" lon="12.774315"><ele>251.0</ele><time>2026-04-18T15:31:39.515Z</time></trkpt><trkpt lat="43.8112" lon="12.774275"><ele>249.33333333333331</ele><time>2026-04-18T15:31:40.516Z</time></trkpt><trkpt lat="43.81127" lon="12.774255"><ele>247.66666666666666</ele><time>2026-04-18T15:31:41.516Z</time></trkpt><trkpt lat="43.8113383" lon="12.7742567"><ele>246.0</ele><time>2026-04-18T15:31:42.517Z</time></trkpt><trkpt lat="43.8114083" lon="12.7742483"><ele>247.5</ele><time>2026-04-18T15:31:43.517Z</time></trkpt><trkpt lat="43.8114817" lon="12.77426"><ele>249.0</ele><time>2026-04-18T15:31:44.517Z</time></trkpt><trkpt lat="43.8115483" lon="12.774265"><ele>250.5</ele><time>2026-04-18T15:31:45.516Z</time></trkpt><trkpt lat="43.8116183" lon="12.774265"><ele>252.0</ele><time>2026-04-18T15:31:46.516Z</time></trkpt><trkpt lat="43.8116933" lon="12.7742833"><ele>253.5</ele><time>2026-04-18T15:31:47.516Z</time></trkpt><trkpt lat="43.811775" lon="12.7743033"><ele>255.0</ele><time>2026-04-18T15:31:48.517Z</time></trkpt><trkpt lat="43.81186" lon="12.774325"><ele>255.0</ele><time>2026-04-18T15:31:49.516Z</time></trkpt><trkpt lat="43.81194" lon="12.7743267"><ele>255.0</ele><time>2026-04-18T15:31:50.517Z</time></trkpt><trkpt lat="43.812015" lon="12.774305"><ele>255.0</ele><time>2026-04-18T15:31:51.516Z</time></trkpt><trkpt lat="43.8121" lon="12.7742783"><ele>255.0</ele><time>2026-04-18T15:31:52.515Z</time></trkpt><trkpt lat="43.812195" lon="12.7742517"><ele>255.0</ele><time>2026-04-18T15:31:53.518Z</time></trkpt><trkpt lat="43.8123117" lon="12.7741883"><ele>255.0</ele><time>2026-04-18T15:31:54.515Z</time></trkpt><trkpt lat="43.8124433" lon="12.774085"><ele>255.0</ele><time>2026-04-18T15:31:55.515Z</time></trkpt><trkpt lat="43.8125433" lon="12.7739983"><ele>255.0</ele><time>2026-04-18T15:31:56.516Z</time></trkpt><trkpt lat="43.81262" lon="12.77391"><ele>255.0</ele><time>2026-04-18T15:31:57.515Z</time></trkpt><trkpt lat="43.8126817" lon="12.7738033"><ele>254.4</ele><time>2026-04-18T15:31:58.515Z</time></trkpt><trkpt lat="43.812725" lon="12.7736783"><ele>253.8</ele><time>2026-04-18T15:31:59.515Z</time></trkpt><trkpt lat="43.8127593" lon="12.7735509"><ele>253.2</ele><time>2026-04-18T15:32:00.515Z</time></trkpt><trkpt lat="43.8127919" lon="12.7734291"><ele>252.6</ele><time>2026-04-18T15:32:01.516Z</time></trkpt><trkpt lat="43.8128312" lon="12.7733143"><ele>252.0</ele><time>2026-04-18T15:32:02.516Z</time></trkpt><trkpt lat="43.8128772" lon="12.7732137"><ele>252.0</ele><time>2026-04-18T15:32:03.515Z</time></trkpt><trkpt lat="43.8129249" lon="12.7731228"><ele>252.0</ele><time>2026-04-18T15:32:04.515Z</time></trkpt><trkpt lat="43.8129768" lon="12.7730383"><ele>252.0</ele><time>2026-04-18T15:32:05.517Z</time></trkpt><trkpt lat="43.8130334" lon="12.7729668"><ele>252.0</ele><time>2026-04-18T15:32:06.516Z</time></trkpt><trkpt lat="43.8130957" lon="12.7729145"><ele>252.0</ele><time>2026-04-18T15:32:07.514Z</time></trkpt><trkpt lat="43.8131666" lon="12.7728847"><ele>252.0</ele><time>2026-04-18T15:32:08.516Z</time></trkpt><trkpt lat="43.8132416" lon="12.7728726"><ele>252.0</ele><time>2026-04-18T15:32:09.514Z</time></trkpt><trkpt lat="43.8133188" lon="12.772889"><ele>252.0</ele><time>2026-04-18T15:32:10.515Z</time></trkpt><trkpt lat="43.8134003" lon="12.7729223"><ele>252.0</ele><time>2026-04-18T15:32:11.515Z</time></trkpt><trkpt lat="43.8134673" lon="12.7729761"><ele>252.0</ele><time>2026-04-18T15:32:12.516Z</time></trkpt><trkpt lat="43.8135212" lon="12.7730543"><ele>252.0</ele><time>2026-04-18T15:32:13.515Z</time></trkpt><trkpt lat="43.8135529" lon="12.773169"><ele>252.0</ele><time>2026-04-18T15:32:14.516Z</time></trkpt><trkpt lat="43.8135667" lon="12.7732832"><ele>248.83333333333334</ele><time>2026-04-18T15:32:15.515Z</time></trkpt><trkpt lat="43.8135691" lon="12.7733762"><ele>245.66666666666669</ele><time>2026-04-18T15:32:16.515Z</time></trkpt><trkpt lat="43.813562" lon="12.7735232"><ele>242.5</ele><time>2026-04-18T15:32:18.514Z</time></trkpt><trkpt lat="43.8135848" lon="12.7736058"><ele>239.33333333333334</ele><time>2026-04-18T15:32:20.514Z</time></trkpt><trkpt lat="43.8136694" lon="12.7735682"><ele>236.16666666666669</ele><time>2026-04-18T15:32:22.517Z</time></trkpt><trkpt lat="43.813721" lon="12.7734505"><ele>233.0</ele><time>2026-04-18T15:32:24.514Z</time></trkpt><trkpt lat="43.8137734" lon="12.7733518"><ele>233.00000000000003</ele><time>2026-04-18T15:32:26.515Z</time></trkpt><trkpt lat="43.8138536" lon="12.7733582"><ele>233.0</ele><time>2026-04-18T15:32:28.514Z</time></trkpt><trkpt lat="43.8138784" lon="12.7734808"><ele>233.0</ele><time>2026-04-18T15:32:30.514Z</time></trkpt><trkpt lat="43.8138915" lon="12.7735728"><ele>233.0</ele><time>2026-04-18T15:32:31.514Z</time></trkpt><trkpt lat="43.8139246" lon="12.7736538"><ele>233.00000000000003</ele><time>2026-04-18T15:32:32.516Z</time></trkpt><trkpt lat="43.8139695" lon="12.7737224"><ele>233.0</ele><time>2026-04-18T15:32:33.514Z</time></trkpt><trkpt lat="43.8140621" lon="12.7737301"><ele>233.0</ele><time>2026-04-18T15:32:35.514Z</time></trkpt><trkpt lat="43.8141318" lon="12.7735819"><ele>233.0</ele><time>2026-04-18T15:32:37.515Z</time></trkpt><trkpt lat="43.8141481" lon="12.7734833"><ele>233.0</ele><time>2026-04-18T15:32:38.515Z</time></trkpt><trkpt lat="43.814175" lon="12.773395"><ele>233.0</ele><time>2026-04-18T15:32:39.516Z</time></trkpt><trkpt lat="43.8142617" lon="12.7732872"><ele>233.0</ele><time>2026-04-18T15:32:41.515Z</time></trkpt><trkpt lat="43.8143749" lon="12.7733023"><ele>230.71428571428572</ele><time>2026-04-18T15:32:43.515Z</time></trkpt><trkpt lat="43.8144235" lon="12.7733759"><ele>228.42857142857142</ele><time>2026-04-18T15:32:44.515Z</time></trkpt><trkpt lat="43.8144517" lon="12.773457"><ele>226.14285714285714</ele><time>2026-04-18T15:32:45.515Z</time></trkpt><trkpt lat="43.8144521" lon="12.7735567"><ele>223.85714285714286</ele><time>2026-04-18T15:32:46.516Z</time></trkpt><trkpt lat="43.8144317" lon="12.7736632"><ele>221.57142857142856</ele><time>2026-04-18T15:32:47.514Z</time></trkpt><trkpt lat="43.8144007" lon="12.7737524"><ele>219.28571428571428</ele><time>2026-04-18T15:32:48.514Z</time></trkpt><trkpt lat="43.8143645" lon="12.7738287"><ele>217.0</ele><time>2026-04-18T15:32:49.522Z</time></trkpt><trkpt lat="43.8143298" lon="12.773952"><ele>216.33333333333331</ele><time>2026-04-18T15:32:51.515Z</time></trkpt><trkpt lat="43.8144018" lon="12.7740264"><ele>215.66666666666666</ele><time>2026-04-18T15:32:53.517Z</time></trkpt><trkpt lat="43.8144655" lon="12.7740403"><ele>215.0</ele><time>2026-04-18T15:32:54.516Z</time></trkpt><trkpt lat="43.8145499" lon="12.7740148"><ele>214.33333333333331</ele><time>2026-04-18T15:32:55.514Z</time></trkpt><trkpt lat="43.8146416" lon="12.7739711"><ele>213.66666666666666</ele><time>2026-04-18T15:32:56.515Z</time></trkpt><trkpt lat="43.8147253" lon="12.7739291"><ele>213.0</ele><time>2026-04-18T15:32:57.514Z</time></trkpt><trkpt lat="43.8148048" lon="12.7738906"><ele>213.0</ele><time>2026-04-18T15:32:58.516Z</time></trkpt><trkpt lat="43.8148825" lon="12.7738622"><ele>213.0</ele><time>2026-04-18T15:32:59.515Z</time></trkpt><trkpt lat="43.8149607" lon="12.7738438"><ele>213.0</ele><time>2026-04-18T15:33:00.515Z</time></trkpt><trkpt lat="43.8150389" lon="12.7738288"><ele>213.0</ele><time>2026-04-18T15:33:01.515Z</time></trkpt><trkpt lat="43.8151207" lon="12.7738056"><ele>213.0</ele><time>2026-04-18T15:33:02.516Z</time></trkpt><trkpt lat="43.8151984" lon="12.7737924"><ele>213.0</ele><time>2026-04-18T15:33:03.515Z</time></trkpt><trkpt lat="43.815279" lon="12.7737898"><ele>212.66666666666666</ele><time>2026-04-18T15:33:04.515Z</time></trkpt><trkpt lat="43.8153608" lon="12.7737985"><ele>212.33333333333331</ele><time>2026-04-18T15:33:05.515Z</time></trkpt><trkpt lat="43.8154464" lon="12.7738151"><ele>212.0</ele><time>2026-04-18T15:33:06.516Z</time></trkpt><trkpt lat="43.8155354" lon="12.7738291"><ele>211.66666666666666</ele><time>2026-04-18T15:33:07.515Z</time></trkpt><trkpt lat="43.8156243" lon="12.7738412"><ele>211.33333333333331</ele><time>2026-04-18T15:33:08.516Z</time></trkpt><trkpt lat="43.8157155" lon="12.7738502"><ele>211.0</ele><time>2026-04-18T15:33:09.515Z</time></trkpt><trkpt lat="43.8158087" lon="12.7738597"><ele>211.0</ele><time>2026-04-18T15:33:10.515Z</time></trkpt><trkpt lat="43.8158994" lon="12.7738659"><ele>211.0</ele><time>2026-04-18T15:33:11.514Z</time></trkpt><trkpt lat="43.815991" lon="12.7738651"><ele>211.0</ele><time>2026-04-18T15:33:12.514Z</time></trkpt><trkpt lat="43.816083" lon="12.7738745"><ele>211.0</ele><time>2026-04-18T15:33:13.517Z</time></trkpt><trkpt lat="43.8161774" lon="12.7738826"><ele>211.0</ele><time>2026-04-18T15:33:14.516Z</time></trkpt><trkpt lat="43.816269" lon="12.7738974"><ele>212.4</ele><time>2026-04-18T15:33:15.516Z</time></trkpt><trkpt lat="43.8163659" lon="12.7739133"><ele>213.8</ele><time>2026-04-18T15:33:16.515Z</time></trkpt><trkpt lat="43.8164631" lon="12.7739234"><ele>215.20000000000002</ele><time>2026-04-18T15:33:17.514Z</time></trkpt><trkpt lat="43.8165643" lon="12.7739246"><ele>216.60000000000002</ele><time>2026-04-18T15:33:18.516Z</time></trkpt><trkpt lat="43.8166684" lon="12.7739238"><ele>218.0</ele><time>2026-04-18T15:33:19.518Z</time></trkpt><trkpt lat="43.8167747" lon="12.7739289"><ele>218.2</ele><time>2026-04-18T15:33:20.515Z</time></trkpt><trkpt lat="43.8168819" lon="12.773939"><ele>218.4</ele><time>2026-04-18T15:33:21.514Z</time></trkpt><trkpt lat="43.8169904" lon="12.7739402"><ele>218.59999999999997</ele><time>2026-04-18T15:33:22.518Z</time></trkpt><trkpt lat="43.8170921" lon="12.7739415"><ele>218.79999999999998</ele><time>2026-04-18T15:33:23.515Z</time></trkpt><trkpt lat="43.817185" lon="12.7739417"><ele>219.0</ele><time>2026-04-18T15:33:24.516Z</time></trkpt><trkpt lat="43.8172723" lon="12.7739454"><ele>219.0</ele><time>2026-04-18T15:33:25.515Z</time></trkpt><trkpt lat="43.8173532" lon="12.7739541"><ele>219.0</ele><time>2026-04-18T15:33:26.515Z</time></trkpt><trkpt lat="43.8174244" lon="12.7739652"><ele>219.0</ele><time>2026-04-18T15:33:27.515Z</time></trkpt><trkpt lat="43.8174929" lon="12.773971"><ele>219.0</ele><time>2026-04-18T15:33:28.52Z</time></trkpt><trkpt lat="43.817559" lon="12.7739833"><ele>219.0</ele><time>2026-04-18T15:33:29.515Z</time></trkpt><trkpt lat="43.8176291" lon="12.7740101"><ele>219.0</ele><time>2026-04-18T15:33:30.515Z</time></trkpt><trkpt lat="43.8177045" lon="12.7740422"><ele>219.0</ele><time>2026-04-18T15:33:31.518Z</time></trkpt><trkpt lat="43.8177801" lon="12.7740829"><ele>218.0</ele><time>2026-04-18T15:33:32.515Z</time></trkpt><trkpt lat="43.8178592" lon="12.7741292"><ele>217.0</ele><time>2026-04-18T15:33:33.516Z</time></trkpt><trkpt lat="43.8179336" lon="12.7741781"><ele>216.0</ele><time>2026-04-18T15:33:34.516Z</time></trkpt><trkpt lat="43.8180098" lon="12.7742209"><ele>215.0</ele><time>2026-04-18T15:33:35.515Z</time></trkpt><trkpt lat="43.8180867" lon="12.7742595"><ele>214.0</ele><time>2026-04-18T15:33:36.516Z</time></trkpt><trkpt lat="43.8181622" lon="12.7743019"><ele>213.0</ele><time>2026-04-18T15:33:37.515Z</time></trkpt><trkpt lat="43.818237" lon="12.7743415"><ele>213.0</ele><time>2026-04-18T15:33:38.516Z</time></trkpt><trkpt lat="43.8183103" lon="12.7743883"><ele>213.0</ele><time>2026-04-18T15:33:39.515Z</time></trkpt><trkpt lat="43.8183814" lon="12.7744396"><ele>213.0</ele><time>2026-04-18T15:33:40.516Z</time></trkpt><trkpt lat="43.818455" lon="12.7744766"><ele>213.0</ele><time>2026-04-18T15:33:41.515Z</time></trkpt><trkpt lat="43.8185274" lon="12.7745102"><ele>213.0</ele><time>2026-04-18T15:33:42.516Z</time></trkpt><trkpt lat="43.8185946" lon="12.7745296"><ele>213.0</ele><time>2026-04-18T15:33:43.516Z</time></trkpt><trkpt lat="43.8186627" lon="12.7745452"><ele>211.99999999999997</ele><time>2026-04-18T15:33:44.527Z</time></trkpt><trkpt lat="43.8187316" lon="12.7745584"><ele>211.0</ele><time>2026-04-18T15:33:45.514Z</time></trkpt><trkpt lat="43.8188024" lon="12.7745512"><ele>210.0</ele><time>2026-04-18T15:33:46.519Z</time></trkpt><trkpt lat="43.8188684" lon="12.7745435"><ele>209.0</ele><time>2026-04-18T15:33:47.534Z</time></trkpt><trkpt lat="43.8189338" lon="12.7745407"><ele>208.0</ele><time>2026-04-18T15:33:48.517Z</time></trkpt><trkpt lat="43.8190001" lon="12.7745447"><ele>206.99999999999997</ele><time>2026-04-18T15:33:49.518Z</time></trkpt><trkpt lat="43.8190666" lon="12.77455"><ele>206.0</ele><time>2026-04-18T15:33:50.517Z</time></trkpt><trkpt lat="43.8191359" lon="12.7745588"><ele>206.00000000000003</ele><time>2026-04-18T15:33:51.517Z</time></trkpt><trkpt lat="43.8192045" lon="12.7745675"><ele>206.0</ele><time>2026-04-18T15:33:52.514Z</time></trkpt><trkpt lat="43.8192782" lon="12.774574"><ele>206.0</ele><time>2026-04-18T15:33:53.514Z</time></trkpt><trkpt lat="43.819351" lon="12.7745793"><ele>206.0</ele><time>2026-04-18T15:33:54.52Z</time></trkpt><trkpt lat="43.819427" lon="12.7745919"><ele>206.00000000000003</ele><time>2026-04-18T15:33:55.514Z</time></trkpt><trkpt lat="43.8195095" lon="12.7746072"><ele>206.0</ele><time>2026-04-18T15:33:56.515Z</time></trkpt><trkpt lat="43.8195946" lon="12.7746195"><ele>205.50000000000003</ele><time>2026-04-18T15:33:57.515Z</time></trkpt><trkpt lat="43.8196826" lon="12.7746329"><ele>205.0</ele><time>2026-04-18T15:33:58.515Z</time></trkpt><trkpt lat="43.8197721" lon="12.7746526"><ele>204.5</ele><time>2026-04-18T15:33:59.515Z</time></trkpt><trkpt lat="43.819855" lon="12.7746542"><ele>204.0</ele><time>2026-04-18T15:34:00.515Z</time></trkpt><trkpt lat="43.8199396" lon="12.7746593"><ele>203.50000000000003</ele><time>2026-04-18T15:34:01.516Z</time></trkpt><trkpt lat="43.8200208" lon="12.7746581"><ele>203.0</ele><time>2026-04-18T15:34:02.516Z</time></trkpt><trkpt lat="43.8200974" lon="12.7746413"><ele>202.66666666666669</ele><time>2026-04-18T15:34:03.515Z</time></trkpt><trkpt lat="43.820172" lon="12.7746193"><ele>202.33333333333334</ele><time>2026-04-18T15:34:04.516Z</time></trkpt><trkpt lat="43.8202452" lon="12.7745977"><ele>202.0</ele><time>2026-04-18T15:34:05.516Z</time></trkpt><trkpt lat="43.8203165" lon="12.7745745"><ele>201.66666666666669</ele><time>2026-04-18T15:34:06.516Z</time></trkpt><trkpt lat="43.8203929" lon="12.7745478"><ele>201.33333333333334</ele><time>2026-04-18T15:34:07.515Z</time></trkpt><trkpt lat="43.8204712" lon="12.774518"><ele>201.0</ele><time>2026-04-18T15:34:08.516Z</time></trkpt><trkpt lat="43.8205509" lon="12.7744853"><ele>201.0</ele><time>2026-04-18T15:34:09.516Z</time></trkpt><trkpt lat="43.8206347" lon="12.7744568"><ele>201.0</ele><time>2026-04-18T15:34:10.515Z</time></trkpt><trkpt lat="43.820717" lon="12.7744361"><ele>201.0</ele><time>2026-04-18T15:34:11.516Z</time></trkpt><trkpt lat="43.8207929" lon="12.7744157"><ele>201.0</ele><time>2026-04-18T15:34:12.516Z</time></trkpt><trkpt lat="43.8208721" lon="12.774405"><ele>201.0</ele><time>2026-04-18T15:34:13.518Z</time></trkpt><trkpt lat="43.8209572" lon="12.7744062"><ele>201.0</ele><time>2026-04-18T15:34:14.515Z</time></trkpt><trkpt lat="43.8210388" lon="12.7744136"><ele>200.5</ele><time>2026-04-18T15:34:15.514Z</time></trkpt><trkpt lat="43.8211252" lon="12.7744322"><ele>200.0</ele><time>2026-04-18T15:34:16.53Z</time></trkpt><trkpt lat="43.8212126" lon="12.7744607"><ele>199.5</ele><time>2026-04-18T15:34:17.514Z</time></trkpt><trkpt lat="43.8213048" lon="12.7744891"><ele>199.0</ele><time>2026-04-18T15:34:18.516Z</time></trkpt><trkpt lat="43.8213926" lon="12.7745172"><ele>198.5</ele><time>2026-04-18T15:34:19.516Z</time></trkpt><trkpt lat="43.8214767" lon="12.7745463"><ele>198.0</ele><time>2026-04-18T15:34:20.517Z</time></trkpt><trkpt lat="43.8215535" lon="12.7745741"><ele>198.0</ele><time>2026-04-18T15:34:21.516Z</time></trkpt><trkpt lat="43.8216342" lon="12.7745909"><ele>198.0</ele><time>2026-04-18T15:34:22.516Z</time></trkpt><trkpt lat="43.8217209" lon="12.7745906"><ele>198.0</ele><time>2026-04-18T15:34:23.514Z</time></trkpt><trkpt lat="43.8218092" lon="12.774575"><ele>198.0</ele><time>2026-04-18T15:34:24.513Z</time></trkpt><trkpt lat="43.8219034" lon="12.7745469"><ele>198.0</ele><time>2026-04-18T15:34:25.514Z</time></trkpt><trkpt lat="43.8220006" lon="12.7745183"><ele>198.0</ele><time>2026-04-18T15:34:26.515Z</time></trkpt><trkpt lat="43.8220836" lon="12.7744706"><ele>198.0</ele><time>2026-04-18T15:34:27.516Z</time></trkpt><trkpt lat="43.8221727" lon="12.774424"><ele>198.0</ele><time>2026-04-18T15:34:28.514Z</time></trkpt><trkpt lat="43.8222514" lon="12.7743805"><ele>198.0</ele><time>2026-04-18T15:34:29.516Z</time></trkpt><trkpt lat="43.8223317" lon="12.7743404"><ele>198.0</ele><time>2026-04-18T15:34:30.516Z</time></trkpt><trkpt lat="43.8224168" lon="12.774301"><ele>198.0</ele><time>2026-04-18T15:34:31.515Z</time></trkpt><trkpt lat="43.8225043" lon="12.7742659"><ele>198.0</ele><time>2026-04-18T15:34:32.517Z</time></trkpt><trkpt lat="43.8225913" lon="12.7742397"><ele>198.0</ele><time>2026-04-18T15:34:33.515Z</time></trkpt><trkpt lat="43.8226809" lon="12.7742151"><ele>198.0</ele><time>2026-04-18T15:34:34.517Z</time></trkpt><trkpt lat="43.8227697" lon="12.7741922"><ele>198.0</ele><time>2026-04-18T15:34:35.517Z</time></trkpt><trkpt lat="43.8228646" lon="12.774175"><ele>198.0</ele><time>2026-04-18T15:34:36.514Z</time></trkpt><trkpt lat="43.8229589" lon="12.774156"><ele>196.8</ele><time>2026-04-18T15:34:37.515Z</time></trkpt><trkpt lat="43.8230553" lon="12.7741337"><ele>195.60000000000002</ele><time>2026-04-18T15:34:38.516Z</time></trkpt><trkpt lat="43.8231498" lon="12.7741075"><ele>194.39999999999998</ele><time>2026-04-18T15:34:39.516Z</time></trkpt><trkpt lat="43.8232501" lon="12.7740731"><ele>193.2</ele><time>2026-04-18T15:34:40.515Z</time></trkpt><trkpt lat="43.8233535" lon="12.7740298"><ele>192.0</ele><time>2026-04-18T15:34:41.515Z</time></trkpt><trkpt lat="43.823456" lon="12.7739788"><ele>190.8</ele><time>2026-04-18T15:34:42.516Z</time></trkpt><trkpt lat="43.8235578" lon="12.7739176"><ele>189.6</ele><time>2026-04-18T15:34:43.515Z</time></trkpt><trkpt lat="43.8236589" lon="12.7738441"><ele>188.4</ele><time>2026-04-18T15:34:44.516Z</time></trkpt><trkpt lat="43.8237501" lon="12.7737566"><ele>187.20000000000002</ele><time>2026-04-18T15:34:45.514Z</time></trkpt><trkpt lat="43.8238325" lon="12.773658"><ele>186.0</ele><time>2026-04-18T15:34:46.513Z</time></trkpt><trkpt lat="43.8239055" lon="12.7735545"><ele>187.4</ele><time>2026-04-18T15:34:47.514Z</time></trkpt><trkpt lat="43.8239724" lon="12.7734599"><ele>188.8</ele><time>2026-04-18T15:34:48.514Z</time></trkpt><trkpt lat="43.824036" lon="12.7733713"><ele>190.20000000000002</ele><time>2026-04-18T15:34:49.514Z</time></trkpt><trkpt lat="43.8241056" lon="12.7732914"><ele>191.60000000000002</ele><time>2026-04-18T15:34:50.514Z</time></trkpt><trkpt lat="43.8241861" lon="12.7732173"><ele>193.0</ele><time>2026-04-18T15:34:51.514Z</time></trkpt><trkpt lat="43.8242775" lon="12.7731512"><ele>191.2</ele><time>2026-04-18T15:34:52.514Z</time></trkpt><trkpt lat="43.824373" lon="12.7730881"><ele>189.4</ele><time>2026-04-18T15:34:53.515Z</time></trkpt><trkpt lat="43.8244751" lon="12.7730247"><ele>187.6</ele><time>2026-04-18T15:34:54.514Z</time></trkpt><trkpt lat="43.8245776" lon="12.772959"><ele>185.79999999999998</ele><time>2026-04-18T15:34:55.514Z</time></trkpt><trkpt lat="43.8246783" lon="12.7728872"><ele>184.0</ele><time>2026-04-18T15:34:56.516Z</time></trkpt><trkpt lat="43.8247732" lon="12.7728013"><ele>184.0</ele><time>2026-04-18T15:34:57.514Z</time></trkpt><trkpt lat="43.8248603" lon="12.7727083"><ele>184.0</ele><time>2026-04-18T15:34:58.518Z</time></trkpt><trkpt lat="43.8249399" lon="12.7726015"><ele>184.0</ele><time>2026-04-18T15:34:59.516Z</time></trkpt><trkpt lat="43.8250177" lon="12.7725038"><ele>184.0</ele><time>2026-04-18T15:35:00.516Z</time></trkpt><trkpt lat="43.8250955" lon="12.7724108"><ele>184.0</ele><time>2026-04-18T15:35:01.516Z</time></trkpt><trkpt lat="43.8251797" lon="12.7723313"><ele>181.39999999999998</ele><time>2026-04-18T15:35:02.516Z</time></trkpt><trkpt lat="43.8252691" lon="12.7722613"><ele>178.8</ele><time>2026-04-18T15:35:03.516Z</time></trkpt><trkpt lat="43.8253636" lon="12.7722027"><ele>176.2</ele><time>2026-04-18T15:35:04.515Z</time></trkpt><trkpt lat="43.8254716" lon="12.7721629"><ele>173.60000000000002</ele><time>2026-04-18T15:35:05.515Z</time></trkpt><trkpt lat="43.8255834" lon="12.7721193"><ele>171.0</ele><time>2026-04-18T15:35:06.516Z</time></trkpt><trkpt lat="43.8256927" lon="12.772062"><ele>171.0</ele><time>2026-04-18T15:35:07.514Z</time></trkpt><trkpt lat="43.825801" lon="12.7719944"><ele>171.0</ele><time>2026-04-18T15:35:08.514Z</time></trkpt><trkpt lat="43.8259097" lon="12.7719302"><ele>171.0</ele><time>2026-04-18T15:35:09.515Z</time></trkpt><trkpt lat="43.8260183" lon="12.7718628"><ele>171.0</ele><time>2026-04-18T15:35:10.514Z</time></trkpt><trkpt lat="43.8261293" lon="12.7718043"><ele>170.75</ele><time>2026-04-18T15:35:11.515Z</time></trkpt><trkpt lat="43.8262367" lon="12.7717385"><ele>170.5</ele><time>2026-04-18T15:35:12.514Z</time></trkpt><trkpt lat="43.826338" lon="12.7716641"><ele>170.25</ele><time>2026-04-18T15:35:13.514Z</time></trkpt><trkpt lat="43.8264376" lon="12.7715771"><ele>170.0</ele><time>2026-04-18T15:35:14.516Z</time></trkpt><trkpt lat="43.8265323" lon="12.7714819"><ele>170.0</ele><time>2026-04-18T15:35:15.514Z</time></trkpt><trkpt lat="43.8266189" lon="12.7713713"><ele>170.0</ele><time>2026-04-18T15:35:16.514Z</time></trkpt><trkpt lat="43.8267024" lon="12.7712541"><ele>170.0</ele><time>2026-04-18T15:35:17.513Z</time></trkpt><trkpt lat="43.8267872" lon="12.7711294"><ele>170.0</ele><time>2026-04-18T15:35:18.513Z</time></trkpt><trkpt lat="43.8268621" lon="12.7710057"><ele>168.25</ele><time>2026-04-18T15:35:19.521Z</time></trkpt><trkpt lat="43.8269427" lon="12.7708837"><ele>166.5</ele><time>2026-04-18T15:35:20.513Z</time></trkpt><trkpt lat="43.8270267" lon="12.7707629"><ele>164.75</ele><time>2026-04-18T15:35:21.514Z</time></trkpt><trkpt lat="43.8271089" lon="12.770649"><ele>163.0</ele><time>2026-04-18T15:35:22.512Z</time></trkpt><trkpt lat="43.8271931" lon="12.7705376"><ele>163.0</ele><time>2026-04-18T15:35:23.514Z</time></trkpt><trkpt lat="43.827273" lon="12.7704252"><ele>163.0</ele><time>2026-04-18T15:35:24.513Z</time></trkpt><trkpt lat="43.8273518" lon="12.7703115"><ele>163.0</ele><time>2026-04-18T15:35:25.52Z</time></trkpt><trkpt lat="43.8274314" lon="12.7701943"><ele>163.0</ele><time>2026-04-18T15:35:26.513Z</time></trkpt><trkpt lat="43.827514" lon="12.7700734"><ele>163.75</ele><time>2026-04-18T15:35:27.513Z</time></trkpt><trkpt lat="43.8276013" lon="12.7699511"><ele>164.5</ele><time>2026-04-18T15:35:28.514Z</time></trkpt><trkpt lat="43.827693" lon="12.7698261"><ele>165.25</ele><time>2026-04-18T15:35:29.514Z</time></trkpt><trkpt lat="43.8277835" lon="12.7697004"><ele>166.0</ele><time>2026-04-18T15:35:30.513Z</time></trkpt><trkpt lat="43.8278723" lon="12.7695763"><ele>164.75</ele><time>2026-04-18T15:35:31.513Z</time></trkpt><trkpt lat="43.8279584" lon="12.7694535"><ele>163.5</ele><time>2026-04-18T15:35:32.513Z</time></trkpt><trkpt lat="43.8280446" lon="12.7693325"><ele>162.25</ele><time>2026-04-18T15:35:33.515Z</time></trkpt><trkpt lat="43.8281299" lon="12.7692149"><ele>161.0</ele><time>2026-04-18T15:35:34.513Z</time></trkpt><trkpt lat="43.8282178" lon="12.7690958"><ele>161.0</ele><time>2026-04-18T15:35:35.52Z</time></trkpt><trkpt lat="43.828305" lon="12.7689751"><ele>161.0</ele><time>2026-04-18T15:35:36.513Z</time></trkpt><trkpt lat="43.8283929" lon="12.7688584"><ele>161.0</ele><time>2026-04-18T15:35:37.513Z</time></trkpt><trkpt lat="43.8284749" lon="12.7687455"><ele>161.0</ele><time>2026-04-18T15:35:38.514Z</time></trkpt><trkpt lat="43.8285537" lon="12.768636"><ele>159.0</ele><time>2026-04-18T15:35:39.513Z</time></trkpt><trkpt lat="43.8286304" lon="12.7685281"><ele>157.0</ele><time>2026-04-18T15:35:40.513Z</time></trkpt><trkpt lat="43.8287126" lon="12.7684155"><ele>155.0</ele><time>2026-04-18T15:35:41.513Z</time></trkpt><trkpt lat="43.8288034" lon="12.7683059"><ele>153.0</ele><time>2026-04-18T15:35:42.513Z</time></trkpt><trkpt lat="43.8289045" lon="12.7681991"><ele>153.0</ele><time>2026-04-18T15:35:43.514Z</time></trkpt><trkpt lat="43.8290033" lon="12.7680891"><ele>153.0</ele><time>2026-04-18T15:35:44.514Z</time></trkpt><trkpt lat="43.8291" lon="12.7679768"><ele>153.0</ele><time>2026-04-18T15:35:45.514Z</time></trkpt><trkpt lat="43.8291954" lon="12.7678748"><ele>153.0</ele><time>2026-04-18T15:35:46.513Z</time></trkpt><trkpt lat="43.8292928" lon="12.7677728"><ele>151.5</ele><time>2026-04-18T15:35:47.513Z</time></trkpt><trkpt lat="43.8293895" lon="12.7676674"><ele>150.0</ele><time>2026-04-18T15:35:48.515Z</time></trkpt><trkpt lat="43.829482" lon="12.767558"><ele>148.5</ele><time>2026-04-18T15:35:49.513Z</time></trkpt><trkpt lat="43.8295749" lon="12.7674486"><ele>147.0</ele><time>2026-04-18T15:35:50.513Z</time></trkpt><trkpt lat="43.8296678" lon="12.7673311"><ele>147.0</ele><time>2026-04-18T15:35:51.513Z</time></trkpt><trkpt lat="43.8297509" lon="12.7672072"><ele>147.0</ele><time>2026-04-18T15:35:52.514Z</time></trkpt><trkpt lat="43.8298249" lon="12.7670854"><ele>147.0</ele><time>2026-04-18T15:35:53.512Z</time></trkpt><trkpt lat="43.8298947" lon="12.7669661"><ele>147.0</ele><time>2026-04-18T15:35:54.514Z</time></trkpt><trkpt lat="43.8299616" lon="12.7668502"><ele>146.33333333333334</ele><time>2026-04-18T15:35:55.513Z</time></trkpt><trkpt lat="43.8300238" lon="12.7667436"><ele>145.66666666666666</ele><time>2026-04-18T15:35:56.513Z</time></trkpt><trkpt lat="43.8300802" lon="12.7666455"><ele>145.0</ele><time>2026-04-18T15:35:57.513Z</time></trkpt><trkpt lat="43.8301349" lon="12.7665551"><ele>144.33333333333331</ele><time>2026-04-18T15:35:58.513Z</time></trkpt><trkpt lat="43.8301987" lon="12.7664761"><ele>143.66666666666666</ele><time>2026-04-18T15:35:59.513Z</time></trkpt><trkpt lat="43.8302685" lon="12.7664108"><ele>143.0</ele><time>2026-04-18T15:36:00.515Z</time></trkpt><trkpt lat="43.830358" lon="12.7663738"><ele>141.75</ele><time>2026-04-18T15:36:01.517Z</time></trkpt><trkpt lat="43.8304657" lon="12.7663604"><ele>140.5</ele><time>2026-04-18T15:36:02.516Z</time></trkpt><trkpt lat="43.830583" lon="12.7663621"><ele>139.25</ele><time>2026-04-18T15:36:03.513Z</time></trkpt><trkpt lat="43.8306996" lon="12.7663701"><ele>138.0</ele><time>2026-04-18T15:36:04.513Z</time></trkpt><trkpt lat="43.8308177" lon="12.7663805"><ele>138.0</ele><time>2026-04-18T15:36:05.513Z</time></trkpt><trkpt lat="43.8309296" lon="12.7663678"><ele>138.0</ele><time>2026-04-18T15:36:06.517Z</time></trkpt><trkpt lat="43.8310403" lon="12.7663306"><ele>138.0</ele><time>2026-04-18T15:36:07.514Z</time></trkpt><trkpt lat="43.8311486" lon="12.7662596"><ele>138.0</ele><time>2026-04-18T15:36:08.519Z</time></trkpt><trkpt lat="43.8312495" lon="12.7661662"><ele>136.25</ele><time>2026-04-18T15:36:09.515Z</time></trkpt><trkpt lat="43.831344" lon="12.7660612"><ele>134.5</ele><time>2026-04-18T15:36:10.515Z</time></trkpt><trkpt lat="43.8314341" lon="12.7659602"><ele>132.75</ele><time>2026-04-18T15:36:11.519Z</time></trkpt><trkpt lat="43.8315191" lon="12.7658626"><ele>131.0</ele><time>2026-04-18T15:36:12.514Z</time></trkpt><trkpt lat="43.8316025" lon="12.7657714"><ele>131.0</ele><time>2026-04-18T15:36:13.514Z</time></trkpt><trkpt lat="43.8316882" lon="12.7656909"><ele>131.0</ele><time>2026-04-18T15:36:14.514Z</time></trkpt><trkpt lat="43.831775" lon="12.7656141"><ele>131.0</ele><time>2026-04-18T15:36:15.513Z</time></trkpt><trkpt lat="43.8318635" lon="12.7655423"><ele>131.0</ele><time>2026-04-18T15:36:16.516Z</time></trkpt><trkpt lat="43.8319564" lon="12.7654796"><ele>131.0</ele><time>2026-04-18T15:36:17.517Z</time></trkpt><trkpt lat="43.8320547" lon="12.7654231"><ele>128.5</ele><time>2026-04-18T15:36:18.514Z</time></trkpt><trkpt lat="43.8321644" lon="12.7653751"><ele>126.0</ele><time>2026-04-18T15:36:19.514Z</time></trkpt><trkpt lat="43.8322784" lon="12.7653301"><ele>123.5</ele><time>2026-04-18T15:36:20.514Z</time></trkpt><trkpt lat="43.8323906" lon="12.7652806"><ele>121.0</ele><time>2026-04-18T15:36:21.515Z</time></trkpt><trkpt lat="43.8324993" lon="12.7652236"><ele>121.25</ele><time>2026-04-18T15:36:22.513Z</time></trkpt><trkpt lat="43.8326072" lon="12.7651521"><ele>121.5</ele><time>2026-04-18T15:36:23.513Z</time></trkpt><trkpt lat="43.8327182" lon="12.7650688"><ele>121.75</ele><time>2026-04-18T15:36:24.513Z</time></trkpt><trkpt lat="43.83283" lon="12.764975"><ele>122.0</ele><time>2026-04-18T15:36:25.513Z</time></trkpt><trkpt lat="43.8329378" lon="12.7648793"><ele>120.25</ele><time>2026-04-18T15:36:26.515Z</time></trkpt><trkpt lat="43.8330445" lon="12.764793"><ele>118.5</ele><time>2026-04-18T15:36:27.513Z</time></trkpt><trkpt lat="43.833154" lon="12.764724"><ele>116.75</ele><time>2026-04-18T15:36:28.513Z</time></trkpt><trkpt lat="43.8332646" lon="12.7646672"><ele>115.0</ele><time>2026-04-18T15:36:29.514Z</time></trkpt><trkpt lat="43.8333673" lon="12.764619"><ele>115.0</ele><time>2026-04-18T15:36:30.512Z</time></trkpt><trkpt lat="43.8334713" lon="12.764575"><ele>115.0</ele><time>2026-04-18T15:36:31.514Z</time></trkpt><trkpt lat="43.8335742" lon="12.7645309"><ele>115.0</ele><time>2026-04-18T15:36:32.514Z</time></trkpt><trkpt lat="43.8336757" lon="12.7644879"><ele>115.0</ele><time>2026-04-18T15:36:33.513Z</time></trkpt><trkpt lat="43.8337742" lon="12.7644458"><ele>115.0</ele><time>2026-04-18T15:36:34.512Z</time></trkpt><trkpt lat="43.8338733" lon="12.7643924"><ele>113.6</ele><time>2026-04-18T15:36:35.513Z</time></trkpt><trkpt lat="43.8339683" lon="12.7643263"><ele>112.2</ele><time>2026-04-18T15:36:36.512Z</time></trkpt><trkpt lat="43.8340617" lon="12.7642623"><ele>110.80000000000001</ele><time>2026-04-18T15:36:37.513Z</time></trkpt><trkpt lat="43.8341574" lon="12.7641953"><ele>109.4</ele><time>2026-04-18T15:36:38.513Z</time></trkpt><trkpt lat="43.8342527" lon="12.7641374"><ele>108.0</ele><time>2026-04-18T15:36:39.513Z</time></trkpt><trkpt lat="43.8343498" lon="12.7640975"><ele>105.80000000000001</ele><time>2026-04-18T15:36:40.512Z</time></trkpt><trkpt lat="43.8344465" lon="12.7640734"><ele>103.60000000000001</ele><time>2026-04-18T15:36:41.514Z</time></trkpt><trkpt lat="43.8345319" lon="12.7640563"><ele>101.4</ele><time>2026-04-18T15:36:42.513Z</time></trkpt><trkpt lat="43.8346152" lon="12.7640404"><ele>99.19999999999999</ele><time>2026-04-18T15:36:43.513Z</time></trkpt><trkpt lat="43.834706" lon="12.7640448"><ele>97.0</ele><time>2026-04-18T15:36:44.514Z</time></trkpt><trkpt lat="43.8347966" lon="12.7640659"><ele>97.0</ele><time>2026-04-18T15:36:45.513Z</time></trkpt><trkpt lat="43.8348868" lon="12.7641176"><ele>97.0</ele><time>2026-04-18T15:36:46.512Z</time></trkpt><trkpt lat="43.8349635" lon="12.7641957"><ele>97.0</ele><time>2026-04-18T15:36:47.513Z</time></trkpt><trkpt lat="43.8350307" lon="12.7642815"><ele>97.0</ele><time>2026-04-18T15:36:48.523Z</time></trkpt><trkpt lat="43.835092" lon="12.7643691"><ele>97.0</ele><time>2026-04-18T15:36:49.513Z</time></trkpt><trkpt lat="43.8351211" lon="12.7644702"><ele>96.16666666666667</ele><time>2026-04-18T15:36:50.516Z</time></trkpt><trkpt lat="43.8351168" lon="12.7645775"><ele>95.33333333333334</ele><time>2026-04-18T15:36:51.518Z</time></trkpt><trkpt lat="43.8350656" lon="12.7646799"><ele>94.5</ele><time>2026-04-18T15:36:52.515Z</time></trkpt><trkpt lat="43.834999" lon="12.764768"><ele>93.66666666666667</ele><time>2026-04-18T15:36:53.512Z</time></trkpt><trkpt lat="43.8349415" lon="12.7648467"><ele>92.83333333333334</ele><time>2026-04-18T15:36:54.512Z</time></trkpt><trkpt lat="43.8349171" lon="12.7649335"><ele>92.0</ele><time>2026-04-18T15:36:55.519Z</time></trkpt><trkpt lat="43.8349255" lon="12.7650261"><ele>92.0</ele><time>2026-04-18T15:36:56.513Z</time></trkpt><trkpt lat="43.8349621" lon="12.7651176"><ele>92.0</ele><time>2026-04-18T15:36:57.512Z</time></trkpt><trkpt lat="43.8349964" lon="12.7652146"><ele>92.0</ele><time>2026-04-18T15:36:58.513Z</time></trkpt><trkpt lat="43.835114" lon="12.7652493"><ele>92.0</ele><time>2026-04-18T15:36:59.513Z</time></trkpt><trkpt lat="43.8352631" lon="12.7652351"><ele>92.0</ele><time>2026-04-18T15:37:00.513Z</time></trkpt><trkpt lat="43.8354162" lon="12.7651964"><ele>89.0</ele><time>2026-04-18T15:37:01.512Z</time></trkpt><trkpt lat="43.8355555" lon="12.7651532"><ele>86.0</ele><time>2026-04-18T15:37:02.513Z</time></trkpt><trkpt lat="43.835684" lon="12.7651138"><ele>83.0</ele><time>2026-04-18T15:37:03.512Z</time></trkpt><trkpt lat="43.835808" lon="12.765075"><ele>80.0</ele><time>2026-04-18T15:37:04.513Z</time></trkpt><trkpt lat="43.8359205" lon="12.7650312"><ele>77.6</ele><time>2026-04-18T15:37:05.512Z</time></trkpt><trkpt lat="43.8360276" lon="12.7649838"><ele>75.2</ele><time>2026-04-18T15:37:06.512Z</time></trkpt><trkpt lat="43.836136" lon="12.7649379"><ele>72.8</ele><time>2026-04-18T15:37:07.513Z</time></trkpt><trkpt lat="43.8362424" lon="12.7648856"><ele>70.4</ele><time>2026-04-18T15:37:08.512Z</time></trkpt><trkpt lat="43.8363449" lon="12.7648495"><ele>68.0</ele><time>2026-04-18T15:37:09.513Z</time></trkpt><trkpt lat="43.8364466" lon="12.764832"><ele>68.0</ele><time>2026-04-18T15:37:10.513Z</time></trkpt><trkpt lat="43.8365438" lon="12.7648283"><ele>68.0</ele><time>2026-04-18T15:37:11.515Z</time></trkpt><trkpt lat="43.8366408" lon="12.7648152"><ele>68.0</ele><time>2026-04-18T15:37:12.513Z</time></trkpt><trkpt lat="43.8367345" lon="12.7647809"><ele>68.0</ele><time>2026-04-18T15:37:13.513Z</time></trkpt><trkpt lat="43.836819" lon="12.7647183"><ele>68.0</ele><time>2026-04-18T15:37:14.513Z</time></trkpt><trkpt lat="43.8368875" lon="12.764622"><ele>67.6</ele><time>2026-04-18T15:37:15.513Z</time></trkpt><trkpt lat="43.8369382" lon="12.7645065"><ele>67.19999999999999</ele><time>2026-04-18T15:37:16.514Z</time></trkpt><trkpt lat="43.8369829" lon="12.7643828"><ele>66.8</ele><time>2026-04-18T15:37:17.513Z</time></trkpt><trkpt lat="43.837029" lon="12.7642597"><ele>66.39999999999999</ele><time>2026-04-18T15:37:18.515Z</time></trkpt><trkpt lat="43.837081" lon="12.7641429"><ele>66.0</ele><time>2026-04-18T15:37:19.514Z</time></trkpt><trkpt lat="43.8371316" lon="12.7640312"><ele>66.0</ele><time>2026-04-18T15:37:20.514Z</time></trkpt><trkpt lat="43.837185" lon="12.7639247"><ele>66.0</ele><time>2026-04-18T15:37:21.514Z</time></trkpt><trkpt lat="43.8372419" lon="12.7638277"><ele>66.0</ele><time>2026-04-18T15:37:22.515Z</time></trkpt><trkpt lat="43.837295" lon="12.7637383"><ele>66.0</ele><time>2026-04-18T15:37:23.515Z</time></trkpt><trkpt lat="43.8373558" lon="12.7636727"><ele>66.0</ele><time>2026-04-18T15:37:24.514Z</time></trkpt><trkpt lat="43.8374174" lon="12.7636135"><ele>66.0</ele><time>2026-04-18T15:37:25.514Z</time></trkpt><trkpt lat="43.8374707" lon="12.7635506"><ele>65.8</ele><time>2026-04-18T15:37:26.515Z</time></trkpt><trkpt lat="43.8375242" lon="12.7635008"><ele>65.6</ele><time>2026-04-18T15:37:27.514Z</time></trkpt><trkpt lat="43.8376367" lon="12.7634907"><ele>65.4</ele><time>2026-04-18T15:37:29.514Z</time></trkpt><trkpt lat="43.8377455" lon="12.7635951"><ele>65.2</ele><time>2026-04-18T15:37:31.514Z</time></trkpt><trkpt lat="43.8377991" lon="12.7636637"><ele>65.0</ele><time>2026-04-18T15:37:32.514Z</time></trkpt><trkpt lat="43.837848" lon="12.7637309"><ele>65.0</ele><time>2026-04-18T15:37:33.514Z</time></trkpt><trkpt lat="43.8379205" lon="12.7638182"><ele>65.0</ele><time>2026-04-18T15:37:35.514Z</time></trkpt><trkpt lat="43.8379766" lon="12.7638993"><ele>65.0</ele><time>2026-04-18T15:37:38.514Z</time></trkpt><trkpt lat="43.8379705" lon="12.763988"><ele>65.0</ele><time>2026-04-18T15:37:40.512Z</time></trkpt><trkpt lat="43.8379154" lon="12.7641237"><ele>65.0</ele><time>2026-04-18T15:37:42.512Z</time></trkpt><trkpt lat="43.8378819" lon="12.7641986"><ele>65.0</ele><time>2026-04-18T15:37:43.512Z</time></trkpt><trkpt lat="43.8378434" lon="12.7642907"><ele>64.6</ele><time>2026-04-18T15:37:44.513Z</time></trkpt><trkpt lat="43.8378035" lon="12.7643929"><ele>64.2</ele><time>2026-04-18T15:37:45.513Z</time></trkpt><trkpt lat="43.8377679" lon="12.7645042"><ele>63.8</ele><time>2026-04-18T15:37:46.514Z</time></trkpt><trkpt lat="43.837741" lon="12.7646183"><ele>63.4</ele><time>2026-04-18T15:37:47.513Z</time></trkpt><trkpt lat="43.8377263" lon="12.7647466"><ele>63.0</ele><time>2026-04-18T15:37:48.513Z</time></trkpt><trkpt lat="43.8377331" lon="12.7648916"><ele>63.0</ele><time>2026-04-18T15:37:49.513Z</time></trkpt><trkpt lat="43.8377446" lon="12.7650406"><ele>63.0</ele><time>2026-04-18T15:37:50.517Z</time></trkpt><trkpt lat="43.8377679" lon="12.7651882"><ele>63.0</ele><time>2026-04-18T15:37:51.513Z</time></trkpt><trkpt lat="43.8377984" lon="12.7653311"><ele>63.0</ele><time>2026-04-18T15:37:52.513Z</time></trkpt><trkpt lat="43.8378361" lon="12.7654788"><ele>63.0</ele><time>2026-04-18T15:37:53.512Z</time></trkpt><trkpt lat="43.8378879" lon="12.7656286"><ele>64.5</ele><time>2026-04-18T15:37:54.512Z</time></trkpt><trkpt lat="43.8379444" lon="12.7657759"><ele>66.0</ele><time>2026-04-18T15:37:55.514Z</time></trkpt><trkpt lat="43.8380103" lon="12.7659092"><ele>67.5</ele><time>2026-04-18T15:37:56.512Z</time></trkpt><trkpt lat="43.8380869" lon="12.7660337"><ele>69.0</ele><time>2026-04-18T15:37:57.513Z</time></trkpt><trkpt lat="43.8381678" lon="12.7661543"><ele>69.8</ele><time>2026-04-18T15:37:58.514Z</time></trkpt><trkpt lat="43.838247" lon="12.7662736"><ele>70.60000000000001</ele><time>2026-04-18T15:37:59.513Z</time></trkpt><trkpt lat="43.8383232" lon="12.7663858"><ele>71.4</ele><time>2026-04-18T15:38:00.513Z</time></trkpt><trkpt lat="43.8383954" lon="12.7664935"><ele>72.2</ele><time>2026-04-18T15:38:01.512Z</time></trkpt><trkpt lat="43.8384654" lon="12.7666011"><ele>73.0</ele><time>2026-04-18T15:38:02.513Z</time></trkpt><trkpt lat="43.8385311" lon="12.7667028"><ele>73.0</ele><time>2026-04-18T15:38:03.514Z</time></trkpt><trkpt lat="43.8385941" lon="12.7668054"><ele>73.0</ele><time>2026-04-18T15:38:04.513Z</time></trkpt><trkpt lat="43.8386539" lon="12.7669156"><ele>73.0</ele><time>2026-04-18T15:38:05.513Z</time></trkpt><trkpt lat="43.8387146" lon="12.7670341"><ele>73.0</ele><time>2026-04-18T15:38:06.515Z</time></trkpt><trkpt lat="43.8387695" lon="12.7671661"><ele>73.0</ele><time>2026-04-18T15:38:07.513Z</time></trkpt><trkpt lat="43.8388193" lon="12.7672997"><ele>73.2</ele><time>2026-04-18T15:38:08.514Z</time></trkpt><trkpt lat="43.8388616" lon="12.7674365"><ele>73.4</ele><time>2026-04-18T15:38:09.512Z</time></trkpt><trkpt lat="43.8389091" lon="12.7675636"><ele>73.60000000000001</ele><time>2026-04-18T15:38:10.513Z</time></trkpt><trkpt lat="43.8389535" lon="12.7676815"><ele>73.8</ele><time>2026-04-18T15:38:11.513Z</time></trkpt><trkpt lat="43.8389935" lon="12.7677978"><ele>74.0</ele><time>2026-04-18T15:38:12.513Z</time></trkpt><trkpt lat="43.8390261" lon="12.7679213"><ele>74.4</ele><time>2026-04-18T15:38:13.515Z</time></trkpt><trkpt lat="43.8390536" lon="12.7680466"><ele>74.80000000000001</ele><time>2026-04-18T15:38:14.515Z</time></trkpt><trkpt lat="43.8390806" lon="12.7681784"><ele>75.19999999999999</ele><time>2026-04-18T15:38:15.512Z</time></trkpt><trkpt lat="43.8391058" lon="12.768316"><ele>75.6</ele><time>2026-04-18T15:38:16.512Z</time></trkpt><trkpt lat="43.8391312" lon="12.7684579"><ele>76.0</ele><time>2026-04-18T15:38:17.512Z</time></trkpt><trkpt lat="43.8391601" lon="12.7685978"><ele>75.2</ele><time>2026-04-18T15:38:18.512Z</time></trkpt><trkpt lat="43.8391937" lon="12.7687377"><ele>74.39999999999999</ele><time>2026-04-18T15:38:19.512Z</time></trkpt><trkpt lat="43.8392258" lon="12.7688726"><ele>73.6</ele><time>2026-04-18T15:38:20.516Z</time></trkpt><trkpt lat="43.8392728" lon="12.7689974"><ele>72.8</ele><time>2026-04-18T15:38:21.512Z</time></trkpt><trkpt lat="43.8393318" lon="12.7691141"><ele>72.0</ele><time>2026-04-18T15:38:22.512Z</time></trkpt><trkpt lat="43.8393946" lon="12.7692314"><ele>72.0</ele><time>2026-04-18T15:38:23.512Z</time></trkpt><trkpt lat="43.8394567" lon="12.7693418"><ele>72.0</ele><time>2026-04-18T15:38:24.512Z</time></trkpt><trkpt lat="43.8395192" lon="12.7694373"><ele>72.0</ele><time>2026-04-18T15:38:25.517Z</time></trkpt><trkpt lat="43.8395758" lon="12.7695244"><ele>72.0</ele><time>2026-04-18T15:38:26.513Z</time></trkpt><trkpt lat="43.8396328" lon="12.7695961"><ele>72.0</ele><time>2026-04-18T15:38:27.512Z</time></trkpt><trkpt lat="43.8396863" lon="12.7696658"><ele>72.0</ele><time>2026-04-18T15:38:28.513Z</time></trkpt><trkpt lat="43.8397256" lon="12.769747"><ele>72.75</ele><time>2026-04-18T15:38:29.521Z</time></trkpt><trkpt lat="43.8397481" lon="12.7698459"><ele>73.5</ele><time>2026-04-18T15:38:30.513Z</time></trkpt><trkpt lat="43.8397586" lon="12.7699795"><ele>74.25</ele><time>2026-04-18T15:38:31.512Z</time></trkpt><trkpt lat="43.8397544" lon="12.7701517"><ele>75.0</ele><time>2026-04-18T15:38:32.514Z</time></trkpt><trkpt lat="43.8397375" lon="12.7703698"><ele>76.0</ele><time>2026-04-18T15:38:33.512Z</time></trkpt><trkpt lat="43.8397196" lon="12.7706123"><ele>77.0</ele><time>2026-04-18T15:38:34.512Z</time></trkpt><trkpt lat="43.8396972" lon="12.7708446"><ele>78.0</ele><time>2026-04-18T15:38:35.512Z</time></trkpt><trkpt lat="43.8396839" lon="12.7710571"><ele>78.5</ele><time>2026-04-18T15:38:36.513Z</time></trkpt><trkpt lat="43.8396726" lon="12.7712486"><ele>79.0</ele><time>2026-04-18T15:38:37.512Z</time></trkpt><trkpt lat="43.8396664" lon="12.7714214"><ele>79.5</ele><time>2026-04-18T15:38:38.512Z</time></trkpt><trkpt lat="43.8396739" lon="12.7715783"><ele>80.0</ele><time>2026-04-18T15:38:39.511Z</time></trkpt><trkpt lat="43.8396939" lon="12.7717344"><ele>82.5</ele><time>2026-04-18T15:38:40.511Z</time></trkpt><trkpt lat="43.8397426" lon="12.7718958"><ele>85.0</ele><time>2026-04-18T15:38:41.512Z</time></trkpt><trkpt lat="43.839811" lon="12.7720622"><ele>87.5</ele><time>2026-04-18T15:38:42.511Z</time></trkpt><trkpt lat="43.8398854" lon="12.7722158"><ele>90.0</ele><time>2026-04-18T15:38:43.511Z</time></trkpt><trkpt lat="43.8399556" lon="12.7723484"><ele>90.0</ele><time>2026-04-18T15:38:44.512Z</time></trkpt><trkpt lat="43.8400206" lon="12.7724654"><ele>90.0</ele><time>2026-04-18T15:38:45.516Z</time></trkpt><trkpt lat="43.8400717" lon="12.7725648"><ele>90.0</ele><time>2026-04-18T15:38:46.51Z</time></trkpt><trkpt lat="43.8400977" lon="12.7726569"><ele>90.0</ele><time>2026-04-18T15:38:47.511Z</time></trkpt><trkpt lat="43.8400955" lon="12.7727527"><ele>90.0</ele><time>2026-04-18T15:38:48.511Z</time></trkpt><trkpt lat="43.8400591" lon="12.7728276"><ele>90.0</ele><time>2026-04-18T15:38:49.513Z</time></trkpt><trkpt lat="43.8399929" lon="12.7728644"><ele>90.0</ele><time>2026-04-18T15:38:50.512Z</time></trkpt><trkpt lat="43.8399119" lon="12.772834"><ele>90.0</ele><time>2026-04-18T15:38:51.513Z</time></trkpt><trkpt lat="43.8398188" lon="12.7727526"><ele>90.0</ele><time>2026-04-18T15:38:52.512Z</time></trkpt><trkpt lat="43.8397102" lon="12.7725907"><ele>90.0</ele><time>2026-04-18T15:38:53.512Z</time></trkpt><trkpt lat="43.8395931" lon="12.7724229"><ele>90.0</ele><time>2026-04-18T15:38:54.511Z</time></trkpt><trkpt lat="43.8394668" lon="12.7722818"><ele>90.0</ele><time>2026-04-18T15:38:55.511Z</time></trkpt><trkpt lat="43.8393288" lon="12.7721653"><ele>90.0</ele><time>2026-04-18T15:38:56.512Z</time></trkpt><trkpt lat="43.8391893" lon="12.7720783"><ele>91.5</ele><time>2026-04-18T15:38:57.511Z</time></trkpt><trkpt lat="43.839057" lon="12.7720052"><ele>93.0</ele><time>2026-04-18T15:38:58.512Z</time></trkpt><trkpt lat="43.838935" lon="12.77194"><ele>94.5</ele><time>2026-04-18T15:38:59.511Z</time></trkpt><trkpt lat="43.8388217" lon="12.7718751"><ele>96.0</ele><time>2026-04-18T15:39:00.511Z</time></trkpt><trkpt lat="43.8387228" lon="12.771819"><ele>96.0</ele><time>2026-04-18T15:39:01.511Z</time></trkpt><trkpt lat="43.8386313" lon="12.7717775"><ele>96.0</ele><time>2026-04-18T15:39:02.512Z</time></trkpt><trkpt lat="43.8385477" lon="12.771781"><ele>96.0</ele><time>2026-04-18T15:39:03.511Z</time></trkpt><trkpt lat="43.8384878" lon="12.7718613"><ele>96.0</ele><time>2026-04-18T15:39:04.511Z</time></trkpt><trkpt lat="43.8384698" lon="12.7719867"><ele>96.0</ele><time>2026-04-18T15:39:05.511Z</time></trkpt><trkpt lat="43.8385204" lon="12.7721525"><ele>100.33333333333334</ele><time>2026-04-18T15:39:06.511Z</time></trkpt><trkpt lat="43.8386035" lon="12.7723426"><ele>104.66666666666667</ele><time>2026-04-18T15:39:07.511Z</time></trkpt><trkpt lat="43.8386993" lon="12.7725503"><ele>109.0</ele><time>2026-04-18T15:39:08.512Z</time></trkpt><trkpt lat="43.8387818" lon="12.7727433"><ele>110.4</ele><time>2026-04-18T15:39:09.512Z</time></trkpt><trkpt lat="43.8388465" lon="12.7729163"><ele>111.80000000000001</ele><time>2026-04-18T15:39:10.511Z</time></trkpt><trkpt lat="43.8388975" lon="12.7730542"><ele>113.19999999999999</ele><time>2026-04-18T15:39:11.511Z</time></trkpt><trkpt lat="43.8389403" lon="12.7731539"><ele>114.6</ele><time>2026-04-18T15:39:12.511Z</time></trkpt><trkpt lat="43.8389713" lon="12.7732523"><ele>116.0</ele><time>2026-04-18T15:39:13.511Z</time></trkpt><trkpt lat="43.8389859" lon="12.7733472"><ele>116.0</ele><time>2026-04-18T15:39:14.513Z</time></trkpt><trkpt lat="43.8388958" lon="12.7734454"><ele>116.0</ele><time>2026-04-18T15:39:16.511Z</time></trkpt><trkpt lat="43.83877" lon="12.7733483"><ele>116.0</ele><time>2026-04-18T15:39:17.513Z</time></trkpt><trkpt lat="43.8386567" lon="12.7732183"><ele>116.0</ele><time>2026-04-18T15:39:18.511Z</time></trkpt><trkpt lat="43.8385433" lon="12.7730583"><ele>118.0</ele><time>2026-04-18T15:39:19.514Z</time></trkpt><trkpt lat="43.8384117" lon="12.7729017"><ele>120.0</ele><time>2026-04-18T15:39:20.513Z</time></trkpt><trkpt lat="43.83827" lon="12.772765"><ele>122.0</ele><time>2026-04-18T15:39:21.512Z</time></trkpt><trkpt lat="43.8381483" lon="12.77263"><ele>122.0</ele><time>2026-04-18T15:39:22.513Z</time></trkpt><trkpt lat="43.8380417" lon="12.772505"><ele>122.0</ele><time>2026-04-18T15:39:23.512Z</time></trkpt><trkpt lat="43.8379433" lon="12.7723917"><ele>122.0</ele><time>2026-04-18T15:39:24.513Z</time></trkpt><trkpt lat="43.837875" lon="12.7722917"><ele>122.0</ele><time>2026-04-18T15:39:25.513Z</time></trkpt><trkpt lat="43.8378117" lon="12.7722167"><ele>121.99999999999999</ele><time>2026-04-18T15:39:26.512Z</time></trkpt><trkpt lat="43.8377433" lon="12.7721817"><ele>122.0</ele><time>2026-04-18T15:39:27.511Z</time></trkpt><trkpt lat="43.837685" lon="12.77222"><ele>122.0</ele><time>2026-04-18T15:39:28.511Z</time></trkpt><trkpt lat="43.837665" lon="12.7723283"><ele>122.0</ele><time>2026-04-18T15:39:29.51Z</time></trkpt><trkpt lat="43.8376783" lon="12.7724233"><ele>121.99999999999999</ele><time>2026-04-18T15:39:30.513Z</time></trkpt><trkpt lat="43.8377217" lon="12.7725433"><ele>122.0</ele><time>2026-04-18T15:39:31.513Z</time></trkpt><trkpt lat="43.83783" lon="12.7726733"><ele>124.6</ele><time>2026-04-18T15:39:32.513Z</time></trkpt><trkpt lat="43.8379333" lon="12.7727967"><ele>127.19999999999999</ele><time>2026-04-18T15:39:33.513Z</time></trkpt><trkpt lat="43.838015" lon="12.7728817"><ele>129.8</ele><time>2026-04-18T15:39:34.511Z</time></trkpt><trkpt lat="43.8380683" lon="12.7729617"><ele>132.4</ele><time>2026-04-18T15:39:35.52Z</time></trkpt><trkpt lat="43.8380917" lon="12.7730483"><ele>135.0</ele><time>2026-04-18T15:39:36.513Z</time></trkpt><trkpt lat="43.838015" lon="12.7730817"><ele>135.0</ele><time>2026-04-18T15:39:38.515Z</time></trkpt><trkpt lat="43.8379133" lon="12.7729817"><ele>135.0</ele><time>2026-04-18T15:39:39.513Z</time></trkpt><trkpt lat="43.8378017" lon="12.77286"><ele>135.0</ele><time>2026-04-18T15:39:40.515Z</time></trkpt><trkpt lat="43.8376833" lon="12.7727217"><ele>135.0</ele><time>2026-04-18T15:39:41.511Z</time></trkpt><trkpt lat="43.8375683" lon="12.77257"><ele>136.5</ele><time>2026-04-18T15:39:42.513Z</time></trkpt><trkpt lat="43.8374767" lon="12.7723933"><ele>138.0</ele><time>2026-04-18T15:39:43.512Z</time></trkpt><trkpt lat="43.8374133" lon="12.7722167"><ele>139.5</ele><time>2026-04-18T15:39:44.513Z</time></trkpt><trkpt lat="43.8373633" lon="12.7720683"><ele>141.0</ele><time>2026-04-18T15:39:45.511Z</time></trkpt><trkpt lat="43.8373083" lon="12.77195"><ele>141.0</ele><time>2026-04-18T15:39:46.52Z</time></trkpt><trkpt lat="43.837245" lon="12.7718517"><ele>141.0</ele><time>2026-04-18T15:39:47.511Z</time></trkpt><trkpt lat="43.8371683" lon="12.7718017"><ele>141.0</ele><time>2026-04-18T15:39:48.522Z</time></trkpt><trkpt lat="43.8370917" lon="12.7718467"><ele>141.0</ele><time>2026-04-18T15:39:49.513Z</time></trkpt><trkpt lat="43.83703" lon="12.7719533"><ele>141.0</ele><time>2026-04-18T15:39:50.523Z</time></trkpt><trkpt lat="43.8369867" lon="12.77214"><ele>141.0</ele><time>2026-04-18T15:39:51.513Z</time></trkpt><trkpt lat="43.8369467" lon="12.7723817"><ele>141.0</ele><time>2026-04-18T15:39:52.512Z</time></trkpt><trkpt lat="43.8368983" lon="12.7726317"><ele>141.0</ele><time>2026-04-18T15:39:53.514Z</time></trkpt><trkpt lat="43.836845" lon="12.772865"><ele>144.25</ele><time>2026-04-18T15:39:54.513Z</time></trkpt><trkpt lat="43.8367933" lon="12.773075"><ele>147.5</ele><time>2026-04-18T15:39:55.514Z</time></trkpt><trkpt lat="43.8367317" lon="12.77325"><ele>150.75</ele><time>2026-04-18T15:39:56.512Z</time></trkpt><trkpt lat="43.8366533" lon="12.7733933"><ele>154.0</ele><time>2026-04-18T15:39:57.511Z</time></trkpt><trkpt lat="43.83654" lon="12.773515"><ele>157.66666666666669</ele><time>2026-04-18T15:39:58.511Z</time></trkpt><trkpt lat="43.836395" lon="12.7736317"><ele>161.33333333333334</ele><time>2026-04-18T15:39:59.511Z</time></trkpt><trkpt lat="43.8362383" lon="12.7737517"><ele>165.0</ele><time>2026-04-18T15:40:00.511Z</time></trkpt><trkpt lat="43.8360867" lon="12.7738717"><ele>164.33333333333334</ele><time>2026-04-18T15:40:01.511Z</time></trkpt><trkpt lat="43.8359583" lon="12.7739783"><ele>163.66666666666669</ele><time>2026-04-18T15:40:02.512Z</time></trkpt><trkpt lat="43.8358433" lon="12.7741117"><ele>163.0</ele><time>2026-04-18T15:40:03.512Z</time></trkpt><trkpt lat="43.835745" lon="12.77428"><ele>166.0</ele><time>2026-04-18T15:40:04.512Z</time></trkpt><trkpt lat="43.8356517" lon="12.7744667"><ele>169.0</ele><time>2026-04-18T15:40:05.516Z</time></trkpt><trkpt lat="43.8355633" lon="12.7746433"><ele>172.0</ele><time>2026-04-18T15:40:06.511Z</time></trkpt><trkpt lat="43.8354917" lon="12.7748"><ele>172.0</ele><time>2026-04-18T15:40:07.513Z</time></trkpt><trkpt lat="43.8354233" lon="12.774935"><ele>172.0</ele><time>2026-04-18T15:40:08.524Z</time></trkpt><trkpt lat="43.83537" lon="12.7750517"><ele>172.0</ele><time>2026-04-18T15:40:09.511Z</time></trkpt><trkpt lat="43.835345" lon="12.7751817"><ele>172.0</ele><time>2026-04-18T15:40:10.513Z</time></trkpt><trkpt lat="43.8353767" lon="12.7753133"><ele>172.0</ele><time>2026-04-18T15:40:11.511Z</time></trkpt><trkpt lat="43.8354433" lon="12.77541"><ele>174.0</ele><time>2026-04-18T15:40:12.512Z</time></trkpt><trkpt lat="43.8355383" lon="12.7754633"><ele>176.0</ele><time>2026-04-18T15:40:13.511Z</time></trkpt><trkpt lat="43.8356667" lon="12.7754333"><ele>178.0</ele><time>2026-04-18T15:40:14.511Z</time></trkpt><trkpt lat="43.8358033" lon="12.77539"><ele>180.0</ele><time>2026-04-18T15:40:15.512Z</time></trkpt><trkpt lat="43.835965" lon="12.7753483"><ele>183.66666666666666</ele><time>2026-04-18T15:40:16.51Z</time></trkpt><trkpt lat="43.8361367" lon="12.7752933"><ele>187.33333333333331</ele><time>2026-04-18T15:40:17.511Z</time></trkpt><trkpt lat="43.8362817" lon="12.7752417"><ele>191.0</ele><time>2026-04-18T15:40:18.511Z</time></trkpt><trkpt lat="43.8364117" lon="12.775195"><ele>191.0</ele><time>2026-04-18T15:40:19.511Z</time></trkpt><trkpt lat="43.836515" lon="12.77516"><ele>191.0</ele><time>2026-04-18T15:40:20.511Z</time></trkpt><trkpt lat="43.83661" lon="12.7751317"><ele>191.0</ele><time>2026-04-18T15:40:21.514Z</time></trkpt><trkpt lat="43.8366917" lon="12.7751483"><ele>191.0</ele><time>2026-04-18T15:40:22.511Z</time></trkpt><trkpt lat="43.83676" lon="12.7752067"><ele>191.0</ele><time>2026-04-18T15:40:23.511Z</time></trkpt><trkpt lat="43.836795" lon="12.7753217"><ele>191.0</ele><time>2026-04-18T15:40:24.511Z</time></trkpt><trkpt lat="43.836795" lon="12.7754433"><ele>191.0</ele><time>2026-04-18T15:40:25.511Z</time></trkpt><trkpt lat="43.8367527" lon="12.7755832"><ele>191.0</ele><time>2026-04-18T15:40:26.511Z</time></trkpt><trkpt lat="43.8366303" lon="12.7757461"><ele>191.0</ele><time>2026-04-18T15:40:27.511Z</time></trkpt><trkpt lat="43.8365058" lon="12.7758902"><ele>191.0</ele><time>2026-04-18T15:40:28.512Z</time></trkpt><trkpt lat="43.8363911" lon="12.7760118"><ele>191.0</ele><time>2026-04-18T15:40:29.511Z</time></trkpt><trkpt lat="43.8362891" lon="12.7761231"><ele>191.0</ele><time>2026-04-18T15:40:30.511Z</time></trkpt><trkpt lat="43.8362359" lon="12.7762187"><ele>191.0</ele><time>2026-04-18T15:40:31.512Z</time></trkpt><trkpt lat="43.8362295" lon="12.7763074"><ele>191.0</ele><time>2026-04-18T15:40:32.512Z</time></trkpt><trkpt lat="43.8362799" lon="12.7763785"><ele>192.5</ele><time>2026-04-18T15:40:33.511Z</time></trkpt><trkpt lat="43.8363826" lon="12.7764008"><ele>194.0</ele><time>2026-04-18T15:40:34.511Z</time></trkpt><trkpt lat="43.8365235" lon="12.7763739"><ele>195.5</ele><time>2026-04-18T15:40:35.511Z</time></trkpt><trkpt lat="43.8366673" lon="12.7763377"><ele>197.0</ele><time>2026-04-18T15:40:36.511Z</time></trkpt><trkpt lat="43.8367987" lon="12.7763015"><ele>193.8</ele><time>2026-04-18T15:40:37.511Z</time></trkpt><trkpt lat="43.836896" lon="12.7763031"><ele>190.6</ele><time>2026-04-18T15:40:38.511Z</time></trkpt><trkpt lat="43.8369582" lon="12.7763491"><ele>187.4</ele><time>2026-04-18T15:40:39.511Z</time></trkpt><trkpt lat="43.8369975" lon="12.7764357"><ele>184.20000000000002</ele><time>2026-04-18T15:40:40.511Z</time></trkpt><trkpt lat="43.8370126" lon="12.776567"><ele>181.0</ele><time>2026-04-18T15:40:41.512Z</time></trkpt><trkpt lat="43.8370168" lon="12.7767248"><ele>181.66666666666669</ele><time>2026-04-18T15:40:42.511Z</time></trkpt><trkpt lat="43.8369851" lon="12.7769574"><ele>182.33333333333334</ele><time>2026-04-18T15:40:43.513Z</time></trkpt><trkpt lat="43.8369022" lon="12.7772757"><ele>183.0</ele><time>2026-04-18T15:40:44.512Z</time></trkpt><trkpt lat="43.8368284" lon="12.7776072"><ele>189.66666666666669</ele><time>2026-04-18T15:40:45.511Z</time></trkpt><trkpt lat="43.8367758" lon="12.777921"><ele>196.33333333333334</ele><time>2026-04-18T15:40:46.511Z</time></trkpt><trkpt lat="43.8367379" lon="12.7781942"><ele>203.0</ele><time>2026-04-18T15:40:47.51Z</time></trkpt><trkpt lat="43.8367093" lon="12.778436"><ele>203.66666666666669</ele><time>2026-04-18T15:40:48.511Z</time></trkpt><trkpt lat="43.8366816" lon="12.7786557"><ele>204.33333333333331</ele><time>2026-04-18T15:40:49.515Z</time></trkpt><trkpt lat="43.836659" lon="12.7788587"><ele>205.0</ele><time>2026-04-18T15:40:50.515Z</time></trkpt><trkpt lat="43.8366446" lon="12.7790618"><ele>205.0</ele><time>2026-04-18T15:40:51.512Z</time></trkpt><trkpt lat="43.8366423" lon="12.7792669"><ele>205.0</ele><time>2026-04-18T15:40:52.513Z</time></trkpt><trkpt lat="43.8366668" lon="12.7794734"><ele>205.0</ele><time>2026-04-18T15:40:53.515Z</time></trkpt><trkpt lat="43.8367118" lon="12.7796749"><ele>205.66666666666666</ele><time>2026-04-18T15:40:54.513Z</time></trkpt><trkpt lat="43.8367638" lon="12.779873"><ele>206.33333333333331</ele><time>2026-04-18T15:40:55.513Z</time></trkpt><trkpt lat="43.8368137" lon="12.7800725"><ele>207.0</ele><time>2026-04-18T15:40:56.513Z</time></trkpt><trkpt lat="43.8368543" lon="12.7802727"><ele>206.0</ele><time>2026-04-18T15:40:57.513Z</time></trkpt><trkpt lat="43.8368765" lon="12.7804758"><ele>205.0</ele><time>2026-04-18T15:40:58.514Z</time></trkpt><trkpt lat="43.836883" lon="12.7806846"><ele>204.0</ele><time>2026-04-18T15:40:59.515Z</time></trkpt><trkpt lat="43.8368798" lon="12.7808911"><ele>203.0</ele><time>2026-04-18T15:41:00.512Z</time></trkpt><trkpt lat="43.8368747" lon="12.7811034"><ele>203.0</ele><time>2026-04-18T15:41:01.513Z</time></trkpt><trkpt lat="43.8368663" lon="12.7813174"><ele>203.0</ele><time>2026-04-18T15:41:02.513Z</time></trkpt><trkpt lat="43.8368517" lon="12.7815321"><ele>203.0</ele><time>2026-04-18T15:41:03.512Z</time></trkpt><trkpt lat="43.8368317" lon="12.781743"><ele>204.33333333333334</ele><time>2026-04-18T15:41:04.513Z</time></trkpt><trkpt lat="43.8368042" lon="12.781951"><ele>205.66666666666669</ele><time>2026-04-18T15:41:05.512Z</time></trkpt><trkpt lat="43.8367614" lon="12.7821567"><ele>207.0</ele><time>2026-04-18T15:41:06.512Z</time></trkpt><trkpt lat="43.8367112" lon="12.7823516"><ele>208.75</ele><time>2026-04-18T15:41:07.513Z</time></trkpt><trkpt lat="43.8366573" lon="12.7825343"><ele>210.5</ele><time>2026-04-18T15:41:08.512Z</time></trkpt><trkpt lat="43.8365992" lon="12.7827115"><ele>212.25</ele><time>2026-04-18T15:41:09.512Z</time></trkpt><trkpt lat="43.8365402" lon="12.7828845"><ele>214.0</ele><time>2026-04-18T15:41:10.512Z</time></trkpt><trkpt lat="43.8364784" lon="12.7830518"><ele>214.25</ele><time>2026-04-18T15:41:11.513Z</time></trkpt><trkpt lat="43.8364177" lon="12.7832119"><ele>214.5</ele><time>2026-04-18T15:41:12.512Z</time></trkpt><trkpt lat="43.8363452" lon="12.783371"><ele>214.75</ele><time>2026-04-18T15:41:13.513Z</time></trkpt><trkpt lat="43.8362626" lon="12.7835262"><ele>215.0</ele><time>2026-04-18T15:41:14.512Z</time></trkpt><trkpt lat="43.836181" lon="12.7836783"><ele>215.0</ele><time>2026-04-18T15:41:15.511Z</time></trkpt><trkpt lat="43.8360976" lon="12.7838276"><ele>215.0</ele><time>2026-04-18T15:41:16.512Z</time></trkpt><trkpt lat="43.8360163" lon="12.7839836"><ele>215.0</ele><time>2026-04-18T15:41:17.514Z</time></trkpt><trkpt lat="43.8359379" lon="12.7841433"><ele>215.0</ele><time>2026-04-18T15:41:18.511Z</time></trkpt><trkpt lat="43.8358595" lon="12.7843017"><ele>217.25</ele><time>2026-04-18T15:41:19.511Z</time></trkpt><trkpt lat="43.8357827" lon="12.7844629"><ele>219.5</ele><time>2026-04-18T15:41:20.512Z</time></trkpt><trkpt lat="43.8357071" lon="12.784626"><ele>221.75</ele><time>2026-04-18T15:41:21.512Z</time></trkpt><trkpt lat="43.8356316" lon="12.7847913"><ele>224.0</ele><time>2026-04-18T15:41:22.512Z</time></trkpt><trkpt lat="43.8355558" lon="12.7849522"><ele>224.0</ele><time>2026-04-18T15:41:23.513Z</time></trkpt><trkpt lat="43.8354816" lon="12.7851121"><ele>224.0</ele><time>2026-04-18T15:41:24.512Z</time></trkpt><trkpt lat="43.8354129" lon="12.785272"><ele>224.0</ele><time>2026-04-18T15:41:25.511Z</time></trkpt><trkpt lat="43.8353467" lon="12.7854386"><ele>224.0</ele><time>2026-04-18T15:41:26.515Z</time></trkpt><trkpt lat="43.8352782" lon="12.7856052"><ele>224.0</ele><time>2026-04-18T15:41:27.512Z</time></trkpt><trkpt lat="43.8352064" lon="12.7857703"><ele>224.0</ele><time>2026-04-18T15:41:28.512Z</time></trkpt><trkpt lat="43.8351326" lon="12.7859323"><ele>224.0</ele><time>2026-04-18T15:41:29.513Z</time></trkpt><trkpt lat="43.8350474" lon="12.7860827"><ele>224.0</ele><time>2026-04-18T15:41:30.513Z</time></trkpt><trkpt lat="43.8349545" lon="12.7862267"><ele>225.0</ele><time>2026-04-18T15:41:31.512Z</time></trkpt><trkpt lat="43.8348462" lon="12.7863581"><ele>226.0</ele><time>2026-04-18T15:41:32.515Z</time></trkpt><trkpt lat="43.8347347" lon="12.7864819"><ele>227.0</ele><time>2026-04-18T15:41:33.512Z</time></trkpt><trkpt lat="43.8346209" lon="12.7865994"><ele>228.0</ele><time>2026-04-18T15:41:34.512Z</time></trkpt><trkpt lat="43.8345072" lon="12.7867183"><ele>228.0</ele><time>2026-04-18T15:41:35.513Z</time></trkpt><trkpt lat="43.8343951" lon="12.786834"><ele>228.0</ele><time>2026-04-18T15:41:36.513Z</time></trkpt><trkpt lat="43.8342822" lon="12.7869487"><ele>228.0</ele><time>2026-04-18T15:41:37.513Z</time></trkpt><trkpt lat="43.8341697" lon="12.7870603"><ele>228.0</ele><time>2026-04-18T15:41:38.518Z</time></trkpt><trkpt lat="43.8340541" lon="12.7871653"><ele>232.25</ele><time>2026-04-18T15:41:39.513Z</time></trkpt><trkpt lat="43.8339359" lon="12.7872639"><ele>236.5</ele><time>2026-04-18T15:41:40.51Z</time></trkpt><trkpt lat="43.8338169" lon="12.7873627"><ele>240.75</ele><time>2026-04-18T15:41:41.511Z</time></trkpt><trkpt lat="43.8336972" lon="12.7874666"><ele>245.0</ele><time>2026-04-18T15:41:42.509Z</time></trkpt><trkpt lat="43.8335827" lon="12.7875778"><ele>248.25</ele><time>2026-04-18T15:41:43.513Z</time></trkpt><trkpt lat="43.8334695" lon="12.7876928"><ele>251.5</ele><time>2026-04-18T15:41:44.511Z</time></trkpt><trkpt lat="43.8333564" lon="12.7878125"><ele>254.75</ele><time>2026-04-18T15:41:45.51Z</time></trkpt><trkpt lat="43.8332422" lon="12.787933"><ele>258.0</ele><time>2026-04-18T15:41:46.51Z</time></trkpt><trkpt lat="43.8331258" lon="12.7880557"><ele>258.0</ele><time>2026-04-18T15:41:47.513Z</time></trkpt><trkpt lat="43.8330074" lon="12.7881669"><ele>258.0</ele><time>2026-04-18T15:41:48.511Z</time></trkpt><trkpt lat="43.8328815" lon="12.7882713"><ele>258.0</ele><time>2026-04-18T15:41:49.511Z</time></trkpt><trkpt lat="43.8327496" lon="12.7883717"><ele>258.0</ele><time>2026-04-18T15:41:50.511Z</time></trkpt><trkpt lat="43.8326121" lon="12.7884654"><ele>260.3333333333333</ele><time>2026-04-18T15:41:51.51Z</time></trkpt><trkpt lat="43.832471" lon="12.7885543"><ele>262.66666666666663</ele><time>2026-04-18T15:41:52.51Z</time></trkpt><trkpt lat="43.8323339" lon="12.7886397"><ele>265.0</ele><time>2026-04-18T15:41:53.511Z</time></trkpt><trkpt lat="43.8321969" lon="12.7887239"><ele>265.0</ele><time>2026-04-18T15:41:54.51Z</time></trkpt><trkpt lat="43.83206" lon="12.7888085"><ele>265.0</ele><time>2026-04-18T15:41:55.511Z</time></trkpt><trkpt lat="43.8319259" lon="12.7888992"><ele>265.0</ele><time>2026-04-18T15:41:56.512Z</time></trkpt><trkpt lat="43.83179" lon="12.7889956"><ele>264.25</ele><time>2026-04-18T15:41:57.51Z</time></trkpt><trkpt lat="43.8316526" lon="12.7890886"><ele>263.5</ele><time>2026-04-18T15:41:58.51Z</time></trkpt><trkpt lat="43.8315184" lon="12.7891759"><ele>262.75</ele><time>2026-04-18T15:41:59.511Z</time></trkpt><trkpt lat="43.8313868" lon="12.7892493"><ele>262.0</ele><time>2026-04-18T15:42:00.512Z</time></trkpt><trkpt lat="43.8312663" lon="12.7893252"><ele>262.5</ele><time>2026-04-18T15:42:01.51Z</time></trkpt><trkpt lat="43.8311527" lon="12.789397"><ele>263.0</ele><time>2026-04-18T15:42:02.514Z</time></trkpt><trkpt lat="43.8310445" lon="12.7894666"><ele>263.5</ele><time>2026-04-18T15:42:03.511Z</time></trkpt><trkpt lat="43.8309424" lon="12.7895418"><ele>264.0</ele><time>2026-04-18T15:42:04.511Z</time></trkpt><trkpt lat="43.8308482" lon="12.7896229"><ele>264.0</ele><time>2026-04-18T15:42:05.512Z</time></trkpt><trkpt lat="43.8307666" lon="12.7897178"><ele>264.0</ele><time>2026-04-18T15:42:06.511Z</time></trkpt><trkpt lat="43.8306993" lon="12.7898392"><ele>264.0</ele><time>2026-04-18T15:42:07.512Z</time></trkpt><trkpt lat="43.8306389" lon="12.7899724"><ele>264.0</ele><time>2026-04-18T15:42:08.51Z</time></trkpt><trkpt lat="43.8305822" lon="12.790117"><ele>264.0</ele><time>2026-04-18T15:42:09.51Z</time></trkpt><trkpt lat="43.8305289" lon="12.7902698"><ele>266.25</ele><time>2026-04-18T15:42:10.509Z</time></trkpt><trkpt lat="43.8304753" lon="12.7904234"><ele>268.5</ele><time>2026-04-18T15:42:11.509Z</time></trkpt><trkpt lat="43.8304188" lon="12.7905762"><ele>270.75</ele><time>2026-04-18T15:42:12.509Z</time></trkpt><trkpt lat="43.8303696" lon="12.7907191"><ele>273.0</ele><time>2026-04-18T15:42:13.508Z</time></trkpt><trkpt lat="43.8303193" lon="12.7908489"><ele>273.0</ele><time>2026-04-18T15:42:14.511Z</time></trkpt><trkpt lat="43.8302681" lon="12.7909734"><ele>273.0</ele><time>2026-04-18T15:42:15.51Z</time></trkpt><trkpt lat="43.8302193" lon="12.791101"><ele>273.0</ele><time>2026-04-18T15:42:16.51Z</time></trkpt><trkpt lat="43.8301737" lon="12.7912319"><ele>273.0</ele><time>2026-04-18T15:42:17.51Z</time></trkpt><trkpt lat="43.8301415" lon="12.7913655"><ele>273.0</ele><time>2026-04-18T15:42:18.51Z</time></trkpt><trkpt lat="43.8301386" lon="12.7915067"><ele>273.5</ele><time>2026-04-18T15:42:19.51Z</time></trkpt><trkpt lat="43.8301601" lon="12.7916528"><ele>274.0</ele><time>2026-04-18T15:42:20.51Z</time></trkpt><trkpt lat="43.830213" lon="12.791801"><ele>274.5</ele><time>2026-04-18T15:42:21.509Z</time></trkpt><trkpt lat="43.830277" lon="12.7919504"><ele>275.0</ele><time>2026-04-18T15:42:22.51Z</time></trkpt><trkpt lat="43.8303438" lon="12.7920983"><ele>273.25</ele><time>2026-04-18T15:42:23.51Z</time></trkpt><trkpt lat="43.8304074" lon="12.7922442"><ele>271.5</ele><time>2026-04-18T15:42:24.51Z</time></trkpt><trkpt lat="43.830463" lon="12.7923908"><ele>269.75</ele><time>2026-04-18T15:42:25.51Z</time></trkpt><trkpt lat="43.8305156" lon="12.7925392"><ele>268.0</ele><time>2026-04-18T15:42:26.51Z</time></trkpt><trkpt lat="43.8305605" lon="12.792692"><ele>266.25</ele><time>2026-04-18T15:42:27.51Z</time></trkpt><trkpt lat="43.8306039" lon="12.7928391"><ele>264.5</ele><time>2026-04-18T15:42:28.51Z</time></trkpt><trkpt lat="43.8306385" lon="12.7929925"><ele>262.75</ele><time>2026-04-18T15:42:29.509Z</time></trkpt><trkpt lat="43.8306688" lon="12.793153"><ele>261.0</ele><time>2026-04-18T15:42:30.51Z</time></trkpt><trkpt lat="43.8306824" lon="12.7933203"><ele>261.0</ele><time>2026-04-18T15:42:31.51Z</time></trkpt><trkpt lat="43.8306847" lon="12.7934839"><ele>261.0</ele><time>2026-04-18T15:42:32.51Z</time></trkpt><trkpt lat="43.8306735" lon="12.7936432"><ele>261.0</ele><time>2026-04-18T15:42:33.509Z</time></trkpt><trkpt lat="43.8306354" lon="12.7937968"><ele>261.0</ele><time>2026-04-18T15:42:34.509Z</time></trkpt><trkpt lat="43.8305733" lon="12.7939374"><ele>261.0</ele><time>2026-04-18T15:42:35.511Z</time></trkpt><trkpt lat="43.8305017" lon="12.7940784"><ele>261.0</ele><time>2026-04-18T15:42:36.51Z</time></trkpt><trkpt lat="43.8304241" lon="12.7942149"><ele>261.0</ele><time>2026-04-18T15:42:37.51Z</time></trkpt><trkpt lat="43.830349" lon="12.7943527"><ele>261.0</ele><time>2026-04-18T15:42:38.51Z</time></trkpt><trkpt lat="43.8302694" lon="12.7944875"><ele>261.0</ele><time>2026-04-18T15:42:39.51Z</time></trkpt><trkpt lat="43.8301949" lon="12.7946264"><ele>261.0</ele><time>2026-04-18T15:42:40.51Z</time></trkpt><trkpt lat="43.8301269" lon="12.7947689"><ele>261.0</ele><time>2026-04-18T15:42:41.51Z</time></trkpt><trkpt lat="43.8300619" lon="12.794907"><ele>261.0</ele><time>2026-04-18T15:42:42.51Z</time></trkpt><trkpt lat="43.8299982" lon="12.7950389"><ele>259.8</ele><time>2026-04-18T15:42:43.517Z</time></trkpt><trkpt lat="43.8299332" lon="12.7951529"><ele>258.6</ele><time>2026-04-18T15:42:44.523Z</time></trkpt><trkpt lat="43.8298536" lon="12.7952551"><ele>257.4</ele><time>2026-04-18T15:42:45.51Z</time></trkpt><trkpt lat="43.8297663" lon="12.795356"><ele>256.2</ele><time>2026-04-18T15:42:46.514Z</time></trkpt><trkpt lat="43.8296747" lon="12.7954667"><ele>255.0</ele><time>2026-04-18T15:42:47.516Z</time></trkpt><trkpt lat="43.8295852" lon="12.7955887"><ele>254.75</ele><time>2026-04-18T15:42:48.512Z</time></trkpt><trkpt lat="43.829497" lon="12.7957178"><ele>254.5</ele><time>2026-04-18T15:42:49.51Z</time></trkpt><trkpt lat="43.8294113" lon="12.7958591"><ele>254.25</ele><time>2026-04-18T15:42:50.513Z</time></trkpt><trkpt lat="43.8293293" lon="12.7960025"><ele>254.0</ele><time>2026-04-18T15:42:51.51Z</time></trkpt><trkpt lat="43.8292523" lon="12.79614"><ele>254.0</ele><time>2026-04-18T15:42:52.511Z</time></trkpt><trkpt lat="43.8291703" lon="12.7962739"><ele>254.0</ele><time>2026-04-18T15:42:53.51Z</time></trkpt><trkpt lat="43.8290787" lon="12.7964031"><ele>254.0</ele><time>2026-04-18T15:42:54.509Z</time></trkpt><trkpt lat="43.8289967" lon="12.796534"><ele>254.0</ele><time>2026-04-18T15:42:55.512Z</time></trkpt><trkpt lat="43.8289171" lon="12.7966629"><ele>254.0</ele><time>2026-04-18T15:42:56.514Z</time></trkpt><trkpt lat="43.8288384" lon="12.7967796"><ele>253.99999999999997</ele><time>2026-04-18T15:42:57.51Z</time></trkpt><trkpt lat="43.8287535" lon="12.79687"><ele>253.99999999999997</ele><time>2026-04-18T15:42:58.51Z</time></trkpt><trkpt lat="43.8286639" lon="12.7969361"><ele>254.0</ele><time>2026-04-18T15:42:59.51Z</time></trkpt><trkpt lat="43.8285638" lon="12.7969802"><ele>254.0</ele><time>2026-04-18T15:43:00.509Z</time></trkpt><trkpt lat="43.8284608" lon="12.797008"><ele>254.5</ele><time>2026-04-18T15:43:01.509Z</time></trkpt><trkpt lat="43.8283474" lon="12.7970271"><ele>255.0</ele><time>2026-04-18T15:43:02.511Z</time></trkpt><trkpt lat="43.8282294" lon="12.7970583"><ele>255.5</ele><time>2026-04-18T15:43:03.51Z</time></trkpt><trkpt lat="43.8281133" lon="12.7971101"><ele>256.0</ele><time>2026-04-18T15:43:04.51Z</time></trkpt><trkpt lat="43.8280048" lon="12.797184"><ele>256.0</ele><time>2026-04-18T15:43:05.511Z</time></trkpt><trkpt lat="43.8279085" lon="12.7972817"><ele>256.0</ele><time>2026-04-18T15:43:06.51Z</time></trkpt><trkpt lat="43.8278197" lon="12.797391"><ele>256.0</ele><time>2026-04-18T15:43:07.51Z</time></trkpt><trkpt lat="43.8277336" lon="12.7975108"><ele>256.0</ele><time>2026-04-18T15:43:08.511Z</time></trkpt><trkpt lat="43.827653" lon="12.7976343"><ele>258.0</ele><time>2026-04-18T15:43:09.509Z</time></trkpt><trkpt lat="43.8275792" lon="12.7977672"><ele>260.0</ele><time>2026-04-18T15:43:10.51Z</time></trkpt><trkpt lat="43.8275083" lon="12.7979023"><ele>262.0</ele><time>2026-04-18T15:43:11.509Z</time></trkpt><trkpt lat="43.8274421" lon="12.7980421"><ele>264.0</ele><time>2026-04-18T15:43:12.509Z</time></trkpt><trkpt lat="43.8273777" lon="12.7981811"><ele>264.0</ele><time>2026-04-18T15:43:13.509Z</time></trkpt><trkpt lat="43.8273126" lon="12.7983149"><ele>264.0</ele><time>2026-04-18T15:43:14.511Z</time></trkpt><trkpt lat="43.8272458" lon="12.7984484"><ele>264.0</ele><time>2026-04-18T15:43:15.51Z</time></trkpt><trkpt lat="43.8271767" lon="12.7985826"><ele>264.0</ele><time>2026-04-18T15:43:16.51Z</time></trkpt><trkpt lat="43.8271138" lon="12.7987176"><ele>264.0</ele><time>2026-04-18T15:43:17.509Z</time></trkpt><trkpt lat="43.8270649" lon="12.7988597"><ele>264.0</ele><time>2026-04-18T15:43:18.51Z</time></trkpt><trkpt lat="43.8270313" lon="12.7990095"><ele>264.0</ele><time>2026-04-18T15:43:19.51Z</time></trkpt><trkpt lat="43.8270028" lon="12.7991614"><ele>264.0</ele><time>2026-04-18T15:43:20.51Z</time></trkpt><trkpt lat="43.8269776" lon="12.7993108"><ele>264.8</ele><time>2026-04-18T15:43:21.509Z</time></trkpt><trkpt lat="43.826958" lon="12.799464"><ele>265.59999999999997</ele><time>2026-04-18T15:43:22.51Z</time></trkpt><trkpt lat="43.8269444" lon="12.7996158"><ele>266.4</ele><time>2026-04-18T15:43:23.509Z</time></trkpt><trkpt lat="43.8269337" lon="12.7997659"><ele>267.2</ele><time>2026-04-18T15:43:24.51Z</time></trkpt><trkpt lat="43.8269269" lon="12.7999144"><ele>268.0</ele><time>2026-04-18T15:43:25.51Z</time></trkpt><trkpt lat="43.8269226" lon="12.8000601"><ele>269.6</ele><time>2026-04-18T15:43:26.509Z</time></trkpt><trkpt lat="43.8269316" lon="12.8001975"><ele>271.20000000000005</ele><time>2026-04-18T15:43:27.51Z</time></trkpt><trkpt lat="43.8269551" lon="12.8003356"><ele>272.8</ele><time>2026-04-18T15:43:28.509Z</time></trkpt><trkpt lat="43.826995" lon="12.8004746"><ele>274.40000000000003</ele><time>2026-04-18T15:43:29.509Z</time></trkpt><trkpt lat="43.8270465" lon="12.8006157"><ele>276.0</ele><time>2026-04-18T15:43:30.509Z</time></trkpt><trkpt lat="43.8271056" lon="12.8007525"><ele>276.0</ele><time>2026-04-18T15:43:31.509Z</time></trkpt><trkpt lat="43.8271671" lon="12.8008886"><ele>276.0</ele><time>2026-04-18T15:43:32.509Z</time></trkpt><trkpt lat="43.8272283" lon="12.8010195"><ele>276.0</ele><time>2026-04-18T15:43:33.511Z</time></trkpt><trkpt lat="43.8272948" lon="12.8011443"><ele>276.0</ele><time>2026-04-18T15:43:34.51Z</time></trkpt><trkpt lat="43.8273637" lon="12.8012631"><ele>277.2</ele><time>2026-04-18T15:43:35.51Z</time></trkpt><trkpt lat="43.827435" lon="12.8013796"><ele>278.40000000000003</ele><time>2026-04-18T15:43:36.51Z</time></trkpt><trkpt lat="43.8275085" lon="12.8014971"><ele>279.6</ele><time>2026-04-18T15:43:37.51Z</time></trkpt><trkpt lat="43.8275831" lon="12.8016116"><ele>280.8</ele><time>2026-04-18T15:43:38.51Z</time></trkpt><trkpt lat="43.8276558" lon="12.8017241"><ele>282.0</ele><time>2026-04-18T15:43:39.511Z</time></trkpt><trkpt lat="43.82774" lon="12.8018207"><ele>285.4</ele><time>2026-04-18T15:43:40.511Z</time></trkpt><trkpt lat="43.8278369" lon="12.8018928"><ele>288.79999999999995</ele><time>2026-04-18T15:43:41.512Z</time></trkpt><trkpt lat="43.8279412" lon="12.8019441"><ele>292.2</ele><time>2026-04-18T15:43:42.509Z</time></trkpt><trkpt lat="43.8280475" lon="12.8019906"><ele>295.59999999999997</ele><time>2026-04-18T15:43:43.512Z</time></trkpt><trkpt lat="43.8281527" lon="12.8020328"><ele>299.0</ele><time>2026-04-18T15:43:44.511Z</time></trkpt><trkpt lat="43.8282552" lon="12.8020767"><ele>299.0</ele><time>2026-04-18T15:43:45.509Z</time></trkpt><trkpt lat="43.8283484" lon="12.8021217"><ele>299.0</ele><time>2026-04-18T15:43:46.508Z</time></trkpt><trkpt lat="43.8284299" lon="12.8021725"><ele>299.0</ele><time>2026-04-18T15:43:47.51Z</time></trkpt><trkpt lat="43.8285029" lon="12.8022404"><ele>299.0</ele><time>2026-04-18T15:43:48.511Z</time></trkpt><trkpt lat="43.8285586" lon="12.8023366"><ele>299.0</ele><time>2026-04-18T15:43:49.512Z</time></trkpt><trkpt lat="43.8285925" lon="12.8024564"><ele>297.59999999999997</ele><time>2026-04-18T15:43:50.514Z</time></trkpt><trkpt lat="43.8285888" lon="12.8025858"><ele>296.2</ele><time>2026-04-18T15:43:51.51Z</time></trkpt><trkpt lat="43.8285426" lon="12.8027058"><ele>294.79999999999995</ele><time>2026-04-18T15:43:52.511Z</time></trkpt><trkpt lat="43.8284596" lon="12.8028014"><ele>293.4</ele><time>2026-04-18T15:43:53.51Z</time></trkpt><trkpt lat="43.828375" lon="12.8028928"><ele>292.0</ele><time>2026-04-18T15:43:54.51Z</time></trkpt><trkpt lat="43.8283002" lon="12.8030113"><ele>292.0</ele><time>2026-04-18T15:43:55.513Z</time></trkpt><trkpt lat="43.8282364" lon="12.8031427"><ele>292.0</ele><time>2026-04-18T15:43:56.517Z</time></trkpt><trkpt lat="43.8281685" lon="12.8032731"><ele>292.0</ele><time>2026-04-18T15:43:57.51Z</time></trkpt><trkpt lat="43.82808" lon="12.803368"><ele>292.0</ele><time>2026-04-18T15:43:58.511Z</time></trkpt><trkpt lat="43.8279655" lon="12.803407"><ele>292.0</ele><time>2026-04-18T15:43:59.513Z</time></trkpt><trkpt lat="43.82784" lon="12.8033967"><ele>292.0</ele><time>2026-04-18T15:44:00.513Z</time></trkpt><trkpt lat="43.8277142" lon="12.8033623"><ele>292.0</ele><time>2026-04-18T15:44:01.509Z</time></trkpt><trkpt lat="43.8275965" lon="12.8033089"><ele>292.0</ele><time>2026-04-18T15:44:02.51Z</time></trkpt><trkpt lat="43.8274794" lon="12.8032379"><ele>293.2</ele><time>2026-04-18T15:44:03.509Z</time></trkpt><trkpt lat="43.8273671" lon="12.8031597"><ele>294.4</ele><time>2026-04-18T15:44:04.509Z</time></trkpt><trkpt lat="43.8272656" lon="12.8030825"><ele>295.6</ele><time>2026-04-18T15:44:05.509Z</time></trkpt><trkpt lat="43.8271686" lon="12.8030115"><ele>296.8</ele><time>2026-04-18T15:44:06.51Z</time></trkpt><trkpt lat="43.8270805" lon="12.8029619"><ele>298.0</ele><time>2026-04-18T15:44:07.51Z</time></trkpt><trkpt lat="43.8269971" lon="12.8029165"><ele>298.0</ele><time>2026-04-18T15:44:08.509Z</time></trkpt><trkpt lat="43.8269129" lon="12.8028784"><ele>298.0</ele><time>2026-04-18T15:44:09.509Z</time></trkpt><trkpt lat="43.8268281" lon="12.8028558"><ele>298.0</ele><time>2026-04-18T15:44:10.509Z</time></trkpt><trkpt lat="43.8267384" lon="12.8028594"><ele>298.0</ele><time>2026-04-18T15:44:11.509Z</time></trkpt><trkpt lat="43.82665" lon="12.8028763"><ele>298.0</ele><time>2026-04-18T15:44:12.509Z</time></trkpt><trkpt lat="43.8265647" lon="12.8029263"><ele>298.0</ele><time>2026-04-18T15:44:13.509Z</time></trkpt><trkpt lat="43.8264825" lon="12.8029838"><ele>298.2</ele><time>2026-04-18T15:44:14.51Z</time></trkpt><trkpt lat="43.8263999" lon="12.8030437"><ele>298.4</ele><time>2026-04-18T15:44:15.509Z</time></trkpt><trkpt lat="43.826317" lon="12.8031034"><ele>298.59999999999997</ele><time>2026-04-18T15:44:16.51Z</time></trkpt><trkpt lat="43.8262349" lon="12.8031566"><ele>298.8</ele><time>2026-04-18T15:44:17.51Z</time></trkpt><trkpt lat="43.8261542" lon="12.8032065"><ele>299.0</ele><time>2026-04-18T15:44:18.509Z</time></trkpt><trkpt lat="43.8260724" lon="12.8032571"><ele>299.0</ele><time>2026-04-18T15:44:19.509Z</time></trkpt><trkpt lat="43.8259839" lon="12.8032997"><ele>299.0</ele><time>2026-04-18T15:44:20.512Z</time></trkpt><trkpt lat="43.8258919" lon="12.803329"><ele>299.0</ele><time>2026-04-18T15:44:21.509Z</time></trkpt><trkpt lat="43.8258065" lon="12.8033469"><ele>299.0</ele><time>2026-04-18T15:44:22.511Z</time></trkpt><trkpt lat="43.8257319" lon="12.8033555"><ele>299.0</ele><time>2026-04-18T15:44:23.509Z</time></trkpt><trkpt lat="43.8256585" lon="12.8033628"><ele>299.0</ele><time>2026-04-18T15:44:24.509Z</time></trkpt><trkpt lat="43.825589" lon="12.8033661"><ele>300.59999999999997</ele><time>2026-04-18T15:44:25.509Z</time></trkpt><trkpt lat="43.8255244" lon="12.8033702"><ele>302.2</ele><time>2026-04-18T15:44:26.509Z</time></trkpt><trkpt lat="43.8254402" lon="12.8033307"><ele>303.79999999999995</ele><time>2026-04-18T15:44:28.51Z</time></trkpt><trkpt lat="43.8254048" lon="12.8032309"><ele>305.4</ele><time>2026-04-18T15:44:30.509Z</time></trkpt><trkpt lat="43.8254128" lon="12.8030933"><ele>307.0</ele><time>2026-04-18T15:44:32.51Z</time></trkpt><trkpt lat="43.8253758" lon="12.8029341"><ele>307.0</ele><time>2026-04-18T15:44:34.509Z</time></trkpt><trkpt lat="43.8253002" lon="12.8028024"><ele>307.0</ele><time>2026-04-18T15:44:36.509Z</time></trkpt><trkpt lat="43.8252023" lon="12.8027173"><ele>307.0</ele><time>2026-04-18T15:44:38.51Z</time></trkpt><trkpt lat="43.8251401" lon="12.8026907"><ele>307.0</ele><time>2026-04-18T15:44:39.509Z</time></trkpt><trkpt lat="43.825072" lon="12.8026629"><ele>307.0</ele><time>2026-04-18T15:44:40.509Z</time></trkpt><trkpt lat="43.8250091" lon="12.8026115"><ele>307.0</ele><time>2026-04-18T15:44:41.51Z</time></trkpt><trkpt lat="43.8249392" lon="12.8025363"><ele>308.2</ele><time>2026-04-18T15:44:42.509Z</time></trkpt><trkpt lat="43.8248472" lon="12.8024501"><ele>309.4</ele><time>2026-04-18T15:44:43.511Z</time></trkpt><trkpt lat="43.8247578" lon="12.8023724"><ele>310.6</ele><time>2026-04-18T15:44:44.511Z</time></trkpt><trkpt lat="43.8246666" lon="12.8023133"><ele>311.8</ele><time>2026-04-18T15:44:45.508Z</time></trkpt><trkpt lat="43.8245681" lon="12.8022789"><ele>313.0</ele><time>2026-04-18T15:44:46.509Z</time></trkpt><trkpt lat="43.8244546" lon="12.8022996"><ele>313.0</ele><time>2026-04-18T15:44:47.508Z</time></trkpt><trkpt lat="43.8243328" lon="12.8023861"><ele>313.0</ele><time>2026-04-18T15:44:48.509Z</time></trkpt><trkpt lat="43.8242131" lon="12.8025137"><ele>313.0</ele><time>2026-04-18T15:44:49.509Z</time></trkpt><trkpt lat="43.8240892" lon="12.8026918"><ele>315.0</ele><time>2026-04-18T15:44:50.511Z</time></trkpt><trkpt lat="43.8239721" lon="12.8028565"><ele>317.0</ele><time>2026-04-18T15:44:51.51Z</time></trkpt><trkpt lat="43.8238639" lon="12.8029868"><ele>319.0</ele><time>2026-04-18T15:44:52.509Z</time></trkpt><trkpt lat="43.8237664" lon="12.8030907"><ele>321.0</ele><time>2026-04-18T15:44:53.509Z</time></trkpt><trkpt lat="43.8236687" lon="12.8031451"><ele>321.0</ele><time>2026-04-18T15:44:54.509Z</time></trkpt><trkpt lat="43.8235664" lon="12.803162"><ele>321.0</ele><time>2026-04-18T15:44:55.51Z</time></trkpt><trkpt lat="43.8234575" lon="12.8031477"><ele>321.0</ele><time>2026-04-18T15:44:56.509Z</time></trkpt><trkpt lat="43.8233362" lon="12.803103"><ele>321.0</ele><time>2026-04-18T15:44:57.511Z</time></trkpt><trkpt lat="43.8231966" lon="12.8029994"><ele>321.75</ele><time>2026-04-18T15:44:58.508Z</time></trkpt><trkpt lat="43.8230609" lon="12.8028653"><ele>322.5</ele><time>2026-04-18T15:44:59.508Z</time></trkpt><trkpt lat="43.8229415" lon="12.8027484"><ele>323.25</ele><time>2026-04-18T15:45:00.508Z</time></trkpt><trkpt lat="43.8228361" lon="12.8026579"><ele>324.0</ele><time>2026-04-18T15:45:01.509Z</time></trkpt><trkpt lat="43.8227467" lon="12.8025908"><ele>324.0</ele><time>2026-04-18T15:45:02.51Z</time></trkpt><trkpt lat="43.8226739" lon="12.802547"><ele>324.0</ele><time>2026-04-18T15:45:03.51Z</time></trkpt><trkpt lat="43.8226135" lon="12.8025716"><ele>324.0</ele><time>2026-04-18T15:45:04.51Z</time></trkpt><trkpt lat="43.8225787" lon="12.8026506"><ele>324.0</ele><time>2026-04-18T15:45:05.508Z</time></trkpt><trkpt lat="43.8225741" lon="12.802752"><ele>324.0</ele><time>2026-04-18T15:45:06.508Z</time></trkpt><trkpt lat="43.8226094" lon="12.8028678"><ele>324.0</ele><time>2026-04-18T15:45:07.512Z</time></trkpt><trkpt lat="43.822668" lon="12.802997"><ele>327.0</ele><time>2026-04-18T15:45:08.509Z</time></trkpt><trkpt lat="43.8227507" lon="12.803163"><ele>330.0</ele><time>2026-04-18T15:45:09.509Z</time></trkpt><trkpt lat="43.8228164" lon="12.8033386"><ele>333.0</ele><time>2026-04-18T15:45:10.507Z</time></trkpt><trkpt lat="43.822851" lon="12.803523"><ele>336.0</ele><time>2026-04-18T15:45:11.508Z</time></trkpt><trkpt lat="43.8228715" lon="12.8037155"><ele>337.0</ele><time>2026-04-18T15:45:12.508Z</time></trkpt><trkpt lat="43.822887" lon="12.8038857"><ele>338.0</ele><time>2026-04-18T15:45:13.507Z</time></trkpt><trkpt lat="43.8228914" lon="12.8040453"><ele>339.0</ele><time>2026-04-18T15:45:14.509Z</time></trkpt><trkpt lat="43.8228868" lon="12.8042029"><ele>340.0</ele><time>2026-04-18T15:45:15.508Z</time></trkpt><trkpt lat="43.8228837" lon="12.8043509"><ele>341.16666666666663</ele><time>2026-04-18T15:45:16.511Z</time></trkpt><trkpt lat="43.8228821" lon="12.804492"><ele>342.3333333333333</ele><time>2026-04-18T15:45:17.509Z</time></trkpt><trkpt lat="43.8228796" lon="12.8046145"><ele>343.5</ele><time>2026-04-18T15:45:18.51Z</time></trkpt><trkpt lat="43.8228643" lon="12.8047168"><ele>344.6666666666667</ele><time>2026-04-18T15:45:19.509Z</time></trkpt><trkpt lat="43.8228277" lon="12.8047902"><ele>345.83333333333337</ele><time>2026-04-18T15:45:20.509Z</time></trkpt><trkpt lat="43.8227162" lon="12.8047708"><ele>347.0</ele><time>2026-04-18T15:45:22.508Z</time></trkpt><trkpt lat="43.8226701" lon="12.8046556"><ele>347.75</ele><time>2026-04-18T15:45:23.509Z</time></trkpt><trkpt lat="43.8226226" lon="12.8044784"><ele>348.5</ele><time>2026-04-18T15:45:24.509Z</time></trkpt><trkpt lat="43.8225534" lon="12.8042873"><ele>349.25</ele><time>2026-04-18T15:45:25.508Z</time></trkpt><trkpt lat="43.8224567" lon="12.8041194"><ele>350.0</ele><time>2026-04-18T15:45:26.508Z</time></trkpt><trkpt lat="43.8223465" lon="12.8039823"><ele>352.75</ele><time>2026-04-18T15:45:27.508Z</time></trkpt><trkpt lat="43.8222314" lon="12.8038572"><ele>355.5</ele><time>2026-04-18T15:45:28.511Z</time></trkpt><trkpt lat="43.8221042" lon="12.8037943"><ele>358.25</ele><time>2026-04-18T15:45:29.508Z</time></trkpt><trkpt lat="43.821959" lon="12.8037837"><ele>361.0</ele><time>2026-04-18T15:45:30.509Z</time></trkpt><trkpt lat="43.8218041" lon="12.8038028"><ele>361.66666666666663</ele><time>2026-04-18T15:45:31.507Z</time></trkpt><trkpt lat="43.8216468" lon="12.8038643"><ele>362.3333333333333</ele><time>2026-04-18T15:45:32.513Z</time></trkpt><trkpt lat="43.8214997" lon="12.8039364"><ele>363.0</ele><time>2026-04-18T15:45:33.508Z</time></trkpt><trkpt lat="43.821362" lon="12.8039986"><ele>363.0</ele><time>2026-04-18T15:45:34.508Z</time></trkpt><trkpt lat="43.8212315" lon="12.8040415"><ele>363.0</ele><time>2026-04-18T15:45:35.508Z</time></trkpt><trkpt lat="43.8211027" lon="12.8040663"><ele>363.0</ele><time>2026-04-18T15:45:36.508Z</time></trkpt><trkpt lat="43.8209766" lon="12.804067"><ele>363.0</ele><time>2026-04-18T15:45:37.508Z</time></trkpt><trkpt lat="43.8208491" lon="12.8040719"><ele>364.0</ele><time>2026-04-18T15:45:38.508Z</time></trkpt><trkpt lat="43.820728" lon="12.8040783"><ele>365.0</ele><time>2026-04-18T15:45:39.508Z</time></trkpt><trkpt lat="43.8206166" lon="12.8040901"><ele>366.0</ele><time>2026-04-18T15:45:40.508Z</time></trkpt><trkpt lat="43.8205169" lon="12.8041059"><ele>367.0</ele><time>2026-04-18T15:45:41.508Z</time></trkpt><trkpt lat="43.8204207" lon="12.8041249"><ele>368.0</ele><time>2026-04-18T15:45:42.508Z</time></trkpt><trkpt lat="43.820334" lon="12.8041413"><ele>368.0</ele><time>2026-04-18T15:45:43.508Z</time></trkpt><trkpt lat="43.8202511" lon="12.8041516"><ele>368.0</ele><time>2026-04-18T15:45:44.509Z</time></trkpt><trkpt lat="43.820159" lon="12.8041704"><ele>368.0</ele><time>2026-04-18T15:45:45.508Z</time></trkpt><trkpt lat="43.8200678" lon="12.8041918"><ele>368.0</ele><time>2026-04-18T15:45:46.508Z</time></trkpt><trkpt lat="43.819974" lon="12.8042159"><ele>368.0</ele><time>2026-04-18T15:45:47.508Z</time></trkpt><trkpt lat="43.8198822" lon="12.8042467"><ele>367.59999999999997</ele><time>2026-04-18T15:45:48.509Z</time></trkpt><trkpt lat="43.8197942" lon="12.8042957"><ele>367.2</ele><time>2026-04-18T15:45:49.508Z</time></trkpt><trkpt lat="43.8197048" lon="12.8043504"><ele>366.8</ele><time>2026-04-18T15:45:50.508Z</time></trkpt><trkpt lat="43.8196164" lon="12.804411"><ele>366.4</ele><time>2026-04-18T15:45:51.508Z</time></trkpt><trkpt lat="43.8195294" lon="12.8044812"><ele>366.0</ele><time>2026-04-18T15:45:52.508Z</time></trkpt><trkpt lat="43.8194428" lon="12.8045512"><ele>366.4</ele><time>2026-04-18T15:45:53.509Z</time></trkpt><trkpt lat="43.8193594" lon="12.8046209"><ele>366.8</ele><time>2026-04-18T15:45:54.508Z</time></trkpt><trkpt lat="43.8192792" lon="12.8046939"><ele>367.2</ele><time>2026-04-18T15:45:55.508Z</time></trkpt><trkpt lat="43.8192036" lon="12.8047685"><ele>367.59999999999997</ele><time>2026-04-18T15:45:56.508Z</time></trkpt><trkpt lat="43.8191306" lon="12.8048417"><ele>368.0</ele><time>2026-04-18T15:45:57.509Z</time></trkpt><trkpt lat="43.8190582" lon="12.8049117"><ele>368.0</ele><time>2026-04-18T15:45:58.509Z</time></trkpt><trkpt lat="43.8189894" lon="12.8049772"><ele>368.0</ele><time>2026-04-18T15:45:59.509Z</time></trkpt><trkpt lat="43.81892" lon="12.8050429"><ele>368.0</ele><time>2026-04-18T15:46:00.51Z</time></trkpt><trkpt lat="43.8188539" lon="12.8051028"><ele>368.0</ele><time>2026-04-18T15:46:01.51Z</time></trkpt><trkpt lat="43.8187899" lon="12.8051576"><ele>368.0</ele><time>2026-04-18T15:46:02.512Z</time></trkpt><trkpt lat="43.8187214" lon="12.8052147"><ele>368.0</ele><time>2026-04-18T15:46:03.61Z</time></trkpt><trkpt lat="43.8185934" lon="12.8053318"><ele>368.1666666666667</ele><time>2026-04-18T15:46:05.513Z</time></trkpt><trkpt lat="43.8185367" lon="12.8054046"><ele>368.33333333333337</ele><time>2026-04-18T15:46:06.513Z</time></trkpt><trkpt lat="43.8184893" lon="12.8054902"><ele>368.5</ele><time>2026-04-18T15:46:07.508Z</time></trkpt><trkpt lat="43.818457" lon="12.8055792"><ele>368.6666666666667</ele><time>2026-04-18T15:46:08.51Z</time></trkpt><trkpt lat="43.8184409" lon="12.8056777"><ele>368.8333333333333</ele><time>2026-04-18T15:46:09.508Z</time></trkpt><trkpt lat="43.8184386" lon="12.8057879"><ele>369.0</ele><time>2026-04-18T15:46:10.507Z</time></trkpt><trkpt lat="43.8184386" lon="12.8059029"><ele>368.6666666666667</ele><time>2026-04-18T15:46:11.508Z</time></trkpt><trkpt lat="43.8184485" lon="12.8060196"><ele>368.3333333333333</ele><time>2026-04-18T15:46:12.508Z</time></trkpt><trkpt lat="43.8184637" lon="12.8061298"><ele>368.0</ele><time>2026-04-18T15:46:13.508Z</time></trkpt><trkpt lat="43.8184806" lon="12.8062378"><ele>367.66666666666663</ele><time>2026-04-18T15:46:14.508Z</time></trkpt><trkpt lat="43.8185065" lon="12.8063514"><ele>367.3333333333333</ele><time>2026-04-18T15:46:15.508Z</time></trkpt><trkpt lat="43.8185357" lon="12.8064623"><ele>367.0</ele><time>2026-04-18T15:46:16.508Z</time></trkpt><trkpt lat="43.8185719" lon="12.8065693"><ele>367.0</ele><time>2026-04-18T15:46:17.508Z</time></trkpt><trkpt lat="43.8186108" lon="12.8066873"><ele>367.0</ele><time>2026-04-18T15:46:18.508Z</time></trkpt><trkpt lat="43.8186473" lon="12.8068155"><ele>367.0</ele><time>2026-04-18T15:46:19.508Z</time></trkpt><trkpt lat="43.8186781" lon="12.8069285"><ele>367.0</ele><time>2026-04-18T15:46:20.509Z</time></trkpt><trkpt lat="43.8187105" lon="12.807033"><ele>367.0</ele><time>2026-04-18T15:46:21.508Z</time></trkpt><trkpt lat="43.8187385" lon="12.8071337"><ele>367.0</ele><time>2026-04-18T15:46:22.511Z</time></trkpt><trkpt lat="43.8187654" lon="12.8072298"><ele>367.8333333333333</ele><time>2026-04-18T15:46:23.508Z</time></trkpt><trkpt lat="43.8187934" lon="12.8073262"><ele>368.66666666666663</ele><time>2026-04-18T15:46:24.508Z</time></trkpt><trkpt lat="43.8188229" lon="12.807424"><ele>369.5</ele><time>2026-04-18T15:46:25.507Z</time></trkpt><trkpt lat="43.8188532" lon="12.8075145"><ele>370.3333333333333</ele><time>2026-04-18T15:46:26.508Z</time></trkpt><trkpt lat="43.8188846" lon="12.8076007"><ele>371.1666666666667</ele><time>2026-04-18T15:46:27.508Z</time></trkpt><trkpt lat="43.818938" lon="12.807758"><ele>372.0</ele><time>2026-04-18T15:46:29.511Z</time></trkpt><trkpt lat="43.8189613" lon="12.8078526"><ele>372.8333333333333</ele><time>2026-04-18T15:46:30.508Z</time></trkpt><trkpt lat="43.8189852" lon="12.8079495"><ele>373.6666666666667</ele><time>2026-04-18T15:46:31.508Z</time></trkpt><trkpt lat="43.8190087" lon="12.8080463"><ele>374.5</ele><time>2026-04-18T15:46:32.508Z</time></trkpt><trkpt lat="43.8190319" lon="12.8081505"><ele>375.33333333333337</ele><time>2026-04-18T15:46:33.508Z</time></trkpt><trkpt lat="43.819058" lon="12.8082526"><ele>376.1666666666667</ele><time>2026-04-18T15:46:34.507Z</time></trkpt><trkpt lat="43.8190795" lon="12.8083503"><ele>377.0</ele><time>2026-04-18T15:46:35.51Z</time></trkpt><trkpt lat="43.8191025" lon="12.8084462"><ele>376.1428571428571</ele><time>2026-04-18T15:46:36.509Z</time></trkpt><trkpt lat="43.8191243" lon="12.8085414"><ele>375.2857142857143</ele><time>2026-04-18T15:46:37.508Z</time></trkpt><trkpt lat="43.8191456" lon="12.8086327"><ele>374.42857142857144</ele><time>2026-04-18T15:46:38.509Z</time></trkpt><trkpt lat="43.8191635" lon="12.8087268"><ele>373.57142857142856</ele><time>2026-04-18T15:46:39.507Z</time></trkpt><trkpt lat="43.8191861" lon="12.8088255"><ele>372.7142857142857</ele><time>2026-04-18T15:46:40.514Z</time></trkpt><trkpt lat="43.8192097" lon="12.8089201"><ele>371.85714285714283</ele><time>2026-04-18T15:46:41.508Z</time></trkpt><trkpt lat="43.8192266" lon="12.8090057"><ele>371.0</ele><time>2026-04-18T15:46:42.508Z</time></trkpt><trkpt lat="43.8192035" lon="12.8091398"><ele>371.0</ele><time>2026-04-18T15:46:44.512Z</time></trkpt><trkpt lat="43.8190885" lon="12.8091383"><ele>371.0</ele><time>2026-04-18T15:46:46.514Z</time></trkpt><trkpt lat="43.8190327" lon="12.809077"><ele>371.0</ele><time>2026-04-18T15:46:47.532Z</time></trkpt><trkpt lat="43.8189854" lon="12.8089845"><ele>371.0</ele><time>2026-04-18T15:46:48.508Z</time></trkpt><trkpt lat="43.8189416" lon="12.8088792"><ele>371.0</ele><time>2026-04-18T15:46:49.509Z</time></trkpt><trkpt lat="43.8189021" lon="12.8087847"><ele>371.0</ele><time>2026-04-18T15:46:50.52Z</time></trkpt><trkpt lat="43.8188617" lon="12.8086985"><ele>371.0</ele><time>2026-04-18T15:46:51.509Z</time></trkpt><trkpt lat="43.8188188" lon="12.8086067"><ele>371.0</ele><time>2026-04-18T15:46:52.51Z</time></trkpt><trkpt lat="43.8187715" lon="12.8085166"><ele>371.0</ele><time>2026-04-18T15:46:53.509Z</time></trkpt><trkpt lat="43.818725" lon="12.808419"><ele>371.0</ele><time>2026-04-18T15:46:54.508Z</time></trkpt><trkpt lat="43.818674" lon="12.8083293"><ele>371.0</ele><time>2026-04-18T15:46:55.513Z</time></trkpt><trkpt lat="43.8186253" lon="12.8082424"><ele>371.0</ele><time>2026-04-18T15:46:56.509Z</time></trkpt><trkpt lat="43.8185793" lon="12.8081542"><ele>372.0</ele><time>2026-04-18T15:46:57.51Z</time></trkpt><trkpt lat="43.8185327" lon="12.808073"><ele>373.0</ele><time>2026-04-18T15:46:58.511Z</time></trkpt><trkpt lat="43.8184879" lon="12.807999"><ele>374.0</ele><time>2026-04-18T15:46:59.508Z</time></trkpt><trkpt lat="43.8184419" lon="12.8079372"><ele>375.0</ele><time>2026-04-18T15:47:00.508Z</time></trkpt><trkpt lat="43.8183309" lon="12.8078765"><ele>376.0</ele><time>2026-04-18T15:47:02.509Z</time></trkpt><trkpt lat="43.8182701" lon="12.8078999"><ele>377.0</ele><time>2026-04-18T15:47:03.508Z</time></trkpt><trkpt lat="43.8182049" lon="12.8080352"><ele>374.20000000000005</ele><time>2026-04-18T15:47:05.55Z</time></trkpt><trkpt lat="43.818223" lon="12.8081346"><ele>371.4</ele><time>2026-04-18T15:47:06.508Z</time></trkpt><trkpt lat="43.818275" lon="12.8082508"><ele>368.6</ele><time>2026-04-18T15:47:07.514Z</time></trkpt><trkpt lat="43.8183471" lon="12.8083566"><ele>365.79999999999995</ele><time>2026-04-18T15:47:08.509Z</time></trkpt><trkpt lat="43.8184058" lon="12.8084544"><ele>363.0</ele><time>2026-04-18T15:47:09.507Z</time></trkpt><trkpt lat="43.8184571" lon="12.8085513"><ele>364.3333333333333</ele><time>2026-04-18T15:47:10.508Z</time></trkpt><trkpt lat="43.8184933" lon="12.8086502"><ele>365.6666666666667</ele><time>2026-04-18T15:47:11.508Z</time></trkpt><trkpt lat="43.8185169" lon="12.8087485"><ele>367.0</ele><time>2026-04-18T15:47:12.509Z</time></trkpt><trkpt lat="43.8185331" lon="12.808851"><ele>368.33333333333337</ele><time>2026-04-18T15:47:13.509Z</time></trkpt><trkpt lat="43.818543" lon="12.8089549"><ele>369.6666666666667</ele><time>2026-04-18T15:47:14.51Z</time></trkpt><trkpt lat="43.818552" lon="12.8090574"><ele>371.0</ele><time>2026-04-18T15:47:15.508Z</time></trkpt><trkpt lat="43.8185623" lon="12.8091568"><ele>371.0</ele><time>2026-04-18T15:47:16.507Z</time></trkpt><trkpt lat="43.8185694" lon="12.8092563"><ele>371.0</ele><time>2026-04-18T15:47:17.509Z</time></trkpt><trkpt lat="43.8185768" lon="12.8093556"><ele>371.0</ele><time>2026-04-18T15:47:18.509Z</time></trkpt><trkpt lat="43.8185892" lon="12.8094554"><ele>371.0</ele><time>2026-04-18T15:47:19.509Z</time></trkpt><trkpt lat="43.8185932" lon="12.8095666"><ele>371.0</ele><time>2026-04-18T15:47:20.512Z</time></trkpt><trkpt lat="43.8185909" lon="12.8096714"><ele>371.0</ele><time>2026-04-18T15:47:21.51Z</time></trkpt><trkpt lat="43.8185863" lon="12.8097742"><ele>371.0</ele><time>2026-04-18T15:47:22.507Z</time></trkpt><trkpt lat="43.8185693" lon="12.8098739"><ele>368.33333333333337</ele><time>2026-04-18T15:47:23.509Z</time></trkpt><trkpt lat="43.8185347" lon="12.8099703"><ele>365.6666666666667</ele><time>2026-04-18T15:47:24.51Z</time></trkpt><trkpt lat="43.8184837" lon="12.8100557"><ele>363.0</ele><time>2026-04-18T15:47:25.507Z</time></trkpt><trkpt lat="43.8184181" lon="12.8101231"><ele>360.3333333333333</ele><time>2026-04-18T15:47:26.508Z</time></trkpt><trkpt lat="43.8183407" lon="12.8101773"><ele>357.66666666666663</ele><time>2026-04-18T15:47:27.508Z</time></trkpt><trkpt lat="43.8182588" lon="12.8102224"><ele>355.0</ele><time>2026-04-18T15:47:28.507Z</time></trkpt><trkpt lat="43.8181743" lon="12.8102732"><ele>350.4</ele><time>2026-04-18T15:47:29.507Z</time></trkpt><trkpt lat="43.8180859" lon="12.8103338"><ele>345.8</ele><time>2026-04-18T15:47:30.508Z</time></trkpt><trkpt lat="43.8180065" lon="12.8104106"><ele>341.20000000000005</ele><time>2026-04-18T15:47:31.508Z</time></trkpt><trkpt lat="43.817935" lon="12.8104922"><ele>336.6</ele><time>2026-04-18T15:47:32.514Z</time></trkpt><trkpt lat="43.8178622" lon="12.8105745"><ele>332.0</ele><time>2026-04-18T15:47:33.508Z</time></trkpt><trkpt lat="43.8177847" lon="12.8106508"><ele>332.0</ele><time>2026-04-18T15:47:34.508Z</time></trkpt><trkpt lat="43.8177061" lon="12.8107319"><ele>332.0</ele><time>2026-04-18T15:47:35.509Z</time></trkpt><trkpt lat="43.8176147" lon="12.8107859"><ele>332.0</ele><time>2026-04-18T15:47:36.516Z</time></trkpt><trkpt lat="43.8175248" lon="12.8108274"><ele>332.0</ele><time>2026-04-18T15:47:37.509Z</time></trkpt><trkpt lat="43.8174381" lon="12.8108637"><ele>332.0</ele><time>2026-04-18T15:47:38.51Z</time></trkpt><trkpt lat="43.8173526" lon="12.8109032"><ele>332.33333333333337</ele><time>2026-04-18T15:47:39.507Z</time></trkpt><trkpt lat="43.8172716" lon="12.8109389"><ele>332.6666666666667</ele><time>2026-04-18T15:47:40.507Z</time></trkpt><trkpt lat="43.8171939" lon="12.810972"><ele>333.0</ele><time>2026-04-18T15:47:41.516Z</time></trkpt><trkpt lat="43.8171177" lon="12.811002"><ele>333.3333333333333</ele><time>2026-04-18T15:47:42.508Z</time></trkpt><trkpt lat="43.8170437" lon="12.8110333"><ele>333.66666666666663</ele><time>2026-04-18T15:47:43.508Z</time></trkpt><trkpt lat="43.8169652" lon="12.8110737"><ele>334.0</ele><time>2026-04-18T15:47:44.508Z</time></trkpt><trkpt lat="43.8168914" lon="12.8111161"><ele>334.6</ele><time>2026-04-18T15:47:45.508Z</time></trkpt><trkpt lat="43.8168245" lon="12.8111591"><ele>335.2</ele><time>2026-04-18T15:47:46.508Z</time></trkpt><trkpt lat="43.8167622" lon="12.8111825"><ele>335.8</ele><time>2026-04-18T15:47:47.509Z</time></trkpt><trkpt lat="43.8166481" lon="12.8111947"><ele>336.40000000000003</ele><time>2026-04-18T15:47:49.507Z</time></trkpt><trkpt lat="43.8165557" lon="12.8111129"><ele>337.0</ele><time>2026-04-18T15:47:51.508Z</time></trkpt><trkpt lat="43.816566" lon="12.8109291"><ele>336.5</ele><time>2026-04-18T15:47:53.509Z</time></trkpt><trkpt lat="43.8166139" lon="12.8108297"><ele>336.0</ele><time>2026-04-18T15:47:54.508Z</time></trkpt><trkpt lat="43.816665" lon="12.8107406"><ele>335.5</ele><time>2026-04-18T15:47:55.507Z</time></trkpt><trkpt lat="43.8167126" lon="12.8106491"><ele>335.0</ele><time>2026-04-18T15:47:56.508Z</time></trkpt><trkpt lat="43.8167629" lon="12.8105581"><ele>334.5</ele><time>2026-04-18T15:47:57.507Z</time></trkpt><trkpt lat="43.8168129" lon="12.8104602"><ele>334.0</ele><time>2026-04-18T15:47:58.509Z</time></trkpt><trkpt lat="43.8168648" lon="12.8103584"><ele>334.0</ele><time>2026-04-18T15:47:59.507Z</time></trkpt><trkpt lat="43.8169152" lon="12.8102517"><ele>334.0</ele><time>2026-04-18T15:48:00.507Z</time></trkpt><trkpt lat="43.816961" lon="12.8101438"><ele>334.0</ele><time>2026-04-18T15:48:01.507Z</time></trkpt><trkpt lat="43.8169996" lon="12.8100338"><ele>334.0</ele><time>2026-04-18T15:48:02.508Z</time></trkpt><trkpt lat="43.8170377" lon="12.8099219"><ele>334.0</ele><time>2026-04-18T15:48:03.509Z</time></trkpt><trkpt lat="43.8170738" lon="12.809806"><ele>333.66666666666663</ele><time>2026-04-18T15:48:04.508Z</time></trkpt><trkpt lat="43.8171048" lon="12.8096943"><ele>333.3333333333333</ele><time>2026-04-18T15:48:05.509Z</time></trkpt><trkpt lat="43.8171347" lon="12.8095857"><ele>333.0</ele><time>2026-04-18T15:48:06.509Z</time></trkpt><trkpt lat="43.8171644" lon="12.8094896"><ele>332.6666666666667</ele><time>2026-04-18T15:48:07.508Z</time></trkpt><trkpt lat="43.8171897" lon="12.8093981"><ele>332.33333333333337</ele><time>2026-04-18T15:48:08.508Z</time></trkpt><trkpt lat="43.8172158" lon="12.8093094"><ele>332.0</ele><time>2026-04-18T15:48:09.507Z</time></trkpt><trkpt lat="43.8172395" lon="12.8092174"><ele>331.85714285714283</ele><time>2026-04-18T15:48:10.508Z</time></trkpt><trkpt lat="43.8172509" lon="12.8091169"><ele>331.7142857142857</ele><time>2026-04-18T15:48:11.509Z</time></trkpt><trkpt lat="43.8172526" lon="12.8090168"><ele>331.57142857142856</ele><time>2026-04-18T15:48:12.508Z</time></trkpt><trkpt lat="43.8172461" lon="12.8089254"><ele>331.42857142857144</ele><time>2026-04-18T15:48:13.507Z</time></trkpt><trkpt lat="43.8172289" lon="12.808839"><ele>331.2857142857143</ele><time>2026-04-18T15:48:14.507Z</time></trkpt><trkpt lat="43.8172109" lon="12.8087407"><ele>331.14285714285717</ele><time>2026-04-18T15:48:15.506Z</time></trkpt><trkpt lat="43.8171851" lon="12.8086513"><ele>331.0</ele><time>2026-04-18T15:48:16.506Z</time></trkpt><trkpt lat="43.8171352" lon="12.8085882"><ele>331.0</ele><time>2026-04-18T15:48:17.509Z</time></trkpt><trkpt lat="43.81707" lon="12.8085579"><ele>331.0</ele><time>2026-04-18T15:48:18.507Z</time></trkpt><trkpt lat="43.8169998" lon="12.8085854"><ele>331.0</ele><time>2026-04-18T15:48:19.507Z</time></trkpt><trkpt lat="43.8169427" lon="12.8086615"><ele>331.0</ele><time>2026-04-18T15:48:20.507Z</time></trkpt><trkpt lat="43.8169197" lon="12.8087647"><ele>331.0</ele><time>2026-04-18T15:48:21.51Z</time></trkpt><trkpt lat="43.8169193" lon="12.8088905"><ele>331.0</ele><time>2026-04-18T15:48:22.518Z</time></trkpt><trkpt lat="43.8169228" lon="12.8090105"><ele>331.0</ele><time>2026-04-18T15:48:23.507Z</time></trkpt><trkpt lat="43.8169175" lon="12.8091185"><ele>331.0</ele><time>2026-04-18T15:48:24.507Z</time></trkpt><trkpt lat="43.8169008" lon="12.8092196"><ele>331.0</ele><time>2026-04-18T15:48:25.507Z</time></trkpt><trkpt lat="43.816872" lon="12.8093157"><ele>331.0</ele><time>2026-04-18T15:48:26.507Z</time></trkpt><trkpt lat="43.8168348" lon="12.8094097"><ele>331.0</ele><time>2026-04-18T15:48:27.507Z</time></trkpt><trkpt lat="43.8167973" lon="12.8094933"><ele>331.0</ele><time>2026-04-18T15:48:28.509Z</time></trkpt><trkpt lat="43.8167086" lon="12.8096167"><ele>328.0</ele><time>2026-04-18T15:48:30.507Z</time></trkpt><trkpt lat="43.8166053" lon="12.8096927"><ele>325.0</ele><time>2026-04-18T15:48:32.509Z</time></trkpt><trkpt lat="43.8165072" lon="12.8097202"><ele>322.0</ele><time>2026-04-18T15:48:34.508Z</time></trkpt><trkpt lat="43.816394" lon="12.8097799"><ele>319.0</ele><time>2026-04-18T15:48:36.507Z</time></trkpt><trkpt lat="43.8163274" lon="12.8098454"><ele>316.0</ele><time>2026-04-18T15:48:37.512Z</time></trkpt><trkpt lat="43.816259" lon="12.8099197"><ele>316.0</ele><time>2026-04-18T15:48:38.507Z</time></trkpt><trkpt lat="43.8161906" lon="12.8099945"><ele>316.0</ele><time>2026-04-18T15:48:39.507Z</time></trkpt><trkpt lat="43.8161278" lon="12.8100816"><ele>316.0</ele><time>2026-04-18T15:48:40.508Z</time></trkpt><trkpt lat="43.816061" lon="12.8101724"><ele>316.0</ele><time>2026-04-18T15:48:41.507Z</time></trkpt><trkpt lat="43.8159971" lon="12.8102689"><ele>316.0</ele><time>2026-04-18T15:48:42.507Z</time></trkpt><trkpt lat="43.8159429" lon="12.8103555"><ele>316.0</ele><time>2026-04-18T15:48:43.507Z</time></trkpt><trkpt lat="43.8158932" lon="12.8104406"><ele>313.5</ele><time>2026-04-18T15:48:44.508Z</time></trkpt><trkpt lat="43.8158483" lon="12.8105264"><ele>311.0</ele><time>2026-04-18T15:48:45.507Z</time></trkpt><trkpt lat="43.8158158" lon="12.8106233"><ele>308.5</ele><time>2026-04-18T15:48:46.507Z</time></trkpt><trkpt lat="43.8157958" lon="12.8107237"><ele>306.0</ele><time>2026-04-18T15:48:47.507Z</time></trkpt><trkpt lat="43.8157855" lon="12.810829"><ele>303.5</ele><time>2026-04-18T15:48:48.507Z</time></trkpt><trkpt lat="43.8157857" lon="12.8109444"><ele>301.0</ele><time>2026-04-18T15:48:49.507Z</time></trkpt><trkpt lat="43.8157938" lon="12.8110759"><ele>301.0</ele><time>2026-04-18T15:48:50.509Z</time></trkpt><trkpt lat="43.8158012" lon="12.8112179"><ele>301.0</ele><time>2026-04-18T15:48:51.508Z</time></trkpt><trkpt lat="43.8158015" lon="12.8113639"><ele>301.0</ele><time>2026-04-18T15:48:52.509Z</time></trkpt><trkpt lat="43.8157872" lon="12.8115186"><ele>301.0</ele><time>2026-04-18T15:48:53.507Z</time></trkpt><trkpt lat="43.8157552" lon="12.811674"><ele>301.0</ele><time>2026-04-18T15:48:54.508Z</time></trkpt><trkpt lat="43.8156946" lon="12.8118213"><ele>300.75</ele><time>2026-04-18T15:48:55.506Z</time></trkpt><trkpt lat="43.8156185" lon="12.811957"><ele>300.5</ele><time>2026-04-18T15:48:56.508Z</time></trkpt><trkpt lat="43.8155683" lon="12.8121038"><ele>300.25</ele><time>2026-04-18T15:48:57.506Z</time></trkpt><trkpt lat="43.8155445" lon="12.8122565"><ele>300.0</ele><time>2026-04-18T15:48:58.506Z</time></trkpt><trkpt lat="43.8155544" lon="12.8124212"><ele>300.0</ele><time>2026-04-18T15:48:59.506Z</time></trkpt><trkpt lat="43.8155653" lon="12.8125885"><ele>300.0</ele><time>2026-04-18T15:49:00.507Z</time></trkpt><trkpt lat="43.8155722" lon="12.8127559"><ele>300.0</ele><time>2026-04-18T15:49:01.507Z</time></trkpt><trkpt lat="43.8155697" lon="12.8129158"><ele>300.0</ele><time>2026-04-18T15:49:02.507Z</time></trkpt><trkpt lat="43.815546" lon="12.8130603"><ele>300.0</ele><time>2026-04-18T15:49:03.507Z</time></trkpt><trkpt lat="43.815489" lon="12.8131797"><ele>300.0</ele><time>2026-04-18T15:49:04.507Z</time></trkpt><trkpt lat="43.8154053" lon="12.8132715"><ele>300.0</ele><time>2026-04-18T15:49:05.507Z</time></trkpt><trkpt lat="43.8152902" lon="12.8133255"><ele>300.0</ele><time>2026-04-18T15:49:06.507Z</time></trkpt><trkpt lat="43.8151575" lon="12.8133568"><ele>295.75</ele><time>2026-04-18T15:49:07.506Z</time></trkpt><trkpt lat="43.815029" lon="12.8133785"><ele>291.5</ele><time>2026-04-18T15:49:08.507Z</time></trkpt><trkpt lat="43.8149078" lon="12.8133944"><ele>287.25</ele><time>2026-04-18T15:49:09.507Z</time></trkpt><trkpt lat="43.8147988" lon="12.8134151"><ele>283.0</ele><time>2026-04-18T15:49:10.509Z</time></trkpt><trkpt lat="43.8147036" lon="12.8134561"><ele>284.4</ele><time>2026-04-18T15:49:11.508Z</time></trkpt><trkpt lat="43.8146232" lon="12.8135234"><ele>285.8</ele><time>2026-04-18T15:49:12.507Z</time></trkpt><trkpt lat="43.8145634" lon="12.8136222"><ele>287.2</ele><time>2026-04-18T15:49:13.506Z</time></trkpt><trkpt lat="43.8145274" lon="12.813753"><ele>288.6</ele><time>2026-04-18T15:49:14.507Z</time></trkpt><trkpt lat="43.8145265" lon="12.8139259"><ele>290.0</ele><time>2026-04-18T15:49:15.507Z</time></trkpt><trkpt lat="43.8145364" lon="12.8141073"><ele>290.0</ele><time>2026-04-18T15:49:16.506Z</time></trkpt><trkpt lat="43.8145353" lon="12.8143037"><ele>290.0</ele><time>2026-04-18T15:49:17.508Z</time></trkpt><trkpt lat="43.8145299" lon="12.8145065"><ele>290.0</ele><time>2026-04-18T15:49:18.507Z</time></trkpt><trkpt lat="43.8145229" lon="12.8146968"><ele>290.0</ele><time>2026-04-18T15:49:19.507Z</time></trkpt><trkpt lat="43.8145178" lon="12.8148736"><ele>289.5</ele><time>2026-04-18T15:49:20.508Z</time></trkpt><trkpt lat="43.8145172" lon="12.815041"><ele>289.0</ele><time>2026-04-18T15:49:21.507Z</time></trkpt><trkpt lat="43.8145355" lon="12.8151926"><ele>288.5</ele><time>2026-04-18T15:49:22.507Z</time></trkpt><trkpt lat="43.8145769" lon="12.8153325"><ele>288.0</ele><time>2026-04-18T15:49:23.508Z</time></trkpt><trkpt lat="43.8146445" lon="12.8154533"><ele>285.0</ele><time>2026-04-18T15:49:24.507Z</time></trkpt><trkpt lat="43.814749" lon="12.8155503"><ele>282.0</ele><time>2026-04-18T15:49:25.506Z</time></trkpt><trkpt lat="43.8148712" lon="12.8156451"><ele>279.0</ele><time>2026-04-18T15:49:26.508Z</time></trkpt><trkpt lat="43.8150038" lon="12.8157483"><ele>276.0</ele><time>2026-04-18T15:49:27.507Z</time></trkpt><trkpt lat="43.815149" lon="12.8158298"><ele>274.6666666666667</ele><time>2026-04-18T15:49:28.507Z</time></trkpt><trkpt lat="43.8153007" lon="12.8158998"><ele>273.33333333333337</ele><time>2026-04-18T15:49:29.507Z</time></trkpt><trkpt lat="43.815448" lon="12.815963"><ele>272.0</ele><time>2026-04-18T15:49:30.507Z</time></trkpt><trkpt lat="43.8155894" lon="12.8160217"><ele>272.0</ele><time>2026-04-18T15:49:31.507Z</time></trkpt><trkpt lat="43.8157176" lon="12.8160839"><ele>272.0</ele><time>2026-04-18T15:49:32.507Z</time></trkpt><trkpt lat="43.815831" lon="12.8161469"><ele>272.0</ele><time>2026-04-18T15:49:33.513Z</time></trkpt><trkpt lat="43.8159268" lon="12.8162243"><ele>272.0</ele><time>2026-04-18T15:49:34.506Z</time></trkpt><trkpt lat="43.8159961" lon="12.8163302"><ele>276.0</ele><time>2026-04-18T15:49:35.507Z</time></trkpt><trkpt lat="43.8160462" lon="12.8164523"><ele>280.0</ele><time>2026-04-18T15:49:36.508Z</time></trkpt><trkpt lat="43.8160743" lon="12.8165894"><ele>284.0</ele><time>2026-04-18T15:49:37.508Z</time></trkpt><trkpt lat="43.8160824" lon="12.8167395"><ele>288.0</ele><time>2026-04-18T15:49:38.508Z</time></trkpt><trkpt lat="43.816066" lon="12.8168972"><ele>292.0</ele><time>2026-04-18T15:49:39.508Z</time></trkpt><trkpt lat="43.8160224" lon="12.8170529"><ele>287.75</ele><time>2026-04-18T15:49:40.507Z</time></trkpt><trkpt lat="43.8159481" lon="12.817196"><ele>283.5</ele><time>2026-04-18T15:49:41.507Z</time></trkpt><trkpt lat="43.8158468" lon="12.8173186"><ele>279.25</ele><time>2026-04-18T15:49:42.506Z</time></trkpt><trkpt lat="43.8157202" lon="12.8174179"><ele>275.0</ele><time>2026-04-18T15:49:43.506Z</time></trkpt><trkpt lat="43.8155931" lon="12.8175065"><ele>275.0</ele><time>2026-04-18T15:49:44.507Z</time></trkpt><trkpt lat="43.8154775" lon="12.8176043"><ele>275.0</ele><time>2026-04-18T15:49:45.506Z</time></trkpt><trkpt lat="43.8153779" lon="12.8177193"><ele>275.0</ele><time>2026-04-18T15:49:46.507Z</time></trkpt><trkpt lat="43.8152946" lon="12.8178497"><ele>275.0</ele><time>2026-04-18T15:49:47.507Z</time></trkpt><trkpt lat="43.8152357" lon="12.817998"><ele>276.25</ele><time>2026-04-18T15:49:48.506Z</time></trkpt><trkpt lat="43.8151966" lon="12.8181544"><ele>277.5</ele><time>2026-04-18T15:49:49.506Z</time></trkpt><trkpt lat="43.8151868" lon="12.8183239"><ele>278.75</ele><time>2026-04-18T15:49:50.507Z</time></trkpt><trkpt lat="43.8152042" lon="12.8184934"><ele>280.0</ele><time>2026-04-18T15:49:51.506Z</time></trkpt><trkpt lat="43.8152402" lon="12.8186487"><ele>277.5</ele><time>2026-04-18T15:49:52.507Z</time></trkpt><trkpt lat="43.8152913" lon="12.8187961"><ele>275.0</ele><time>2026-04-18T15:49:53.508Z</time></trkpt><trkpt lat="43.8153601" lon="12.8189373"><ele>272.5</ele><time>2026-04-18T15:49:54.506Z</time></trkpt><trkpt lat="43.8154484" lon="12.8190667"><ele>270.0</ele><time>2026-04-18T15:49:55.508Z</time></trkpt><trkpt lat="43.8155591" lon="12.8191837"><ele>270.0</ele><time>2026-04-18T15:49:56.507Z</time></trkpt><trkpt lat="43.8156925" lon="12.819282"><ele>270.0</ele><time>2026-04-18T15:49:57.506Z</time></trkpt><trkpt lat="43.8158342" lon="12.8193689"><ele>270.0</ele><time>2026-04-18T15:49:58.506Z</time></trkpt><trkpt lat="43.8159729" lon="12.8194626"><ele>267.5</ele><time>2026-04-18T15:49:59.507Z</time></trkpt><trkpt lat="43.8161036" lon="12.8195605"><ele>265.0</ele><time>2026-04-18T15:50:00.507Z</time></trkpt><trkpt lat="43.8162263" lon="12.8196607"><ele>262.5</ele><time>2026-04-18T15:50:01.506Z</time></trkpt><trkpt lat="43.8163278" lon="12.8197824"><ele>260.0</ele><time>2026-04-18T15:50:02.507Z</time></trkpt><trkpt lat="43.8164085" lon="12.8199256"><ele>260.0</ele><time>2026-04-18T15:50:03.507Z</time></trkpt><trkpt lat="43.8164821" lon="12.8200823"><ele>260.0</ele><time>2026-04-18T15:50:04.506Z</time></trkpt><trkpt lat="43.8165489" lon="12.8202335"><ele>260.0</ele><time>2026-04-18T15:50:05.507Z</time></trkpt><trkpt lat="43.816608" lon="12.8203726"><ele>260.0</ele><time>2026-04-18T15:50:06.507Z</time></trkpt><trkpt lat="43.816655" lon="12.8204972"><ele>259.8</ele><time>2026-04-18T15:50:07.507Z</time></trkpt><trkpt lat="43.8166932" lon="12.8206224"><ele>259.6</ele><time>2026-04-18T15:50:08.507Z</time></trkpt><trkpt lat="43.816712" lon="12.8207658"><ele>259.4</ele><time>2026-04-18T15:50:09.506Z</time></trkpt><trkpt lat="43.8167171" lon="12.8209254"><ele>259.2</ele><time>2026-04-18T15:50:10.507Z</time></trkpt><trkpt lat="43.8167023" lon="12.8210969"><ele>259.0</ele><time>2026-04-18T15:50:11.506Z</time></trkpt><trkpt lat="43.816647" lon="12.8212734"><ele>259.0</ele><time>2026-04-18T15:50:12.507Z</time></trkpt><trkpt lat="43.8165709" lon="12.8214341"><ele>259.0</ele><time>2026-04-18T15:50:13.506Z</time></trkpt><trkpt lat="43.8164899" lon="12.8215833"><ele>259.0</ele><time>2026-04-18T15:50:14.507Z</time></trkpt><trkpt lat="43.8164217" lon="12.8217224"><ele>259.0</ele><time>2026-04-18T15:50:15.507Z</time></trkpt><trkpt lat="43.8163678" lon="12.821856"><ele>257.0</ele><time>2026-04-18T15:50:16.509Z</time></trkpt><trkpt lat="43.8163483" lon="12.8219907"><ele>255.0</ele><time>2026-04-18T15:50:17.506Z</time></trkpt><trkpt lat="43.8163756" lon="12.8221354"><ele>253.0</ele><time>2026-04-18T15:50:18.506Z</time></trkpt><trkpt lat="43.816449" lon="12.8222664"><ele>251.0</ele><time>2026-04-18T15:50:19.507Z</time></trkpt><trkpt lat="43.8165578" lon="12.8223599"><ele>251.0</ele><time>2026-04-18T15:50:20.506Z</time></trkpt><trkpt lat="43.8166909" lon="12.8224315"><ele>251.0</ele><time>2026-04-18T15:50:21.506Z</time></trkpt><trkpt lat="43.8168367" lon="12.822482"><ele>251.0</ele><time>2026-04-18T15:50:22.506Z</time></trkpt><trkpt lat="43.8169722" lon="12.82253"><ele>251.0</ele><time>2026-04-18T15:50:23.506Z</time></trkpt><trkpt lat="43.8170857" lon="12.8225877"><ele>252.0</ele><time>2026-04-18T15:50:24.506Z</time></trkpt><trkpt lat="43.8171743" lon="12.8226621"><ele>253.0</ele><time>2026-04-18T15:50:25.508Z</time></trkpt><trkpt lat="43.8172296" lon="12.8227797"><ele>254.0</ele><time>2026-04-18T15:50:26.513Z</time></trkpt><trkpt lat="43.8172493" lon="12.8229437"><ele>255.0</ele><time>2026-04-18T15:50:27.507Z</time></trkpt><trkpt lat="43.8172257" lon="12.823137"><ele>255.0</ele><time>2026-04-18T15:50:28.507Z</time></trkpt><trkpt lat="43.8171775" lon="12.8233421"><ele>255.0</ele><time>2026-04-18T15:50:29.509Z</time></trkpt><trkpt lat="43.8171181" lon="12.8235343"><ele>255.0</ele><time>2026-04-18T15:50:30.507Z</time></trkpt><trkpt lat="43.8170517" lon="12.8237094"><ele>255.0</ele><time>2026-04-18T15:50:31.508Z</time></trkpt><trkpt lat="43.8169722" lon="12.8238569"><ele>254.25</ele><time>2026-04-18T15:50:32.508Z</time></trkpt><trkpt lat="43.816866" lon="12.8239683"><ele>253.5</ele><time>2026-04-18T15:50:33.507Z</time></trkpt><trkpt lat="43.8167493" lon="12.8240567"><ele>252.75</ele><time>2026-04-18T15:50:34.517Z</time></trkpt><trkpt lat="43.8166254" lon="12.8241377"><ele>252.0</ele><time>2026-04-18T15:50:35.507Z</time></trkpt><trkpt lat="43.8165094" lon="12.8242203"><ele>249.75</ele><time>2026-04-18T15:50:36.51Z</time></trkpt><trkpt lat="43.8163973" lon="12.824308"><ele>247.5</ele><time>2026-04-18T15:50:37.507Z</time></trkpt><trkpt lat="43.8162869" lon="12.8244075"><ele>245.25</ele><time>2026-04-18T15:50:38.507Z</time></trkpt><trkpt lat="43.8161754" lon="12.8245053"><ele>243.0</ele><time>2026-04-18T15:50:39.507Z</time></trkpt><trkpt lat="43.8160679" lon="12.8245983"><ele>239.75</ele><time>2026-04-18T15:50:40.51Z</time></trkpt><trkpt lat="43.8159624" lon="12.8246917"><ele>236.5</ele><time>2026-04-18T15:50:41.506Z</time></trkpt><trkpt lat="43.8158598" lon="12.8247803"><ele>233.25</ele><time>2026-04-18T15:50:42.506Z</time></trkpt><trkpt lat="43.8157583" lon="12.8248661"><ele>230.0</ele><time>2026-04-18T15:50:43.506Z</time></trkpt><trkpt lat="43.815659" lon="12.8249522"><ele>230.0</ele><time>2026-04-18T15:50:44.506Z</time></trkpt><trkpt lat="43.8155693" lon="12.8250412"><ele>230.0</ele><time>2026-04-18T15:50:45.507Z</time></trkpt><trkpt lat="43.8154923" lon="12.8251419"><ele>230.0</ele><time>2026-04-18T15:50:46.506Z</time></trkpt><trkpt lat="43.8154538" lon="12.8252628"><ele>230.0</ele><time>2026-04-18T15:50:47.506Z</time></trkpt><trkpt lat="43.8154514" lon="12.8253985"><ele>230.0</ele><time>2026-04-18T15:50:48.506Z</time></trkpt><trkpt lat="43.8154951" lon="12.8255516"><ele>228.5</ele><time>2026-04-18T15:50:49.506Z</time></trkpt><trkpt lat="43.8155861" lon="12.8256857"><ele>227.0</ele><time>2026-04-18T15:50:50.507Z</time></trkpt><trkpt lat="43.8157144" lon="12.8257687"><ele>225.5</ele><time>2026-04-18T15:50:51.506Z</time></trkpt><trkpt lat="43.8158551" lon="12.8258172"><ele>224.0</ele><time>2026-04-18T15:50:52.506Z</time></trkpt><trkpt lat="43.8159883" lon="12.8258538"><ele>224.0</ele><time>2026-04-18T15:50:53.506Z</time></trkpt><trkpt lat="43.8161158" lon="12.8258865"><ele>224.0</ele><time>2026-04-18T15:50:54.506Z</time></trkpt><trkpt lat="43.8162359" lon="12.8259188"><ele>224.0</ele><time>2026-04-18T15:50:55.506Z</time></trkpt><trkpt lat="43.816347" lon="12.8259576"><ele>224.0</ele><time>2026-04-18T15:50:56.506Z</time></trkpt><trkpt lat="43.8164528" lon="12.825994"><ele>222.39999999999998</ele><time>2026-04-18T15:50:57.506Z</time></trkpt><trkpt lat="43.8165513" lon="12.8260436"><ele>220.79999999999998</ele><time>2026-04-18T15:50:58.506Z</time></trkpt><trkpt lat="43.8166363" lon="12.8261292"><ele>219.20000000000002</ele><time>2026-04-18T15:50:59.506Z</time></trkpt><trkpt lat="43.8166953" lon="12.8262547"><ele>217.60000000000002</ele><time>2026-04-18T15:51:00.506Z</time></trkpt><trkpt lat="43.8167144" lon="12.826415"><ele>216.0</ele><time>2026-04-18T15:51:01.506Z</time></trkpt><trkpt lat="43.816712" lon="12.8265801"><ele>216.0</ele><time>2026-04-18T15:51:02.507Z</time></trkpt><trkpt lat="43.8166766" lon="12.8267324"><ele>216.0</ele><time>2026-04-18T15:51:03.506Z</time></trkpt><trkpt lat="43.8166174" lon="12.8268627"><ele>216.0</ele><time>2026-04-18T15:51:04.506Z</time></trkpt><trkpt lat="43.8165279" lon="12.8269583"><ele>216.0</ele><time>2026-04-18T15:51:05.506Z</time></trkpt><trkpt lat="43.8164183" lon="12.8270189"><ele>215.75</ele><time>2026-04-18T15:51:06.505Z</time></trkpt><trkpt lat="43.8162922" lon="12.8270504"><ele>215.5</ele><time>2026-04-18T15:51:07.506Z</time></trkpt><trkpt lat="43.8161487" lon="12.8270671"><ele>215.25</ele><time>2026-04-18T15:51:08.506Z</time></trkpt><trkpt lat="43.8159925" lon="12.8270929"><ele>215.0</ele><time>2026-04-18T15:51:09.506Z</time></trkpt><trkpt lat="43.8158368" lon="12.8271225"><ele>215.0</ele><time>2026-04-18T15:51:10.506Z</time></trkpt><trkpt lat="43.8156854" lon="12.8271508"><ele>215.0</ele><time>2026-04-18T15:51:11.506Z</time></trkpt><trkpt lat="43.8155406" lon="12.8271831"><ele>215.0</ele><time>2026-04-18T15:51:12.506Z</time></trkpt><trkpt lat="43.8153989" lon="12.8272172"><ele>215.0</ele><time>2026-04-18T15:51:13.506Z</time></trkpt><trkpt lat="43.8152685" lon="12.8272493"><ele>213.0</ele><time>2026-04-18T15:51:14.507Z</time></trkpt><trkpt lat="43.8151472" lon="12.8272801"><ele>211.0</ele><time>2026-04-18T15:51:15.506Z</time></trkpt><trkpt lat="43.8150257" lon="12.8273106"><ele>209.0</ele><time>2026-04-18T15:51:16.506Z</time></trkpt><trkpt lat="43.8149074" lon="12.8273378"><ele>207.0</ele><time>2026-04-18T15:51:17.506Z</time></trkpt><trkpt lat="43.8147923" lon="12.8273668"><ele>207.0</ele><time>2026-04-18T15:51:18.506Z</time></trkpt><trkpt lat="43.8146791" lon="12.8273968"><ele>207.0</ele><time>2026-04-18T15:51:19.506Z</time></trkpt><trkpt lat="43.8145671" lon="12.8274176"><ele>207.0</ele><time>2026-04-18T15:51:20.507Z</time></trkpt><trkpt lat="43.8144634" lon="12.8274165"><ele>207.0</ele><time>2026-04-18T15:51:21.506Z</time></trkpt><trkpt lat="43.814361" lon="12.8273893"><ele>207.0</ele><time>2026-04-18T15:51:22.506Z</time></trkpt><trkpt lat="43.8142633" lon="12.8273326"><ele>206.6</ele><time>2026-04-18T15:51:23.51Z</time></trkpt><trkpt lat="43.8141744" lon="12.827253"><ele>206.2</ele><time>2026-04-18T15:51:24.513Z</time></trkpt><trkpt lat="43.8140948" lon="12.8271642"><ele>205.8</ele><time>2026-04-18T15:51:25.506Z</time></trkpt><trkpt lat="43.8140177" lon="12.8270815"><ele>205.4</ele><time>2026-04-18T15:51:26.515Z</time></trkpt><trkpt lat="43.8139403" lon="12.8270031"><ele>205.0</ele><time>2026-04-18T15:51:27.513Z</time></trkpt><trkpt lat="43.8138522" lon="12.8269426"><ele>205.0</ele><time>2026-04-18T15:51:28.509Z</time></trkpt><trkpt lat="43.8137532" lon="12.8268941"><ele>205.0</ele><time>2026-04-18T15:51:29.506Z</time></trkpt><trkpt lat="43.8136461" lon="12.8268704"><ele>205.0</ele><time>2026-04-18T15:51:30.506Z</time></trkpt><trkpt lat="43.8135223" lon="12.8268784"><ele>205.0</ele><time>2026-04-18T15:51:31.506Z</time></trkpt><trkpt lat="43.8133927" lon="12.8268984"><ele>204.75</ele><time>2026-04-18T15:51:32.507Z</time></trkpt><trkpt lat="43.8132706" lon="12.8269169"><ele>204.5</ele><time>2026-04-18T15:51:33.506Z</time></trkpt><trkpt lat="43.8131454" lon="12.8269385"><ele>204.25</ele><time>2026-04-18T15:51:34.515Z</time></trkpt><trkpt lat="43.8130207" lon="12.826961"><ele>204.0</ele><time>2026-04-18T15:51:35.507Z</time></trkpt><trkpt lat="43.8128905" lon="12.8269847"><ele>204.0</ele><time>2026-04-18T15:51:36.506Z</time></trkpt><trkpt lat="43.8127668" lon="12.8270025"><ele>204.0</ele><time>2026-04-18T15:51:37.506Z</time></trkpt><trkpt lat="43.8126476" lon="12.8270114"><ele>204.0</ele><time>2026-04-18T15:51:38.507Z</time></trkpt><trkpt lat="43.8125299" lon="12.8270257"><ele>204.0</ele><time>2026-04-18T15:51:39.506Z</time></trkpt><trkpt lat="43.8124133" lon="12.8270342"><ele>203.0</ele><time>2026-04-18T15:51:40.506Z</time></trkpt><trkpt lat="43.8122955" lon="12.8270291"><ele>202.0</ele><time>2026-04-18T15:51:41.506Z</time></trkpt><trkpt lat="43.8121788" lon="12.8270208"><ele>201.0</ele><time>2026-04-18T15:51:42.506Z</time></trkpt><trkpt lat="43.8120676" lon="12.8269956"><ele>200.0</ele><time>2026-04-18T15:51:43.507Z</time></trkpt><trkpt lat="43.8119604" lon="12.8269655"><ele>200.0</ele><time>2026-04-18T15:51:44.511Z</time></trkpt><trkpt lat="43.8118556" lon="12.8269283"><ele>200.0</ele><time>2026-04-18T15:51:45.508Z</time></trkpt><trkpt lat="43.8117548" lon="12.8268968"><ele>200.0</ele><time>2026-04-18T15:51:46.506Z</time></trkpt><trkpt lat="43.8116589" lon="12.8268705"><ele>200.0</ele><time>2026-04-18T15:51:47.506Z</time></trkpt><trkpt lat="43.8115571" lon="12.8268555"><ele>200.0</ele><time>2026-04-18T15:51:48.505Z</time></trkpt><trkpt lat="43.8114462" lon="12.8268531"><ele>198.2</ele><time>2026-04-18T15:51:49.51Z</time></trkpt><trkpt lat="43.8113355" lon="12.8268662"><ele>196.4</ele><time>2026-04-18T15:51:50.506Z</time></trkpt><trkpt lat="43.8112223" lon="12.8268823"><ele>194.60000000000002</ele><time>2026-04-18T15:51:51.506Z</time></trkpt><trkpt lat="43.8111124" lon="12.8268996"><ele>192.8</ele><time>2026-04-18T15:51:52.506Z</time></trkpt><trkpt lat="43.8110069" lon="12.8269246"><ele>191.0</ele><time>2026-04-18T15:51:53.506Z</time></trkpt><trkpt lat="43.8109094" lon="12.8269514"><ele>187.20000000000002</ele><time>2026-04-18T15:51:54.506Z</time></trkpt><trkpt lat="43.8108193" lon="12.8269845"><ele>183.4</ele><time>2026-04-18T15:51:55.506Z</time></trkpt><trkpt lat="43.810744" lon="12.8270353"><ele>179.6</ele><time>2026-04-18T15:51:56.506Z</time></trkpt><trkpt lat="43.8106777" lon="12.8271111"><ele>175.8</ele><time>2026-04-18T15:51:57.505Z</time></trkpt><trkpt lat="43.8106173" lon="12.8272055"><ele>172.0</ele><time>2026-04-18T15:51:58.516Z</time></trkpt><trkpt lat="43.8105664" lon="12.827319"><ele>172.0</ele><time>2026-04-18T15:51:59.505Z</time></trkpt><trkpt lat="43.8105368" lon="12.8274752"><ele>172.0</ele><time>2026-04-18T15:52:00.505Z</time></trkpt><trkpt lat="43.8105146" lon="12.8276469"><ele>172.0</ele><time>2026-04-18T15:52:01.506Z</time></trkpt><trkpt lat="43.8104904" lon="12.8278203"><ele>172.0</ele><time>2026-04-18T15:52:02.506Z</time></trkpt><trkpt lat="43.8104502" lon="12.827978"><ele>172.5</ele><time>2026-04-18T15:52:03.505Z</time></trkpt><trkpt lat="43.81039" lon="12.8281215"><ele>173.0</ele><time>2026-04-18T15:52:04.505Z</time></trkpt><trkpt lat="43.8103045" lon="12.8282407"><ele>173.5</ele><time>2026-04-18T15:52:05.505Z</time></trkpt><trkpt lat="43.8102095" lon="12.8283347"><ele>174.0</ele><time>2026-04-18T15:52:06.505Z</time></trkpt><trkpt lat="43.8101185" lon="12.8284145"><ele>171.0</ele><time>2026-04-18T15:52:07.506Z</time></trkpt><trkpt lat="43.810036" lon="12.8285013"><ele>168.0</ele><time>2026-04-18T15:52:08.506Z</time></trkpt><trkpt lat="43.8099815" lon="12.8285806"><ele>165.0</ele><time>2026-04-18T15:52:09.505Z</time></trkpt><trkpt lat="43.8099487" lon="12.8286618"><ele>162.0</ele><time>2026-04-18T15:52:10.505Z</time></trkpt><trkpt lat="43.8099502" lon="12.8287643"><ele>159.0</ele><time>2026-04-18T15:52:11.505Z</time></trkpt><trkpt lat="43.8099937" lon="12.8288689"><ele>156.0</ele><time>2026-04-18T15:52:12.513Z</time></trkpt><trkpt lat="43.810072" lon="12.828951"><ele>156.0</ele><time>2026-04-18T15:52:13.504Z</time></trkpt><trkpt lat="43.8101579" lon="12.8290218"><ele>156.0</ele><time>2026-04-18T15:52:14.505Z</time></trkpt><trkpt lat="43.8102363" lon="12.8290856"><ele>156.0</ele><time>2026-04-18T15:52:15.508Z</time></trkpt><trkpt lat="43.8103059" lon="12.8291429"><ele>156.0</ele><time>2026-04-18T15:52:16.505Z</time></trkpt><trkpt lat="43.8103604" lon="12.8292081"><ele>156.0</ele><time>2026-04-18T15:52:17.505Z</time></trkpt><trkpt lat="43.8104011" lon="12.8292803"><ele>156.0</ele><time>2026-04-18T15:52:18.505Z</time></trkpt><trkpt lat="43.8103832" lon="12.829427"><ele>157.5</ele><time>2026-04-18T15:52:20.506Z</time></trkpt><trkpt lat="43.8103366" lon="12.8294928"><ele>159.0</ele><time>2026-04-18T15:52:21.505Z</time></trkpt><trkpt lat="43.8102827" lon="12.8295479"><ele>160.5</ele><time>2026-04-18T15:52:22.505Z</time></trkpt><trkpt lat="43.8102217" lon="12.8295866"><ele>162.0</ele><time>2026-04-18T15:52:23.504Z</time></trkpt><trkpt lat="43.8101557" lon="12.8296057"><ele>163.5</ele><time>2026-04-18T15:52:24.507Z</time></trkpt><trkpt lat="43.8100388" lon="12.8296127"><ele>165.0</ele><time>2026-04-18T15:52:26.506Z</time></trkpt><trkpt lat="43.8099378" lon="12.8296113"><ele>165.0</ele><time>2026-04-18T15:52:28.51Z</time></trkpt><trkpt lat="43.8098353" lon="12.8296176"><ele>165.0</ele><time>2026-04-18T15:52:30.504Z</time></trkpt><trkpt lat="43.8097133" lon="12.8296305"><ele>165.0</ele><time>2026-04-18T15:52:32.506Z</time></trkpt><trkpt lat="43.8096437" lon="12.8296382"><ele>165.0</ele><time>2026-04-18T15:52:33.505Z</time></trkpt><trkpt lat="43.8095552" lon="12.8296414"><ele>165.0</ele><time>2026-04-18T15:52:34.506Z</time></trkpt><trkpt lat="43.80947" lon="12.8296471"><ele>165.0</ele><time>2026-04-18T15:52:35.506Z</time></trkpt><trkpt lat="43.8093816" lon="12.8296734"><ele>165.0</ele><time>2026-04-18T15:52:36.505Z</time></trkpt><trkpt lat="43.8093003" lon="12.8297145"><ele>165.0</ele><time>2026-04-18T15:52:37.505Z</time></trkpt><trkpt lat="43.8092313" lon="12.829765"><ele>165.0</ele><time>2026-04-18T15:52:38.507Z</time></trkpt><trkpt lat="43.8091658" lon="12.8298326"><ele>165.0</ele><time>2026-04-18T15:52:39.505Z</time></trkpt><trkpt lat="43.809095" lon="12.8299168"><ele>165.0</ele><time>2026-04-18T15:52:40.505Z</time></trkpt><trkpt lat="43.8090246" lon="12.8300149"><ele>164.4</ele><time>2026-04-18T15:52:41.505Z</time></trkpt><trkpt lat="43.8089524" lon="12.8301188"><ele>163.8</ele><time>2026-04-18T15:52:42.508Z</time></trkpt><trkpt lat="43.8088843" lon="12.8302272"><ele>163.2</ele><time>2026-04-18T15:52:43.506Z</time></trkpt><trkpt lat="43.8088152" lon="12.8303334"><ele>162.6</ele><time>2026-04-18T15:52:44.505Z</time></trkpt><trkpt lat="43.8087531" lon="12.8304393"><ele>162.0</ele><time>2026-04-18T15:52:45.504Z</time></trkpt><trkpt lat="43.8087072" lon="12.8305545"><ele>162.0</ele><time>2026-04-18T15:52:46.505Z</time></trkpt><trkpt lat="43.8086568" lon="12.830667"><ele>162.0</ele><time>2026-04-18T15:52:47.505Z</time></trkpt><trkpt lat="43.8086135" lon="12.8307867"><ele>162.0</ele><time>2026-04-18T15:52:48.505Z</time></trkpt><trkpt lat="43.8085731" lon="12.8309116"><ele>162.0</ele><time>2026-04-18T15:52:49.505Z</time></trkpt><trkpt lat="43.8085399" lon="12.8310412"><ele>162.0</ele><time>2026-04-18T15:52:50.505Z</time></trkpt><trkpt lat="43.8085051" lon="12.8311683"><ele>157.79999999999998</ele><time>2026-04-18T15:52:51.505Z</time></trkpt><trkpt lat="43.8084695" lon="12.8312896"><ele>153.6</ele><time>2026-04-18T15:52:52.505Z</time></trkpt><trkpt lat="43.8084361" lon="12.8314103"><ele>149.39999999999998</ele><time>2026-04-18T15:52:53.505Z</time></trkpt><trkpt lat="43.8084067" lon="12.8315369"><ele>145.2</ele><time>2026-04-18T15:52:54.504Z</time></trkpt><trkpt lat="43.8083757" lon="12.8316638"><ele>141.0</ele><time>2026-04-18T15:52:55.51Z</time></trkpt><trkpt lat="43.8083434" lon="12.8317928"><ele>142.0</ele><time>2026-04-18T15:52:56.505Z</time></trkpt><trkpt lat="43.8083094" lon="12.8319244"><ele>143.0</ele><time>2026-04-18T15:52:57.505Z</time></trkpt><trkpt lat="43.8082743" lon="12.8320564"><ele>144.0</ele><time>2026-04-18T15:52:58.505Z</time></trkpt><trkpt lat="43.808229" lon="12.8321837"><ele>145.0</ele><time>2026-04-18T15:52:59.505Z</time></trkpt><trkpt lat="43.8081746" lon="12.8323023"><ele>146.0</ele><time>2026-04-18T15:53:00.505Z</time></trkpt><trkpt lat="43.8081077" lon="12.8324017"><ele>146.0</ele><time>2026-04-18T15:53:01.505Z</time></trkpt><trkpt lat="43.8080332" lon="12.8324948"><ele>146.0</ele><time>2026-04-18T15:53:02.506Z</time></trkpt><trkpt lat="43.8079605" lon="12.8325885"><ele>146.0</ele><time>2026-04-18T15:53:03.505Z</time></trkpt><trkpt lat="43.8078902" lon="12.8326859"><ele>146.0</ele><time>2026-04-18T15:53:04.504Z</time></trkpt><trkpt lat="43.8078193" lon="12.8327829"><ele>146.0</ele><time>2026-04-18T15:53:05.505Z</time></trkpt><trkpt lat="43.807751" lon="12.8328815"><ele>149.0</ele><time>2026-04-18T15:53:06.504Z</time></trkpt><trkpt lat="43.8076933" lon="12.8329937"><ele>152.0</ele><time>2026-04-18T15:53:07.505Z</time></trkpt><trkpt lat="43.8076441" lon="12.8331082"><ele>155.0</ele><time>2026-04-18T15:53:08.507Z</time></trkpt><trkpt lat="43.8075952" lon="12.8332224"><ele>158.0</ele><time>2026-04-18T15:53:09.506Z</time></trkpt><trkpt lat="43.807545" lon="12.8333346"><ele>161.0</ele><time>2026-04-18T15:53:10.506Z</time></trkpt><trkpt lat="43.8074932" lon="12.8334462"><ele>156.60000000000002</ele><time>2026-04-18T15:53:11.506Z</time></trkpt><trkpt lat="43.8074444" lon="12.8335567"><ele>152.20000000000002</ele><time>2026-04-18T15:53:12.505Z</time></trkpt><trkpt lat="43.8073967" lon="12.833667"><ele>147.8</ele><time>2026-04-18T15:53:13.505Z</time></trkpt><trkpt lat="43.8073545" lon="12.8337813"><ele>143.4</ele><time>2026-04-18T15:53:14.505Z</time></trkpt><trkpt lat="43.807323" lon="12.8338993"><ele>139.0</ele><time>2026-04-18T15:53:15.504Z</time></trkpt><trkpt lat="43.8073015" lon="12.8340238"><ele>139.0</ele><time>2026-04-18T15:53:16.506Z</time></trkpt><trkpt lat="43.8072877" lon="12.8341506"><ele>139.0</ele><time>2026-04-18T15:53:17.505Z</time></trkpt><trkpt lat="43.807274" lon="12.8342766"><ele>139.0</ele><time>2026-04-18T15:53:18.506Z</time></trkpt><trkpt lat="43.8072611" lon="12.8344033"><ele>139.0</ele><time>2026-04-18T15:53:19.51Z</time></trkpt><trkpt lat="43.807248" lon="12.8345299"><ele>139.0</ele><time>2026-04-18T15:53:20.506Z</time></trkpt><trkpt lat="43.8072347" lon="12.834658"><ele>139.0</ele><time>2026-04-18T15:53:21.506Z</time></trkpt><trkpt lat="43.8072189" lon="12.8347876"><ele>139.0</ele><time>2026-04-18T15:53:22.508Z</time></trkpt><trkpt lat="43.8072057" lon="12.8349176"><ele>139.0</ele><time>2026-04-18T15:53:23.505Z</time></trkpt><trkpt lat="43.8071941" lon="12.8350481"><ele>139.0</ele><time>2026-04-18T15:53:24.505Z</time></trkpt><trkpt lat="43.8071843" lon="12.8351788"><ele>139.0</ele><time>2026-04-18T15:53:25.507Z</time></trkpt><trkpt lat="43.8071725" lon="12.8353064"><ele>138.33333333333334</ele><time>2026-04-18T15:53:26.507Z</time></trkpt><trkpt lat="43.8071605" lon="12.8354293"><ele>137.66666666666669</ele><time>2026-04-18T15:53:27.505Z</time></trkpt><trkpt lat="43.807146" lon="12.8355504"><ele>137.0</ele><time>2026-04-18T15:53:28.505Z</time></trkpt><trkpt lat="43.8071308" lon="12.8356702"><ele>136.33333333333334</ele><time>2026-04-18T15:53:29.507Z</time></trkpt><trkpt lat="43.8071184" lon="12.8357766"><ele>135.66666666666666</ele><time>2026-04-18T15:53:30.505Z</time></trkpt><trkpt lat="43.8071194" lon="12.8358812"><ele>135.0</ele><time>2026-04-18T15:53:31.505Z</time></trkpt><trkpt lat="43.8071276" lon="12.8359906"><ele>131.8</ele><time>2026-04-18T15:53:32.505Z</time></trkpt><trkpt lat="43.8071611" lon="12.8360985"><ele>128.6</ele><time>2026-04-18T15:53:33.505Z</time></trkpt><trkpt lat="43.8072253" lon="12.8361911"><ele>125.4</ele><time>2026-04-18T15:53:34.506Z</time></trkpt><trkpt lat="43.8073126" lon="12.8362592"><ele>122.2</ele><time>2026-04-18T15:53:35.505Z</time></trkpt><trkpt lat="43.8074242" lon="12.8362937"><ele>119.0</ele><time>2026-04-18T15:53:36.505Z</time></trkpt><trkpt lat="43.8075396" lon="12.8363236"><ele>119.0</ele><time>2026-04-18T15:53:37.508Z</time></trkpt><trkpt lat="43.8076575" lon="12.8363508"><ele>119.0</ele><time>2026-04-18T15:53:38.51Z</time></trkpt><trkpt lat="43.807765" lon="12.8363888"><ele>119.0</ele><time>2026-04-18T15:53:39.504Z</time></trkpt><trkpt lat="43.8078637" lon="12.8364588"><ele>119.0</ele><time>2026-04-18T15:53:40.504Z</time></trkpt><trkpt lat="43.8079485" lon="12.8365546"><ele>118.80000000000001</ele><time>2026-04-18T15:53:41.505Z</time></trkpt><trkpt lat="43.808023" lon="12.8366597"><ele>118.60000000000001</ele><time>2026-04-18T15:53:42.505Z</time></trkpt><trkpt lat="43.8080819" lon="12.8367673"><ele>118.4</ele><time>2026-04-18T15:53:43.505Z</time></trkpt><trkpt lat="43.8081249" lon="12.8368826"><ele>118.2</ele><time>2026-04-18T15:53:44.506Z</time></trkpt><trkpt lat="43.8081535" lon="12.8370058"><ele>118.0</ele><time>2026-04-18T15:53:45.505Z</time></trkpt><trkpt lat="43.8081541" lon="12.837135"><ele>118.0</ele><time>2026-04-18T15:53:46.504Z</time></trkpt><trkpt lat="43.8081244" lon="12.8372607"><ele>118.00000000000001</ele><time>2026-04-18T15:53:47.505Z</time></trkpt><trkpt lat="43.8080671" lon="12.8373821"><ele>118.00000000000001</ele><time>2026-04-18T15:53:48.505Z</time></trkpt><trkpt lat="43.8079994" lon="12.8375078"><ele>118.0</ele><time>2026-04-18T15:53:49.505Z</time></trkpt><trkpt lat="43.8079285" lon="12.8376378"><ele>118.0</ele><time>2026-04-18T15:53:50.505Z</time></trkpt><trkpt lat="43.8078586" lon="12.8377742"><ele>118.0</ele><time>2026-04-18T15:53:51.504Z</time></trkpt><trkpt lat="43.8077893" lon="12.837914"><ele>118.0</ele><time>2026-04-18T15:53:52.505Z</time></trkpt><trkpt lat="43.8077169" lon="12.8380538"><ele>118.0</ele><time>2026-04-18T15:53:53.506Z</time></trkpt><trkpt lat="43.8076474" lon="12.8382004"><ele>118.0</ele><time>2026-04-18T15:53:54.506Z</time></trkpt><trkpt lat="43.807579" lon="12.8383377"><ele>118.0</ele><time>2026-04-18T15:53:55.504Z</time></trkpt><trkpt lat="43.8075133" lon="12.8384613"><ele>118.00000000000001</ele><time>2026-04-18T15:53:56.504Z</time></trkpt><trkpt lat="43.8074535" lon="12.8385811"><ele>118.00000000000001</ele><time>2026-04-18T15:53:57.505Z</time></trkpt><trkpt lat="43.8073963" lon="12.8387015"><ele>118.0</ele><time>2026-04-18T15:53:58.505Z</time></trkpt><trkpt lat="43.8073422" lon="12.8388221"><ele>118.0</ele><time>2026-04-18T15:53:59.505Z</time></trkpt><trkpt lat="43.8072889" lon="12.8389465"><ele>118.4</ele><time>2026-04-18T15:54:00.505Z</time></trkpt><trkpt lat="43.807243" lon="12.8390744"><ele>118.80000000000001</ele><time>2026-04-18T15:54:01.506Z</time></trkpt><trkpt lat="43.8072062" lon="12.8392071"><ele>119.2</ele><time>2026-04-18T15:54:02.505Z</time></trkpt><trkpt lat="43.8071873" lon="12.8393538"><ele>119.6</ele><time>2026-04-18T15:54:03.504Z</time></trkpt><trkpt lat="43.8071805" lon="12.839511"><ele>120.0</ele><time>2026-04-18T15:54:04.505Z</time></trkpt><trkpt lat="43.8071852" lon="12.8396759"><ele>121.25</ele><time>2026-04-18T15:54:05.504Z</time></trkpt><trkpt lat="43.8071954" lon="12.8398399"><ele>122.5</ele><time>2026-04-18T15:54:06.504Z</time></trkpt><trkpt lat="43.8072055" lon="12.8400017"><ele>123.75</ele><time>2026-04-18T15:54:07.504Z</time></trkpt><trkpt lat="43.8072155" lon="12.8401592"><ele>125.0</ele><time>2026-04-18T15:54:08.505Z</time></trkpt><trkpt lat="43.8072245" lon="12.8403131"><ele>127.0</ele><time>2026-04-18T15:54:09.505Z</time></trkpt><trkpt lat="43.8072433" lon="12.840458"><ele>129.0</ele><time>2026-04-18T15:54:10.504Z</time></trkpt><trkpt lat="43.8072805" lon="12.8405895"><ele>131.0</ele><time>2026-04-18T15:54:11.504Z</time></trkpt><trkpt lat="43.8073356" lon="12.8407041"><ele>133.0</ele><time>2026-04-18T15:54:12.504Z</time></trkpt><trkpt lat="43.8074133" lon="12.8407929"><ele>135.0</ele><time>2026-04-18T15:54:13.507Z</time></trkpt><trkpt lat="43.8075131" lon="12.8408509"><ele>135.0</ele><time>2026-04-18T15:54:14.506Z</time></trkpt><trkpt lat="43.8076209" lon="12.8408929"><ele>135.0</ele><time>2026-04-18T15:54:15.505Z</time></trkpt><trkpt lat="43.807733" lon="12.8409236"><ele>135.0</ele><time>2026-04-18T15:54:16.504Z</time></trkpt><trkpt lat="43.8078466" lon="12.8409486"><ele>135.0</ele><time>2026-04-18T15:54:17.505Z</time></trkpt><trkpt lat="43.8079601" lon="12.8409774"><ele>135.4</ele><time>2026-04-18T15:54:18.505Z</time></trkpt><trkpt lat="43.8080659" lon="12.8410267"><ele>135.8</ele><time>2026-04-18T15:54:19.523Z</time></trkpt><trkpt lat="43.8081531" lon="12.8410998"><ele>136.2</ele><time>2026-04-18T15:54:20.505Z</time></trkpt><trkpt lat="43.8082117" lon="12.841193"><ele>136.6</ele><time>2026-04-18T15:54:21.506Z</time></trkpt><trkpt lat="43.8082362" lon="12.8412961"><ele>137.0</ele><time>2026-04-18T15:54:22.505Z</time></trkpt><trkpt lat="43.8082231" lon="12.8413928"><ele>137.0</ele><time>2026-04-18T15:54:23.504Z</time></trkpt><trkpt lat="43.8081824" lon="12.841479"><ele>137.0</ele><time>2026-04-18T15:54:24.504Z</time></trkpt><trkpt lat="43.8081267" lon="12.841548"><ele>137.0</ele><time>2026-04-18T15:54:25.505Z</time></trkpt><trkpt lat="43.8080464" lon="12.8415974"><ele>137.0</ele><time>2026-04-18T15:54:26.504Z</time></trkpt><trkpt lat="43.8079489" lon="12.8416344"><ele>137.0</ele><time>2026-04-18T15:54:27.504Z</time></trkpt><trkpt lat="43.8078482" lon="12.8416654"><ele>137.0</ele><time>2026-04-18T15:54:28.504Z</time></trkpt><trkpt lat="43.8077462" lon="12.8417068"><ele>138.4</ele><time>2026-04-18T15:54:29.504Z</time></trkpt><trkpt lat="43.8076446" lon="12.8417433"><ele>139.79999999999998</ele><time>2026-04-18T15:54:30.504Z</time></trkpt><trkpt lat="43.8075436" lon="12.8417698"><ele>141.2</ele><time>2026-04-18T15:54:31.505Z</time></trkpt><trkpt lat="43.8074451" lon="12.8417896"><ele>142.6</ele><time>2026-04-18T15:54:32.505Z</time></trkpt><trkpt lat="43.8073402" lon="12.8417856"><ele>144.0</ele><time>2026-04-18T15:54:33.504Z</time></trkpt><trkpt lat="43.8072349" lon="12.8417611"><ele>144.0</ele><time>2026-04-18T15:54:34.505Z</time></trkpt><trkpt lat="43.8071284" lon="12.8417262"><ele>144.0</ele><time>2026-04-18T15:54:35.505Z</time></trkpt><trkpt lat="43.8070237" lon="12.8416657"><ele>144.0</ele><time>2026-04-18T15:54:36.504Z</time></trkpt><trkpt lat="43.8069315" lon="12.8415727"><ele>144.0</ele><time>2026-04-18T15:54:37.505Z</time></trkpt><trkpt lat="43.8068382" lon="12.8414841"><ele>147.0</ele><time>2026-04-18T15:54:38.508Z</time></trkpt><trkpt lat="43.8067287" lon="12.8414218"><ele>150.0</ele><time>2026-04-18T15:54:39.505Z</time></trkpt><trkpt lat="43.8066076" lon="12.8413695"><ele>153.0</ele><time>2026-04-18T15:54:40.505Z</time></trkpt><trkpt lat="43.8064801" lon="12.8413396"><ele>156.0</ele><time>2026-04-18T15:54:41.504Z</time></trkpt><trkpt lat="43.8063479" lon="12.8413273"><ele>156.0</ele><time>2026-04-18T15:54:42.505Z</time></trkpt><trkpt lat="43.8062232" lon="12.8413067"><ele>156.0</ele><time>2026-04-18T15:54:43.505Z</time></trkpt><trkpt lat="43.806105" lon="12.8412891"><ele>156.0</ele><time>2026-04-18T15:54:44.506Z</time></trkpt><trkpt lat="43.8059913" lon="12.8412819"><ele>156.0</ele><time>2026-04-18T15:54:45.505Z</time></trkpt><trkpt lat="43.8058873" lon="12.8412753"><ele>157.0</ele><time>2026-04-18T15:54:46.505Z</time></trkpt><trkpt lat="43.8057922" lon="12.8413014"><ele>158.0</ele><time>2026-04-18T15:54:47.506Z</time></trkpt><trkpt lat="43.8057069" lon="12.8413811"><ele>159.0</ele><time>2026-04-18T15:54:48.506Z</time></trkpt><trkpt lat="43.8056292" lon="12.8414885"><ele>160.0</ele><time>2026-04-18T15:54:49.506Z</time></trkpt><trkpt lat="43.8055619" lon="12.8416238"><ele>161.0</ele><time>2026-04-18T15:54:50.505Z</time></trkpt><trkpt lat="43.8054909" lon="12.8417582"><ele>164.0</ele><time>2026-04-18T15:54:51.505Z</time></trkpt><trkpt lat="43.805394" lon="12.8418649"><ele>167.0</ele><time>2026-04-18T15:54:52.505Z</time></trkpt><trkpt lat="43.8052851" lon="12.8419605"><ele>170.0</ele><time>2026-04-18T15:54:53.505Z</time></trkpt><trkpt lat="43.805162" lon="12.8420392"><ele>173.0</ele><time>2026-04-18T15:54:54.505Z</time></trkpt><trkpt lat="43.8050357" lon="12.8421309"><ele>173.0</ele><time>2026-04-18T15:54:55.506Z</time></trkpt><trkpt lat="43.8049079" lon="12.8422133"><ele>173.0</ele><time>2026-04-18T15:54:56.505Z</time></trkpt><trkpt lat="43.8047851" lon="12.8423086"><ele>173.0</ele><time>2026-04-18T15:54:57.504Z</time></trkpt><trkpt lat="43.8046637" lon="12.8424231"><ele>173.0</ele><time>2026-04-18T15:54:58.506Z</time></trkpt><trkpt lat="43.8045419" lon="12.8425496"><ele>174.5</ele><time>2026-04-18T15:54:59.511Z</time></trkpt><trkpt lat="43.8044208" lon="12.8426706"><ele>176.0</ele><time>2026-04-18T15:55:00.505Z</time></trkpt><trkpt lat="43.8043015" lon="12.8427832"><ele>177.5</ele><time>2026-04-18T15:55:01.506Z</time></trkpt><trkpt lat="43.8041864" lon="12.8429"><ele>179.0</ele><time>2026-04-18T15:55:02.505Z</time></trkpt><trkpt lat="43.8040856" lon="12.8430109"><ele>179.0</ele><time>2026-04-18T15:55:03.505Z</time></trkpt><trkpt lat="43.8039951" lon="12.8431107"><ele>179.0</ele><time>2026-04-18T15:55:04.508Z</time></trkpt><trkpt lat="43.8039204" lon="12.8431968"><ele>179.0</ele><time>2026-04-18T15:55:05.507Z</time></trkpt><trkpt lat="43.8038534" lon="12.8432742"><ele>179.0</ele><time>2026-04-18T15:55:06.506Z</time></trkpt><trkpt lat="43.8037943" lon="12.8433531"><ele>179.0</ele><time>2026-04-18T15:55:07.505Z</time></trkpt><trkpt lat="43.8037495" lon="12.8434391"><ele>179.0</ele><time>2026-04-18T15:55:08.505Z</time></trkpt><trkpt lat="43.8037389" lon="12.8435291"><ele>179.0</ele><time>2026-04-18T15:55:09.505Z</time></trkpt><trkpt lat="43.8037818" lon="12.8436162"><ele>179.0</ele><time>2026-04-18T15:55:10.504Z</time></trkpt><trkpt lat="43.8038611" lon="12.8436474"><ele>179.0</ele><time>2026-04-18T15:55:11.505Z</time></trkpt><trkpt lat="43.8039565" lon="12.8436106"><ele>179.0</ele><time>2026-04-18T15:55:12.505Z</time></trkpt><trkpt lat="43.804065" lon="12.8435266"><ele>179.0</ele><time>2026-04-18T15:55:13.509Z</time></trkpt><trkpt lat="43.8042022" lon="12.8433994"><ele>183.33333333333331</ele><time>2026-04-18T15:55:14.505Z</time></trkpt><trkpt lat="43.8043512" lon="12.8432619"><ele>187.66666666666666</ele><time>2026-04-18T15:55:15.504Z</time></trkpt><trkpt lat="43.8044821" lon="12.8431398"><ele>192.0</ele><time>2026-04-18T15:55:16.504Z</time></trkpt><trkpt lat="43.8046002" lon="12.8430432"><ele>192.0</ele><time>2026-04-18T15:55:17.504Z</time></trkpt><trkpt lat="43.8047201" lon="12.842975"><ele>192.0</ele><time>2026-04-18T15:55:18.504Z</time></trkpt><trkpt lat="43.8048508" lon="12.8429354"><ele>192.0</ele><time>2026-04-18T15:55:19.505Z</time></trkpt><trkpt lat="43.8049755" lon="12.8429213"><ele>192.0</ele><time>2026-04-18T15:55:20.505Z</time></trkpt><trkpt lat="43.8050855" lon="12.8429179"><ele>190.8</ele><time>2026-04-18T15:55:21.504Z</time></trkpt><trkpt lat="43.8051785" lon="12.8429288"><ele>189.6</ele><time>2026-04-18T15:55:22.506Z</time></trkpt><trkpt lat="43.8052731" lon="12.842987"><ele>188.4</ele><time>2026-04-18T15:55:23.505Z</time></trkpt><trkpt lat="43.805367" lon="12.8430692"><ele>187.20000000000002</ele><time>2026-04-18T15:55:24.505Z</time></trkpt><trkpt lat="43.8054565" lon="12.8431705"><ele>186.0</ele><time>2026-04-18T15:55:25.506Z</time></trkpt><trkpt lat="43.8055315" lon="12.8433114"><ele>189.0</ele><time>2026-04-18T15:55:26.505Z</time></trkpt><trkpt lat="43.8055891" lon="12.843477"><ele>192.0</ele><time>2026-04-18T15:55:27.505Z</time></trkpt><trkpt lat="43.805634" lon="12.8436602"><ele>195.0</ele><time>2026-04-18T15:55:28.505Z</time></trkpt><trkpt lat="43.8056724" lon="12.8438483"><ele>198.0</ele><time>2026-04-18T15:55:29.506Z</time></trkpt><trkpt lat="43.8057127" lon="12.8440256"><ele>198.0</ele><time>2026-04-18T15:55:30.506Z</time></trkpt><trkpt lat="43.8057598" lon="12.844177"><ele>198.0</ele><time>2026-04-18T15:55:31.506Z</time></trkpt><trkpt lat="43.8058189" lon="12.8443067"><ele>198.0</ele><time>2026-04-18T15:55:32.51Z</time></trkpt><trkpt lat="43.8058876" lon="12.8444039"><ele>198.0</ele><time>2026-04-18T15:55:33.505Z</time></trkpt><trkpt lat="43.8059546" lon="12.8444765"><ele>198.0</ele><time>2026-04-18T15:55:34.504Z</time></trkpt><trkpt lat="43.8060066" lon="12.8445407"><ele>195.60000000000002</ele><time>2026-04-18T15:55:35.505Z</time></trkpt><trkpt lat="43.8060255" lon="12.8446911"><ele>193.20000000000002</ele><time>2026-04-18T15:55:37.505Z</time></trkpt><trkpt lat="43.8059711" lon="12.8447412"><ele>190.8</ele><time>2026-04-18T15:55:38.505Z</time></trkpt><trkpt lat="43.8058929" lon="12.8447589"><ele>188.4</ele><time>2026-04-18T15:55:39.504Z</time></trkpt><trkpt lat="43.8057985" lon="12.8447496"><ele>186.0</ele><time>2026-04-18T15:55:40.506Z</time></trkpt><trkpt lat="43.8056914" lon="12.844714"><ele>192.75</ele><time>2026-04-18T15:55:41.504Z</time></trkpt><trkpt lat="43.8055671" lon="12.8446593"><ele>199.5</ele><time>2026-04-18T15:55:42.504Z</time></trkpt><trkpt lat="43.8054375" lon="12.844608"><ele>206.25</ele><time>2026-04-18T15:55:43.51Z</time></trkpt><trkpt lat="43.8053099" lon="12.8445713"><ele>213.0</ele><time>2026-04-18T15:55:44.504Z</time></trkpt><trkpt lat="43.8051835" lon="12.844562"><ele>213.75</ele><time>2026-04-18T15:55:45.504Z</time></trkpt><trkpt lat="43.8050652" lon="12.8445908"><ele>214.5</ele><time>2026-04-18T15:55:46.504Z</time></trkpt><trkpt lat="43.8049545" lon="12.8446579"><ele>215.25</ele><time>2026-04-18T15:55:47.504Z</time></trkpt><trkpt lat="43.8048626" lon="12.8447643"><ele>216.0</ele><time>2026-04-18T15:55:48.504Z</time></trkpt><trkpt lat="43.804795" lon="12.8448982"><ele>216.0</ele><time>2026-04-18T15:55:49.504Z</time></trkpt><trkpt lat="43.8047711" lon="12.8450793"><ele>216.0</ele><time>2026-04-18T15:55:50.505Z</time></trkpt><trkpt lat="43.8047701" lon="12.8453083"><ele>216.0</ele><time>2026-04-18T15:55:51.504Z</time></trkpt><trkpt lat="43.8047668" lon="12.8455487"><ele>217.75</ele><time>2026-04-18T15:55:52.504Z</time></trkpt><trkpt lat="43.8047628" lon="12.845773"><ele>219.5</ele><time>2026-04-18T15:55:53.503Z</time></trkpt><trkpt lat="43.8047548" lon="12.8459728"><ele>221.25</ele><time>2026-04-18T15:55:54.502Z</time></trkpt><trkpt lat="43.8047292" lon="12.8461497"><ele>223.0</ele><time>2026-04-18T15:55:55.505Z</time></trkpt><trkpt lat="43.8046819" lon="12.8463178"><ele>225.0</ele><time>2026-04-18T15:55:56.504Z</time></trkpt><trkpt lat="43.8046084" lon="12.8464836"><ele>227.0</ele><time>2026-04-18T15:55:57.506Z</time></trkpt><trkpt lat="43.804524" lon="12.8466489"><ele>229.0</ele><time>2026-04-18T15:55:58.505Z</time></trkpt><trkpt lat="43.8044334" lon="12.8468119"><ele>231.0</ele><time>2026-04-18T15:55:59.503Z</time></trkpt><trkpt lat="43.804346" lon="12.8469656"><ele>232.5</ele><time>2026-04-18T15:56:00.503Z</time></trkpt><trkpt lat="43.8042562" lon="12.8471061"><ele>234.0</ele><time>2026-04-18T15:56:01.504Z</time></trkpt><trkpt lat="43.8041551" lon="12.8472255"><ele>235.5</ele><time>2026-04-18T15:56:02.505Z</time></trkpt><trkpt lat="43.804042" lon="12.8473306"><ele>237.0</ele><time>2026-04-18T15:56:03.503Z</time></trkpt><trkpt lat="43.8039002" lon="12.8473914"><ele>237.0</ele><time>2026-04-18T15:56:04.503Z</time></trkpt><trkpt lat="43.8037415" lon="12.8474067"><ele>237.0</ele><time>2026-04-18T15:56:05.503Z</time></trkpt><trkpt lat="43.8035661" lon="12.8474274"><ele>237.0</ele><time>2026-04-18T15:56:06.503Z</time></trkpt><trkpt lat="43.8033895" lon="12.8474679"><ele>236.66666666666669</ele><time>2026-04-18T15:56:07.504Z</time></trkpt><trkpt lat="43.8032157" lon="12.8475337"><ele>236.33333333333334</ele><time>2026-04-18T15:56:08.503Z</time></trkpt><trkpt lat="43.803044" lon="12.8476112"><ele>236.0</ele><time>2026-04-18T15:56:09.503Z</time></trkpt><trkpt lat="43.8028859" lon="12.8476727"><ele>241.75</ele><time>2026-04-18T15:56:10.506Z</time></trkpt><trkpt lat="43.8027451" lon="12.8476993"><ele>247.5</ele><time>2026-04-18T15:56:11.504Z</time></trkpt><trkpt lat="43.8026152" lon="12.8477025"><ele>253.25</ele><time>2026-04-18T15:56:12.503Z</time></trkpt><trkpt lat="43.8024879" lon="12.8477003"><ele>259.0</ele><time>2026-04-18T15:56:13.504Z</time></trkpt><trkpt lat="43.8023696" lon="12.8477182"><ele>259.0</ele><time>2026-04-18T15:56:14.504Z</time></trkpt><trkpt lat="43.8022605" lon="12.8477746"><ele>259.0</ele><time>2026-04-18T15:56:15.503Z</time></trkpt><trkpt lat="43.8021661" lon="12.8478795"><ele>259.0</ele><time>2026-04-18T15:56:16.504Z</time></trkpt><trkpt lat="43.8020889" lon="12.8480183"><ele>259.0</ele><time>2026-04-18T15:56:17.504Z</time></trkpt><trkpt lat="43.8020227" lon="12.8481882"><ele>259.0</ele><time>2026-04-18T15:56:18.504Z</time></trkpt><trkpt lat="43.8019476" lon="12.8483621"><ele>259.0</ele><time>2026-04-18T15:56:19.504Z</time></trkpt><trkpt lat="43.8018467" lon="12.848532"><ele>259.0</ele><time>2026-04-18T15:56:20.504Z</time></trkpt><trkpt lat="43.801731" lon="12.8487021"><ele>259.0</ele><time>2026-04-18T15:56:21.506Z</time></trkpt><trkpt lat="43.8016009" lon="12.8488661"><ele>259.0</ele><time>2026-04-18T15:56:22.503Z</time></trkpt><trkpt lat="43.8014678" lon="12.8490301"><ele>259.0</ele><time>2026-04-18T15:56:23.504Z</time></trkpt><trkpt lat="43.8013328" lon="12.8491979"><ele>261.0</ele><time>2026-04-18T15:56:24.517Z</time></trkpt><trkpt lat="43.8012145" lon="12.8493525"><ele>263.0</ele><time>2026-04-18T15:56:25.503Z</time></trkpt><trkpt lat="43.8011097" lon="12.8494908"><ele>265.0</ele><time>2026-04-18T15:56:26.503Z</time></trkpt><trkpt lat="43.8010221" lon="12.8496119"><ele>267.0</ele><time>2026-04-18T15:56:27.503Z</time></trkpt><trkpt lat="43.8009407" lon="12.8497021"><ele>267.0</ele><time>2026-04-18T15:56:28.504Z</time></trkpt><trkpt lat="43.8008577" lon="12.8497792"><ele>267.0</ele><time>2026-04-18T15:56:29.503Z</time></trkpt><trkpt lat="43.8007761" lon="12.8498402"><ele>267.0</ele><time>2026-04-18T15:56:30.503Z</time></trkpt><trkpt lat="43.8006907" lon="12.8498871"><ele>267.0</ele><time>2026-04-18T15:56:31.504Z</time></trkpt><trkpt lat="43.8006006" lon="12.8499224"><ele>267.0</ele><time>2026-04-18T15:56:32.505Z</time></trkpt><trkpt lat="43.8005037" lon="12.8499519"><ele>267.0</ele><time>2026-04-18T15:56:33.503Z</time></trkpt><trkpt lat="43.8004025" lon="12.8499688"><ele>267.0</ele><time>2026-04-18T15:56:34.503Z</time></trkpt><trkpt lat="43.8002979" lon="12.849967"><ele>267.0</ele><time>2026-04-18T15:56:35.503Z</time></trkpt><trkpt lat="43.8001924" lon="12.8499348"><ele>267.0</ele><time>2026-04-18T15:56:36.503Z</time></trkpt><trkpt lat="43.8000861" lon="12.8498616"><ele>267.0</ele><time>2026-04-18T15:56:37.503Z</time></trkpt><trkpt lat="43.7999862" lon="12.8497683"><ele>267.8</ele><time>2026-04-18T15:56:38.504Z</time></trkpt><trkpt lat="43.7998977" lon="12.8496597"><ele>268.6</ele><time>2026-04-18T15:56:39.505Z</time></trkpt><trkpt lat="43.799818" lon="12.8495638"><ele>269.40000000000003</ele><time>2026-04-18T15:56:40.505Z</time></trkpt><trkpt lat="43.7997389" lon="12.8495004"><ele>270.2</ele><time>2026-04-18T15:56:41.503Z</time></trkpt><trkpt lat="43.799657" lon="12.8494725"><ele>271.0</ele><time>2026-04-18T15:56:42.503Z</time></trkpt><trkpt lat="43.799573" lon="12.8494825"><ele>271.0</ele><time>2026-04-18T15:56:43.503Z</time></trkpt><trkpt lat="43.7995004" lon="12.8495568"><ele>271.0</ele><time>2026-04-18T15:56:44.504Z</time></trkpt><trkpt lat="43.7994564" lon="12.8496551"><ele>271.0</ele><time>2026-04-18T15:56:45.503Z</time></trkpt><trkpt lat="43.7994933" lon="12.849853"><ele>271.0</ele><time>2026-04-18T15:56:46.509Z</time></trkpt><trkpt lat="43.7995827" lon="12.8501086"><ele>274.0</ele><time>2026-04-18T15:56:47.504Z</time></trkpt><trkpt lat="43.7996599" lon="12.8503553"><ele>277.0</ele><time>2026-04-18T15:56:48.506Z</time></trkpt><trkpt lat="43.7997168" lon="12.8505774"><ele>280.0</ele><time>2026-04-18T15:56:49.506Z</time></trkpt><trkpt lat="43.7997613" lon="12.8507704"><ele>280.0</ele><time>2026-04-18T15:56:50.507Z</time></trkpt><trkpt lat="43.7997954" lon="12.8509428"><ele>280.0</ele><time>2026-04-18T15:56:51.507Z</time></trkpt><trkpt lat="43.799819" lon="12.8511038"><ele>280.0</ele><time>2026-04-18T15:56:52.504Z</time></trkpt><trkpt lat="43.7998227" lon="12.8512647"><ele>280.0</ele><time>2026-04-18T15:56:53.504Z</time></trkpt><trkpt lat="43.799783" lon="12.8514242"><ele>279.25</ele><time>2026-04-18T15:56:54.503Z</time></trkpt><trkpt lat="43.799701" lon="12.8515675"><ele>278.5</ele><time>2026-04-18T15:56:55.504Z</time></trkpt><trkpt lat="43.7995799" lon="12.8516717"><ele>277.75</ele><time>2026-04-18T15:56:56.506Z</time></trkpt><trkpt lat="43.7994346" lon="12.8517414"><ele>277.0</ele><time>2026-04-18T15:56:57.504Z</time></trkpt><trkpt lat="43.7992783" lon="12.8517896"><ele>285.0</ele><time>2026-04-18T15:56:58.503Z</time></trkpt><trkpt lat="43.7991202" lon="12.8518328"><ele>293.0</ele><time>2026-04-18T15:56:59.503Z</time></trkpt><trkpt lat="43.7989591" lon="12.8518514"><ele>301.0</ele><time>2026-04-18T15:57:00.503Z</time></trkpt><trkpt lat="43.7987987" lon="12.8518423"><ele>301.0</ele><time>2026-04-18T15:57:01.504Z</time></trkpt><trkpt lat="43.7986405" lon="12.8518101"><ele>301.0</ele><time>2026-04-18T15:57:02.505Z</time></trkpt><trkpt lat="43.7984892" lon="12.8517583"><ele>301.0</ele><time>2026-04-18T15:57:03.505Z</time></trkpt><trkpt lat="43.7983577" lon="12.8517008"><ele>297.6</ele><time>2026-04-18T15:57:04.504Z</time></trkpt><trkpt lat="43.7982415" lon="12.8516453"><ele>294.20000000000005</ele><time>2026-04-18T15:57:05.505Z</time></trkpt><trkpt lat="43.7981414" lon="12.8516037"><ele>290.79999999999995</ele><time>2026-04-18T15:57:06.504Z</time></trkpt><trkpt lat="43.798049" lon="12.8515877"><ele>287.4</ele><time>2026-04-18T15:57:07.503Z</time></trkpt><trkpt lat="43.797964" lon="12.851604"><ele>284.0</ele><time>2026-04-18T15:57:08.504Z</time></trkpt><trkpt lat="43.7978902" lon="12.8516636"><ele>284.0</ele><time>2026-04-18T15:57:09.503Z</time></trkpt><trkpt lat="43.7978467" lon="12.8517752"><ele>284.0</ele><time>2026-04-18T15:57:10.503Z</time></trkpt><trkpt lat="43.7978349" lon="12.8519156"><ele>284.0</ele><time>2026-04-18T15:57:11.503Z</time></trkpt><trkpt lat="43.797843" lon="12.8520749"><ele>284.0</ele><time>2026-04-18T15:57:12.503Z</time></trkpt><trkpt lat="43.7978549" lon="12.8522322"><ele>284.0</ele><time>2026-04-18T15:57:13.504Z</time></trkpt><trkpt lat="43.7978656" lon="12.8523921"><ele>287.4</ele><time>2026-04-18T15:57:14.504Z</time></trkpt><trkpt lat="43.7978768" lon="12.8525503"><ele>290.79999999999995</ele><time>2026-04-18T15:57:15.503Z</time></trkpt><trkpt lat="43.7978903" lon="12.8527025"><ele>294.20000000000005</ele><time>2026-04-18T15:57:16.504Z</time></trkpt><trkpt lat="43.7979002" lon="12.8528502"><ele>297.6</ele><time>2026-04-18T15:57:17.503Z</time></trkpt><trkpt lat="43.7979101" lon="12.8529996"><ele>301.0</ele><time>2026-04-18T15:57:18.504Z</time></trkpt><trkpt lat="43.7979201" lon="12.8531494"><ele>300.2</ele><time>2026-04-18T15:57:19.504Z</time></trkpt><trkpt lat="43.7979282" lon="12.8532986"><ele>299.40000000000003</ele><time>2026-04-18T15:57:20.504Z</time></trkpt><trkpt lat="43.7979327" lon="12.8534431"><ele>298.6</ele><time>2026-04-18T15:57:21.503Z</time></trkpt><trkpt lat="43.7979387" lon="12.8535868"><ele>297.8</ele><time>2026-04-18T15:57:22.503Z</time></trkpt><trkpt lat="43.7979436" lon="12.8537246"><ele>297.0</ele><time>2026-04-18T15:57:23.507Z</time></trkpt><trkpt lat="43.7979235" lon="12.8538528"><ele>297.0</ele><time>2026-04-18T15:57:24.503Z</time></trkpt><trkpt lat="43.7978727" lon="12.8539728"><ele>297.0</ele><time>2026-04-18T15:57:25.504Z</time></trkpt><trkpt lat="43.7978066" lon="12.8540799"><ele>297.0</ele><time>2026-04-18T15:57:26.503Z</time></trkpt><trkpt lat="43.7977262" lon="12.8541636"><ele>297.0</ele><time>2026-04-18T15:57:27.503Z</time></trkpt><trkpt lat="43.7976436" lon="12.8542301"><ele>297.0</ele><time>2026-04-18T15:57:28.503Z</time></trkpt><trkpt lat="43.7975654" lon="12.8542807"><ele>297.3333333333333</ele><time>2026-04-18T15:57:29.503Z</time></trkpt><trkpt lat="43.7974839" lon="12.8543132"><ele>297.6666666666667</ele><time>2026-04-18T15:57:30.504Z</time></trkpt><trkpt lat="43.7974013" lon="12.8543187"><ele>298.0</ele><time>2026-04-18T15:57:31.505Z</time></trkpt><trkpt lat="43.7973205" lon="12.8542884"><ele>298.33333333333337</ele><time>2026-04-18T15:57:32.505Z</time></trkpt><trkpt lat="43.7972455" lon="12.854233"><ele>298.6666666666667</ele><time>2026-04-18T15:57:33.502Z</time></trkpt><trkpt lat="43.797176" lon="12.854158"><ele>299.0</ele><time>2026-04-18T15:57:34.502Z</time></trkpt><trkpt lat="43.7971072" lon="12.8540764"><ele>298.0</ele><time>2026-04-18T15:57:35.504Z</time></trkpt><trkpt lat="43.7970408" lon="12.8539926"><ele>297.0</ele><time>2026-04-18T15:57:36.506Z</time></trkpt><trkpt lat="43.7969764" lon="12.8539093"><ele>296.0</ele><time>2026-04-18T15:57:37.504Z</time></trkpt><trkpt lat="43.7969094" lon="12.8538253"><ele>295.0</ele><time>2026-04-18T15:57:38.506Z</time></trkpt><trkpt lat="43.7968414" lon="12.8537365"><ele>294.0</ele><time>2026-04-18T15:57:39.503Z</time></trkpt><trkpt lat="43.79677" lon="12.853662"><ele>297.5</ele><time>2026-04-18T15:57:40.505Z</time></trkpt><trkpt lat="43.7966999" lon="12.8535913"><ele>301.0</ele><time>2026-04-18T15:57:41.504Z</time></trkpt><trkpt lat="43.7966219" lon="12.8535394"><ele>304.5</ele><time>2026-04-18T15:57:42.503Z</time></trkpt><trkpt lat="43.796539" lon="12.8535127"><ele>308.0</ele><time>2026-04-18T15:57:43.505Z</time></trkpt><trkpt lat="43.7964528" lon="12.8535345"><ele>311.5</ele><time>2026-04-18T15:57:44.506Z</time></trkpt><trkpt lat="43.7963733" lon="12.8535884"><ele>315.0</ele><time>2026-04-18T15:57:45.503Z</time></trkpt><trkpt lat="43.7962975" lon="12.8536529"><ele>315.0</ele><time>2026-04-18T15:57:46.503Z</time></trkpt><trkpt lat="43.7962254" lon="12.853708"><ele>315.0</ele><time>2026-04-18T15:57:47.503Z</time></trkpt><trkpt lat="43.7961514" lon="12.8537513"><ele>315.0</ele><time>2026-04-18T15:57:48.504Z</time></trkpt><trkpt lat="43.7960756" lon="12.8537908"><ele>315.0</ele><time>2026-04-18T15:57:49.504Z</time></trkpt><trkpt lat="43.7960026" lon="12.8538241"><ele>315.0</ele><time>2026-04-18T15:57:50.505Z</time></trkpt><trkpt lat="43.7959293" lon="12.8538528"><ele>315.0</ele><time>2026-04-18T15:57:51.503Z</time></trkpt><trkpt lat="43.7958531" lon="12.8538718"><ele>315.0</ele><time>2026-04-18T15:57:52.503Z</time></trkpt><trkpt lat="43.7957741" lon="12.8538857"><ele>315.0</ele><time>2026-04-18T15:57:53.503Z</time></trkpt><trkpt lat="43.7956982" lon="12.8539045"><ele>315.0</ele><time>2026-04-18T15:57:54.503Z</time></trkpt><trkpt lat="43.7956219" lon="12.8539305"><ele>315.0</ele><time>2026-04-18T15:57:55.505Z</time></trkpt><trkpt lat="43.7955494" lon="12.8539472"><ele>315.0</ele><time>2026-04-18T15:57:56.505Z</time></trkpt><trkpt lat="43.7954804" lon="12.8539793"><ele>315.0</ele><time>2026-04-18T15:57:57.503Z</time></trkpt><trkpt lat="43.7953765" lon="12.8540664"><ele>315.0</ele><time>2026-04-18T15:57:59.505Z</time></trkpt><trkpt lat="43.7953177" lon="12.8541839"><ele>315.0</ele><time>2026-04-18T15:58:01.503Z</time></trkpt><trkpt lat="43.7952834" lon="12.8543237"><ele>315.0</ele><time>2026-04-18T15:58:03.503Z</time></trkpt><trkpt lat="43.7952421" lon="12.8544652"><ele>315.0</ele><time>2026-04-18T15:58:05.503Z</time></trkpt><trkpt lat="43.7952295" lon="12.8546241"><ele>315.0</ele><time>2026-04-18T15:58:07.504Z</time></trkpt><trkpt lat="43.7952239" lon="12.8547846"><ele>315.5</ele><time>2026-04-18T15:58:09.503Z</time></trkpt><trkpt lat="43.7952443" lon="12.8549522"><ele>316.0</ele><time>2026-04-18T15:58:11.508Z</time></trkpt><trkpt lat="43.7952515" lon="12.8551108"><ele>316.5</ele><time>2026-04-18T15:58:13.503Z</time></trkpt><trkpt lat="43.7952399" lon="12.8552616"><ele>317.0</ele><time>2026-04-18T15:58:15.504Z</time></trkpt><trkpt lat="43.7952006" lon="12.8554053"><ele>313.0</ele><time>2026-04-18T15:58:17.504Z</time></trkpt><trkpt lat="43.7951166" lon="12.8554773"><ele>309.0</ele><time>2026-04-18T15:58:19.504Z</time></trkpt><trkpt lat="43.7950508" lon="12.8554755"><ele>305.0</ele><time>2026-04-18T15:58:20.507Z</time></trkpt><trkpt lat="43.7949802" lon="12.8554495"><ele>301.0</ele><time>2026-04-18T15:58:21.503Z</time></trkpt><trkpt lat="43.7949101" lon="12.8554237"><ele>297.0</ele><time>2026-04-18T15:58:22.503Z</time></trkpt><trkpt lat="43.7948469" lon="12.8553914"><ele>293.0</ele><time>2026-04-18T15:58:23.504Z</time></trkpt><trkpt lat="43.7947886" lon="12.8553545"><ele>289.0</ele><time>2026-04-18T15:58:24.504Z</time></trkpt><trkpt lat="43.7946875" lon="12.8552567"><ele>289.0</ele><time>2026-04-18T15:58:26.504Z</time></trkpt><trkpt lat="43.7946004" lon="12.8551324"><ele>289.0</ele><time>2026-04-18T15:58:28.503Z</time></trkpt><trkpt lat="43.7945275" lon="12.8549907"><ele>289.0</ele><time>2026-04-18T15:58:30.504Z</time></trkpt><trkpt lat="43.7944929" lon="12.8549171"><ele>289.0</ele><time>2026-04-18T15:58:31.504Z</time></trkpt><trkpt lat="43.7944537" lon="12.8548487"><ele>289.0</ele><time>2026-04-18T15:58:32.505Z</time></trkpt><trkpt lat="43.7944206" lon="12.8547723"><ele>289.0</ele><time>2026-04-18T15:58:33.503Z</time></trkpt><trkpt lat="43.7943885" lon="12.8546969"><ele>289.8</ele><time>2026-04-18T15:58:34.504Z</time></trkpt><trkpt lat="43.7943198" lon="12.854562"><ele>290.59999999999997</ele><time>2026-04-18T15:58:36.503Z</time></trkpt><trkpt lat="43.7942174" lon="12.8544956"><ele>291.4</ele><time>2026-04-18T15:58:38.506Z</time></trkpt><trkpt lat="43.7941038" lon="12.8545331"><ele>292.2</ele><time>2026-04-18T15:58:40.503Z</time></trkpt><trkpt lat="43.7940636" lon="12.8546053"><ele>293.0</ele><time>2026-04-18T15:58:41.503Z</time></trkpt><trkpt lat="43.7940252" lon="12.8546927"><ele>292.99999999999994</ele><time>2026-04-18T15:58:42.503Z</time></trkpt><trkpt lat="43.7939893" lon="12.8547869"><ele>293.0</ele><time>2026-04-18T15:58:43.503Z</time></trkpt><trkpt lat="43.7939517" lon="12.8548759"><ele>293.0</ele><time>2026-04-18T15:58:44.505Z</time></trkpt><trkpt lat="43.7939097" lon="12.8549604"><ele>293.0</ele><time>2026-04-18T15:58:45.503Z</time></trkpt><trkpt lat="43.7938679" lon="12.8550372"><ele>293.0</ele><time>2026-04-18T15:58:46.503Z</time></trkpt><trkpt lat="43.7938265" lon="12.8551099"><ele>292.99999999999994</ele><time>2026-04-18T15:58:47.503Z</time></trkpt><trkpt lat="43.7937863" lon="12.8551803"><ele>293.0</ele><time>2026-04-18T15:58:48.504Z</time></trkpt><trkpt lat="43.7937436" lon="12.8552448"><ele>291.6</ele><time>2026-04-18T15:58:49.505Z</time></trkpt><trkpt lat="43.7936964" lon="12.8553078"><ele>290.20000000000005</ele><time>2026-04-18T15:58:50.505Z</time></trkpt><trkpt lat="43.7936106" lon="12.8554237"><ele>288.8</ele><time>2026-04-18T15:58:52.504Z</time></trkpt><trkpt lat="43.7935499" lon="12.8555737"><ele>287.40000000000003</ele><time>2026-04-18T15:58:54.505Z</time></trkpt><trkpt lat="43.7935223" lon="12.8556709"><ele>286.0</ele><time>2026-04-18T15:58:55.505Z</time></trkpt><trkpt lat="43.7934946" lon="12.8557715"><ele>286.0</ele><time>2026-04-18T15:58:56.504Z</time></trkpt><trkpt lat="43.7934624" lon="12.8558797"><ele>286.0</ele><time>2026-04-18T15:58:57.504Z</time></trkpt><trkpt lat="43.7934286" lon="12.8559886"><ele>286.0</ele><time>2026-04-18T15:58:58.504Z</time></trkpt><trkpt lat="43.793388" lon="12.8560977"><ele>286.0</ele><time>2026-04-18T15:58:59.504Z</time></trkpt><trkpt lat="43.7933401" lon="12.8562077"><ele>286.0</ele><time>2026-04-18T15:59:00.503Z</time></trkpt><trkpt lat="43.7932817" lon="12.856311"><ele>286.0</ele><time>2026-04-18T15:59:01.504Z</time></trkpt><trkpt lat="43.7932233" lon="12.8564024"><ele>283.0</ele><time>2026-04-18T15:59:02.503Z</time></trkpt><trkpt lat="43.7931591" lon="12.8564795"><ele>280.0</ele><time>2026-04-18T15:59:03.503Z</time></trkpt><trkpt lat="43.7930911" lon="12.8565494"><ele>277.0</ele><time>2026-04-18T15:59:04.504Z</time></trkpt><trkpt lat="43.7930168" lon="12.8566042"><ele>274.0</ele><time>2026-04-18T15:59:05.503Z</time></trkpt><trkpt lat="43.7929396" lon="12.8566524"><ele>271.0</ele><time>2026-04-18T15:59:06.503Z</time></trkpt><trkpt lat="43.7928605" lon="12.8566975"><ele>268.0</ele><time>2026-04-18T15:59:07.503Z</time></trkpt><trkpt lat="43.7927784" lon="12.8567354"><ele>268.0</ele><time>2026-04-18T15:59:08.504Z</time></trkpt><trkpt lat="43.7926933" lon="12.8567724"><ele>268.0</ele><time>2026-04-18T15:59:09.506Z</time></trkpt><trkpt lat="43.7926092" lon="12.8568052"><ele>268.0</ele><time>2026-04-18T15:59:10.504Z</time></trkpt><trkpt lat="43.7925257" lon="12.856837"><ele>268.0</ele><time>2026-04-18T15:59:11.504Z</time></trkpt><trkpt lat="43.7924434" lon="12.8568679"><ele>268.0</ele><time>2026-04-18T15:59:12.504Z</time></trkpt><trkpt lat="43.7923601" lon="12.8569006"><ele>268.0</ele><time>2026-04-18T15:59:13.506Z</time></trkpt><trkpt lat="43.7922797" lon="12.8569371"><ele>268.5</ele><time>2026-04-18T15:59:14.504Z</time></trkpt><trkpt lat="43.7922057" lon="12.8569945"><ele>269.0</ele><time>2026-04-18T15:59:15.503Z</time></trkpt><trkpt lat="43.7921442" lon="12.8570584"><ele>269.5</ele><time>2026-04-18T15:59:16.503Z</time></trkpt><trkpt lat="43.7920851" lon="12.857132"><ele>270.0</ele><time>2026-04-18T15:59:17.503Z</time></trkpt><trkpt lat="43.7920608" lon="12.8572468"><ele>270.5</ele><time>2026-04-18T15:59:18.503Z</time></trkpt><trkpt lat="43.7920669" lon="12.8573831"><ele>271.0</ele><time>2026-04-18T15:59:19.505Z</time></trkpt><trkpt lat="43.7920705" lon="12.857519"><ele>272.3333333333333</ele><time>2026-04-18T15:59:20.505Z</time></trkpt><trkpt lat="43.7920968" lon="12.8576436"><ele>273.66666666666663</ele><time>2026-04-18T15:59:21.503Z</time></trkpt><trkpt lat="43.792149" lon="12.8577444"><ele>275.0</ele><time>2026-04-18T15:59:22.501Z</time></trkpt><trkpt lat="43.7922129" lon="12.8578296"><ele>276.3333333333333</ele><time>2026-04-18T15:59:23.504Z</time></trkpt><trkpt lat="43.792272" lon="12.8579135"><ele>277.6666666666667</ele><time>2026-04-18T15:59:24.503Z</time></trkpt><trkpt lat="43.7923302" lon="12.8579993"><ele>279.0</ele><time>2026-04-18T15:59:25.504Z</time></trkpt><trkpt lat="43.7923907" lon="12.858072"><ele>279.0</ele><time>2026-04-18T15:59:26.504Z</time></trkpt><trkpt lat="43.7924515" lon="12.858147"><ele>279.0</ele><time>2026-04-18T15:59:27.503Z</time></trkpt><trkpt lat="43.7925139" lon="12.8582223"><ele>279.0</ele><time>2026-04-18T15:59:28.503Z</time></trkpt><trkpt lat="43.7925786" lon="12.858299"><ele>279.0</ele><time>2026-04-18T15:59:29.504Z</time></trkpt><trkpt lat="43.7926399" lon="12.8583862"><ele>279.0</ele><time>2026-04-18T15:59:30.503Z</time></trkpt><trkpt lat="43.7926983" lon="12.858475"><ele>279.0</ele><time>2026-04-18T15:59:31.505Z</time></trkpt><trkpt lat="43.7927483" lon="12.85857"><ele>277.0</ele><time>2026-04-18T15:59:32.503Z</time></trkpt><trkpt lat="43.792795" lon="12.8586733"><ele>275.0</ele><time>2026-04-18T15:59:33.502Z</time></trkpt><trkpt lat="43.79284" lon="12.85878"><ele>273.0</ele><time>2026-04-18T15:59:34.504Z</time></trkpt><trkpt lat="43.7928833" lon="12.8588917"><ele>271.0</ele><time>2026-04-18T15:59:35.502Z</time></trkpt><trkpt lat="43.7929183" lon="12.8590133"><ele>269.0</ele><time>2026-04-18T15:59:36.504Z</time></trkpt><trkpt lat="43.792935" lon="12.8591417"><ele>269.0</ele><time>2026-04-18T15:59:37.502Z</time></trkpt><trkpt lat="43.7929517" lon="12.8592667"><ele>269.0</ele><time>2026-04-18T15:59:38.503Z</time></trkpt><trkpt lat="43.792975" lon="12.8593867"><ele>269.0</ele><time>2026-04-18T15:59:39.502Z</time></trkpt><trkpt lat="43.7930067" lon="12.8595067"><ele>269.0</ele><time>2026-04-18T15:59:40.502Z</time></trkpt><trkpt lat="43.7930583" lon="12.85961"><ele>269.0</ele><time>2026-04-18T15:59:41.502Z</time></trkpt><trkpt lat="43.7931383" lon="12.85968"><ele>269.8</ele><time>2026-04-18T15:59:42.503Z</time></trkpt><trkpt lat="43.7932283" lon="12.8597267"><ele>270.59999999999997</ele><time>2026-04-18T15:59:43.504Z</time></trkpt><trkpt lat="43.7933233" lon="12.8597533"><ele>271.4</ele><time>2026-04-18T15:59:44.505Z</time></trkpt><trkpt lat="43.79342" lon="12.8597767"><ele>272.2</ele><time>2026-04-18T15:59:45.502Z</time></trkpt><trkpt lat="43.7935217" lon="12.8597983"><ele>273.0</ele><time>2026-04-18T15:59:46.502Z</time></trkpt><trkpt lat="43.7936233" lon="12.859825"><ele>273.0</ele><time>2026-04-18T15:59:47.502Z</time></trkpt><trkpt lat="43.79372" lon="12.859855"><ele>273.0</ele><time>2026-04-18T15:59:48.502Z</time></trkpt><trkpt lat="43.79382" lon="12.8598767"><ele>273.0</ele><time>2026-04-18T15:59:49.502Z</time></trkpt><trkpt lat="43.7939183" lon="12.8599217"><ele>273.0</ele><time>2026-04-18T15:59:50.504Z</time></trkpt><trkpt lat="43.7940267" lon="12.859975"><ele>273.0</ele><time>2026-04-18T15:59:51.503Z</time></trkpt><trkpt lat="43.7941317" lon="12.8600217"><ele>273.0</ele><time>2026-04-18T15:59:52.501Z</time></trkpt><trkpt lat="43.7942317" lon="12.8600683"><ele>273.0</ele><time>2026-04-18T15:59:53.503Z</time></trkpt><trkpt lat="43.7943367" lon="12.8601183"><ele>273.0</ele><time>2026-04-18T15:59:54.502Z</time></trkpt><trkpt lat="43.79444" lon="12.8601717"><ele>273.0</ele><time>2026-04-18T15:59:55.503Z</time></trkpt><trkpt lat="43.7945417" lon="12.8602317"><ele>273.0</ele><time>2026-04-18T15:59:56.504Z</time></trkpt><trkpt lat="43.7946467" lon="12.8603067"><ele>271.75</ele><time>2026-04-18T15:59:57.502Z</time></trkpt><trkpt lat="43.7947467" lon="12.860395"><ele>270.5</ele><time>2026-04-18T15:59:58.502Z</time></trkpt><trkpt lat="43.7948417" lon="12.8604967"><ele>269.25</ele><time>2026-04-18T15:59:59.503Z</time></trkpt><trkpt lat="43.7949367" lon="12.8606283"><ele>268.0</ele><time>2026-04-18T16:00:00.503Z</time></trkpt><trkpt lat="43.795015" lon="12.8607867"><ele>271.5</ele><time>2026-04-18T16:00:01.503Z</time></trkpt><trkpt lat="43.7950883" lon="12.8609667"><ele>275.0</ele><time>2026-04-18T16:00:02.503Z</time></trkpt><trkpt lat="43.7951617" lon="12.8611483"><ele>278.5</ele><time>2026-04-18T16:00:03.501Z</time></trkpt><trkpt lat="43.7952317" lon="12.8613167"><ele>282.0</ele><time>2026-04-18T16:00:04.514Z</time></trkpt><trkpt lat="43.7953017" lon="12.8614667"><ele>278.25</ele><time>2026-04-18T16:00:05.504Z</time></trkpt><trkpt lat="43.7953833" lon="12.8615883"><ele>274.5</ele><time>2026-04-18T16:00:06.504Z</time></trkpt><trkpt lat="43.7954883" lon="12.8616917"><ele>270.75</ele><time>2026-04-18T16:00:07.504Z</time></trkpt><trkpt lat="43.795605" lon="12.8617833"><ele>267.0</ele><time>2026-04-18T16:00:08.503Z</time></trkpt><trkpt lat="43.79572" lon="12.8618917"><ele>267.0</ele><time>2026-04-18T16:00:09.502Z</time></trkpt><trkpt lat="43.79582" lon="12.862015"><ele>267.0</ele><time>2026-04-18T16:00:10.504Z</time></trkpt><trkpt lat="43.7959033" lon="12.862155"><ele>267.0</ele><time>2026-04-18T16:00:11.528Z</time></trkpt><trkpt lat="43.795975" lon="12.8623133"><ele>267.0</ele><time>2026-04-18T16:00:12.502Z</time></trkpt><trkpt lat="43.7960283" lon="12.8624667"><ele>263.2</ele><time>2026-04-18T16:00:13.502Z</time></trkpt><trkpt lat="43.7960717" lon="12.8626083"><ele>259.4</ele><time>2026-04-18T16:00:14.502Z</time></trkpt><trkpt lat="43.7960983" lon="12.8627467"><ele>255.60000000000002</ele><time>2026-04-18T16:00:15.502Z</time></trkpt><trkpt lat="43.7961167" lon="12.8628717"><ele>251.8</ele><time>2026-04-18T16:00:16.501Z</time></trkpt><trkpt lat="43.7961267" lon="12.8629867"><ele>248.0</ele><time>2026-04-18T16:00:17.503Z</time></trkpt><trkpt lat="43.7961433" lon="12.8630967"><ele>248.00000000000003</ele><time>2026-04-18T16:00:18.503Z</time></trkpt><trkpt lat="43.7961633" lon="12.8632017"><ele>248.0</ele><time>2026-04-18T16:00:19.503Z</time></trkpt><trkpt lat="43.7961867" lon="12.8632967"><ele>248.0</ele><time>2026-04-18T16:00:20.503Z</time></trkpt><trkpt lat="43.7962217" lon="12.8633917"><ele>248.0</ele><time>2026-04-18T16:00:21.502Z</time></trkpt><trkpt lat="43.7962767" lon="12.86349"><ele>248.00000000000003</ele><time>2026-04-18T16:00:22.502Z</time></trkpt><trkpt lat="43.7963433" lon="12.8635833"><ele>248.0</ele><time>2026-04-18T16:00:23.503Z</time></trkpt><trkpt lat="43.7963983" lon="12.86369"><ele>249.2</ele><time>2026-04-18T16:00:24.502Z</time></trkpt><trkpt lat="43.7964517" lon="12.8637967"><ele>250.4</ele><time>2026-04-18T16:00:25.503Z</time></trkpt><trkpt lat="43.7965" lon="12.8639083"><ele>251.59999999999997</ele><time>2026-04-18T16:00:26.503Z</time></trkpt><trkpt lat="43.79656" lon="12.8640117"><ele>252.79999999999998</ele><time>2026-04-18T16:00:27.502Z</time></trkpt><trkpt lat="43.7966183" lon="12.86411"><ele>254.0</ele><time>2026-04-18T16:00:28.503Z</time></trkpt><trkpt lat="43.79668" lon="12.8642133"><ele>254.50000000000003</ele><time>2026-04-18T16:00:29.502Z</time></trkpt><trkpt lat="43.7967367" lon="12.8643133"><ele>255.0</ele><time>2026-04-18T16:00:30.502Z</time></trkpt><trkpt lat="43.7967933" lon="12.86441"><ele>255.5</ele><time>2026-04-18T16:00:31.502Z</time></trkpt><trkpt lat="43.79684" lon="12.86451"><ele>256.0</ele><time>2026-04-18T16:00:32.502Z</time></trkpt><trkpt lat="43.7968833" lon="12.8646133"><ele>256.5</ele><time>2026-04-18T16:00:33.501Z</time></trkpt><trkpt lat="43.796925" lon="12.8647217"><ele>257.0</ele><time>2026-04-18T16:00:34.508Z</time></trkpt><trkpt lat="43.7969717" lon="12.8648283"><ele>255.16666666666669</ele><time>2026-04-18T16:00:35.502Z</time></trkpt><trkpt lat="43.7970117" lon="12.864935"><ele>253.33333333333334</ele><time>2026-04-18T16:00:36.502Z</time></trkpt><trkpt lat="43.797055" lon="12.8650383"><ele>251.5</ele><time>2026-04-18T16:00:37.586Z</time></trkpt><trkpt lat="43.7970933" lon="12.8651333"><ele>249.66666666666669</ele><time>2026-04-18T16:00:38.502Z</time></trkpt><trkpt lat="43.7971317" lon="12.8652183"><ele>247.83333333333334</ele><time>2026-04-18T16:00:39.502Z</time></trkpt><trkpt lat="43.7972097" lon="12.86535"><ele>246.0</ele><time>2026-04-18T16:00:41.502Z</time></trkpt><trkpt lat="43.7972617" lon="12.8654058"><ele>246.0</ele><time>2026-04-18T16:00:42.502Z</time></trkpt><trkpt lat="43.7973652" lon="12.8654896"><ele>246.0</ele><time>2026-04-18T16:00:44.502Z</time></trkpt><trkpt lat="43.7974255" lon="12.8655267"><ele>246.0</ele><time>2026-04-18T16:00:45.501Z</time></trkpt><trkpt lat="43.7974834" lon="12.8655789"><ele>246.0</ele><time>2026-04-18T16:00:46.502Z</time></trkpt><trkpt lat="43.7975414" lon="12.8656379"><ele>246.0</ele><time>2026-04-18T16:00:47.502Z</time></trkpt><trkpt lat="43.7976022" lon="12.8656993"><ele>246.0</ele><time>2026-04-18T16:00:48.502Z</time></trkpt><trkpt lat="43.7976663" lon="12.8657626"><ele>246.16666666666666</ele><time>2026-04-18T16:00:49.503Z</time></trkpt><trkpt lat="43.7977333" lon="12.8658251"><ele>246.33333333333331</ele><time>2026-04-18T16:00:50.503Z</time></trkpt><trkpt lat="43.7978054" lon="12.8658852"><ele>246.5</ele><time>2026-04-18T16:00:51.502Z</time></trkpt><trkpt lat="43.7978826" lon="12.8659362"><ele>246.66666666666666</ele><time>2026-04-18T16:00:52.502Z</time></trkpt><trkpt lat="43.7979649" lon="12.8659824"><ele>246.83333333333331</ele><time>2026-04-18T16:00:53.502Z</time></trkpt><trkpt lat="43.7980527" lon="12.8660289"><ele>247.0</ele><time>2026-04-18T16:00:54.502Z</time></trkpt><trkpt lat="43.7981434" lon="12.8660746"><ele>246.8</ele><time>2026-04-18T16:00:55.502Z</time></trkpt><trkpt lat="43.7982404" lon="12.8661201"><ele>246.6</ele><time>2026-04-18T16:00:56.505Z</time></trkpt><trkpt lat="43.7983365" lon="12.8661746"><ele>246.40000000000003</ele><time>2026-04-18T16:00:57.502Z</time></trkpt><trkpt lat="43.798435" lon="12.8662357"><ele>246.20000000000002</ele><time>2026-04-18T16:00:58.502Z</time></trkpt><trkpt lat="43.7985356" lon="12.8663119"><ele>246.0</ele><time>2026-04-18T16:00:59.502Z</time></trkpt><trkpt lat="43.7986414" lon="12.8664139"><ele>246.0</ele><time>2026-04-18T16:01:00.503Z</time></trkpt><trkpt lat="43.7987445" lon="12.8665356"><ele>246.0</ele><time>2026-04-18T16:01:01.502Z</time></trkpt><trkpt lat="43.7988445" lon="12.8666594"><ele>246.0</ele><time>2026-04-18T16:01:02.502Z</time></trkpt><trkpt lat="43.7989291" lon="12.8667789"><ele>246.0</ele><time>2026-04-18T16:01:03.502Z</time></trkpt><trkpt lat="43.7990042" lon="12.866894"><ele>244.4</ele><time>2026-04-18T16:01:04.502Z</time></trkpt><trkpt lat="43.7990825" lon="12.8670042"><ele>242.8</ele><time>2026-04-18T16:01:05.502Z</time></trkpt><trkpt lat="43.7991647" lon="12.8671078"><ele>241.20000000000002</ele><time>2026-04-18T16:01:06.502Z</time></trkpt><trkpt lat="43.7992492" lon="12.8672053"><ele>239.60000000000002</ele><time>2026-04-18T16:01:07.502Z</time></trkpt><trkpt lat="43.7993377" lon="12.8672964"><ele>238.0</ele><time>2026-04-18T16:01:08.502Z</time></trkpt><trkpt lat="43.7994398" lon="12.867373"><ele>237.25</ele><time>2026-04-18T16:01:09.502Z</time></trkpt><trkpt lat="43.7995619" lon="12.8674315"><ele>236.5</ele><time>2026-04-18T16:01:10.502Z</time></trkpt><trkpt lat="43.7996877" lon="12.8674548"><ele>235.75</ele><time>2026-04-18T16:01:11.503Z</time></trkpt><trkpt lat="43.7998235" lon="12.8674401"><ele>235.0</ele><time>2026-04-18T16:01:12.502Z</time></trkpt><trkpt lat="43.7999725" lon="12.867399"><ele>235.0</ele><time>2026-04-18T16:01:13.502Z</time></trkpt><trkpt lat="43.8001337" lon="12.8673448"><ele>235.0</ele><time>2026-04-18T16:01:14.502Z</time></trkpt><trkpt lat="43.8002915" lon="12.8672946"><ele>235.0</ele><time>2026-04-18T16:01:15.501Z</time></trkpt><trkpt lat="43.8004308" lon="12.8672309"><ele>234.25</ele><time>2026-04-18T16:01:16.501Z</time></trkpt><trkpt lat="43.8005539" lon="12.8671542"><ele>233.5</ele><time>2026-04-18T16:01:17.502Z</time></trkpt><trkpt lat="43.8006701" lon="12.867075"><ele>232.75</ele><time>2026-04-18T16:01:18.502Z</time></trkpt><trkpt lat="43.8007724" lon="12.8669856"><ele>232.0</ele><time>2026-04-18T16:01:19.502Z</time></trkpt><trkpt lat="43.8008682" lon="12.8668968"><ele>232.0</ele><time>2026-04-18T16:01:20.504Z</time></trkpt><trkpt lat="43.8009661" lon="12.8668097"><ele>232.0</ele><time>2026-04-18T16:01:21.501Z</time></trkpt><trkpt lat="43.8010652" lon="12.8667162"><ele>232.0</ele><time>2026-04-18T16:01:22.503Z</time></trkpt><trkpt lat="43.8011632" lon="12.8666284"><ele>232.0</ele><time>2026-04-18T16:01:23.502Z</time></trkpt><trkpt lat="43.8012612" lon="12.8665375"><ele>232.39999999999998</ele><time>2026-04-18T16:01:24.501Z</time></trkpt><trkpt lat="43.8013578" lon="12.866458"><ele>232.79999999999998</ele><time>2026-04-18T16:01:25.502Z</time></trkpt><trkpt lat="43.8014522" lon="12.8663786"><ele>233.2</ele><time>2026-04-18T16:01:26.502Z</time></trkpt><trkpt lat="43.8015371" lon="12.8663023"><ele>233.6</ele><time>2026-04-18T16:01:27.501Z</time></trkpt><trkpt lat="43.8016218" lon="12.8662306"><ele>234.0</ele><time>2026-04-18T16:01:28.503Z</time></trkpt><trkpt lat="43.8017119" lon="12.8661578"><ele>234.0</ele><time>2026-04-18T16:01:29.502Z</time></trkpt><trkpt lat="43.8018108" lon="12.8661051"><ele>233.99999999999997</ele><time>2026-04-18T16:01:30.503Z</time></trkpt><trkpt lat="43.8019147" lon="12.8660621"><ele>233.99999999999997</ele><time>2026-04-18T16:01:31.504Z</time></trkpt><trkpt lat="43.8020114" lon="12.8660038"><ele>234.0</ele><time>2026-04-18T16:01:32.503Z</time></trkpt><trkpt lat="43.8021096" lon="12.8659334"><ele>234.0</ele><time>2026-04-18T16:01:33.504Z</time></trkpt><trkpt lat="43.8022093" lon="12.8658534"><ele>233.75</ele><time>2026-04-18T16:01:34.504Z</time></trkpt><trkpt lat="43.8023057" lon="12.8657621"><ele>233.5</ele><time>2026-04-18T16:01:35.504Z</time></trkpt><trkpt lat="43.8024043" lon="12.865673"><ele>233.25</ele><time>2026-04-18T16:01:36.503Z</time></trkpt><trkpt lat="43.8024972" lon="12.8655811"><ele>233.0</ele><time>2026-04-18T16:01:37.502Z</time></trkpt><trkpt lat="43.8025834" lon="12.8654935"><ele>230.4</ele><time>2026-04-18T16:01:38.504Z</time></trkpt><trkpt lat="43.8026645" lon="12.8654076"><ele>227.8</ele><time>2026-04-18T16:01:39.503Z</time></trkpt><trkpt lat="43.8027359" lon="12.8653154"><ele>225.2</ele><time>2026-04-18T16:01:40.502Z</time></trkpt><trkpt lat="43.8027947" lon="12.8652208"><ele>222.6</ele><time>2026-04-18T16:01:41.504Z</time></trkpt><trkpt lat="43.802847" lon="12.8651271"><ele>220.0</ele><time>2026-04-18T16:01:42.503Z</time></trkpt><trkpt lat="43.8028898" lon="12.8650335"><ele>220.0</ele><time>2026-04-18T16:01:43.504Z</time></trkpt><trkpt lat="43.802922" lon="12.8649324"><ele>220.0</ele><time>2026-04-18T16:01:44.504Z</time></trkpt><trkpt lat="43.8029603" lon="12.8648197"><ele>220.0</ele><time>2026-04-18T16:01:45.503Z</time></trkpt><trkpt lat="43.8030024" lon="12.8647008"><ele>220.0</ele><time>2026-04-18T16:01:46.505Z</time></trkpt><trkpt lat="43.8030426" lon="12.8645782"><ele>220.0</ele><time>2026-04-18T16:01:47.504Z</time></trkpt><trkpt lat="43.8030839" lon="12.8644623"><ele>220.0</ele><time>2026-04-18T16:01:48.504Z</time></trkpt><trkpt lat="43.8031285" lon="12.864352"><ele>220.0</ele><time>2026-04-18T16:01:49.504Z</time></trkpt><trkpt lat="43.8031845" lon="12.8642649"><ele>220.0</ele><time>2026-04-18T16:01:50.503Z</time></trkpt><trkpt lat="43.8032584" lon="12.8641899"><ele>220.0</ele><time>2026-04-18T16:01:51.501Z</time></trkpt><trkpt lat="43.8033443" lon="12.8641209"><ele>220.0</ele><time>2026-04-18T16:01:52.502Z</time></trkpt><trkpt lat="43.8034383" lon="12.8640538"><ele>218.8</ele><time>2026-04-18T16:01:53.501Z</time></trkpt><trkpt lat="43.8035294" lon="12.8639892"><ele>217.6</ele><time>2026-04-18T16:01:54.501Z</time></trkpt><trkpt lat="43.8036167" lon="12.8639212"><ele>216.39999999999998</ele><time>2026-04-18T16:01:55.502Z</time></trkpt><trkpt lat="43.8037024" lon="12.8638442"><ele>215.2</ele><time>2026-04-18T16:01:56.504Z</time></trkpt><trkpt lat="43.8037792" lon="12.8637494"><ele>214.0</ele><time>2026-04-18T16:01:57.502Z</time></trkpt><trkpt lat="43.8038494" lon="12.8636471"><ele>214.0</ele><time>2026-04-18T16:01:58.502Z</time></trkpt><trkpt lat="43.8039147" lon="12.8635308"><ele>213.99999999999997</ele><time>2026-04-18T16:01:59.503Z</time></trkpt><trkpt lat="43.8039766" lon="12.8634139"><ele>213.99999999999997</ele><time>2026-04-18T16:02:00.503Z</time></trkpt><trkpt lat="43.8040355" lon="12.8632862"><ele>214.0</ele><time>2026-04-18T16:02:01.507Z</time></trkpt><trkpt lat="43.8040965" lon="12.8631586"><ele>214.0</ele><time>2026-04-18T16:02:02.502Z</time></trkpt><trkpt lat="43.8041584" lon="12.8630389"><ele>212.6</ele><time>2026-04-18T16:02:03.504Z</time></trkpt><trkpt lat="43.8042287" lon="12.8629242"><ele>211.2</ele><time>2026-04-18T16:02:04.504Z</time></trkpt><trkpt lat="43.804311" lon="12.8628265"><ele>209.79999999999998</ele><time>2026-04-18T16:02:05.508Z</time></trkpt><trkpt lat="43.8044046" lon="12.8627476"><ele>208.39999999999998</ele><time>2026-04-18T16:02:06.503Z</time></trkpt><trkpt lat="43.8045058" lon="12.862686"><ele>207.0</ele><time>2026-04-18T16:02:07.502Z</time></trkpt><trkpt lat="43.8046075" lon="12.8626229"><ele>210.75</ele><time>2026-04-18T16:02:08.502Z</time></trkpt><trkpt lat="43.8047089" lon="12.8625625"><ele>214.5</ele><time>2026-04-18T16:02:09.502Z</time></trkpt><trkpt lat="43.8048138" lon="12.862501"><ele>218.25</ele><time>2026-04-18T16:02:10.502Z</time></trkpt><trkpt lat="43.8049219" lon="12.8624395"><ele>222.0</ele><time>2026-04-18T16:02:11.501Z</time></trkpt><trkpt lat="43.8050312" lon="12.8623675"><ele>222.0</ele><time>2026-04-18T16:02:12.502Z</time></trkpt><trkpt lat="43.8051407" lon="12.8623037"><ele>222.0</ele><time>2026-04-18T16:02:13.502Z</time></trkpt><trkpt lat="43.8052453" lon="12.8622527"><ele>222.0</ele><time>2026-04-18T16:02:14.502Z</time></trkpt><trkpt lat="43.8053486" lon="12.8621872"><ele>222.0</ele><time>2026-04-18T16:02:15.502Z</time></trkpt><trkpt lat="43.8054481" lon="12.8621085"><ele>220.5</ele><time>2026-04-18T16:02:16.506Z</time></trkpt><trkpt lat="43.805542" lon="12.8620207"><ele>219.0</ele><time>2026-04-18T16:02:17.501Z</time></trkpt><trkpt lat="43.8056344" lon="12.8619271"><ele>217.5</ele><time>2026-04-18T16:02:18.502Z</time></trkpt><trkpt lat="43.8057155" lon="12.8618193"><ele>216.0</ele><time>2026-04-18T16:02:19.501Z</time></trkpt><trkpt lat="43.8057937" lon="12.8617085"><ele>216.0</ele><time>2026-04-18T16:02:20.502Z</time></trkpt><trkpt lat="43.8058675" lon="12.8615933"><ele>216.0</ele><time>2026-04-18T16:02:21.501Z</time></trkpt><trkpt lat="43.8059405" lon="12.8614733"><ele>216.0</ele><time>2026-04-18T16:02:22.502Z</time></trkpt><trkpt lat="43.8060109" lon="12.8613487"><ele>216.0</ele><time>2026-04-18T16:02:23.506Z</time></trkpt><trkpt lat="43.8060819" lon="12.8612262"><ele>215.25</ele><time>2026-04-18T16:02:24.502Z</time></trkpt><trkpt lat="43.8061567" lon="12.8611051"><ele>214.5</ele><time>2026-04-18T16:02:25.503Z</time></trkpt><trkpt lat="43.8062259" lon="12.8609794"><ele>213.75</ele><time>2026-04-18T16:02:26.502Z</time></trkpt><trkpt lat="43.8062954" lon="12.8608539"><ele>213.0</ele><time>2026-04-18T16:02:27.502Z</time></trkpt><trkpt lat="43.8063676" lon="12.8607337"><ele>213.0</ele><time>2026-04-18T16:02:28.501Z</time></trkpt><trkpt lat="43.8064406" lon="12.8606165"><ele>213.0</ele><time>2026-04-18T16:02:29.501Z</time></trkpt><trkpt lat="43.8065122" lon="12.860503"><ele>213.0</ele><time>2026-04-18T16:02:30.502Z</time></trkpt><trkpt lat="43.8065793" lon="12.8603923"><ele>213.0</ele><time>2026-04-18T16:02:31.502Z</time></trkpt><trkpt lat="43.806643" lon="12.8602867"><ele>213.0</ele><time>2026-04-18T16:02:32.502Z</time></trkpt><trkpt lat="43.8067096" lon="12.8601869"><ele>212.60000000000002</ele><time>2026-04-18T16:02:33.502Z</time></trkpt><trkpt lat="43.8067774" lon="12.8600973"><ele>212.20000000000002</ele><time>2026-04-18T16:02:34.502Z</time></trkpt><trkpt lat="43.8068573" lon="12.8600226"><ele>211.8</ele><time>2026-04-18T16:02:35.502Z</time></trkpt><trkpt lat="43.8069366" lon="12.8599342"><ele>211.4</ele><time>2026-04-18T16:02:36.502Z</time></trkpt><trkpt lat="43.8070124" lon="12.8598497"><ele>211.0</ele><time>2026-04-18T16:02:37.502Z</time></trkpt><trkpt lat="43.8070808" lon="12.8597707"><ele>211.0</ele><time>2026-04-18T16:02:38.503Z</time></trkpt><trkpt lat="43.8071441" lon="12.8596946"><ele>211.0</ele><time>2026-04-18T16:02:39.501Z</time></trkpt><trkpt lat="43.8072111" lon="12.8596237"><ele>211.0</ele><time>2026-04-18T16:02:40.501Z</time></trkpt><trkpt lat="43.8072838" lon="12.8595393"><ele>211.0</ele><time>2026-04-18T16:02:41.502Z</time></trkpt><trkpt lat="43.8073637" lon="12.8594479"><ele>211.0</ele><time>2026-04-18T16:02:42.501Z</time></trkpt><trkpt lat="43.8074469" lon="12.8593489"><ele>212.0</ele><time>2026-04-18T16:02:43.501Z</time></trkpt><trkpt lat="43.8075345" lon="12.8592525"><ele>213.0</ele><time>2026-04-18T16:02:44.502Z</time></trkpt><trkpt lat="43.8076217" lon="12.8591595"><ele>214.00000000000003</ele><time>2026-04-18T16:02:45.501Z</time></trkpt><trkpt lat="43.8077075" lon="12.8590685"><ele>215.0</ele><time>2026-04-18T16:02:46.501Z</time></trkpt><trkpt lat="43.8077903" lon="12.8589721"><ele>216.0</ele><time>2026-04-18T16:02:47.506Z</time></trkpt><trkpt lat="43.8078663" lon="12.8588828"><ele>213.4</ele><time>2026-04-18T16:02:48.502Z</time></trkpt><trkpt lat="43.8079386" lon="12.8587968"><ele>210.8</ele><time>2026-04-18T16:02:49.503Z</time></trkpt><trkpt lat="43.8080095" lon="12.8587099"><ele>208.20000000000002</ele><time>2026-04-18T16:02:50.503Z</time></trkpt><trkpt lat="43.8080762" lon="12.8586215"><ele>205.60000000000002</ele><time>2026-04-18T16:02:51.501Z</time></trkpt><trkpt lat="43.8081433" lon="12.8585367"><ele>203.0</ele><time>2026-04-18T16:02:52.501Z</time></trkpt><trkpt lat="43.8082099" lon="12.8584524"><ele>202.50000000000003</ele><time>2026-04-18T16:02:53.501Z</time></trkpt><trkpt lat="43.80827" lon="12.8583625"><ele>202.0</ele><time>2026-04-18T16:02:54.501Z</time></trkpt><trkpt lat="43.8083324" lon="12.8582763"><ele>201.5</ele><time>2026-04-18T16:02:55.501Z</time></trkpt><trkpt lat="43.8084021" lon="12.8581979"><ele>201.0</ele><time>2026-04-18T16:02:56.502Z</time></trkpt><trkpt lat="43.8084717" lon="12.8581206"><ele>200.50000000000003</ele><time>2026-04-18T16:02:57.503Z</time></trkpt><trkpt lat="43.8085373" lon="12.8580415"><ele>200.0</ele><time>2026-04-18T16:02:58.502Z</time></trkpt><trkpt lat="43.8086027" lon="12.8579676"><ele>200.00000000000003</ele><time>2026-04-18T16:02:59.505Z</time></trkpt><trkpt lat="43.8086692" lon="12.8579191"><ele>200.0</ele><time>2026-04-18T16:03:00.503Z</time></trkpt><trkpt lat="43.8087486" lon="12.8579175"><ele>200.0</ele><time>2026-04-18T16:03:01.504Z</time></trkpt><trkpt lat="43.8088215" lon="12.8579783"><ele>200.0</ele><time>2026-04-18T16:03:02.503Z</time></trkpt><trkpt lat="43.8088869" lon="12.8580658"><ele>200.00000000000003</ele><time>2026-04-18T16:03:03.502Z</time></trkpt><trkpt lat="43.808969" lon="12.8581767"><ele>200.0</ele><time>2026-04-18T16:03:04.505Z</time></trkpt><trkpt lat="43.8090585" lon="12.85832"><ele>198.5</ele><time>2026-04-18T16:03:05.504Z</time></trkpt><trkpt lat="43.80915" lon="12.8584544"><ele>197.0</ele><time>2026-04-18T16:03:06.503Z</time></trkpt><trkpt lat="43.8092457" lon="12.858575"><ele>195.5</ele><time>2026-04-18T16:03:07.5Z</time></trkpt><trkpt lat="43.8093434" lon="12.8586806"><ele>194.0</ele><time>2026-04-18T16:03:08.504Z</time></trkpt><trkpt lat="43.809439" lon="12.8587811"><ele>194.0</ele><time>2026-04-18T16:03:09.501Z</time></trkpt><trkpt lat="43.8095345" lon="12.8588756"><ele>194.0</ele><time>2026-04-18T16:03:10.502Z</time></trkpt><trkpt lat="43.8096379" lon="12.8589631"><ele>194.0</ele><time>2026-04-18T16:03:11.503Z</time></trkpt><trkpt lat="43.8097497" lon="12.859054"><ele>194.0</ele><time>2026-04-18T16:03:12.5Z</time></trkpt><trkpt lat="43.8098605" lon="12.8591415"><ele>194.0</ele><time>2026-04-18T16:03:13.5Z</time></trkpt><trkpt lat="43.8099716" lon="12.8592238"><ele>194.0</ele><time>2026-04-18T16:03:14.502Z</time></trkpt><trkpt lat="43.8100755" lon="12.8593092"><ele>194.0</ele><time>2026-04-18T16:03:15.501Z</time></trkpt><trkpt lat="43.8101754" lon="12.8593926"><ele>194.0</ele><time>2026-04-18T16:03:16.5Z</time></trkpt><trkpt lat="43.8102708" lon="12.8594725"><ele>192.79999999999998</ele><time>2026-04-18T16:03:17.5Z</time></trkpt><trkpt lat="43.8103613" lon="12.8595452"><ele>191.6</ele><time>2026-04-18T16:03:18.5Z</time></trkpt><trkpt lat="43.8104496" lon="12.8596186"><ele>190.4</ele><time>2026-04-18T16:03:19.503Z</time></trkpt><trkpt lat="43.8105403" lon="12.8596857"><ele>189.2</ele><time>2026-04-18T16:03:20.502Z</time></trkpt><trkpt lat="43.8106303" lon="12.8597561"><ele>188.0</ele><time>2026-04-18T16:03:21.502Z</time></trkpt><trkpt lat="43.8107232" lon="12.8598373"><ele>188.0</ele><time>2026-04-18T16:03:22.502Z</time></trkpt><trkpt lat="43.8108262" lon="12.8599165"><ele>188.0</ele><time>2026-04-18T16:03:23.502Z</time></trkpt><trkpt lat="43.8109352" lon="12.8600033"><ele>188.0</ele><time>2026-04-18T16:03:24.5Z</time></trkpt><trkpt lat="43.8110463" lon="12.8600921"><ele>188.0</ele><time>2026-04-18T16:03:25.501Z</time></trkpt><trkpt lat="43.8111667" lon="12.8601837"><ele>188.0</ele><time>2026-04-18T16:03:26.502Z</time></trkpt><trkpt lat="43.8112894" lon="12.8602813"><ele>188.0</ele><time>2026-04-18T16:03:27.5Z</time></trkpt><trkpt lat="43.8114122" lon="12.8603791"><ele>188.0</ele><time>2026-04-18T16:03:28.5Z</time></trkpt><trkpt lat="43.8115465" lon="12.8604743"><ele>188.0</ele><time>2026-04-18T16:03:29.501Z</time></trkpt><trkpt lat="43.811684" lon="12.8605662"><ele>183.66666666666666</ele><time>2026-04-18T16:03:30.5Z</time></trkpt><trkpt lat="43.8118281" lon="12.8606594"><ele>179.33333333333334</ele><time>2026-04-18T16:03:31.5Z</time></trkpt><trkpt lat="43.8119752" lon="12.8607508"><ele>175.0</ele><time>2026-04-18T16:03:32.501Z</time></trkpt><trkpt lat="43.812121" lon="12.8608394"><ele>175.0</ele><time>2026-04-18T16:03:33.501Z</time></trkpt><trkpt lat="43.8122634" lon="12.8609291"><ele>175.0</ele><time>2026-04-18T16:03:34.5Z</time></trkpt><trkpt lat="43.8124035" lon="12.8610163"><ele>175.0</ele><time>2026-04-18T16:03:35.5Z</time></trkpt><trkpt lat="43.8125435" lon="12.861102"><ele>173.0</ele><time>2026-04-18T16:03:36.504Z</time></trkpt><trkpt lat="43.8126788" lon="12.8611883"><ele>171.0</ele><time>2026-04-18T16:03:37.501Z</time></trkpt><trkpt lat="43.8128166" lon="12.8612763"><ele>169.0</ele><time>2026-04-18T16:03:38.502Z</time></trkpt><trkpt lat="43.8129572" lon="12.8613658"><ele>169.0</ele><time>2026-04-18T16:03:39.5Z</time></trkpt><trkpt lat="43.8131009" lon="12.8614533"><ele>169.0</ele><time>2026-04-18T16:03:40.5Z</time></trkpt><trkpt lat="43.8132421" lon="12.8615391"><ele>169.0</ele><time>2026-04-18T16:03:41.502Z</time></trkpt><trkpt lat="43.8133835" lon="12.8616304"><ele>168.0</ele><time>2026-04-18T16:03:42.502Z</time></trkpt><trkpt lat="43.8135262" lon="12.8617275"><ele>167.0</ele><time>2026-04-18T16:03:43.501Z</time></trkpt><trkpt lat="43.813668" lon="12.861826"><ele>166.0</ele><time>2026-04-18T16:03:44.502Z</time></trkpt><trkpt lat="43.8137992" lon="12.8619367"><ele>165.0</ele><time>2026-04-18T16:03:45.5Z</time></trkpt><trkpt lat="43.8139286" lon="12.86206"><ele>164.0</ele><time>2026-04-18T16:03:46.501Z</time></trkpt><trkpt lat="43.8140578" lon="12.8621887"><ele>163.0</ele><time>2026-04-18T16:03:47.503Z</time></trkpt><trkpt lat="43.8141895" lon="12.8623156"><ele>163.33333333333334</ele><time>2026-04-18T16:03:48.501Z</time></trkpt><trkpt lat="43.8143227" lon="12.8624418"><ele>163.66666666666666</ele><time>2026-04-18T16:03:49.503Z</time></trkpt><trkpt lat="43.8144524" lon="12.862567"><ele>164.0</ele><time>2026-04-18T16:03:50.501Z</time></trkpt><trkpt lat="43.8145864" lon="12.8626886"><ele>162.0</ele><time>2026-04-18T16:03:51.501Z</time></trkpt><trkpt lat="43.8147244" lon="12.8627993"><ele>160.0</ele><time>2026-04-18T16:03:52.503Z</time></trkpt><trkpt lat="43.8148663" lon="12.8628902"><ele>158.0</ele><time>2026-04-18T16:03:53.501Z</time></trkpt><trkpt lat="43.8150166" lon="12.8629604"><ele>158.0</ele><time>2026-04-18T16:03:54.5Z</time></trkpt><trkpt lat="43.8151745" lon="12.8630131"><ele>158.0</ele><time>2026-04-18T16:03:55.512Z</time></trkpt><trkpt lat="43.815331" lon="12.8630632"><ele>158.0</ele><time>2026-04-18T16:03:56.501Z</time></trkpt><trkpt lat="43.815486" lon="12.8631155"><ele>158.0</ele><time>2026-04-18T16:03:57.501Z</time></trkpt><trkpt lat="43.8156399" lon="12.8631709"><ele>158.0</ele><time>2026-04-18T16:03:58.5Z</time></trkpt><trkpt lat="43.8157968" lon="12.8632319"><ele>158.0</ele><time>2026-04-18T16:03:59.515Z</time></trkpt><trkpt lat="43.8159535" lon="12.8632955"><ele>157.0</ele><time>2026-04-18T16:04:00.502Z</time></trkpt><trkpt lat="43.8161097" lon="12.8633664"><ele>156.0</ele><time>2026-04-18T16:04:01.502Z</time></trkpt><trkpt lat="43.8162621" lon="12.8634513"><ele>155.0</ele><time>2026-04-18T16:04:02.502Z</time></trkpt><trkpt lat="43.8164083" lon="12.8635499"><ele>152.33333333333331</ele><time>2026-04-18T16:04:03.501Z</time></trkpt><trkpt lat="43.8165503" lon="12.8636568"><ele>149.66666666666666</ele><time>2026-04-18T16:04:04.502Z</time></trkpt><trkpt lat="43.8166859" lon="12.8637791"><ele>147.0</ele><time>2026-04-18T16:04:05.503Z</time></trkpt><trkpt lat="43.8168139" lon="12.8639171"><ele>148.0</ele><time>2026-04-18T16:04:06.502Z</time></trkpt><trkpt lat="43.8169408" lon="12.8640594"><ele>149.0</ele><time>2026-04-18T16:04:07.502Z</time></trkpt><trkpt lat="43.8170659" lon="12.8642071"><ele>150.0</ele><time>2026-04-18T16:04:08.503Z</time></trkpt><trkpt lat="43.8171907" lon="12.8643556"><ele>148.0</ele><time>2026-04-18T16:04:09.501Z</time></trkpt><trkpt lat="43.817316" lon="12.864506"><ele>146.0</ele><time>2026-04-18T16:04:10.506Z</time></trkpt><trkpt lat="43.8174403" lon="12.8646576"><ele>144.0</ele><time>2026-04-18T16:04:11.502Z</time></trkpt><trkpt lat="43.817564" lon="12.8648109"><ele>143.66666666666666</ele><time>2026-04-18T16:04:12.502Z</time></trkpt><trkpt lat="43.8176859" lon="12.8649671"><ele>143.33333333333331</ele><time>2026-04-18T16:04:13.502Z</time></trkpt><trkpt lat="43.8178103" lon="12.8651195"><ele>143.0</ele><time>2026-04-18T16:04:14.502Z</time></trkpt><trkpt lat="43.8179337" lon="12.86527"><ele>142.66666666666666</ele><time>2026-04-18T16:04:15.502Z</time></trkpt><trkpt lat="43.818055" lon="12.8654226"><ele>142.33333333333334</ele><time>2026-04-18T16:04:16.502Z</time></trkpt><trkpt lat="43.8181774" lon="12.8655765"><ele>142.0</ele><time>2026-04-18T16:04:17.503Z</time></trkpt><trkpt lat="43.8182984" lon="12.8657256"><ele>142.0</ele><time>2026-04-18T16:04:18.502Z</time></trkpt><trkpt lat="43.8184174" lon="12.8658645"><ele>142.0</ele><time>2026-04-18T16:04:19.501Z</time></trkpt><trkpt lat="43.818532" lon="12.8660024"><ele>142.0</ele><time>2026-04-18T16:04:20.504Z</time></trkpt><trkpt lat="43.8186489" lon="12.8661378"><ele>140.33333333333334</ele><time>2026-04-18T16:04:21.502Z</time></trkpt><trkpt lat="43.8187605" lon="12.8662792"><ele>138.66666666666666</ele><time>2026-04-18T16:04:22.502Z</time></trkpt><trkpt lat="43.818873" lon="12.8664217"><ele>137.0</ele><time>2026-04-18T16:04:23.502Z</time></trkpt><trkpt lat="43.8189845" lon="12.8665644"><ele>137.0</ele><time>2026-04-18T16:04:24.502Z</time></trkpt><trkpt lat="43.819096" lon="12.8667025"><ele>137.0</ele><time>2026-04-18T16:04:25.502Z</time></trkpt><trkpt lat="43.8192088" lon="12.8668417"><ele>137.0</ele><time>2026-04-18T16:04:26.502Z</time></trkpt><trkpt lat="43.8193203" lon="12.8669821"><ele>137.0</ele><time>2026-04-18T16:04:27.502Z</time></trkpt><trkpt lat="43.819432" lon="12.8671144"><ele>137.0</ele><time>2026-04-18T16:04:28.502Z</time></trkpt><trkpt lat="43.8195467" lon="12.8672398"><ele>137.0</ele><time>2026-04-18T16:04:29.502Z</time></trkpt><trkpt lat="43.8196653" lon="12.8673539"><ele>137.0</ele><time>2026-04-18T16:04:30.502Z</time></trkpt><trkpt lat="43.8197888" lon="12.8674574"><ele>137.0</ele><time>2026-04-18T16:04:31.503Z</time></trkpt><trkpt lat="43.8199196" lon="12.8675572"><ele>137.0</ele><time>2026-04-18T16:04:32.504Z</time></trkpt><trkpt lat="43.8200563" lon="12.8676314"><ele>137.0</ele><time>2026-04-18T16:04:33.5Z</time></trkpt><trkpt lat="43.8202006" lon="12.8676941"><ele>137.0</ele><time>2026-04-18T16:04:34.5Z</time></trkpt><trkpt lat="43.820348" lon="12.8677478"><ele>136.0</ele><time>2026-04-18T16:04:35.5Z</time></trkpt><trkpt lat="43.8204993" lon="12.8677954"><ele>135.0</ele><time>2026-04-18T16:04:36.501Z</time></trkpt><trkpt lat="43.8206513" lon="12.8678448"><ele>134.0</ele><time>2026-04-18T16:04:37.5Z</time></trkpt><trkpt lat="43.8207989" lon="12.8678934"><ele>134.0</ele><time>2026-04-18T16:04:38.502Z</time></trkpt><trkpt lat="43.8209406" lon="12.8679407"><ele>134.0</ele><time>2026-04-18T16:04:39.5Z</time></trkpt><trkpt lat="43.8210787" lon="12.8679896"><ele>134.0</ele><time>2026-04-18T16:04:40.5Z</time></trkpt><trkpt lat="43.8212186" lon="12.8680348"><ele>134.0</ele><time>2026-04-18T16:04:41.504Z</time></trkpt><trkpt lat="43.8213584" lon="12.8680801"><ele>134.25</ele><time>2026-04-18T16:04:42.5Z</time></trkpt><trkpt lat="43.8214984" lon="12.8681294"><ele>134.5</ele><time>2026-04-18T16:04:43.5Z</time></trkpt><trkpt lat="43.8216398" lon="12.8681794"><ele>134.75</ele><time>2026-04-18T16:04:44.504Z</time></trkpt><trkpt lat="43.8217824" lon="12.8682282"><ele>135.0</ele><time>2026-04-18T16:04:45.5Z</time></trkpt><trkpt lat="43.8219237" lon="12.8682747"><ele>133.75</ele><time>2026-04-18T16:04:46.502Z</time></trkpt><trkpt lat="43.8220649" lon="12.8683256"><ele>132.5</ele><time>2026-04-18T16:04:47.5Z</time></trkpt><trkpt lat="43.8222063" lon="12.8683759"><ele>131.25</ele><time>2026-04-18T16:04:48.5Z</time></trkpt><trkpt lat="43.8223492" lon="12.8684236"><ele>130.0</ele><time>2026-04-18T16:04:49.501Z</time></trkpt><trkpt lat="43.8224939" lon="12.8684724"><ele>130.0</ele><time>2026-04-18T16:04:50.5Z</time></trkpt><trkpt lat="43.8226393" lon="12.8685262"><ele>130.0</ele><time>2026-04-18T16:04:51.5Z</time></trkpt><trkpt lat="43.8227877" lon="12.8685788"><ele>130.0</ele><time>2026-04-18T16:04:52.5Z</time></trkpt><trkpt lat="43.8229394" lon="12.8686293"><ele>128.33333333333334</ele><time>2026-04-18T16:04:53.501Z</time></trkpt><trkpt lat="43.8230896" lon="12.8686813"><ele>126.66666666666666</ele><time>2026-04-18T16:04:54.5Z</time></trkpt><trkpt lat="43.8232412" lon="12.8687286"><ele>125.0</ele><time>2026-04-18T16:04:55.499Z</time></trkpt><trkpt lat="43.8233959" lon="12.868771"><ele>125.33333333333333</ele><time>2026-04-18T16:04:56.501Z</time></trkpt><trkpt lat="43.8235505" lon="12.868812"><ele>125.66666666666666</ele><time>2026-04-18T16:04:57.501Z</time></trkpt><trkpt lat="43.8237072" lon="12.8688396"><ele>126.0</ele><time>2026-04-18T16:04:58.5Z</time></trkpt><trkpt lat="43.8238668" lon="12.8688512"><ele>126.0</ele><time>2026-04-18T16:04:59.501Z</time></trkpt><trkpt lat="43.8240259" lon="12.8688598"><ele>126.0</ele><time>2026-04-18T16:05:00.5Z</time></trkpt><trkpt lat="43.8241848" lon="12.8688659"><ele>126.0</ele><time>2026-04-18T16:05:01.5Z</time></trkpt><trkpt lat="43.8243423" lon="12.8688747"><ele>125.66666666666666</ele><time>2026-04-18T16:05:02.502Z</time></trkpt><trkpt lat="43.8244988" lon="12.8688818"><ele>125.33333333333333</ele><time>2026-04-18T16:05:03.5Z</time></trkpt><trkpt lat="43.8246554" lon="12.8688876"><ele>125.0</ele><time>2026-04-18T16:05:04.5Z</time></trkpt><trkpt lat="43.824813" lon="12.8688927"><ele>125.0</ele><time>2026-04-18T16:05:05.501Z</time></trkpt><trkpt lat="43.8249702" lon="12.8688976"><ele>125.0</ele><time>2026-04-18T16:05:06.501Z</time></trkpt><trkpt lat="43.8251292" lon="12.8688956"><ele>125.0</ele><time>2026-04-18T16:05:07.5Z</time></trkpt><trkpt lat="43.8252867" lon="12.8688961"><ele>124.33333333333333</ele><time>2026-04-18T16:05:08.5Z</time></trkpt><trkpt lat="43.8254461" lon="12.868902"><ele>123.66666666666666</ele><time>2026-04-18T16:05:09.5Z</time></trkpt><trkpt lat="43.8256084" lon="12.8689108"><ele>123.0</ele><time>2026-04-18T16:05:10.5Z</time></trkpt><trkpt lat="43.8257704" lon="12.8689164"><ele>123.0</ele><time>2026-04-18T16:05:11.499Z</time></trkpt><trkpt lat="43.825929" lon="12.8689211"><ele>123.0</ele><time>2026-04-18T16:05:12.5Z</time></trkpt><trkpt lat="43.8260817" lon="12.868927"><ele>123.0</ele><time>2026-04-18T16:05:13.5Z</time></trkpt><trkpt lat="43.826229" lon="12.8689281"><ele>120.75</ele><time>2026-04-18T16:05:14.502Z</time></trkpt><trkpt lat="43.8263676" lon="12.8689313"><ele>118.5</ele><time>2026-04-18T16:05:15.5Z</time></trkpt><trkpt lat="43.8265096" lon="12.8689339"><ele>116.25</ele><time>2026-04-18T16:05:16.501Z</time></trkpt><trkpt lat="43.826656" lon="12.8689371"><ele>114.0</ele><time>2026-04-18T16:05:17.501Z</time></trkpt><trkpt lat="43.8268019" lon="12.8689436"><ele>112.25</ele><time>2026-04-18T16:05:18.501Z</time></trkpt><trkpt lat="43.8269458" lon="12.8689503"><ele>110.5</ele><time>2026-04-18T16:05:19.501Z</time></trkpt><trkpt lat="43.82709" lon="12.8689569"><ele>108.75</ele><time>2026-04-18T16:05:20.501Z</time></trkpt><trkpt lat="43.8272317" lon="12.868967"><ele>107.0</ele><time>2026-04-18T16:05:21.499Z</time></trkpt><trkpt lat="43.827374" lon="12.8689747"><ele>107.0</ele><time>2026-04-18T16:05:22.501Z</time></trkpt><trkpt lat="43.8275144" lon="12.8689783"><ele>107.0</ele><time>2026-04-18T16:05:23.5Z</time></trkpt><trkpt lat="43.8276551" lon="12.8689817"><ele>107.0</ele><time>2026-04-18T16:05:24.502Z</time></trkpt><trkpt lat="43.8277912" lon="12.8689909"><ele>107.0</ele><time>2026-04-18T16:05:25.502Z</time></trkpt><trkpt lat="43.8279269" lon="12.8689991"><ele>105.0</ele><time>2026-04-18T16:05:26.501Z</time></trkpt><trkpt lat="43.8280629" lon="12.8690078"><ele>103.0</ele><time>2026-04-18T16:05:27.5Z</time></trkpt><trkpt lat="43.8281967" lon="12.869015"><ele>101.0</ele><time>2026-04-18T16:05:28.5Z</time></trkpt><trkpt lat="43.8283303" lon="12.8690237"><ele>99.0</ele><time>2026-04-18T16:05:29.502Z</time></trkpt><trkpt lat="43.8284649" lon="12.8690323"><ele>97.0</ele><time>2026-04-18T16:05:30.501Z</time></trkpt><trkpt lat="43.8286041" lon="12.8690373"><ele>95.0</ele><time>2026-04-18T16:05:31.501Z</time></trkpt><trkpt lat="43.8287483" lon="12.8690392"><ele>93.0</ele><time>2026-04-18T16:05:32.501Z</time></trkpt><trkpt lat="43.8288898" lon="12.869044"><ele>91.0</ele><time>2026-04-18T16:05:33.499Z</time></trkpt><trkpt lat="43.8290325" lon="12.8690472"><ele>91.0</ele><time>2026-04-18T16:05:34.5Z</time></trkpt><trkpt lat="43.8291741" lon="12.8690509"><ele>91.0</ele><time>2026-04-18T16:05:35.5Z</time></trkpt><trkpt lat="43.829313" lon="12.8690545"><ele>91.0</ele><time>2026-04-18T16:05:36.5Z</time></trkpt><trkpt lat="43.8294476" lon="12.8690518"><ele>91.0</ele><time>2026-04-18T16:05:37.5Z</time></trkpt><trkpt lat="43.8295808" lon="12.8690523"><ele>90.0</ele><time>2026-04-18T16:05:38.501Z</time></trkpt><trkpt lat="43.8297111" lon="12.8690597"><ele>89.0</ele><time>2026-04-18T16:05:39.5Z</time></trkpt><trkpt lat="43.8298429" lon="12.8690686"><ele>88.0</ele><time>2026-04-18T16:05:40.501Z</time></trkpt><trkpt lat="43.8299693" lon="12.8690792"><ele>87.0</ele><time>2026-04-18T16:05:41.5Z</time></trkpt><trkpt lat="43.8300929" lon="12.8690811"><ele>85.0</ele><time>2026-04-18T16:05:42.501Z</time></trkpt><trkpt lat="43.8302158" lon="12.8690827"><ele>83.0</ele><time>2026-04-18T16:05:43.5Z</time></trkpt><trkpt lat="43.8303399" lon="12.8690849"><ele>81.0</ele><time>2026-04-18T16:05:44.501Z</time></trkpt><trkpt lat="43.8304581" lon="12.8690887"><ele>79.0</ele><time>2026-04-18T16:05:45.5Z</time></trkpt><trkpt lat="43.8305757" lon="12.8690974"><ele>79.0</ele><time>2026-04-18T16:05:46.5Z</time></trkpt><trkpt lat="43.8306921" lon="12.8691084"><ele>79.0</ele><time>2026-04-18T16:05:47.499Z</time></trkpt><trkpt lat="43.8308084" lon="12.8691134"><ele>79.0</ele><time>2026-04-18T16:05:48.5Z</time></trkpt><trkpt lat="43.8309258" lon="12.8691162"><ele>79.0</ele><time>2026-04-18T16:05:49.501Z</time></trkpt><trkpt lat="43.8310414" lon="12.8691273"><ele>78.0</ele><time>2026-04-18T16:05:50.502Z</time></trkpt><trkpt lat="43.831154" lon="12.8691448"><ele>77.0</ele><time>2026-04-18T16:05:51.501Z</time></trkpt><trkpt lat="43.8312663" lon="12.8691712"><ele>76.0</ele><time>2026-04-18T16:05:52.502Z</time></trkpt><trkpt lat="43.831383" lon="12.8692154"><ele>75.0</ele><time>2026-04-18T16:05:53.501Z</time></trkpt><trkpt lat="43.8314967" lon="12.8692745"><ele>75.0</ele><time>2026-04-18T16:05:54.506Z</time></trkpt><trkpt lat="43.8316013" lon="12.8693438"><ele>75.0</ele><time>2026-04-18T16:05:55.499Z</time></trkpt><trkpt lat="43.8316952" lon="12.8694216"><ele>75.0</ele><time>2026-04-18T16:05:56.501Z</time></trkpt><trkpt lat="43.8317787" lon="12.8695081"><ele>75.0</ele><time>2026-04-18T16:05:57.501Z</time></trkpt><trkpt lat="43.8318509" lon="12.8696011"><ele>75.0</ele><time>2026-04-18T16:05:58.501Z</time></trkpt><trkpt lat="43.8319133" lon="12.8696968"><ele>74.33333333333333</ele><time>2026-04-18T16:05:59.501Z</time></trkpt><trkpt lat="43.8319605" lon="12.8697882"><ele>73.66666666666667</ele><time>2026-04-18T16:06:00.5Z</time></trkpt><trkpt lat="43.8319959" lon="12.8698683"><ele>73.0</ele><time>2026-04-18T16:06:01.5Z</time></trkpt><trkpt lat="43.832064" lon="12.8699896"><ele>72.33333333333334</ele><time>2026-04-18T16:06:03.5Z</time></trkpt><trkpt lat="43.8321631" lon="12.8699688"><ele>71.66666666666667</ele><time>2026-04-18T16:06:05.499Z</time></trkpt><trkpt lat="43.8322309" lon="12.8699175"><ele>71.0</ele><time>2026-04-18T16:06:06.499Z</time></trkpt><trkpt lat="43.8323093" lon="12.8698742"><ele>71.0</ele><time>2026-04-18T16:06:07.499Z</time></trkpt><trkpt lat="43.8323981" lon="12.8698389"><ele>71.0</ele><time>2026-04-18T16:06:08.5Z</time></trkpt><trkpt lat="43.8324959" lon="12.8698059"><ele>71.0</ele><time>2026-04-18T16:06:09.5Z</time></trkpt><trkpt lat="43.8325934" lon="12.8697773"><ele>71.0</ele><time>2026-04-18T16:06:10.5Z</time></trkpt><trkpt lat="43.832695" lon="12.8697527"><ele>71.0</ele><time>2026-04-18T16:06:11.5Z</time></trkpt><trkpt lat="43.8327998" lon="12.8697244"><ele>70.6</ele><time>2026-04-18T16:06:12.501Z</time></trkpt><trkpt lat="43.8329029" lon="12.8696951"><ele>70.19999999999999</ele><time>2026-04-18T16:06:13.515Z</time></trkpt><trkpt lat="43.8330031" lon="12.8696628"><ele>69.80000000000001</ele><time>2026-04-18T16:06:14.502Z</time></trkpt><trkpt lat="43.8331056" lon="12.8696322"><ele>69.4</ele><time>2026-04-18T16:06:15.503Z</time></trkpt><trkpt lat="43.8331968" lon="12.8695956"><ele>69.0</ele><time>2026-04-18T16:06:16.5Z</time></trkpt><trkpt lat="43.8332806" lon="12.8695466"><ele>69.0</ele><time>2026-04-18T16:06:17.5Z</time></trkpt><trkpt lat="43.8333541" lon="12.8694716"><ele>69.0</ele><time>2026-04-18T16:06:18.5Z</time></trkpt><trkpt lat="43.8334189" lon="12.8693847"><ele>69.0</ele><time>2026-04-18T16:06:19.5Z</time></trkpt><trkpt lat="43.8334715" lon="12.8692833"><ele>69.0</ele><time>2026-04-18T16:06:20.501Z</time></trkpt><trkpt lat="43.8335048" lon="12.8691656"><ele>69.0</ele><time>2026-04-18T16:06:21.5Z</time></trkpt><trkpt lat="43.8335251" lon="12.8690273"><ele>68.0</ele><time>2026-04-18T16:06:22.5Z</time></trkpt><trkpt lat="43.8335309" lon="12.8688639"><ele>67.0</ele><time>2026-04-18T16:06:23.5Z</time></trkpt><trkpt lat="43.8335385" lon="12.8686814"><ele>66.0</ele><time>2026-04-18T16:06:24.5Z</time></trkpt><trkpt lat="43.8335471" lon="12.8684863"><ele>65.0</ele><time>2026-04-18T16:06:25.498Z</time></trkpt><trkpt lat="43.8335611" lon="12.868297"><ele>64.0</ele><time>2026-04-18T16:06:26.5Z</time></trkpt><trkpt lat="43.8335753" lon="12.8681084"><ele>63.0</ele><time>2026-04-18T16:06:27.5Z</time></trkpt><trkpt lat="43.8335914" lon="12.8679188"><ele>62.0</ele><time>2026-04-18T16:06:28.498Z</time></trkpt><trkpt lat="43.833607" lon="12.8677239"><ele>61.0</ele><time>2026-04-18T16:06:29.499Z</time></trkpt><trkpt lat="43.8336241" lon="12.867523"><ele>60.666666666666664</ele><time>2026-04-18T16:06:30.498Z</time></trkpt><trkpt lat="43.8336462" lon="12.8673125"><ele>60.33333333333333</ele><time>2026-04-18T16:06:31.5Z</time></trkpt><trkpt lat="43.8336722" lon="12.867101"><ele>60.0</ele><time>2026-04-18T16:06:32.499Z</time></trkpt><trkpt lat="43.8337045" lon="12.8668824"><ele>60.0</ele><time>2026-04-18T16:06:33.498Z</time></trkpt><trkpt lat="43.8337381" lon="12.8666531"><ele>60.0</ele><time>2026-04-18T16:06:34.499Z</time></trkpt><trkpt lat="43.8337692" lon="12.8664046"><ele>60.0</ele><time>2026-04-18T16:06:35.499Z</time></trkpt><trkpt lat="43.8337971" lon="12.8661331"><ele>60.33333333333333</ele><time>2026-04-18T16:06:36.499Z</time></trkpt><trkpt lat="43.8338256" lon="12.8658532"><ele>60.666666666666664</ele><time>2026-04-18T16:06:37.498Z</time></trkpt><trkpt lat="43.8338506" lon="12.8655923"><ele>61.0</ele><time>2026-04-18T16:06:38.499Z</time></trkpt><trkpt lat="43.8338681" lon="12.8653464"><ele>61.33333333333333</ele><time>2026-04-18T16:06:39.499Z</time></trkpt><trkpt lat="43.8338865" lon="12.865112"><ele>61.66666666666667</ele><time>2026-04-18T16:06:40.499Z</time></trkpt><trkpt lat="43.8339065" lon="12.8648847"><ele>62.0</ele><time>2026-04-18T16:06:41.498Z</time></trkpt><trkpt lat="43.8339237" lon="12.864673"><ele>62.0</ele><time>2026-04-18T16:06:42.498Z</time></trkpt><trkpt lat="43.8339344" lon="12.8644772"><ele>62.0</ele><time>2026-04-18T16:06:43.499Z</time></trkpt><trkpt lat="43.8339412" lon="12.8643002"><ele>62.0</ele><time>2026-04-18T16:06:44.499Z</time></trkpt><trkpt lat="43.8339473" lon="12.8641338"><ele>62.0</ele><time>2026-04-18T16:06:45.5Z</time></trkpt><trkpt lat="43.8339542" lon="12.8639653"><ele>63.0</ele><time>2026-04-18T16:06:46.498Z</time></trkpt><trkpt lat="43.8339622" lon="12.8637956"><ele>64.0</ele><time>2026-04-18T16:06:47.499Z</time></trkpt><trkpt lat="43.8339722" lon="12.8636208"><ele>65.0</ele><time>2026-04-18T16:06:48.499Z</time></trkpt><trkpt lat="43.8339785" lon="12.8634424"><ele>66.0</ele><time>2026-04-18T16:06:49.499Z</time></trkpt><trkpt lat="43.8339841" lon="12.8632661"><ele>66.25</ele><time>2026-04-18T16:06:50.501Z</time></trkpt><trkpt lat="43.8339954" lon="12.8630909"><ele>66.5</ele><time>2026-04-18T16:06:51.499Z</time></trkpt><trkpt lat="43.834005" lon="12.8629143"><ele>66.75</ele><time>2026-04-18T16:06:52.499Z</time></trkpt><trkpt lat="43.8340084" lon="12.8627361"><ele>67.0</ele><time>2026-04-18T16:06:53.498Z</time></trkpt><trkpt lat="43.8340092" lon="12.8625574"><ele>67.25</ele><time>2026-04-18T16:06:54.498Z</time></trkpt><trkpt lat="43.8340102" lon="12.8623763"><ele>67.5</ele><time>2026-04-18T16:06:55.498Z</time></trkpt><trkpt lat="43.8340109" lon="12.862187"><ele>67.75</ele><time>2026-04-18T16:06:56.499Z</time></trkpt><trkpt lat="43.8340093" lon="12.8620016"><ele>68.0</ele><time>2026-04-18T16:06:57.499Z</time></trkpt><trkpt lat="43.8340074" lon="12.8618178"><ele>67.75</ele><time>2026-04-18T16:06:58.501Z</time></trkpt><trkpt lat="43.8340074" lon="12.8616336"><ele>67.5</ele><time>2026-04-18T16:06:59.499Z</time></trkpt><trkpt lat="43.8340085" lon="12.8614451"><ele>67.25</ele><time>2026-04-18T16:07:00.499Z</time></trkpt><trkpt lat="43.8340069" lon="12.8612542"><ele>67.0</ele><time>2026-04-18T16:07:01.501Z</time></trkpt><trkpt lat="43.8340107" lon="12.861058"><ele>66.75</ele><time>2026-04-18T16:07:02.501Z</time></trkpt><trkpt lat="43.8340144" lon="12.8608581"><ele>66.5</ele><time>2026-04-18T16:07:03.499Z</time></trkpt><trkpt lat="43.8340176" lon="12.860651"><ele>66.25</ele><time>2026-04-18T16:07:04.499Z</time></trkpt><trkpt lat="43.834022" lon="12.8604412"><ele>66.0</ele><time>2026-04-18T16:07:05.498Z</time></trkpt><trkpt lat="43.8340311" lon="12.8602374"><ele>66.25</ele><time>2026-04-18T16:07:06.499Z</time></trkpt><trkpt lat="43.834047" lon="12.860038"><ele>66.5</ele><time>2026-04-18T16:07:07.499Z</time></trkpt><trkpt lat="43.8340664" lon="12.8598456"><ele>66.75</ele><time>2026-04-18T16:07:08.5Z</time></trkpt><trkpt lat="43.8340835" lon="12.859653"><ele>67.0</ele><time>2026-04-18T16:07:09.5Z</time></trkpt><trkpt lat="43.834109" lon="12.8594538"><ele>67.0</ele><time>2026-04-18T16:07:10.499Z</time></trkpt><trkpt lat="43.8341356" lon="12.8592525"><ele>67.0</ele><time>2026-04-18T16:07:11.5Z</time></trkpt><trkpt lat="43.834167" lon="12.8590502"><ele>67.0</ele><time>2026-04-18T16:07:12.498Z</time></trkpt><trkpt lat="43.8342033" lon="12.8588415"><ele>67.0</ele><time>2026-04-18T16:07:13.499Z</time></trkpt><trkpt lat="43.8342346" lon="12.8586216"><ele>67.0</ele><time>2026-04-18T16:07:14.499Z</time></trkpt><trkpt lat="43.8342699" lon="12.8583963"><ele>67.0</ele><time>2026-04-18T16:07:15.499Z</time></trkpt><trkpt lat="43.8343054" lon="12.8581605"><ele>67.0</ele><time>2026-04-18T16:07:16.501Z</time></trkpt><trkpt lat="43.8343406" lon="12.8579214"><ele>67.0</ele><time>2026-04-18T16:07:17.504Z</time></trkpt><trkpt lat="43.8343739" lon="12.857683"><ele>67.0</ele><time>2026-04-18T16:07:18.5Z</time></trkpt><trkpt lat="43.8344133" lon="12.8574459"><ele>67.0</ele><time>2026-04-18T16:07:19.5Z</time></trkpt><trkpt lat="43.8344492" lon="12.8572108"><ele>67.0</ele><time>2026-04-18T16:07:20.501Z</time></trkpt><trkpt lat="43.8344721" lon="12.8569784"><ele>67.0</ele><time>2026-04-18T16:07:21.502Z</time></trkpt><trkpt lat="43.834469" lon="12.8567604"><ele>67.5</ele><time>2026-04-18T16:07:22.499Z</time></trkpt><trkpt lat="43.8344496" lon="12.8565556"><ele>68.0</ele><time>2026-04-18T16:07:23.498Z</time></trkpt><trkpt lat="43.8344105" lon="12.8563635"><ele>68.5</ele><time>2026-04-18T16:07:24.502Z</time></trkpt><trkpt lat="43.8343631" lon="12.8561745"><ele>69.0</ele><time>2026-04-18T16:07:25.498Z</time></trkpt><trkpt lat="43.8343143" lon="12.8559863"><ele>69.75</ele><time>2026-04-18T16:07:26.498Z</time></trkpt><trkpt lat="43.834271" lon="12.855798"><ele>70.5</ele><time>2026-04-18T16:07:27.498Z</time></trkpt><trkpt lat="43.8342332" lon="12.8556199"><ele>71.25</ele><time>2026-04-18T16:07:28.499Z</time></trkpt><trkpt lat="43.8342035" lon="12.8554366"><ele>72.0</ele><time>2026-04-18T16:07:29.498Z</time></trkpt><trkpt lat="43.8341807" lon="12.8552498"><ele>72.5</ele><time>2026-04-18T16:07:30.5Z</time></trkpt><trkpt lat="43.8341633" lon="12.8550759"><ele>73.0</ele><time>2026-04-18T16:07:31.499Z</time></trkpt><trkpt lat="43.8341416" lon="12.8549109"><ele>73.5</ele><time>2026-04-18T16:07:32.499Z</time></trkpt><trkpt lat="43.8341157" lon="12.85475"><ele>74.0</ele><time>2026-04-18T16:07:33.498Z</time></trkpt><trkpt lat="43.8340811" lon="12.8545937"><ele>74.0</ele><time>2026-04-18T16:07:34.499Z</time></trkpt><trkpt lat="43.8340365" lon="12.8544446"><ele>74.0</ele><time>2026-04-18T16:07:35.499Z</time></trkpt><trkpt lat="43.8339972" lon="12.8543061"><ele>74.0</ele><time>2026-04-18T16:07:36.499Z</time></trkpt><trkpt lat="43.8339694" lon="12.8541619"><ele>74.0</ele><time>2026-04-18T16:07:37.499Z</time></trkpt><trkpt lat="43.8339644" lon="12.8540094"><ele>74.0</ele><time>2026-04-18T16:07:38.499Z</time></trkpt><trkpt lat="43.8339761" lon="12.8538527"><ele>73.75</ele><time>2026-04-18T16:07:39.498Z</time></trkpt><trkpt lat="43.8340008" lon="12.8536971"><ele>73.5</ele><time>2026-04-18T16:07:40.498Z</time></trkpt><trkpt lat="43.8340264" lon="12.8535417"><ele>73.25</ele><time>2026-04-18T16:07:41.499Z</time></trkpt><trkpt lat="43.8340456" lon="12.8533891"><ele>73.0</ele><time>2026-04-18T16:07:42.498Z</time></trkpt><trkpt lat="43.8340565" lon="12.8532321"><ele>73.5</ele><time>2026-04-18T16:07:43.499Z</time></trkpt><trkpt lat="43.8340523" lon="12.8530747"><ele>74.0</ele><time>2026-04-18T16:07:44.501Z</time></trkpt><trkpt lat="43.8340407" lon="12.8529178"><ele>74.5</ele><time>2026-04-18T16:07:45.499Z</time></trkpt><trkpt lat="43.834023" lon="12.8527582"><ele>75.0</ele><time>2026-04-18T16:07:46.499Z</time></trkpt><trkpt lat="43.8340068" lon="12.8525959"><ele>75.25</ele><time>2026-04-18T16:07:47.499Z</time></trkpt><trkpt lat="43.8339886" lon="12.8524353"><ele>75.5</ele><time>2026-04-18T16:07:48.499Z</time></trkpt><trkpt lat="43.8339725" lon="12.8522703"><ele>75.75</ele><time>2026-04-18T16:07:49.499Z</time></trkpt><trkpt lat="43.8339524" lon="12.8521098"><ele>76.0</ele><time>2026-04-18T16:07:50.5Z</time></trkpt><trkpt lat="43.8339322" lon="12.8519461"><ele>76.25</ele><time>2026-04-18T16:07:51.498Z</time></trkpt><trkpt lat="43.8339067" lon="12.8517827"><ele>76.5</ele><time>2026-04-18T16:07:52.498Z</time></trkpt><trkpt lat="43.8338861" lon="12.8516255"><ele>76.75</ele><time>2026-04-18T16:07:53.498Z</time></trkpt><trkpt lat="43.8338634" lon="12.8514651"><ele>77.0</ele><time>2026-04-18T16:07:54.5Z</time></trkpt><trkpt lat="43.8338409" lon="12.8513073"><ele>77.0</ele><time>2026-04-18T16:07:55.498Z</time></trkpt><trkpt lat="43.8338255" lon="12.8511426"><ele>77.0</ele><time>2026-04-18T16:07:56.499Z</time></trkpt><trkpt lat="43.8338068" lon="12.8509788"><ele>77.0</ele><time>2026-04-18T16:07:57.497Z</time></trkpt><trkpt lat="43.8337923" lon="12.8508139"><ele>77.0</ele><time>2026-04-18T16:07:58.499Z</time></trkpt><trkpt lat="43.8337779" lon="12.8506513"><ele>77.0</ele><time>2026-04-18T16:07:59.499Z</time></trkpt><trkpt lat="43.8337621" lon="12.8504869"><ele>77.0</ele><time>2026-04-18T16:08:00.499Z</time></trkpt><trkpt lat="43.8337493" lon="12.8503194"><ele>77.0</ele><time>2026-04-18T16:08:01.501Z</time></trkpt><trkpt lat="43.8337336" lon="12.8501575"><ele>77.0</ele><time>2026-04-18T16:08:02.5Z</time></trkpt><trkpt lat="43.8337143" lon="12.8499981"><ele>77.5</ele><time>2026-04-18T16:08:03.498Z</time></trkpt><trkpt lat="43.833694" lon="12.8498345"><ele>78.0</ele><time>2026-04-18T16:08:04.497Z</time></trkpt><trkpt lat="43.8336762" lon="12.8496726"><ele>78.5</ele><time>2026-04-18T16:08:05.499Z</time></trkpt><trkpt lat="43.833657" lon="12.8495085"><ele>79.0</ele><time>2026-04-18T16:08:06.499Z</time></trkpt><trkpt lat="43.833641" lon="12.849339"><ele>78.75</ele><time>2026-04-18T16:08:07.499Z</time></trkpt><trkpt lat="43.833623" lon="12.84917"><ele>78.5</ele><time>2026-04-18T16:08:08.499Z</time></trkpt><trkpt lat="43.8336019" lon="12.8490002"><ele>78.25</ele><time>2026-04-18T16:08:09.5Z</time></trkpt><trkpt lat="43.8335802" lon="12.8488351"><ele>78.0</ele><time>2026-04-18T16:08:10.5Z</time></trkpt><trkpt lat="43.8335598" lon="12.8486714"><ele>78.0</ele><time>2026-04-18T16:08:11.499Z</time></trkpt><trkpt lat="43.8335372" lon="12.8485057"><ele>78.0</ele><time>2026-04-18T16:08:12.498Z</time></trkpt><trkpt lat="43.8335163" lon="12.8483449"><ele>78.0</ele><time>2026-04-18T16:08:13.497Z</time></trkpt><trkpt lat="43.8334962" lon="12.8481821"><ele>78.0</ele><time>2026-04-18T16:08:14.5Z</time></trkpt><trkpt lat="43.8334775" lon="12.8480176"><ele>78.0</ele><time>2026-04-18T16:08:15.498Z</time></trkpt><trkpt lat="43.8334606" lon="12.8478522"><ele>78.0</ele><time>2026-04-18T16:08:16.498Z</time></trkpt><trkpt lat="43.8334426" lon="12.8476884"><ele>78.0</ele><time>2026-04-18T16:08:17.498Z</time></trkpt><trkpt lat="43.8334218" lon="12.8475261"><ele>78.0</ele><time>2026-04-18T16:08:18.498Z</time></trkpt><trkpt lat="43.8334055" lon="12.8473572"><ele>78.25</ele><time>2026-04-18T16:08:19.499Z</time></trkpt><trkpt lat="43.8333918" lon="12.8471844"><ele>78.5</ele><time>2026-04-18T16:08:20.5Z</time></trkpt><trkpt lat="43.8333759" lon="12.8470074"><ele>78.75</ele><time>2026-04-18T16:08:21.5Z</time></trkpt><trkpt lat="43.8333565" lon="12.8468315"><ele>79.0</ele><time>2026-04-18T16:08:22.498Z</time></trkpt><trkpt lat="43.8333364" lon="12.8466562"><ele>80.0</ele><time>2026-04-18T16:08:23.498Z</time></trkpt><trkpt lat="43.833319" lon="12.8464883"><ele>81.0</ele><time>2026-04-18T16:08:24.498Z</time></trkpt><trkpt lat="43.8333013" lon="12.8463332"><ele>82.0</ele><time>2026-04-18T16:08:25.497Z</time></trkpt><trkpt lat="43.8332847" lon="12.8461835"><ele>83.0</ele><time>2026-04-18T16:08:26.5Z</time></trkpt><trkpt lat="43.8332709" lon="12.8460342"><ele>84.75</ele><time>2026-04-18T16:08:27.499Z</time></trkpt><trkpt lat="43.8332543" lon="12.8458834"><ele>86.5</ele><time>2026-04-18T16:08:28.499Z</time></trkpt><trkpt lat="43.8332358" lon="12.8457304"><ele>88.25</ele><time>2026-04-18T16:08:29.499Z</time></trkpt><trkpt lat="43.8332148" lon="12.8455719"><ele>90.0</ele><time>2026-04-18T16:08:30.499Z</time></trkpt><trkpt lat="43.8331933" lon="12.8454145"><ele>90.0</ele><time>2026-04-18T16:08:31.499Z</time></trkpt><trkpt lat="43.8331691" lon="12.8452513"><ele>90.0</ele><time>2026-04-18T16:08:32.502Z</time></trkpt><trkpt lat="43.8331424" lon="12.8450848"><ele>90.0</ele><time>2026-04-18T16:08:33.498Z</time></trkpt><trkpt lat="43.8331115" lon="12.8449183"><ele>90.0</ele><time>2026-04-18T16:08:34.499Z</time></trkpt><trkpt lat="43.8330809" lon="12.8447515"><ele>92.0</ele><time>2026-04-18T16:08:35.498Z</time></trkpt><trkpt lat="43.8330533" lon="12.8445787"><ele>94.0</ele><time>2026-04-18T16:08:36.498Z</time></trkpt><trkpt lat="43.8330261" lon="12.8443962"><ele>96.0</ele><time>2026-04-18T16:08:37.499Z</time></trkpt><trkpt lat="43.8329952" lon="12.8442121"><ele>98.0</ele><time>2026-04-18T16:08:38.502Z</time></trkpt><trkpt lat="43.8329638" lon="12.8440313"><ele>99.5</ele><time>2026-04-18T16:08:39.498Z</time></trkpt><trkpt lat="43.8329323" lon="12.8438542"><ele>101.0</ele><time>2026-04-18T16:08:40.498Z</time></trkpt><trkpt lat="43.8329013" lon="12.843682"><ele>102.5</ele><time>2026-04-18T16:08:41.5Z</time></trkpt><trkpt lat="43.832877" lon="12.8435074"><ele>104.0</ele><time>2026-04-18T16:08:42.501Z</time></trkpt><trkpt lat="43.8328591" lon="12.8433321"><ele>106.0</ele><time>2026-04-18T16:08:43.501Z</time></trkpt><trkpt lat="43.8328515" lon="12.8431489"><ele>108.0</ele><time>2026-04-18T16:08:44.501Z</time></trkpt><trkpt lat="43.8328516" lon="12.8429578"><ele>110.0</ele><time>2026-04-18T16:08:45.499Z</time></trkpt><trkpt lat="43.832852" lon="12.8427635"><ele>112.0</ele><time>2026-04-18T16:08:46.498Z</time></trkpt><trkpt lat="43.832852" lon="12.842567"><ele>113.5</ele><time>2026-04-18T16:08:47.499Z</time></trkpt><trkpt lat="43.832849" lon="12.8423783"><ele>115.0</ele><time>2026-04-18T16:08:48.499Z</time></trkpt><trkpt lat="43.8328383" lon="12.8422021"><ele>116.5</ele><time>2026-04-18T16:08:49.501Z</time></trkpt><trkpt lat="43.8328234" lon="12.8420339"><ele>118.0</ele><time>2026-04-18T16:08:50.499Z</time></trkpt><trkpt lat="43.8328139" lon="12.8418666"><ele>119.25</ele><time>2026-04-18T16:08:51.5Z</time></trkpt><trkpt lat="43.8328004" lon="12.8417016"><ele>120.5</ele><time>2026-04-18T16:08:52.499Z</time></trkpt><trkpt lat="43.8327873" lon="12.8415294"><ele>121.75</ele><time>2026-04-18T16:08:53.499Z</time></trkpt><trkpt lat="43.8327699" lon="12.8413513"><ele>123.0</ele><time>2026-04-18T16:08:54.497Z</time></trkpt><trkpt lat="43.8327564" lon="12.8411647"><ele>123.0</ele><time>2026-04-18T16:08:55.498Z</time></trkpt><trkpt lat="43.8327527" lon="12.8409816"><ele>123.0</ele><time>2026-04-18T16:08:56.499Z</time></trkpt><trkpt lat="43.832757" lon="12.8407998"><ele>123.0</ele><time>2026-04-18T16:08:57.5Z</time></trkpt><trkpt lat="43.832759" lon="12.8406218"><ele>123.0</ele><time>2026-04-18T16:08:58.5Z</time></trkpt><trkpt lat="43.8327577" lon="12.8404502"><ele>124.5</ele><time>2026-04-18T16:08:59.499Z</time></trkpt><trkpt lat="43.8327593" lon="12.8402754"><ele>126.0</ele><time>2026-04-18T16:09:00.499Z</time></trkpt><trkpt lat="43.832771" lon="12.8400981"><ele>127.5</ele><time>2026-04-18T16:09:01.501Z</time></trkpt><trkpt lat="43.8328028" lon="12.8399217"><ele>129.0</ele><time>2026-04-18T16:09:02.5Z</time></trkpt><trkpt lat="43.8328492" lon="12.8397449"><ele>130.75</ele><time>2026-04-18T16:09:03.499Z</time></trkpt><trkpt lat="43.8329086" lon="12.8395625"><ele>132.5</ele><time>2026-04-18T16:09:04.499Z</time></trkpt><trkpt lat="43.8329791" lon="12.8393815"><ele>134.25</ele><time>2026-04-18T16:09:05.499Z</time></trkpt><trkpt lat="43.8330511" lon="12.8392"><ele>136.0</ele><time>2026-04-18T16:09:06.499Z</time></trkpt><trkpt lat="43.8331222" lon="12.8390192"><ele>136.5</ele><time>2026-04-18T16:09:07.499Z</time></trkpt><trkpt lat="43.8331898" lon="12.8388342"><ele>137.0</ele><time>2026-04-18T16:09:08.504Z</time></trkpt><trkpt lat="43.8332632" lon="12.8386593"><ele>137.5</ele><time>2026-04-18T16:09:09.498Z</time></trkpt><trkpt lat="43.8333359" lon="12.8384798"><ele>138.0</ele><time>2026-04-18T16:09:10.499Z</time></trkpt><trkpt lat="43.8334091" lon="12.8382998"><ele>138.0</ele><time>2026-04-18T16:09:11.5Z</time></trkpt><trkpt lat="43.8334772" lon="12.8381187"><ele>138.0</ele><time>2026-04-18T16:09:12.498Z</time></trkpt><trkpt lat="43.8335421" lon="12.8379315"><ele>138.0</ele><time>2026-04-18T16:09:13.499Z</time></trkpt><trkpt lat="43.8336048" lon="12.8377373"><ele>141.33333333333334</ele><time>2026-04-18T16:09:14.501Z</time></trkpt><trkpt lat="43.8336701" lon="12.8375288"><ele>144.66666666666669</ele><time>2026-04-18T16:09:15.498Z</time></trkpt><trkpt lat="43.8337341" lon="12.8373053"><ele>148.0</ele><time>2026-04-18T16:09:16.498Z</time></trkpt><trkpt lat="43.8337974" lon="12.8370927"><ele>148.0</ele><time>2026-04-18T16:09:17.5Z</time></trkpt><trkpt lat="43.8338506" lon="12.8369036"><ele>148.0</ele><time>2026-04-18T16:09:18.499Z</time></trkpt><trkpt lat="43.8338999" lon="12.8367222"><ele>148.0</ele><time>2026-04-18T16:09:19.499Z</time></trkpt><trkpt lat="43.8339408" lon="12.8365335"><ele>148.0</ele><time>2026-04-18T16:09:20.502Z</time></trkpt><trkpt lat="43.8339818" lon="12.8363424"><ele>150.75</ele><time>2026-04-18T16:09:21.5Z</time></trkpt><trkpt lat="43.8340162" lon="12.8361513"><ele>153.5</ele><time>2026-04-18T16:09:22.507Z</time></trkpt><trkpt lat="43.8340461" lon="12.8359648"><ele>156.25</ele><time>2026-04-18T16:09:23.5Z</time></trkpt><trkpt lat="43.8340771" lon="12.8357836"><ele>159.0</ele><time>2026-04-18T16:09:24.5Z</time></trkpt><trkpt lat="43.8341009" lon="12.8356001"><ele>160.25</ele><time>2026-04-18T16:09:25.499Z</time></trkpt><trkpt lat="43.8341219" lon="12.8354174"><ele>161.5</ele><time>2026-04-18T16:09:26.505Z</time></trkpt><trkpt lat="43.8341388" lon="12.8352383"><ele>162.75</ele><time>2026-04-18T16:09:27.499Z</time></trkpt><trkpt lat="43.8341491" lon="12.8350523"><ele>164.0</ele><time>2026-04-18T16:09:28.499Z</time></trkpt><trkpt lat="43.8341555" lon="12.8348679"><ele>165.5</ele><time>2026-04-18T16:09:29.5Z</time></trkpt><trkpt lat="43.8341605" lon="12.8346885"><ele>167.0</ele><time>2026-04-18T16:09:30.5Z</time></trkpt><trkpt lat="43.8341621" lon="12.8345188"><ele>168.5</ele><time>2026-04-18T16:09:31.5Z</time></trkpt><trkpt lat="43.8341607" lon="12.8343571"><ele>170.0</ele><time>2026-04-18T16:09:32.499Z</time></trkpt><trkpt lat="43.834157" lon="12.8342088"><ele>171.0</ele><time>2026-04-18T16:09:33.499Z</time></trkpt><trkpt lat="43.8341374" lon="12.8340805"><ele>172.0</ele><time>2026-04-18T16:09:34.498Z</time></trkpt><trkpt lat="43.8340909" lon="12.833971"><ele>173.0</ele><time>2026-04-18T16:09:35.498Z</time></trkpt><trkpt lat="43.8340197" lon="12.8338848"><ele>174.0</ele><time>2026-04-18T16:09:36.498Z</time></trkpt><trkpt lat="43.8339218" lon="12.8338431"><ele>175.0</ele><time>2026-04-18T16:09:37.499Z</time></trkpt><trkpt lat="43.8338131" lon="12.8338414"><ele>175.0</ele><time>2026-04-18T16:09:38.5Z</time></trkpt><trkpt lat="43.8336951" lon="12.8338788"><ele>175.0</ele><time>2026-04-18T16:09:39.498Z</time></trkpt><trkpt lat="43.8335872" lon="12.8339147"><ele>175.0</ele><time>2026-04-18T16:09:40.498Z</time></trkpt><trkpt lat="43.8334907" lon="12.8339294"><ele>175.0</ele><time>2026-04-18T16:09:41.498Z</time></trkpt><trkpt lat="43.8334078" lon="12.8338956"><ele>175.0</ele><time>2026-04-18T16:09:42.499Z</time></trkpt><trkpt lat="43.8333527" lon="12.8338119"><ele>175.4</ele><time>2026-04-18T16:09:43.5Z</time></trkpt><trkpt lat="43.8333368" lon="12.8336947"><ele>175.8</ele><time>2026-04-18T16:09:44.499Z</time></trkpt><trkpt lat="43.8333501" lon="12.8335628"><ele>176.2</ele><time>2026-04-18T16:09:45.497Z</time></trkpt><trkpt lat="43.8333974" lon="12.8334178"><ele>176.6</ele><time>2026-04-18T16:09:46.498Z</time></trkpt><trkpt lat="43.8334554" lon="12.83327"><ele>177.0</ele><time>2026-04-18T16:09:47.498Z</time></trkpt><trkpt lat="43.8335008" lon="12.8331219"><ele>179.0</ele><time>2026-04-18T16:09:48.498Z</time></trkpt><trkpt lat="43.8335192" lon="12.832971"><ele>181.0</ele><time>2026-04-18T16:09:49.499Z</time></trkpt><trkpt lat="43.8335142" lon="12.8328172"><ele>183.0</ele><time>2026-04-18T16:09:50.5Z</time></trkpt><trkpt lat="43.8334761" lon="12.8326621"><ele>185.0</ele><time>2026-04-18T16:09:51.498Z</time></trkpt><trkpt lat="43.8334185" lon="12.8325149"><ele>187.75</ele><time>2026-04-18T16:09:52.499Z</time></trkpt><trkpt lat="43.8333518" lon="12.8323683"><ele>190.5</ele><time>2026-04-18T16:09:53.5Z</time></trkpt><trkpt lat="43.8332847" lon="12.8322153"><ele>193.25</ele><time>2026-04-18T16:09:54.499Z</time></trkpt><trkpt lat="43.8332152" lon="12.8320595"><ele>196.0</ele><time>2026-04-18T16:09:55.499Z</time></trkpt><trkpt lat="43.8331467" lon="12.8319025"><ele>197.5</ele><time>2026-04-18T16:09:56.5Z</time></trkpt><trkpt lat="43.833074" lon="12.8317374"><ele>199.0</ele><time>2026-04-18T16:09:57.498Z</time></trkpt><trkpt lat="43.832997" lon="12.8315732"><ele>200.5</ele><time>2026-04-18T16:09:58.498Z</time></trkpt><trkpt lat="43.8329222" lon="12.831409"><ele>202.0</ele><time>2026-04-18T16:09:59.499Z</time></trkpt><trkpt lat="43.8328479" lon="12.8312482"><ele>202.0</ele><time>2026-04-18T16:10:00.499Z</time></trkpt><trkpt lat="43.8327696" lon="12.8310857"><ele>202.0</ele><time>2026-04-18T16:10:01.499Z</time></trkpt><trkpt lat="43.8326893" lon="12.8309121"><ele>202.0</ele><time>2026-04-18T16:10:02.499Z</time></trkpt><trkpt lat="43.83261" lon="12.8307294"><ele>202.0</ele><time>2026-04-18T16:10:03.499Z</time></trkpt><trkpt lat="43.8325392" lon="12.83055"><ele>204.5</ele><time>2026-04-18T16:10:04.5Z</time></trkpt><trkpt lat="43.8324712" lon="12.830386"><ele>207.0</ele><time>2026-04-18T16:10:05.5Z</time></trkpt><trkpt lat="43.8324131" lon="12.8302393"><ele>209.5</ele><time>2026-04-18T16:10:06.499Z</time></trkpt><trkpt lat="43.8323627" lon="12.8300971"><ele>212.0</ele><time>2026-04-18T16:10:07.5Z</time></trkpt><trkpt lat="43.8323298" lon="12.8299367"><ele>212.75</ele><time>2026-04-18T16:10:08.501Z</time></trkpt><trkpt lat="43.8323329" lon="12.8297606"><ele>213.5</ele><time>2026-04-18T16:10:09.497Z</time></trkpt><trkpt lat="43.8323568" lon="12.829571"><ele>214.25</ele><time>2026-04-18T16:10:10.498Z</time></trkpt><trkpt lat="43.8323883" lon="12.8293736"><ele>215.0</ele><time>2026-04-18T16:10:11.498Z</time></trkpt><trkpt lat="43.8324181" lon="12.8291747"><ele>216.25</ele><time>2026-04-18T16:10:12.498Z</time></trkpt><trkpt lat="43.8324371" lon="12.8289692"><ele>217.5</ele><time>2026-04-18T16:10:13.5Z</time></trkpt><trkpt lat="43.8324406" lon="12.8287631"><ele>218.75</ele><time>2026-04-18T16:10:14.5Z</time></trkpt><trkpt lat="43.832431" lon="12.8285609"><ele>220.0</ele><time>2026-04-18T16:10:15.497Z</time></trkpt><trkpt lat="43.832408" lon="12.8283548"><ele>221.0</ele><time>2026-04-18T16:10:16.502Z</time></trkpt><trkpt lat="43.8323945" lon="12.8281627"><ele>222.0</ele><time>2026-04-18T16:10:17.499Z</time></trkpt><trkpt lat="43.8324114" lon="12.8279781"><ele>223.0</ele><time>2026-04-18T16:10:18.499Z</time></trkpt><trkpt lat="43.83245" lon="12.8277955"><ele>224.0</ele><time>2026-04-18T16:10:19.505Z</time></trkpt><trkpt lat="43.8324976" lon="12.8276112"><ele>226.5</ele><time>2026-04-18T16:10:20.499Z</time></trkpt><trkpt lat="43.8325485" lon="12.8274297"><ele>229.0</ele><time>2026-04-18T16:10:21.5Z</time></trkpt><trkpt lat="43.8325999" lon="12.8272458"><ele>231.5</ele><time>2026-04-18T16:10:22.499Z</time></trkpt><trkpt lat="43.8326523" lon="12.8270628"><ele>234.0</ele><time>2026-04-18T16:10:23.503Z</time></trkpt><trkpt lat="43.8326997" lon="12.826887"><ele>232.25</ele><time>2026-04-18T16:10:24.498Z</time></trkpt><trkpt lat="43.8327329" lon="12.8267144"><ele>230.5</ele><time>2026-04-18T16:10:25.497Z</time></trkpt><trkpt lat="43.8327497" lon="12.8265477"><ele>228.75</ele><time>2026-04-18T16:10:26.501Z</time></trkpt><trkpt lat="43.8327498" lon="12.8263835"><ele>227.0</ele><time>2026-04-18T16:10:27.5Z</time></trkpt><trkpt lat="43.8327396" lon="12.8262168"><ele>227.0</ele><time>2026-04-18T16:10:28.497Z</time></trkpt><trkpt lat="43.832724" lon="12.8260498"><ele>227.0</ele><time>2026-04-18T16:10:29.498Z</time></trkpt><trkpt lat="43.8327039" lon="12.8258755"><ele>227.0</ele><time>2026-04-18T16:10:30.499Z</time></trkpt><trkpt lat="43.8326825" lon="12.825679"><ele>227.0</ele><time>2026-04-18T16:10:31.498Z</time></trkpt><trkpt lat="43.8326674" lon="12.8254752"><ele>230.5</ele><time>2026-04-18T16:10:32.501Z</time></trkpt><trkpt lat="43.8326728" lon="12.8252762"><ele>234.0</ele><time>2026-04-18T16:10:33.497Z</time></trkpt><trkpt lat="43.8326999" lon="12.8250818"><ele>237.5</ele><time>2026-04-18T16:10:34.499Z</time></trkpt><trkpt lat="43.8327478" lon="12.8248728"><ele>241.0</ele><time>2026-04-18T16:10:35.499Z</time></trkpt><trkpt lat="43.8328013" lon="12.8246354"><ele>245.0</ele><time>2026-04-18T16:10:36.505Z</time></trkpt><trkpt lat="43.8328322" lon="12.8243774"><ele>249.0</ele><time>2026-04-18T16:10:37.499Z</time></trkpt><trkpt lat="43.8328452" lon="12.824102"><ele>253.0</ele><time>2026-04-18T16:10:38.499Z</time></trkpt><trkpt lat="43.8328506" lon="12.8238172"><ele>255.33333333333331</ele><time>2026-04-18T16:10:39.499Z</time></trkpt><trkpt lat="43.8328529" lon="12.8235433"><ele>257.6666666666667</ele><time>2026-04-18T16:10:40.498Z</time></trkpt><trkpt lat="43.8328568" lon="12.8232867"><ele>260.0</ele><time>2026-04-18T16:10:41.497Z</time></trkpt><trkpt lat="43.8328685" lon="12.8230282"><ele>261.33333333333337</ele><time>2026-04-18T16:10:42.497Z</time></trkpt><trkpt lat="43.8328801" lon="12.8227567"><ele>262.6666666666667</ele><time>2026-04-18T16:10:43.498Z</time></trkpt><trkpt lat="43.8328858" lon="12.8224807"><ele>264.0</ele><time>2026-04-18T16:10:44.5Z</time></trkpt><trkpt lat="43.8328731" lon="12.8222164"><ele>264.0</ele><time>2026-04-18T16:10:45.496Z</time></trkpt><trkpt lat="43.832839" lon="12.8219686"><ele>264.0</ele><time>2026-04-18T16:10:46.498Z</time></trkpt><trkpt lat="43.8327886" lon="12.8217386"><ele>264.0</ele><time>2026-04-18T16:10:47.497Z</time></trkpt><trkpt lat="43.832733" lon="12.8215306"><ele>264.0</ele><time>2026-04-18T16:10:48.499Z</time></trkpt><trkpt lat="43.8326918" lon="12.8213251"><ele>264.0</ele><time>2026-04-18T16:10:49.504Z</time></trkpt><trkpt lat="43.8326674" lon="12.821131"><ele>264.0</ele><time>2026-04-18T16:10:50.5Z</time></trkpt><trkpt lat="43.832656" lon="12.8209488"><ele>264.0</ele><time>2026-04-18T16:10:51.5Z</time></trkpt><trkpt lat="43.8326512" lon="12.8207814"><ele>263.0</ele><time>2026-04-18T16:10:52.498Z</time></trkpt><trkpt lat="43.8326492" lon="12.8206285"><ele>262.0</ele><time>2026-04-18T16:10:53.5Z</time></trkpt><trkpt lat="43.8326583" lon="12.8204889"><ele>261.0</ele><time>2026-04-18T16:10:54.501Z</time></trkpt><trkpt lat="43.8326686" lon="12.8203667"><ele>260.0</ele><time>2026-04-18T16:10:55.499Z</time></trkpt><trkpt lat="43.8326767" lon="12.8202637"><ele>259.0</ele><time>2026-04-18T16:10:56.498Z</time></trkpt><trkpt lat="43.8326834" lon="12.8201377"><ele>257.59999999999997</ele><time>2026-04-18T16:10:58.498Z</time></trkpt><trkpt lat="43.8326294" lon="12.8200633"><ele>256.2</ele><time>2026-04-18T16:11:01.498Z</time></trkpt><trkpt lat="43.8325624" lon="12.819992"><ele>254.79999999999998</ele><time>2026-04-18T16:11:02.496Z</time></trkpt><trkpt lat="43.8324574" lon="12.8198823"><ele>253.39999999999998</ele><time>2026-04-18T16:11:03.497Z</time></trkpt><trkpt lat="43.8323383" lon="12.8197557"><ele>252.0</ele><time>2026-04-18T16:11:04.502Z</time></trkpt><trkpt lat="43.8321996" lon="12.819618"><ele>252.0</ele><time>2026-04-18T16:11:05.497Z</time></trkpt><trkpt lat="43.8320499" lon="12.8194759"><ele>252.0</ele><time>2026-04-18T16:11:06.497Z</time></trkpt><trkpt lat="43.8319017" lon="12.8193329"><ele>252.0</ele><time>2026-04-18T16:11:07.497Z</time></trkpt><trkpt lat="43.8317617" lon="12.8191865"><ele>251.33333333333331</ele><time>2026-04-18T16:11:08.498Z</time></trkpt><trkpt lat="43.8316292" lon="12.8190407"><ele>250.66666666666666</ele><time>2026-04-18T16:11:09.497Z</time></trkpt><trkpt lat="43.8315101" lon="12.8189038"><ele>250.0</ele><time>2026-04-18T16:11:10.501Z</time></trkpt><trkpt lat="43.8314126" lon="12.8187769"><ele>250.0</ele><time>2026-04-18T16:11:11.497Z</time></trkpt><trkpt lat="43.831328" lon="12.8186571"><ele>250.0</ele><time>2026-04-18T16:11:12.497Z</time></trkpt><trkpt lat="43.831251" lon="12.8185381"><ele>250.0</ele><time>2026-04-18T16:11:13.498Z</time></trkpt><trkpt lat="43.8311743" lon="12.8184275"><ele>250.0</ele><time>2026-04-18T16:11:14.498Z</time></trkpt><trkpt lat="43.8311005" lon="12.8183183"><ele>250.4</ele><time>2026-04-18T16:11:15.497Z</time></trkpt><trkpt lat="43.8310249" lon="12.8182107"><ele>250.8</ele><time>2026-04-18T16:11:16.497Z</time></trkpt><trkpt lat="43.8309447" lon="12.8181083"><ele>251.2</ele><time>2026-04-18T16:11:17.498Z</time></trkpt><trkpt lat="43.8308698" lon="12.8179963"><ele>251.6</ele><time>2026-04-18T16:11:18.497Z</time></trkpt><trkpt lat="43.8307965" lon="12.8178757"><ele>252.0</ele><time>2026-04-18T16:11:19.498Z</time></trkpt><trkpt lat="43.8307229" lon="12.8177479"><ele>252.25</ele><time>2026-04-18T16:11:20.499Z</time></trkpt><trkpt lat="43.8306564" lon="12.8176157"><ele>252.5</ele><time>2026-04-18T16:11:21.497Z</time></trkpt><trkpt lat="43.8305895" lon="12.8174773"><ele>252.75</ele><time>2026-04-18T16:11:22.498Z</time></trkpt><trkpt lat="43.830507" lon="12.8173559"><ele>253.0</ele><time>2026-04-18T16:11:23.499Z</time></trkpt><trkpt lat="43.8304075" lon="12.8172531"><ele>253.0</ele><time>2026-04-18T16:11:24.497Z</time></trkpt><trkpt lat="43.8302739" lon="12.8171854"><ele>253.0</ele><time>2026-04-18T16:11:25.497Z</time></trkpt><trkpt lat="43.8301131" lon="12.8171576"><ele>253.0</ele><time>2026-04-18T16:11:26.498Z</time></trkpt><trkpt lat="43.8299447" lon="12.8171327"><ele>253.33333333333331</ele><time>2026-04-18T16:11:27.497Z</time></trkpt><trkpt lat="43.8297777" lon="12.8170873"><ele>253.66666666666669</ele><time>2026-04-18T16:11:28.497Z</time></trkpt><trkpt lat="43.8296199" lon="12.8170257"><ele>254.0</ele><time>2026-04-18T16:11:29.496Z</time></trkpt><trkpt lat="43.8294744" lon="12.8169791"><ele>254.0</ele><time>2026-04-18T16:11:30.497Z</time></trkpt><trkpt lat="43.8293466" lon="12.8169492"><ele>254.0</ele><time>2026-04-18T16:11:31.506Z</time></trkpt><trkpt lat="43.8292235" lon="12.8169541"><ele>254.0</ele><time>2026-04-18T16:11:32.501Z</time></trkpt><trkpt lat="43.8291009" lon="12.8170266"><ele>254.0</ele><time>2026-04-18T16:11:33.498Z</time></trkpt><trkpt lat="43.8289783" lon="12.8171635"><ele>255.33333333333334</ele><time>2026-04-18T16:11:34.497Z</time></trkpt><trkpt lat="43.828862" lon="12.8173328"><ele>256.6666666666667</ele><time>2026-04-18T16:11:35.496Z</time></trkpt><trkpt lat="43.8287624" lon="12.8175006"><ele>258.0</ele><time>2026-04-18T16:11:36.497Z</time></trkpt><trkpt lat="43.8286801" lon="12.8176442"><ele>259.0</ele><time>2026-04-18T16:11:37.502Z</time></trkpt><trkpt lat="43.8286025" lon="12.8177533"><ele>260.0</ele><time>2026-04-18T16:11:38.497Z</time></trkpt><trkpt lat="43.8285201" lon="12.8178192"><ele>261.0</ele><time>2026-04-18T16:11:39.498Z</time></trkpt><trkpt lat="43.8284337" lon="12.8178421"><ele>262.0</ele><time>2026-04-18T16:11:40.497Z</time></trkpt><trkpt lat="43.8283446" lon="12.8178341"><ele>263.0</ele><time>2026-04-18T16:11:41.498Z</time></trkpt><trkpt lat="43.8282557" lon="12.8177508"><ele>265.25</ele><time>2026-04-18T16:11:42.497Z</time></trkpt><trkpt lat="43.8281838" lon="12.817625"><ele>267.5</ele><time>2026-04-18T16:11:43.496Z</time></trkpt><trkpt lat="43.8281407" lon="12.8174717"><ele>269.75</ele><time>2026-04-18T16:11:44.497Z</time></trkpt><trkpt lat="43.8281254" lon="12.8172907"><ele>272.0</ele><time>2026-04-18T16:11:45.497Z</time></trkpt><trkpt lat="43.8281395" lon="12.8171029"><ele>272.0</ele><time>2026-04-18T16:11:46.5Z</time></trkpt><trkpt lat="43.8281619" lon="12.8169252"><ele>272.0</ele><time>2026-04-18T16:11:47.497Z</time></trkpt><trkpt lat="43.82824" lon="12.8167289"><ele>272.0</ele><time>2026-04-18T16:11:48.497Z</time></trkpt><trkpt lat="43.8283014" lon="12.8165547"><ele>272.0</ele><time>2026-04-18T16:11:49.497Z</time></trkpt><trkpt lat="43.8283889" lon="12.8164033"><ele>273.8</ele><time>2026-04-18T16:11:50.498Z</time></trkpt><trkpt lat="43.8284767" lon="12.8162866"><ele>275.6</ele><time>2026-04-18T16:11:51.497Z</time></trkpt><trkpt lat="43.8285522" lon="12.8161904"><ele>277.40000000000003</ele><time>2026-04-18T16:11:52.498Z</time></trkpt><trkpt lat="43.8285909" lon="12.8160952"><ele>279.2</ele><time>2026-04-18T16:11:53.497Z</time></trkpt><trkpt lat="43.8285862" lon="12.8159878"><ele>281.0</ele><time>2026-04-18T16:11:54.497Z</time></trkpt><trkpt lat="43.8285491" lon="12.815854"><ele>282.33333333333337</ele><time>2026-04-18T16:11:55.501Z</time></trkpt><trkpt lat="43.8284857" lon="12.8156926"><ele>283.6666666666667</ele><time>2026-04-18T16:11:56.497Z</time></trkpt><trkpt lat="43.8284075" lon="12.8154936"><ele>285.0</ele><time>2026-04-18T16:11:57.504Z</time></trkpt><trkpt lat="43.8283406" lon="12.8152587"><ele>283.3333333333333</ele><time>2026-04-18T16:11:58.497Z</time></trkpt><trkpt lat="43.8282793" lon="12.8150254"><ele>281.66666666666663</ele><time>2026-04-18T16:11:59.502Z</time></trkpt><trkpt lat="43.8282211" lon="12.8148029"><ele>280.0</ele><time>2026-04-18T16:12:00.5Z</time></trkpt><trkpt lat="43.8281656" lon="12.8145953"><ele>280.0</ele><time>2026-04-18T16:12:01.498Z</time></trkpt><trkpt lat="43.8281204" lon="12.8144011"><ele>280.0</ele><time>2026-04-18T16:12:02.501Z</time></trkpt><trkpt lat="43.8280782" lon="12.8142201"><ele>280.0</ele><time>2026-04-18T16:12:03.498Z</time></trkpt><trkpt lat="43.8280341" lon="12.8140483"><ele>280.0</ele><time>2026-04-18T16:12:04.498Z</time></trkpt><trkpt lat="43.8279994" lon="12.8138701"><ele>278.5</ele><time>2026-04-18T16:12:05.502Z</time></trkpt><trkpt lat="43.8279823" lon="12.8136944"><ele>277.0</ele><time>2026-04-18T16:12:06.498Z</time></trkpt><trkpt lat="43.8279873" lon="12.8135118"><ele>275.5</ele><time>2026-04-18T16:12:07.498Z</time></trkpt><trkpt lat="43.8279972" lon="12.8133215"><ele>274.0</ele><time>2026-04-18T16:12:08.498Z</time></trkpt><trkpt lat="43.8280109" lon="12.8131349"><ele>274.0</ele><time>2026-04-18T16:12:09.498Z</time></trkpt><trkpt lat="43.8280179" lon="12.8129447"><ele>274.0</ele><time>2026-04-18T16:12:10.498Z</time></trkpt><trkpt lat="43.8280121" lon="12.8127543"><ele>274.0</ele><time>2026-04-18T16:12:11.498Z</time></trkpt><trkpt lat="43.8280011" lon="12.812561"><ele>274.0</ele><time>2026-04-18T16:12:12.499Z</time></trkpt><trkpt lat="43.8279864" lon="12.8123655"><ele>274.25</ele><time>2026-04-18T16:12:13.498Z</time></trkpt><trkpt lat="43.8279605" lon="12.8121772"><ele>274.5</ele><time>2026-04-18T16:12:14.496Z</time></trkpt><trkpt lat="43.8279198" lon="12.8119964"><ele>274.75</ele><time>2026-04-18T16:12:15.497Z</time></trkpt><trkpt lat="43.8278523" lon="12.8118247"><ele>275.0</ele><time>2026-04-18T16:12:16.496Z</time></trkpt><trkpt lat="43.8277734" lon="12.8116512"><ele>272.33333333333337</ele><time>2026-04-18T16:12:17.497Z</time></trkpt><trkpt lat="43.8277167" lon="12.8114604"><ele>269.6666666666667</ele><time>2026-04-18T16:12:18.497Z</time></trkpt><trkpt lat="43.8276839" lon="12.8112558"><ele>267.0</ele><time>2026-04-18T16:12:19.499Z</time></trkpt><trkpt lat="43.827659" lon="12.8110406"><ele>273.75</ele><time>2026-04-18T16:12:20.498Z</time></trkpt><trkpt lat="43.8276339" lon="12.8108362"><ele>280.5</ele><time>2026-04-18T16:12:21.497Z</time></trkpt><trkpt lat="43.8276054" lon="12.8106526"><ele>287.25</ele><time>2026-04-18T16:12:22.498Z</time></trkpt><trkpt lat="43.8275626" lon="12.8104967"><ele>294.0</ele><time>2026-04-18T16:12:23.499Z</time></trkpt><trkpt lat="43.8275025" lon="12.8103347"><ele>294.0</ele><time>2026-04-18T16:12:24.498Z</time></trkpt><trkpt lat="43.827431" lon="12.8101708"><ele>294.0</ele><time>2026-04-18T16:12:25.498Z</time></trkpt><trkpt lat="43.8273514" lon="12.8100068"><ele>294.0</ele><time>2026-04-18T16:12:26.499Z</time></trkpt><trkpt lat="43.8272723" lon="12.8098411"><ele>294.0</ele><time>2026-04-18T16:12:27.498Z</time></trkpt><trkpt lat="43.8271999" lon="12.8096792"><ele>291.5</ele><time>2026-04-18T16:12:28.498Z</time></trkpt><trkpt lat="43.8271403" lon="12.8095145"><ele>289.0</ele><time>2026-04-18T16:12:29.497Z</time></trkpt><trkpt lat="43.8270928" lon="12.8093494"><ele>286.5</ele><time>2026-04-18T16:12:30.496Z</time></trkpt><trkpt lat="43.8270507" lon="12.8092041"><ele>284.0</ele><time>2026-04-18T16:12:31.497Z</time></trkpt><trkpt lat="43.8270156" lon="12.8090687"><ele>281.4</ele><time>2026-04-18T16:12:32.502Z</time></trkpt><trkpt lat="43.8269816" lon="12.8089466"><ele>278.79999999999995</ele><time>2026-04-18T16:12:33.499Z</time></trkpt><trkpt lat="43.8269427" lon="12.808835"><ele>276.20000000000005</ele><time>2026-04-18T16:12:34.497Z</time></trkpt><trkpt lat="43.8268779" lon="12.8087419"><ele>273.6</ele><time>2026-04-18T16:12:35.498Z</time></trkpt><trkpt lat="43.8267868" lon="12.8086798"><ele>271.0</ele><time>2026-04-18T16:12:36.499Z</time></trkpt><trkpt lat="43.8266762" lon="12.8086679"><ele>278.25</ele><time>2026-04-18T16:12:37.501Z</time></trkpt><trkpt lat="43.8265585" lon="12.8086933"><ele>285.5</ele><time>2026-04-18T16:12:38.499Z</time></trkpt><trkpt lat="43.826438" lon="12.8087315"><ele>292.75</ele><time>2026-04-18T16:12:39.498Z</time></trkpt><trkpt lat="43.8263138" lon="12.8087624"><ele>300.0</ele><time>2026-04-18T16:12:40.5Z</time></trkpt><trkpt lat="43.8261804" lon="12.8087828"><ele>300.0</ele><time>2026-04-18T16:12:41.497Z</time></trkpt><trkpt lat="43.8260442" lon="12.8087704"><ele>300.0</ele><time>2026-04-18T16:12:42.497Z</time></trkpt><trkpt lat="43.8259025" lon="12.8087238"><ele>300.0</ele><time>2026-04-18T16:12:43.498Z</time></trkpt><trkpt lat="43.8257725" lon="12.8086664"><ele>300.0</ele><time>2026-04-18T16:12:44.5Z</time></trkpt><trkpt lat="43.8256472" lon="12.8085881"><ele>299.5</ele><time>2026-04-18T16:12:45.579Z</time></trkpt><trkpt lat="43.8255389" lon="12.8084959"><ele>299.0</ele><time>2026-04-18T16:12:46.497Z</time></trkpt><trkpt lat="43.8254328" lon="12.8083812"><ele>298.5</ele><time>2026-04-18T16:12:47.498Z</time></trkpt><trkpt lat="43.8253395" lon="12.8082445"><ele>298.0</ele><time>2026-04-18T16:12:48.498Z</time></trkpt><trkpt lat="43.825273" lon="12.8080783"><ele>295.25</ele><time>2026-04-18T16:12:49.498Z</time></trkpt><trkpt lat="43.8252396" lon="12.8078947"><ele>292.5</ele><time>2026-04-18T16:12:50.498Z</time></trkpt><trkpt lat="43.8252145" lon="12.807697"><ele>289.75</ele><time>2026-04-18T16:12:51.498Z</time></trkpt><trkpt lat="43.8251911" lon="12.8074939"><ele>287.0</ele><time>2026-04-18T16:12:52.503Z</time></trkpt><trkpt lat="43.8251661" lon="12.8072958"><ele>290.0</ele><time>2026-04-18T16:12:53.497Z</time></trkpt><trkpt lat="43.8251298" lon="12.807105"><ele>293.0</ele><time>2026-04-18T16:12:54.497Z</time></trkpt><trkpt lat="43.8250852" lon="12.8069221"><ele>296.0</ele><time>2026-04-18T16:12:55.498Z</time></trkpt><trkpt lat="43.8250231" lon="12.8067468"><ele>299.0</ele><time>2026-04-18T16:12:56.498Z</time></trkpt><trkpt lat="43.8249626" lon="12.8065715"><ele>299.0</ele><time>2026-04-18T16:12:57.498Z</time></trkpt><trkpt lat="43.8248972" lon="12.8064106"><ele>299.0</ele><time>2026-04-18T16:12:58.499Z</time></trkpt><trkpt lat="43.8248387" lon="12.8062564"><ele>299.0</ele><time>2026-04-18T16:12:59.498Z</time></trkpt><trkpt lat="43.8247813" lon="12.8060975"><ele>299.0</ele><time>2026-04-18T16:13:00.499Z</time></trkpt><trkpt lat="43.8247303" lon="12.805937"><ele>295.0</ele><time>2026-04-18T16:13:01.499Z</time></trkpt><trkpt lat="43.8246793" lon="12.8057726"><ele>291.0</ele><time>2026-04-18T16:13:02.499Z</time></trkpt><trkpt lat="43.8246253" lon="12.8056061"><ele>287.0</ele><time>2026-04-18T16:13:03.499Z</time></trkpt><trkpt lat="43.8245832" lon="12.8054366"><ele>283.0</ele><time>2026-04-18T16:13:04.498Z</time></trkpt><trkpt lat="43.8245561" lon="12.8052643"><ele>283.75</ele><time>2026-04-18T16:13:05.495Z</time></trkpt><trkpt lat="43.8245305" lon="12.8050971"><ele>284.5</ele><time>2026-04-18T16:13:06.495Z</time></trkpt><trkpt lat="43.8245113" lon="12.8049305"><ele>285.25</ele><time>2026-04-18T16:13:07.497Z</time></trkpt><trkpt lat="43.8244902" lon="12.8047658"><ele>286.0</ele><time>2026-04-18T16:13:08.497Z</time></trkpt><trkpt lat="43.8244986" lon="12.8046122"><ele>286.0</ele><time>2026-04-18T16:13:09.497Z</time></trkpt><trkpt lat="43.8245374" lon="12.8044639"><ele>286.0</ele><time>2026-04-18T16:13:10.496Z</time></trkpt><trkpt lat="43.8245929" lon="12.8043176"><ele>286.0</ele><time>2026-04-18T16:13:11.497Z</time></trkpt><trkpt lat="43.8246593" lon="12.8041736"><ele>286.0</ele><time>2026-04-18T16:13:12.497Z</time></trkpt><trkpt lat="43.8247351" lon="12.8040349"><ele>288.75</ele><time>2026-04-18T16:13:13.497Z</time></trkpt><trkpt lat="43.8248231" lon="12.8039"><ele>291.5</ele><time>2026-04-18T16:13:14.501Z</time></trkpt><trkpt lat="43.8249185" lon="12.8037675"><ele>294.25</ele><time>2026-04-18T16:13:15.501Z</time></trkpt><trkpt lat="43.825009" lon="12.8036434"><ele>297.0</ele><time>2026-04-18T16:13:16.497Z</time></trkpt><trkpt lat="43.825091" lon="12.8035394"><ele>299.0</ele><time>2026-04-18T16:13:17.497Z</time></trkpt><trkpt lat="43.8251741" lon="12.8034591"><ele>301.0</ele><time>2026-04-18T16:13:18.497Z</time></trkpt><trkpt lat="43.8252606" lon="12.8034007"><ele>303.0</ele><time>2026-04-18T16:13:19.501Z</time></trkpt><trkpt lat="43.8253482" lon="12.8033565"><ele>305.0</ele><time>2026-04-18T16:13:20.497Z</time></trkpt><trkpt lat="43.8254434" lon="12.803338"><ele>307.0</ele><time>2026-04-18T16:13:21.502Z</time></trkpt><trkpt lat="43.825537" lon="12.8033379"><ele>307.0</ele><time>2026-04-18T16:13:22.497Z</time></trkpt><trkpt lat="43.8256283" lon="12.8033389"><ele>307.0</ele><time>2026-04-18T16:13:23.497Z</time></trkpt><trkpt lat="43.8257118" lon="12.8033317"><ele>307.0</ele><time>2026-04-18T16:13:24.497Z</time></trkpt><trkpt lat="43.8257961" lon="12.8033223"><ele>307.0</ele><time>2026-04-18T16:13:25.498Z</time></trkpt><trkpt lat="43.8258841" lon="12.8033113"><ele>307.0</ele><time>2026-04-18T16:13:26.498Z</time></trkpt><trkpt lat="43.8259732" lon="12.8032952"><ele>307.0</ele><time>2026-04-18T16:13:27.497Z</time></trkpt><trkpt lat="43.8260595" lon="12.8032646"><ele>305.66666666666663</ele><time>2026-04-18T16:13:28.498Z</time></trkpt><trkpt lat="43.8261362" lon="12.8032183"><ele>304.3333333333333</ele><time>2026-04-18T16:13:29.496Z</time></trkpt><trkpt lat="43.8262186" lon="12.8031863"><ele>303.0</ele><time>2026-04-18T16:13:30.497Z</time></trkpt><trkpt lat="43.8262976" lon="12.8031531"><ele>301.6666666666667</ele><time>2026-04-18T16:13:31.497Z</time></trkpt><trkpt lat="43.8263698" lon="12.8031163"><ele>300.33333333333337</ele><time>2026-04-18T16:13:32.497Z</time></trkpt><trkpt lat="43.8264405" lon="12.8030753"><ele>299.0</ele><time>2026-04-18T16:13:33.497Z</time></trkpt><trkpt lat="43.8265167" lon="12.8030295"><ele>299.0</ele><time>2026-04-18T16:13:34.497Z</time></trkpt><trkpt lat="43.8265885" lon="12.8029825"><ele>299.0</ele><time>2026-04-18T16:13:35.496Z</time></trkpt><trkpt lat="43.8266626" lon="12.8029487"><ele>299.0</ele><time>2026-04-18T16:13:36.497Z</time></trkpt><trkpt lat="43.8267321" lon="12.8029251"><ele>299.0</ele><time>2026-04-18T16:13:37.497Z</time></trkpt><trkpt lat="43.8267995" lon="12.8029212"><ele>299.0</ele><time>2026-04-18T16:13:38.497Z</time></trkpt><trkpt lat="43.8268733" lon="12.8029295"><ele>299.0</ele><time>2026-04-18T16:13:39.497Z</time></trkpt><trkpt lat="43.8269438" lon="12.8029517"><ele>299.0</ele><time>2026-04-18T16:13:40.496Z</time></trkpt><trkpt lat="43.8270058" lon="12.8029836"><ele>298.83333333333337</ele><time>2026-04-18T16:13:41.497Z</time></trkpt><trkpt lat="43.8270705" lon="12.8030256"><ele>298.6666666666667</ele><time>2026-04-18T16:13:42.497Z</time></trkpt><trkpt lat="43.8271388" lon="12.8030626"><ele>298.5</ele><time>2026-04-18T16:13:43.497Z</time></trkpt><trkpt lat="43.8272098" lon="12.8031023"><ele>298.3333333333333</ele><time>2026-04-18T16:13:44.498Z</time></trkpt><trkpt lat="43.8272814" lon="12.8031436"><ele>298.16666666666663</ele><time>2026-04-18T16:13:45.497Z</time></trkpt><trkpt lat="43.8273523" lon="12.8031816"><ele>298.0</ele><time>2026-04-18T16:13:46.498Z</time></trkpt><trkpt lat="43.8274236" lon="12.8032192"><ele>298.0</ele><time>2026-04-18T16:13:47.497Z</time></trkpt><trkpt lat="43.8274898" lon="12.8032544"><ele>298.0</ele><time>2026-04-18T16:13:48.497Z</time></trkpt><trkpt lat="43.8275575" lon="12.8032853"><ele>298.0</ele><time>2026-04-18T16:13:49.495Z</time></trkpt><trkpt lat="43.8276299" lon="12.8033129"><ele>298.0</ele><time>2026-04-18T16:13:50.496Z</time></trkpt><trkpt lat="43.8277048" lon="12.8033457"><ele>298.0</ele><time>2026-04-18T16:13:51.496Z</time></trkpt><trkpt lat="43.8277772" lon="12.8033869"><ele>298.0</ele><time>2026-04-18T16:13:52.496Z</time></trkpt><trkpt lat="43.8278479" lon="12.8034241"><ele>297.0</ele><time>2026-04-18T16:13:53.496Z</time></trkpt><trkpt lat="43.8279249" lon="12.8034395"><ele>296.0</ele><time>2026-04-18T16:13:54.496Z</time></trkpt><trkpt lat="43.8280048" lon="12.8034371"><ele>295.0</ele><time>2026-04-18T16:13:55.496Z</time></trkpt><trkpt lat="43.8280869" lon="12.8034121"><ele>294.0</ele><time>2026-04-18T16:13:56.496Z</time></trkpt><trkpt lat="43.8281509" lon="12.8033649"><ele>293.0</ele><time>2026-04-18T16:13:57.497Z</time></trkpt><trkpt lat="43.8282052" lon="12.8032989"><ele>292.0</ele><time>2026-04-18T16:13:58.496Z</time></trkpt><trkpt lat="43.8282449" lon="12.8032162"><ele>292.0</ele><time>2026-04-18T16:13:59.495Z</time></trkpt><trkpt lat="43.8282827" lon="12.8031422"><ele>292.0</ele><time>2026-04-18T16:14:00.496Z</time></trkpt><trkpt lat="43.828326" lon="12.8030511"><ele>292.0</ele><time>2026-04-18T16:14:01.495Z</time></trkpt><trkpt lat="43.8283723" lon="12.802959"><ele>292.0</ele><time>2026-04-18T16:14:02.496Z</time></trkpt><trkpt lat="43.828426" lon="12.8028809"><ele>292.0</ele><time>2026-04-18T16:14:03.496Z</time></trkpt><trkpt lat="43.8284873" lon="12.802807"><ele>292.0</ele><time>2026-04-18T16:14:04.495Z</time></trkpt><trkpt lat="43.8285451" lon="12.8027312"><ele>289.5</ele><time>2026-04-18T16:14:05.495Z</time></trkpt><trkpt lat="43.8285898" lon="12.8026424"><ele>287.0</ele><time>2026-04-18T16:14:06.496Z</time></trkpt><trkpt lat="43.8286121" lon="12.8025437"><ele>284.5</ele><time>2026-04-18T16:14:07.495Z</time></trkpt><trkpt lat="43.8286107" lon="12.8024407"><ele>282.0</ele><time>2026-04-18T16:14:08.494Z</time></trkpt><trkpt lat="43.8285872" lon="12.8023432"><ele>279.5</ele><time>2026-04-18T16:14:09.495Z</time></trkpt><trkpt lat="43.8285471" lon="12.8022501"><ele>277.0</ele><time>2026-04-18T16:14:10.495Z</time></trkpt><trkpt lat="43.8284899" lon="12.8021765"><ele>280.66666666666663</ele><time>2026-04-18T16:14:11.495Z</time></trkpt><trkpt lat="43.82842" lon="12.8021158"><ele>284.3333333333333</ele><time>2026-04-18T16:14:12.496Z</time></trkpt><trkpt lat="43.8283468" lon="12.8020658"><ele>288.0</ele><time>2026-04-18T16:14:13.495Z</time></trkpt><trkpt lat="43.828268" lon="12.8020241"><ele>291.6666666666667</ele><time>2026-04-18T16:14:14.496Z</time></trkpt><trkpt lat="43.8281832" lon="12.801998"><ele>295.33333333333337</ele><time>2026-04-18T16:14:15.496Z</time></trkpt><trkpt lat="43.8281045" lon="12.8019698"><ele>299.0</ele><time>2026-04-18T16:14:16.496Z</time></trkpt><trkpt lat="43.8280227" lon="12.8019393"><ele>299.0</ele><time>2026-04-18T16:14:17.496Z</time></trkpt><trkpt lat="43.827944" lon="12.8019124"><ele>299.0</ele><time>2026-04-18T16:14:18.494Z</time></trkpt><trkpt lat="43.8278629" lon="12.8018741"><ele>299.0</ele><time>2026-04-18T16:14:19.496Z</time></trkpt><trkpt lat="43.8277878" lon="12.8018191"><ele>299.0</ele><time>2026-04-18T16:14:20.498Z</time></trkpt><trkpt lat="43.8277179" lon="12.8017491"><ele>299.0</ele><time>2026-04-18T16:14:21.497Z</time></trkpt><trkpt lat="43.8276451" lon="12.8016693"><ele>299.0</ele><time>2026-04-18T16:14:22.496Z</time></trkpt><trkpt lat="43.8275797" lon="12.8015642"><ele>298.0</ele><time>2026-04-18T16:14:23.496Z</time></trkpt><trkpt lat="43.8275152" lon="12.8014454"><ele>297.0</ele><time>2026-04-18T16:14:24.496Z</time></trkpt><trkpt lat="43.8274521" lon="12.8013334"><ele>296.0</ele><time>2026-04-18T16:14:25.496Z</time></trkpt><trkpt lat="43.8273916" lon="12.8012219"><ele>295.0</ele><time>2026-04-18T16:14:26.496Z</time></trkpt><trkpt lat="43.8273295" lon="12.8011186"><ele>294.0</ele><time>2026-04-18T16:14:27.495Z</time></trkpt><trkpt lat="43.8272672" lon="12.8010166"><ele>290.4</ele><time>2026-04-18T16:14:28.495Z</time></trkpt><trkpt lat="43.8272121" lon="12.8009073"><ele>286.79999999999995</ele><time>2026-04-18T16:14:29.499Z</time></trkpt><trkpt lat="43.8271617" lon="12.8007964"><ele>283.20000000000005</ele><time>2026-04-18T16:14:30.5Z</time></trkpt><trkpt lat="43.8271163" lon="12.8006766"><ele>279.6</ele><time>2026-04-18T16:14:31.496Z</time></trkpt><trkpt lat="43.8270695" lon="12.8005561"><ele>276.0</ele><time>2026-04-18T16:14:32.497Z</time></trkpt><trkpt lat="43.8270285" lon="12.8004407"><ele>276.0</ele><time>2026-04-18T16:14:33.498Z</time></trkpt><trkpt lat="43.8269918" lon="12.8003205"><ele>276.0</ele><time>2026-04-18T16:14:34.498Z</time></trkpt><trkpt lat="43.8269665" lon="12.8001912"><ele>276.0</ele><time>2026-04-18T16:14:35.601Z</time></trkpt><trkpt lat="43.826953" lon="12.7999187"><ele>276.0</ele><time>2026-04-18T16:14:37.497Z</time></trkpt><trkpt lat="43.8269641" lon="12.7997652"><ele>274.0</ele><time>2026-04-18T16:14:38.499Z</time></trkpt><trkpt lat="43.8269823" lon="12.799608"><ele>272.0</ele><time>2026-04-18T16:14:39.496Z</time></trkpt><trkpt lat="43.826997" lon="12.799453"><ele>270.0</ele><time>2026-04-18T16:14:40.495Z</time></trkpt><trkpt lat="43.8270158" lon="12.7993023"><ele>268.0</ele><time>2026-04-18T16:14:41.498Z</time></trkpt><trkpt lat="43.8270427" lon="12.7991491"><ele>267.0</ele><time>2026-04-18T16:14:42.496Z</time></trkpt><trkpt lat="43.827072" lon="12.7989957"><ele>266.0</ele><time>2026-04-18T16:14:43.496Z</time></trkpt><trkpt lat="43.8271041" lon="12.7988437"><ele>265.0</ele><time>2026-04-18T16:14:44.496Z</time></trkpt><trkpt lat="43.8271432" lon="12.7986948"><ele>264.0</ele><time>2026-04-18T16:14:45.497Z</time></trkpt><trkpt lat="43.8271921" lon="12.7985473"><ele>264.0</ele><time>2026-04-18T16:14:46.495Z</time></trkpt><trkpt lat="43.8272438" lon="12.7984091"><ele>264.0</ele><time>2026-04-18T16:14:47.495Z</time></trkpt><trkpt lat="43.8273049" lon="12.7982811"><ele>264.0</ele><time>2026-04-18T16:14:48.495Z</time></trkpt><trkpt lat="43.8273778" lon="12.7981466"><ele>264.0</ele><time>2026-04-18T16:14:49.495Z</time></trkpt><trkpt lat="43.8274535" lon="12.7980042"><ele>264.0</ele><time>2026-04-18T16:14:50.496Z</time></trkpt><trkpt lat="43.8275306" lon="12.7978547"><ele>264.0</ele><time>2026-04-18T16:14:51.496Z</time></trkpt><trkpt lat="43.8276068" lon="12.7977104"><ele>264.0</ele><time>2026-04-18T16:14:52.495Z</time></trkpt><trkpt lat="43.827688" lon="12.7975808"><ele>264.0</ele><time>2026-04-18T16:14:53.495Z</time></trkpt><trkpt lat="43.8277739" lon="12.7974625"><ele>262.0</ele><time>2026-04-18T16:14:54.496Z</time></trkpt><trkpt lat="43.8278608" lon="12.7973559"><ele>260.0</ele><time>2026-04-18T16:14:55.495Z</time></trkpt><trkpt lat="43.8279462" lon="12.7972542"><ele>258.0</ele><time>2026-04-18T16:14:56.496Z</time></trkpt><trkpt lat="43.8280407" lon="12.7971606"><ele>256.0</ele><time>2026-04-18T16:14:57.495Z</time></trkpt><trkpt lat="43.8281444" lon="12.7970864"><ele>256.0</ele><time>2026-04-18T16:14:58.495Z</time></trkpt><trkpt lat="43.8282529" lon="12.7970345"><ele>256.0</ele><time>2026-04-18T16:14:59.495Z</time></trkpt><trkpt lat="43.8283712" lon="12.7970097"><ele>256.0</ele><time>2026-04-18T16:15:00.496Z</time></trkpt><trkpt lat="43.8284907" lon="12.7969798"><ele>256.0</ele><time>2026-04-18T16:15:01.495Z</time></trkpt><trkpt lat="43.8286114" lon="12.7969481"><ele>255.5</ele><time>2026-04-18T16:15:02.496Z</time></trkpt><trkpt lat="43.8287329" lon="12.7968916"><ele>255.0</ele><time>2026-04-18T16:15:03.495Z</time></trkpt><trkpt lat="43.8288436" lon="12.796817"><ele>254.5</ele><time>2026-04-18T16:15:04.496Z</time></trkpt><trkpt lat="43.8289436" lon="12.7967199"><ele>254.0</ele><time>2026-04-18T16:15:05.495Z</time></trkpt><trkpt lat="43.8290308" lon="12.7966053"><ele>254.0</ele><time>2026-04-18T16:15:06.497Z</time></trkpt><trkpt lat="43.8291075" lon="12.7964765"><ele>254.0</ele><time>2026-04-18T16:15:07.496Z</time></trkpt><trkpt lat="43.8291829" lon="12.796337"><ele>254.0</ele><time>2026-04-18T16:15:08.496Z</time></trkpt><trkpt lat="43.8292569" lon="12.7961949"><ele>254.0</ele><time>2026-04-18T16:15:09.495Z</time></trkpt><trkpt lat="43.8293287" lon="12.796053"><ele>253.5</ele><time>2026-04-18T16:15:10.495Z</time></trkpt><trkpt lat="43.8294026" lon="12.7959125"><ele>253.0</ele><time>2026-04-18T16:15:11.495Z</time></trkpt><trkpt lat="43.8294776" lon="12.7957691"><ele>252.5</ele><time>2026-04-18T16:15:12.495Z</time></trkpt><trkpt lat="43.8295542" lon="12.7956221"><ele>252.0</ele><time>2026-04-18T16:15:13.495Z</time></trkpt><trkpt lat="43.8296376" lon="12.79549"><ele>252.0</ele><time>2026-04-18T16:15:14.495Z</time></trkpt><trkpt lat="43.829724" lon="12.7953752"><ele>252.0</ele><time>2026-04-18T16:15:15.495Z</time></trkpt><trkpt lat="43.8298103" lon="12.7952713"><ele>252.0</ele><time>2026-04-18T16:15:16.495Z</time></trkpt><trkpt lat="43.829889" lon="12.7951743"><ele>252.0</ele><time>2026-04-18T16:15:17.496Z</time></trkpt><trkpt lat="43.8299567" lon="12.795078"><ele>252.0</ele><time>2026-04-18T16:15:18.495Z</time></trkpt><trkpt lat="43.8300184" lon="12.7949815"><ele>252.6</ele><time>2026-04-18T16:15:19.495Z</time></trkpt><trkpt lat="43.8300733" lon="12.7948734"><ele>253.2</ele><time>2026-04-18T16:15:20.496Z</time></trkpt><trkpt lat="43.8301262" lon="12.7947561"><ele>253.8</ele><time>2026-04-18T16:15:21.496Z</time></trkpt><trkpt lat="43.8301813" lon="12.7946406"><ele>254.4</ele><time>2026-04-18T16:15:22.497Z</time></trkpt><trkpt lat="43.8302419" lon="12.7945264"><ele>255.0</ele><time>2026-04-18T16:15:23.496Z</time></trkpt><trkpt lat="43.8303051" lon="12.7944088"><ele>256.6</ele><time>2026-04-18T16:15:24.496Z</time></trkpt><trkpt lat="43.8303711" lon="12.7942916"><ele>258.2</ele><time>2026-04-18T16:15:25.496Z</time></trkpt><trkpt lat="43.8304411" lon="12.7941737"><ele>259.8</ele><time>2026-04-18T16:15:26.496Z</time></trkpt><trkpt lat="43.8305129" lon="12.7940579"><ele>261.4</ele><time>2026-04-18T16:15:27.495Z</time></trkpt><trkpt lat="43.8305823" lon="12.793942"><ele>263.0</ele><time>2026-04-18T16:15:28.495Z</time></trkpt><trkpt lat="43.8306393" lon="12.7938127"><ele>263.0</ele><time>2026-04-18T16:15:29.496Z</time></trkpt><trkpt lat="43.8306763" lon="12.7936668"><ele>263.0</ele><time>2026-04-18T16:15:30.496Z</time></trkpt><trkpt lat="43.8306996" lon="12.7935148"><ele>263.0</ele><time>2026-04-18T16:15:31.495Z</time></trkpt><trkpt lat="43.8307073" lon="12.7933662"><ele>263.0</ele><time>2026-04-18T16:15:32.496Z</time></trkpt><trkpt lat="43.8306958" lon="12.793214"><ele>263.0</ele><time>2026-04-18T16:15:33.496Z</time></trkpt><trkpt lat="43.8306711" lon="12.7930627"><ele>262.6</ele><time>2026-04-18T16:15:34.495Z</time></trkpt><trkpt lat="43.8306383" lon="12.7929149"><ele>262.20000000000005</ele><time>2026-04-18T16:15:35.495Z</time></trkpt><trkpt lat="43.8306064" lon="12.7927652"><ele>261.8</ele><time>2026-04-18T16:15:36.496Z</time></trkpt><trkpt lat="43.8305701" lon="12.7926202"><ele>261.40000000000003</ele><time>2026-04-18T16:15:37.495Z</time></trkpt><trkpt lat="43.8305318" lon="12.7924746"><ele>261.0</ele><time>2026-04-18T16:15:38.496Z</time></trkpt><trkpt lat="43.8304902" lon="12.792321"><ele>262.40000000000003</ele><time>2026-04-18T16:15:39.495Z</time></trkpt><trkpt lat="43.8304409" lon="12.7921775"><ele>263.8</ele><time>2026-04-18T16:15:40.496Z</time></trkpt><trkpt lat="43.8303851" lon="12.7920478"><ele>265.20000000000005</ele><time>2026-04-18T16:15:41.497Z</time></trkpt><trkpt lat="43.8303268" lon="12.791927"><ele>266.6</ele><time>2026-04-18T16:15:42.496Z</time></trkpt><trkpt lat="43.83027" lon="12.7918068"><ele>268.0</ele><time>2026-04-18T16:15:43.495Z</time></trkpt><trkpt lat="43.8302231" lon="12.7916867"><ele>269.4</ele><time>2026-04-18T16:15:44.495Z</time></trkpt><trkpt lat="43.8301901" lon="12.7915646"><ele>270.8</ele><time>2026-04-18T16:15:45.496Z</time></trkpt><trkpt lat="43.8301709" lon="12.7914421"><ele>272.2</ele><time>2026-04-18T16:15:46.495Z</time></trkpt><trkpt lat="43.8301746" lon="12.7913119"><ele>273.6</ele><time>2026-04-18T16:15:47.495Z</time></trkpt><trkpt lat="43.8301986" lon="12.7911772"><ele>275.0</ele><time>2026-04-18T16:15:48.496Z</time></trkpt><trkpt lat="43.8302384" lon="12.7910399"><ele>274.5</ele><time>2026-04-18T16:15:49.498Z</time></trkpt><trkpt lat="43.8302907" lon="12.7908972"><ele>274.0</ele><time>2026-04-18T16:15:50.497Z</time></trkpt><trkpt lat="43.8303495" lon="12.7907514"><ele>273.5</ele><time>2026-04-18T16:15:51.498Z</time></trkpt><trkpt lat="43.8304114" lon="12.7906006"><ele>273.0</ele><time>2026-04-18T16:15:52.5Z</time></trkpt><trkpt lat="43.830475" lon="12.7904449"><ele>273.0</ele><time>2026-04-18T16:15:53.496Z</time></trkpt><trkpt lat="43.8305355" lon="12.7902824"><ele>273.0</ele><time>2026-04-18T16:15:54.495Z</time></trkpt><trkpt lat="43.8305959" lon="12.7901204"><ele>273.0</ele><time>2026-04-18T16:15:55.498Z</time></trkpt><trkpt lat="43.8306578" lon="12.7899734"><ele>273.0</ele><time>2026-04-18T16:15:56.498Z</time></trkpt><trkpt lat="43.8307251" lon="12.7898388"><ele>274.0</ele><time>2026-04-18T16:15:57.497Z</time></trkpt><trkpt lat="43.8307992" lon="12.7897149"><ele>275.0</ele><time>2026-04-18T16:15:58.497Z</time></trkpt><trkpt lat="43.8308899" lon="12.7896115"><ele>276.0</ele><time>2026-04-18T16:15:59.499Z</time></trkpt><trkpt lat="43.8309946" lon="12.78952"><ele>277.0</ele><time>2026-04-18T16:16:00.495Z</time></trkpt><trkpt lat="43.8311111" lon="12.7894387"><ele>277.0</ele><time>2026-04-18T16:16:01.494Z</time></trkpt><trkpt lat="43.8312338" lon="12.7893555"><ele>277.0</ele><time>2026-04-18T16:16:02.497Z</time></trkpt><trkpt lat="43.8313615" lon="12.7892697"><ele>277.0</ele><time>2026-04-18T16:16:03.5Z</time></trkpt><trkpt lat="43.8314967" lon="12.7891811"><ele>277.0</ele><time>2026-04-18T16:16:04.499Z</time></trkpt><trkpt lat="43.8316373" lon="12.7890912"><ele>273.0</ele><time>2026-04-18T16:16:05.496Z</time></trkpt><trkpt lat="43.8317845" lon="12.7889968"><ele>269.0</ele><time>2026-04-18T16:16:06.496Z</time></trkpt><trkpt lat="43.8319411" lon="12.7889018"><ele>265.0</ele><time>2026-04-18T16:16:07.495Z</time></trkpt><trkpt lat="43.8320931" lon="12.7888125"><ele>265.0</ele><time>2026-04-18T16:16:08.501Z</time></trkpt><trkpt lat="43.8322298" lon="12.7887218"><ele>265.0</ele><time>2026-04-18T16:16:09.495Z</time></trkpt><trkpt lat="43.8323547" lon="12.7886333"><ele>265.0</ele><time>2026-04-18T16:16:10.499Z</time></trkpt><trkpt lat="43.8324721" lon="12.7885548"><ele>265.0</ele><time>2026-04-18T16:16:11.495Z</time></trkpt><trkpt lat="43.8325862" lon="12.788484"><ele>263.25</ele><time>2026-04-18T16:16:12.495Z</time></trkpt><trkpt lat="43.832698" lon="12.7884195"><ele>261.5</ele><time>2026-04-18T16:16:13.495Z</time></trkpt><trkpt lat="43.8328051" lon="12.7883527"><ele>259.75</ele><time>2026-04-18T16:16:14.495Z</time></trkpt><trkpt lat="43.8329122" lon="12.7882791"><ele>258.0</ele><time>2026-04-18T16:16:15.495Z</time></trkpt><trkpt lat="43.8330124" lon="12.7881779"><ele>258.0</ele><time>2026-04-18T16:16:16.495Z</time></trkpt><trkpt lat="43.8331185" lon="12.7880664"><ele>258.0</ele><time>2026-04-18T16:16:17.495Z</time></trkpt><trkpt lat="43.8332294" lon="12.7879476"><ele>258.0</ele><time>2026-04-18T16:16:18.495Z</time></trkpt><trkpt lat="43.8333413" lon="12.7878245"><ele>258.0</ele><time>2026-04-18T16:16:19.499Z</time></trkpt><trkpt lat="43.8334557" lon="12.7876956"><ele>254.75</ele><time>2026-04-18T16:16:20.499Z</time></trkpt><trkpt lat="43.8335721" lon="12.7875652"><ele>251.5</ele><time>2026-04-18T16:16:21.495Z</time></trkpt><trkpt lat="43.8336915" lon="12.7874462"><ele>248.25</ele><time>2026-04-18T16:16:22.494Z</time></trkpt><trkpt lat="43.8338116" lon="12.7873413"><ele>245.0</ele><time>2026-04-18T16:16:23.499Z</time></trkpt><trkpt lat="43.833929" lon="12.7872478"><ele>245.0</ele><time>2026-04-18T16:16:24.496Z</time></trkpt><trkpt lat="43.8340447" lon="12.7871532"><ele>245.0</ele><time>2026-04-18T16:16:25.502Z</time></trkpt><trkpt lat="43.8341557" lon="12.7870611"><ele>245.0</ele><time>2026-04-18T16:16:26.496Z</time></trkpt><trkpt lat="43.8342615" lon="12.786969"><ele>245.0</ele><time>2026-04-18T16:16:27.495Z</time></trkpt><trkpt lat="43.834362" lon="12.7868698"><ele>240.75</ele><time>2026-04-18T16:16:28.495Z</time></trkpt><trkpt lat="43.834459" lon="12.7867661"><ele>236.5</ele><time>2026-04-18T16:16:29.495Z</time></trkpt><trkpt lat="43.834553" lon="12.7866663"><ele>232.25</ele><time>2026-04-18T16:16:30.496Z</time></trkpt><trkpt lat="43.8346473" lon="12.7865644"><ele>228.0</ele><time>2026-04-18T16:16:31.496Z</time></trkpt><trkpt lat="43.834747" lon="12.7864602"><ele>228.0</ele><time>2026-04-18T16:16:32.496Z</time></trkpt><trkpt lat="43.8348516" lon="12.7863528"><ele>228.0</ele><time>2026-04-18T16:16:33.497Z</time></trkpt><trkpt lat="43.8349541" lon="12.7862315"><ele>228.0</ele><time>2026-04-18T16:16:34.494Z</time></trkpt><trkpt lat="43.8350517" lon="12.7860955"><ele>228.0</ele><time>2026-04-18T16:16:35.496Z</time></trkpt><trkpt lat="43.8351433" lon="12.7859467"><ele>227.0</ele><time>2026-04-18T16:16:36.496Z</time></trkpt><trkpt lat="43.8352254" lon="12.7857883"><ele>226.0</ele><time>2026-04-18T16:16:37.496Z</time></trkpt><trkpt lat="43.835299" lon="12.7856178"><ele>225.0</ele><time>2026-04-18T16:16:38.497Z</time></trkpt><trkpt lat="43.8353707" lon="12.7854375"><ele>224.0</ele><time>2026-04-18T16:16:39.496Z</time></trkpt><trkpt lat="43.8354465" lon="12.7852538"><ele>224.0</ele><time>2026-04-18T16:16:40.495Z</time></trkpt><trkpt lat="43.8355284" lon="12.7850667"><ele>224.0</ele><time>2026-04-18T16:16:41.497Z</time></trkpt><trkpt lat="43.8356058" lon="12.7848769"><ele>224.0</ele><time>2026-04-18T16:16:42.495Z</time></trkpt><trkpt lat="43.8356783" lon="12.784691"><ele>224.0</ele><time>2026-04-18T16:16:43.498Z</time></trkpt><trkpt lat="43.8357491" lon="12.7845229"><ele>224.0</ele><time>2026-04-18T16:16:44.496Z</time></trkpt><trkpt lat="43.8358242" lon="12.7843604"><ele>224.0</ele><time>2026-04-18T16:16:45.496Z</time></trkpt><trkpt lat="43.8359037" lon="12.7842033"><ele>224.0</ele><time>2026-04-18T16:16:46.498Z</time></trkpt><trkpt lat="43.8359862" lon="12.7840543"><ele>222.25</ele><time>2026-04-18T16:16:47.495Z</time></trkpt><trkpt lat="43.8360694" lon="12.7839051"><ele>220.5</ele><time>2026-04-18T16:16:48.496Z</time></trkpt><trkpt lat="43.8361499" lon="12.7837568"><ele>218.75</ele><time>2026-04-18T16:16:49.495Z</time></trkpt><trkpt lat="43.8362254" lon="12.7836029"><ele>217.0</ele><time>2026-04-18T16:16:50.497Z</time></trkpt><trkpt lat="43.8363006" lon="12.7834525"><ele>217.0</ele><time>2026-04-18T16:16:51.495Z</time></trkpt><trkpt lat="43.8363701" lon="12.7833055"><ele>217.0</ele><time>2026-04-18T16:16:52.496Z</time></trkpt><trkpt lat="43.8364367" lon="12.783165"><ele>217.0</ele><time>2026-04-18T16:16:53.497Z</time></trkpt><trkpt lat="43.8364924" lon="12.7830179"><ele>217.0</ele><time>2026-04-18T16:16:54.497Z</time></trkpt><trkpt lat="43.8365454" lon="12.7828633"><ele>217.0</ele><time>2026-04-18T16:16:55.497Z</time></trkpt><trkpt lat="43.8365961" lon="12.7827009"><ele>217.0</ele><time>2026-04-18T16:16:56.507Z</time></trkpt><trkpt lat="43.836646" lon="12.7825346"><ele>217.0</ele><time>2026-04-18T16:16:57.496Z</time></trkpt><trkpt lat="43.8366996" lon="12.7823757"><ele>217.0</ele><time>2026-04-18T16:16:58.496Z</time></trkpt><trkpt lat="43.836746" lon="12.7822165"><ele>216.25</ele><time>2026-04-18T16:16:59.497Z</time></trkpt><trkpt lat="43.8367801" lon="12.7820551"><ele>215.5</ele><time>2026-04-18T16:17:00.497Z</time></trkpt><trkpt lat="43.8368129" lon="12.7818965"><ele>214.75</ele><time>2026-04-18T16:17:01.495Z</time></trkpt><trkpt lat="43.8368365" lon="12.7817327"><ele>214.0</ele><time>2026-04-18T16:17:02.496Z</time></trkpt><trkpt lat="43.8368565" lon="12.7815617"><ele>211.25</ele><time>2026-04-18T16:17:03.495Z</time></trkpt><trkpt lat="43.8368677" lon="12.7813857"><ele>208.5</ele><time>2026-04-18T16:17:04.495Z</time></trkpt><trkpt lat="43.8368754" lon="12.7812171"><ele>205.75</ele><time>2026-04-18T16:17:05.495Z</time></trkpt><trkpt lat="43.8368788" lon="12.7810549"><ele>203.0</ele><time>2026-04-18T16:17:06.495Z</time></trkpt><trkpt lat="43.8368815" lon="12.7808995"><ele>202.2</ele><time>2026-04-18T16:17:07.499Z</time></trkpt><trkpt lat="43.8368845" lon="12.7807524"><ele>201.4</ele><time>2026-04-18T16:17:08.496Z</time></trkpt><trkpt lat="43.8368866" lon="12.7806145"><ele>200.6</ele><time>2026-04-18T16:17:09.495Z</time></trkpt><trkpt lat="43.8368846" lon="12.7804803"><ele>199.79999999999998</ele><time>2026-04-18T16:17:10.495Z</time></trkpt><trkpt lat="43.8368777" lon="12.7803509"><ele>199.0</ele><time>2026-04-18T16:17:11.494Z</time></trkpt><trkpt lat="43.836866" lon="12.7802171"><ele>199.79999999999998</ele><time>2026-04-18T16:17:12.495Z</time></trkpt><trkpt lat="43.8368457" lon="12.7800927"><ele>200.6</ele><time>2026-04-18T16:17:13.497Z</time></trkpt><trkpt lat="43.8368204" lon="12.7799693"><ele>201.4</ele><time>2026-04-18T16:17:14.496Z</time></trkpt><trkpt lat="43.8367903" lon="12.7798505"><ele>202.2</ele><time>2026-04-18T16:17:15.495Z</time></trkpt><trkpt lat="43.8367561" lon="12.7797312"><ele>203.0</ele><time>2026-04-18T16:17:16.496Z</time></trkpt><trkpt lat="43.8367221" lon="12.7796136"><ele>203.33333333333334</ele><time>2026-04-18T16:17:17.497Z</time></trkpt><trkpt lat="43.8366914" lon="12.7794945"><ele>203.66666666666669</ele><time>2026-04-18T16:17:18.496Z</time></trkpt><trkpt lat="43.8366682" lon="12.7793783"><ele>204.0</ele><time>2026-04-18T16:17:19.497Z</time></trkpt><trkpt lat="43.8366509" lon="12.7792619"><ele>204.33333333333331</ele><time>2026-04-18T16:17:20.497Z</time></trkpt><trkpt lat="43.836641" lon="12.7791421"><ele>204.66666666666666</ele><time>2026-04-18T16:17:21.495Z</time></trkpt><trkpt lat="43.8366373" lon="12.7790226"><ele>205.0</ele><time>2026-04-18T16:17:22.496Z</time></trkpt><trkpt lat="43.8366416" lon="12.7789045"><ele>204.99999999999997</ele><time>2026-04-18T16:17:23.496Z</time></trkpt><trkpt lat="43.8366521" lon="12.7787901"><ele>205.0</ele><time>2026-04-18T16:17:24.496Z</time></trkpt><trkpt lat="43.8366661" lon="12.7786819"><ele>205.0</ele><time>2026-04-18T16:17:25.495Z</time></trkpt><trkpt lat="43.8366796" lon="12.778573"><ele>205.0</ele><time>2026-04-18T16:17:26.495Z</time></trkpt><trkpt lat="43.8366947" lon="12.7784595"><ele>204.99999999999997</ele><time>2026-04-18T16:17:27.495Z</time></trkpt><trkpt lat="43.8367132" lon="12.778338"><ele>205.0</ele><time>2026-04-18T16:17:28.495Z</time></trkpt><trkpt lat="43.8367318" lon="12.7782161"><ele>204.66666666666666</ele><time>2026-04-18T16:17:29.496Z</time></trkpt><trkpt lat="43.8367494" lon="12.7780953"><ele>204.33333333333331</ele><time>2026-04-18T16:17:30.495Z</time></trkpt><trkpt lat="43.8367658" lon="12.7779736"><ele>204.0</ele><time>2026-04-18T16:17:31.496Z</time></trkpt><trkpt lat="43.8367787" lon="12.7778509"><ele>203.66666666666669</ele><time>2026-04-18T16:17:32.495Z</time></trkpt><trkpt lat="43.8367961" lon="12.7777314"><ele>203.33333333333334</ele><time>2026-04-18T16:17:33.495Z</time></trkpt><trkpt lat="43.8368106" lon="12.7776126"><ele>203.0</ele><time>2026-04-18T16:17:34.495Z</time></trkpt><trkpt lat="43.8368255" lon="12.7774889"><ele>199.66666666666669</ele><time>2026-04-18T16:17:35.495Z</time></trkpt><trkpt lat="43.8368417" lon="12.7773666"><ele>196.33333333333334</ele><time>2026-04-18T16:17:36.496Z</time></trkpt><trkpt lat="43.8368594" lon="12.7772461"><ele>193.0</ele><time>2026-04-18T16:17:37.495Z</time></trkpt><trkpt lat="43.8368753" lon="12.7771273"><ele>189.66666666666669</ele><time>2026-04-18T16:17:38.496Z</time></trkpt><trkpt lat="43.8368893" lon="12.7770055"><ele>186.33333333333334</ele><time>2026-04-18T16:17:39.495Z</time></trkpt><trkpt lat="43.8369051" lon="12.7768839"><ele>183.0</ele><time>2026-04-18T16:17:40.495Z</time></trkpt><trkpt lat="43.8369218" lon="12.7767623"><ele>182.66666666666666</ele><time>2026-04-18T16:17:41.495Z</time></trkpt><trkpt lat="43.8369345" lon="12.7766431"><ele>182.33333333333334</ele><time>2026-04-18T16:17:42.495Z</time></trkpt><trkpt lat="43.8369418" lon="12.7765304"><ele>182.0</ele><time>2026-04-18T16:17:43.496Z</time></trkpt><trkpt lat="43.8369445" lon="12.7764282"><ele>181.66666666666669</ele><time>2026-04-18T16:17:44.495Z</time></trkpt><trkpt lat="43.8369381" lon="12.7763318"><ele>181.33333333333334</ele><time>2026-04-18T16:17:45.495Z</time></trkpt><trkpt lat="43.8369034" lon="12.776255"><ele>181.0</ele><time>2026-04-18T16:17:46.494Z</time></trkpt><trkpt lat="43.8368395" lon="12.7762058"><ele>183.66666666666669</ele><time>2026-04-18T16:17:47.495Z</time></trkpt><trkpt lat="43.8367688" lon="12.7761768"><ele>186.33333333333334</ele><time>2026-04-18T16:17:48.496Z</time></trkpt><trkpt lat="43.8366908" lon="12.776186"><ele>189.0</ele><time>2026-04-18T16:17:49.498Z</time></trkpt><trkpt lat="43.8366141" lon="12.7762016"><ele>191.66666666666669</ele><time>2026-04-18T16:17:50.498Z</time></trkpt><trkpt lat="43.8365345" lon="12.7762236"><ele>194.33333333333334</ele><time>2026-04-18T16:17:51.497Z</time></trkpt><trkpt lat="43.8364566" lon="12.7762574"><ele>197.0</ele><time>2026-04-18T16:17:52.497Z</time></trkpt><trkpt lat="43.8363781" lon="12.7762858"><ele>197.00000000000003</ele><time>2026-04-18T16:17:53.499Z</time></trkpt><trkpt lat="43.8363145" lon="12.7763026"><ele>197.0</ele><time>2026-04-18T16:17:54.496Z</time></trkpt><trkpt lat="43.8362399" lon="12.7762241"><ele>197.0</ele><time>2026-04-18T16:17:56.496Z</time></trkpt><trkpt lat="43.8362455" lon="12.7761312"><ele>197.0</ele><time>2026-04-18T16:17:57.496Z</time></trkpt><trkpt lat="43.8362728" lon="12.7760305"><ele>197.00000000000003</ele><time>2026-04-18T16:17:58.495Z</time></trkpt><trkpt lat="43.8363429" lon="12.7759321"><ele>197.0</ele><time>2026-04-18T16:17:59.496Z</time></trkpt><trkpt lat="43.8364231" lon="12.7758401"><ele>196.00000000000003</ele><time>2026-04-18T16:18:00.499Z</time></trkpt><trkpt lat="43.836502" lon="12.7757541"><ele>195.0</ele><time>2026-04-18T16:18:01.496Z</time></trkpt><trkpt lat="43.8365784" lon="12.7756759"><ele>194.0</ele><time>2026-04-18T16:18:02.495Z</time></trkpt><trkpt lat="43.836653" lon="12.7756008"><ele>193.0</ele><time>2026-04-18T16:18:03.495Z</time></trkpt><trkpt lat="43.836715" lon="12.7755284"><ele>192.0</ele><time>2026-04-18T16:18:04.496Z</time></trkpt><trkpt lat="43.836763" lon="12.7754536"><ele>191.0</ele><time>2026-04-18T16:18:05.496Z</time></trkpt><trkpt lat="43.8367843" lon="12.7753597"><ele>191.0</ele><time>2026-04-18T16:18:06.495Z</time></trkpt><trkpt lat="43.8367763" lon="12.7752616"><ele>191.0</ele><time>2026-04-18T16:18:07.495Z</time></trkpt><trkpt lat="43.8367319" lon="12.7751733"><ele>191.0</ele><time>2026-04-18T16:18:08.496Z</time></trkpt><trkpt lat="43.8366645" lon="12.775111"><ele>191.0</ele><time>2026-04-18T16:18:09.498Z</time></trkpt><trkpt lat="43.8365764" lon="12.7750883"><ele>191.0</ele><time>2026-04-18T16:18:10.495Z</time></trkpt><trkpt lat="43.83648" lon="12.775102"><ele>191.0</ele><time>2026-04-18T16:18:11.496Z</time></trkpt><trkpt lat="43.8363872" lon="12.7751369"><ele>191.0</ele><time>2026-04-18T16:18:12.496Z</time></trkpt><trkpt lat="43.836303" lon="12.775173"><ele>191.0</ele><time>2026-04-18T16:18:13.495Z</time></trkpt><trkpt lat="43.8362237" lon="12.7752055"><ele>191.0</ele><time>2026-04-18T16:18:14.496Z</time></trkpt><trkpt lat="43.8361475" lon="12.7752345"><ele>191.0</ele><time>2026-04-18T16:18:15.495Z</time></trkpt><trkpt lat="43.8360733" lon="12.7752607"><ele>191.0</ele><time>2026-04-18T16:18:16.495Z</time></trkpt><trkpt lat="43.8359985" lon="12.7752885"><ele>191.0</ele><time>2026-04-18T16:18:17.495Z</time></trkpt><trkpt lat="43.835922" lon="12.7753157"><ele>189.16666666666666</ele><time>2026-04-18T16:18:18.496Z</time></trkpt><trkpt lat="43.835844" lon="12.775344"><ele>187.33333333333331</ele><time>2026-04-18T16:18:19.496Z</time></trkpt><trkpt lat="43.8357631" lon="12.7753719"><ele>185.5</ele><time>2026-04-18T16:18:20.495Z</time></trkpt><trkpt lat="43.8356813" lon="12.7753908"><ele>183.66666666666666</ele><time>2026-04-18T16:18:21.494Z</time></trkpt><trkpt lat="43.8356018" lon="12.7754024"><ele>181.83333333333334</ele><time>2026-04-18T16:18:22.494Z</time></trkpt><trkpt lat="43.8355222" lon="12.7753939"><ele>180.0</ele><time>2026-04-18T16:18:23.495Z</time></trkpt><trkpt lat="43.8354461" lon="12.7753693"><ele>180.0</ele><time>2026-04-18T16:18:24.495Z</time></trkpt><trkpt lat="43.8353811" lon="12.7753086"><ele>180.0</ele><time>2026-04-18T16:18:25.494Z</time></trkpt><trkpt lat="43.8353666" lon="12.7751949"><ele>180.0</ele><time>2026-04-18T16:18:26.494Z</time></trkpt><trkpt lat="43.8353768" lon="12.7750688"><ele>180.0</ele><time>2026-04-18T16:18:27.493Z</time></trkpt><trkpt lat="43.835413" lon="12.7749527"><ele>180.0</ele><time>2026-04-18T16:18:28.494Z</time></trkpt><trkpt lat="43.8354665" lon="12.7748354"><ele>180.0</ele><time>2026-04-18T16:18:29.494Z</time></trkpt><trkpt lat="43.835524" lon="12.7747232"><ele>178.4</ele><time>2026-04-18T16:18:30.494Z</time></trkpt><trkpt lat="43.8355832" lon="12.7746143"><ele>176.8</ele><time>2026-04-18T16:18:31.494Z</time></trkpt><trkpt lat="43.835639" lon="12.7745062"><ele>175.2</ele><time>2026-04-18T16:18:32.494Z</time></trkpt><trkpt lat="43.8356916" lon="12.7743988"><ele>173.6</ele><time>2026-04-18T16:18:33.494Z</time></trkpt><trkpt lat="43.835745" lon="12.7742983"><ele>172.0</ele><time>2026-04-18T16:18:34.495Z</time></trkpt><trkpt lat="43.8357961" lon="12.7742"><ele>170.83333333333334</ele><time>2026-04-18T16:18:35.494Z</time></trkpt><trkpt lat="43.8358481" lon="12.7741077"><ele>169.66666666666669</ele><time>2026-04-18T16:18:36.498Z</time></trkpt><trkpt lat="43.8359029" lon="12.7740196"><ele>168.5</ele><time>2026-04-18T16:18:37.494Z</time></trkpt><trkpt lat="43.835967" lon="12.7739403"><ele>167.33333333333334</ele><time>2026-04-18T16:18:38.494Z</time></trkpt><trkpt lat="43.8360357" lon="12.7738724"><ele>166.16666666666666</ele><time>2026-04-18T16:18:39.494Z</time></trkpt><trkpt lat="43.8361148" lon="12.773813"><ele>165.0</ele><time>2026-04-18T16:18:40.493Z</time></trkpt><trkpt lat="43.8362009" lon="12.7737529"><ele>165.0</ele><time>2026-04-18T16:18:41.495Z</time></trkpt><trkpt lat="43.8362903" lon="12.7736886"><ele>165.0</ele><time>2026-04-18T16:18:42.495Z</time></trkpt><trkpt lat="43.8363825" lon="12.7736283"><ele>165.0</ele><time>2026-04-18T16:18:43.495Z</time></trkpt><trkpt lat="43.8364723" lon="12.7735656"><ele>165.0</ele><time>2026-04-18T16:18:44.494Z</time></trkpt><trkpt lat="43.8365552" lon="12.7735002"><ele>165.0</ele><time>2026-04-18T16:18:45.494Z</time></trkpt><trkpt lat="43.8366317" lon="12.7734311"><ele>163.16666666666666</ele><time>2026-04-18T16:18:46.494Z</time></trkpt><trkpt lat="43.8366954" lon="12.7733506"><ele>161.33333333333334</ele><time>2026-04-18T16:18:47.495Z</time></trkpt><trkpt lat="43.8367431" lon="12.7732492"><ele>159.5</ele><time>2026-04-18T16:18:48.494Z</time></trkpt><trkpt lat="43.8367839" lon="12.7731458"><ele>157.66666666666669</ele><time>2026-04-18T16:18:49.494Z</time></trkpt><trkpt lat="43.8368119" lon="12.7730346"><ele>155.83333333333334</ele><time>2026-04-18T16:18:50.494Z</time></trkpt><trkpt lat="43.8368335" lon="12.7729189"><ele>154.0</ele><time>2026-04-18T16:18:51.493Z</time></trkpt><trkpt lat="43.8368572" lon="12.7728031"><ele>153.0</ele><time>2026-04-18T16:18:52.495Z</time></trkpt><trkpt lat="43.8368844" lon="12.7726954"><ele>152.0</ele><time>2026-04-18T16:18:53.494Z</time></trkpt><trkpt lat="43.8369122" lon="12.7725893"><ele>151.0</ele><time>2026-04-18T16:18:54.494Z</time></trkpt><trkpt lat="43.8369404" lon="12.7724775"><ele>150.0</ele><time>2026-04-18T16:18:55.494Z</time></trkpt><trkpt lat="43.8369686" lon="12.7723651"><ele>149.0</ele><time>2026-04-18T16:18:56.494Z</time></trkpt><trkpt lat="43.8369932" lon="12.7722543"><ele>148.0</ele><time>2026-04-18T16:18:57.496Z</time></trkpt><trkpt lat="43.8370198" lon="12.7721443"><ele>146.83333333333334</ele><time>2026-04-18T16:18:58.499Z</time></trkpt><trkpt lat="43.8370439" lon="12.7720393"><ele>145.66666666666669</ele><time>2026-04-18T16:18:59.496Z</time></trkpt><trkpt lat="43.837066" lon="12.7719479"><ele>144.5</ele><time>2026-04-18T16:19:00.495Z</time></trkpt><trkpt lat="43.8371103" lon="12.7718834"><ele>143.33333333333334</ele><time>2026-04-18T16:19:01.494Z</time></trkpt><trkpt lat="43.8371773" lon="12.7718518"><ele>142.16666666666666</ele><time>2026-04-18T16:19:02.498Z</time></trkpt><trkpt lat="43.8372481" lon="12.7719033"><ele>141.0</ele><time>2026-04-18T16:19:03.499Z</time></trkpt><trkpt lat="43.8373128" lon="12.7720171"><ele>141.0</ele><time>2026-04-18T16:19:04.494Z</time></trkpt><trkpt lat="43.8373658" lon="12.7721562"><ele>141.0</ele><time>2026-04-18T16:19:05.493Z</time></trkpt><trkpt lat="43.8374107" lon="12.7722862"><ele>141.0</ele><time>2026-04-18T16:19:06.495Z</time></trkpt><trkpt lat="43.8374554" lon="12.7724017"><ele>141.0</ele><time>2026-04-18T16:19:07.494Z</time></trkpt><trkpt lat="43.8375065" lon="12.7725057"><ele>141.0</ele><time>2026-04-18T16:19:08.494Z</time></trkpt><trkpt lat="43.8375624" lon="12.7726037"><ele>140.0</ele><time>2026-04-18T16:19:09.494Z</time></trkpt><trkpt lat="43.8376249" lon="12.7726896"><ele>139.0</ele><time>2026-04-18T16:19:10.493Z</time></trkpt><trkpt lat="43.8376894" lon="12.7727667"><ele>138.0</ele><time>2026-04-18T16:19:11.493Z</time></trkpt><trkpt lat="43.8377566" lon="12.7728428"><ele>137.0</ele><time>2026-04-18T16:19:12.494Z</time></trkpt><trkpt lat="43.8378294" lon="12.7729241"><ele>136.0</ele><time>2026-04-18T16:19:13.493Z</time></trkpt><trkpt lat="43.8379033" lon="12.7730049"><ele>135.0</ele><time>2026-04-18T16:19:14.496Z</time></trkpt><trkpt lat="43.8379645" lon="12.7730728"><ele>135.0</ele><time>2026-04-18T16:19:15.494Z</time></trkpt><trkpt lat="43.8380232" lon="12.7731286"><ele>135.0</ele><time>2026-04-18T16:19:16.494Z</time></trkpt><trkpt lat="43.8381241" lon="12.7731247"><ele>135.0</ele><time>2026-04-18T16:19:18.494Z</time></trkpt><trkpt lat="43.8381439" lon="12.7729508"><ele>135.0</ele><time>2026-04-18T16:19:20.495Z</time></trkpt><trkpt lat="43.838101" lon="12.7728408"><ele>135.0</ele><time>2026-04-18T16:19:21.494Z</time></trkpt><trkpt lat="43.838039" lon="12.7727599"><ele>135.0</ele><time>2026-04-18T16:19:22.494Z</time></trkpt><trkpt lat="43.837979" lon="12.7726926"><ele>135.0</ele><time>2026-04-18T16:19:23.5Z</time></trkpt><trkpt lat="43.8379263" lon="12.7726293"><ele>135.0</ele><time>2026-04-18T16:19:24.496Z</time></trkpt><trkpt lat="43.8378756" lon="12.7725774"><ele>135.0</ele><time>2026-04-18T16:19:25.494Z</time></trkpt><trkpt lat="43.8377749" lon="12.7724881"><ele>135.0</ele><time>2026-04-18T16:19:27.495Z</time></trkpt><trkpt lat="43.8377032" lon="12.7723779"><ele>135.0</ele><time>2026-04-18T16:19:29.494Z</time></trkpt><trkpt lat="43.8377352" lon="12.7722756"><ele>135.0</ele><time>2026-04-18T16:19:31.493Z</time></trkpt><trkpt lat="43.8378674" lon="12.7723158"><ele>135.0</ele><time>2026-04-18T16:19:33.494Z</time></trkpt><trkpt lat="43.8379326" lon="12.7723978"><ele>135.0</ele><time>2026-04-18T16:19:34.494Z</time></trkpt><trkpt lat="43.8380015" lon="12.7724995"><ele>135.0</ele><time>2026-04-18T16:19:35.494Z</time></trkpt><trkpt lat="43.838077" lon="12.7726028"><ele>135.0</ele><time>2026-04-18T16:19:36.495Z</time></trkpt><trkpt lat="43.8381564" lon="12.7726968"><ele>135.0</ele><time>2026-04-18T16:19:37.494Z</time></trkpt><trkpt lat="43.8382385" lon="12.7727816"><ele>135.0</ele><time>2026-04-18T16:19:38.495Z</time></trkpt><trkpt lat="43.8383205" lon="12.7728594"><ele>135.0</ele><time>2026-04-18T16:19:39.494Z</time></trkpt><trkpt lat="43.8383993" lon="12.7729321"><ele>135.0</ele><time>2026-04-18T16:19:40.496Z</time></trkpt><trkpt lat="43.8384679" lon="12.7730026"><ele>135.0</ele><time>2026-04-18T16:19:41.494Z</time></trkpt><trkpt lat="43.8385255" lon="12.7730722"><ele>131.83333333333334</ele><time>2026-04-18T16:19:42.495Z</time></trkpt><trkpt lat="43.8385782" lon="12.7731455"><ele>128.66666666666666</ele><time>2026-04-18T16:19:43.495Z</time></trkpt><trkpt lat="43.838624" lon="12.77322"><ele>125.5</ele><time>2026-04-18T16:19:44.495Z</time></trkpt><trkpt lat="43.8386722" lon="12.7732856"><ele>122.33333333333333</ele><time>2026-04-18T16:19:45.494Z</time></trkpt><trkpt lat="43.8387205" lon="12.7733452"><ele>119.16666666666666</ele><time>2026-04-18T16:19:46.495Z</time></trkpt><trkpt lat="43.838825" lon="12.773418"><ele>116.0</ele><time>2026-04-18T16:19:48.495Z</time></trkpt><trkpt lat="43.8389428" lon="12.7733957"><ele>116.0</ele><time>2026-04-18T16:19:50.494Z</time></trkpt><trkpt lat="43.839013" lon="12.7732602"><ele>116.0</ele><time>2026-04-18T16:19:52.498Z</time></trkpt><trkpt lat="43.838997" lon="12.7730795"><ele>116.0</ele><time>2026-04-18T16:19:54.494Z</time></trkpt><trkpt lat="43.838944" lon="12.7729635"><ele>116.0</ele><time>2026-04-18T16:19:55.494Z</time></trkpt><trkpt lat="43.8388898" lon="12.7728559"><ele>116.0</ele><time>2026-04-18T16:19:56.495Z</time></trkpt><trkpt lat="43.8388372" lon="12.7727594"><ele>114.83333333333333</ele><time>2026-04-18T16:19:57.494Z</time></trkpt><trkpt lat="43.8387895" lon="12.7726669"><ele>113.66666666666666</ele><time>2026-04-18T16:19:58.494Z</time></trkpt><trkpt lat="43.8387446" lon="12.7725685"><ele>112.5</ele><time>2026-04-18T16:19:59.494Z</time></trkpt><trkpt lat="43.8387008" lon="12.7724711"><ele>111.33333333333334</ele><time>2026-04-18T16:20:00.495Z</time></trkpt><trkpt lat="43.8386574" lon="12.7723728"><ele>110.16666666666667</ele><time>2026-04-18T16:20:01.495Z</time></trkpt><trkpt lat="43.8386123" lon="12.7722787"><ele>109.0</ele><time>2026-04-18T16:20:02.495Z</time></trkpt><trkpt lat="43.8385712" lon="12.7721822"><ele>109.0</ele><time>2026-04-18T16:20:03.493Z</time></trkpt><trkpt lat="43.8385375" lon="12.7720874"><ele>109.0</ele><time>2026-04-18T16:20:04.496Z</time></trkpt><trkpt lat="43.8385197" lon="12.7719991"><ele>109.0</ele><time>2026-04-18T16:20:05.497Z</time></trkpt><trkpt lat="43.8385925" lon="12.7718573"><ele>109.0</ele><time>2026-04-18T16:20:07.499Z</time></trkpt><trkpt lat="43.8386737" lon="12.7718432"><ele>109.0</ele><time>2026-04-18T16:20:08.494Z</time></trkpt><trkpt lat="43.8387743" lon="12.7718737"><ele>109.0</ele><time>2026-04-18T16:20:09.493Z</time></trkpt><trkpt lat="43.8388802" lon="12.7719359"><ele>109.0</ele><time>2026-04-18T16:20:10.493Z</time></trkpt><trkpt lat="43.8389893" lon="12.7720013"><ele>109.0</ele><time>2026-04-18T16:20:11.496Z</time></trkpt><trkpt lat="43.8390903" lon="12.7720591"><ele>109.0</ele><time>2026-04-18T16:20:12.496Z</time></trkpt><trkpt lat="43.83919" lon="12.7721092"><ele>109.0</ele><time>2026-04-18T16:20:13.634Z</time></trkpt><trkpt lat="43.8393659" lon="12.7722091"><ele>105.2</ele><time>2026-04-18T16:20:15.494Z</time></trkpt><trkpt lat="43.8394537" lon="12.7722647"><ele>101.4</ele><time>2026-04-18T16:20:16.493Z</time></trkpt><trkpt lat="43.8395391" lon="12.7723267"><ele>97.6</ele><time>2026-04-18T16:20:17.493Z</time></trkpt><trkpt lat="43.8396196" lon="12.7724053"><ele>93.8</ele><time>2026-04-18T16:20:18.494Z</time></trkpt><trkpt lat="43.8396909" lon="12.7724957"><ele>90.0</ele><time>2026-04-18T16:20:19.494Z</time></trkpt><trkpt lat="43.8397583" lon="12.7725854"><ele>90.0</ele><time>2026-04-18T16:20:20.494Z</time></trkpt><trkpt lat="43.8398177" lon="12.7726713"><ele>90.0</ele><time>2026-04-18T16:20:21.495Z</time></trkpt><trkpt lat="43.8398661" lon="12.7727496"><ele>90.0</ele><time>2026-04-18T16:20:22.494Z</time></trkpt><trkpt lat="43.8399115" lon="12.7728186"><ele>90.0</ele><time>2026-04-18T16:20:23.494Z</time></trkpt><trkpt lat="43.8399619" lon="12.7728718"><ele>90.0</ele><time>2026-04-18T16:20:24.494Z</time></trkpt><trkpt lat="43.840062" lon="12.7728247"><ele>90.0</ele><time>2026-04-18T16:20:26.494Z</time></trkpt><trkpt lat="43.8400925" lon="12.7727323"><ele>90.0</ele><time>2026-04-18T16:20:27.494Z</time></trkpt><trkpt lat="43.8400965" lon="12.7726251"><ele>90.0</ele><time>2026-04-18T16:20:28.494Z</time></trkpt><trkpt lat="43.8400517" lon="12.7724943"><ele>90.0</ele><time>2026-04-18T16:20:29.493Z</time></trkpt><trkpt lat="43.8399772" lon="12.7723549"><ele>90.0</ele><time>2026-04-18T16:20:30.494Z</time></trkpt><trkpt lat="43.8399044" lon="12.7722143"><ele>90.0</ele><time>2026-04-18T16:20:31.493Z</time></trkpt><trkpt lat="43.8398412" lon="12.772083"><ele>90.0</ele><time>2026-04-18T16:20:32.494Z</time></trkpt><trkpt lat="43.8397818" lon="12.7719586"><ele>90.0</ele><time>2026-04-18T16:20:33.494Z</time></trkpt><trkpt lat="43.8397338" lon="12.7718339"><ele>90.0</ele><time>2026-04-18T16:20:34.494Z</time></trkpt><trkpt lat="43.8396984" lon="12.7717076"><ele>90.0</ele><time>2026-04-18T16:20:35.494Z</time></trkpt><trkpt lat="43.839677" lon="12.7715741"><ele>90.0</ele><time>2026-04-18T16:20:36.494Z</time></trkpt><trkpt lat="43.8396702" lon="12.7714417"><ele>88.0</ele><time>2026-04-18T16:20:37.494Z</time></trkpt><trkpt lat="43.8396696" lon="12.7713065"><ele>86.0</ele><time>2026-04-18T16:20:38.494Z</time></trkpt><trkpt lat="43.8396714" lon="12.7711742"><ele>84.0</ele><time>2026-04-18T16:20:39.493Z</time></trkpt><trkpt lat="43.8396756" lon="12.7710495"><ele>82.0</ele><time>2026-04-18T16:20:40.496Z</time></trkpt><trkpt lat="43.8396819" lon="12.770922"><ele>80.0</ele><time>2026-04-18T16:20:41.495Z</time></trkpt><trkpt lat="43.8396867" lon="12.770798"><ele>79.66666666666667</ele><time>2026-04-18T16:20:42.493Z</time></trkpt><trkpt lat="43.839691" lon="12.7706729"><ele>79.33333333333334</ele><time>2026-04-18T16:20:43.493Z</time></trkpt><trkpt lat="43.8396981" lon="12.7705494"><ele>79.0</ele><time>2026-04-18T16:20:44.494Z</time></trkpt><trkpt lat="43.8397041" lon="12.7704267"><ele>78.66666666666667</ele><time>2026-04-18T16:20:45.494Z</time></trkpt><trkpt lat="43.8397102" lon="12.7703103"><ele>78.33333333333333</ele><time>2026-04-18T16:20:46.493Z</time></trkpt><trkpt lat="43.8397167" lon="12.770206"><ele>78.0</ele><time>2026-04-18T16:20:47.494Z</time></trkpt><trkpt lat="43.8397252" lon="12.7701042"><ele>77.5</ele><time>2026-04-18T16:20:48.497Z</time></trkpt><trkpt lat="43.8397312" lon="12.7700101"><ele>77.0</ele><time>2026-04-18T16:20:49.494Z</time></trkpt><trkpt lat="43.8397752" lon="12.7698593"><ele>76.5</ele><time>2026-04-18T16:20:51.497Z</time></trkpt><trkpt lat="43.8398179" lon="12.7697921"><ele>76.0</ele><time>2026-04-18T16:20:52.493Z</time></trkpt><trkpt lat="43.839858" lon="12.769704"><ele>75.5</ele><time>2026-04-18T16:20:53.493Z</time></trkpt><trkpt lat="43.839894" lon="12.7695851"><ele>75.0</ele><time>2026-04-18T16:20:54.494Z</time></trkpt><trkpt lat="43.8399318" lon="12.7694519"><ele>74.25</ele><time>2026-04-18T16:20:55.502Z</time></trkpt><trkpt lat="43.8399785" lon="12.7693146"><ele>73.5</ele><time>2026-04-18T16:20:56.494Z</time></trkpt><trkpt lat="43.8400347" lon="12.7691767"><ele>72.75</ele><time>2026-04-18T16:20:57.493Z</time></trkpt><trkpt lat="43.840097" lon="12.7690404"><ele>72.0</ele><time>2026-04-18T16:20:58.493Z</time></trkpt><trkpt lat="43.8401584" lon="12.7689097"><ele>71.0</ele><time>2026-04-18T16:20:59.494Z</time></trkpt><trkpt lat="43.8402148" lon="12.7687805"><ele>70.0</ele><time>2026-04-18T16:21:00.493Z</time></trkpt><trkpt lat="43.8402665" lon="12.7686584"><ele>69.0</ele><time>2026-04-18T16:21:01.494Z</time></trkpt><trkpt lat="43.8403128" lon="12.7685458"><ele>68.0</ele><time>2026-04-18T16:21:02.493Z</time></trkpt><trkpt lat="43.8403562" lon="12.7684361"><ele>67.0</ele><time>2026-04-18T16:21:03.495Z</time></trkpt><trkpt lat="43.8404006" lon="12.7683291"><ele>67.0</ele><time>2026-04-18T16:21:04.493Z</time></trkpt><trkpt lat="43.8404455" lon="12.7682241"><ele>67.0</ele><time>2026-04-18T16:21:05.494Z</time></trkpt><trkpt lat="43.8404916" lon="12.7681279"><ele>67.0</ele><time>2026-04-18T16:21:06.494Z</time></trkpt><trkpt lat="43.8405361" lon="12.7680354"><ele>67.0</ele><time>2026-04-18T16:21:07.494Z</time></trkpt><trkpt lat="43.8405981" lon="12.767953"><ele>67.0</ele><time>2026-04-18T16:21:08.494Z</time></trkpt><trkpt lat="43.8406749" lon="12.7678815"><ele>67.0</ele><time>2026-04-18T16:21:09.494Z</time></trkpt><trkpt lat="43.8407693" lon="12.7678212"><ele>67.0</ele><time>2026-04-18T16:21:10.495Z</time></trkpt><trkpt lat="43.8408585" lon="12.7677602"><ele>67.0</ele><time>2026-04-18T16:21:11.493Z</time></trkpt><trkpt lat="43.8409375" lon="12.7676792"><ele>67.0</ele><time>2026-04-18T16:21:12.494Z</time></trkpt><trkpt lat="43.8409833" lon="12.7675615"><ele>67.0</ele><time>2026-04-18T16:21:13.494Z</time></trkpt><trkpt lat="43.8409911" lon="12.7674176"><ele>67.0</ele><time>2026-04-18T16:21:14.497Z</time></trkpt><trkpt lat="43.8409612" lon="12.7672745"><ele>67.0</ele><time>2026-04-18T16:21:15.502Z</time></trkpt><trkpt lat="43.8408821" lon="12.767158"><ele>67.0</ele><time>2026-04-18T16:21:16.498Z</time></trkpt><trkpt lat="43.8407674" lon="12.7670851"><ele>67.0</ele><time>2026-04-18T16:21:17.494Z</time></trkpt><trkpt lat="43.8406164" lon="12.7670411"><ele>67.0</ele><time>2026-04-18T16:21:18.494Z</time></trkpt><trkpt lat="43.8404553" lon="12.7669771"><ele>67.0</ele><time>2026-04-18T16:21:19.494Z</time></trkpt><trkpt lat="43.8403092" lon="12.7668728"><ele>67.0</ele><time>2026-04-18T16:21:20.497Z</time></trkpt><trkpt lat="43.8401719" lon="12.7667362"><ele>67.0</ele><time>2026-04-18T16:21:21.497Z</time></trkpt><trkpt lat="43.8400393" lon="12.7665671"><ele>67.33333333333333</ele><time>2026-04-18T16:21:22.508Z</time></trkpt><trkpt lat="43.8399182" lon="12.7663736"><ele>67.66666666666667</ele><time>2026-04-18T16:21:23.495Z</time></trkpt><trkpt lat="43.8398012" lon="12.766169"><ele>68.0</ele><time>2026-04-18T16:21:24.493Z</time></trkpt><trkpt lat="43.839692" lon="12.7659635"><ele>68.66666666666667</ele><time>2026-04-18T16:21:25.494Z</time></trkpt><trkpt lat="43.8395954" lon="12.7657511"><ele>69.33333333333333</ele><time>2026-04-18T16:21:26.496Z</time></trkpt><trkpt lat="43.8395098" lon="12.7655292"><ele>70.0</ele><time>2026-04-18T16:21:27.493Z</time></trkpt><trkpt lat="43.8394409" lon="12.7652907"><ele>69.0</ele><time>2026-04-18T16:21:28.504Z</time></trkpt><trkpt lat="43.8393307" lon="12.7647923"><ele>68.0</ele><time>2026-04-18T16:21:30.494Z</time></trkpt><trkpt lat="43.8392791" lon="12.7645344"><ele>67.66666666666667</ele><time>2026-04-18T16:21:31.497Z</time></trkpt><trkpt lat="43.8392265" lon="12.7642665"><ele>67.33333333333333</ele><time>2026-04-18T16:21:32.504Z</time></trkpt><trkpt lat="43.8391725" lon="12.7639941"><ele>67.0</ele><time>2026-04-18T16:21:33.493Z</time></trkpt><trkpt lat="43.8391208" lon="12.7637153"><ele>66.33333333333333</ele><time>2026-04-18T16:21:34.493Z</time></trkpt><trkpt lat="43.8390662" lon="12.7634383"><ele>65.66666666666667</ele><time>2026-04-18T16:21:35.496Z</time></trkpt><trkpt lat="43.8390087" lon="12.7631585"><ele>65.0</ele><time>2026-04-18T16:21:36.514Z</time></trkpt><trkpt lat="43.8389529" lon="12.7628808"><ele>66.66666666666667</ele><time>2026-04-18T16:21:37.493Z</time></trkpt><trkpt lat="43.8388975" lon="12.7625988"><ele>68.33333333333333</ele><time>2026-04-18T16:21:38.496Z</time></trkpt><trkpt lat="43.8388429" lon="12.7623159"><ele>70.0</ele><time>2026-04-18T16:21:39.493Z</time></trkpt><trkpt lat="43.8387863" lon="12.7620321"><ele>70.0</ele><time>2026-04-18T16:21:40.493Z</time></trkpt><trkpt lat="43.8387282" lon="12.7617483"><ele>70.0</ele><time>2026-04-18T16:21:41.495Z</time></trkpt><trkpt lat="43.8386699" lon="12.7614636"><ele>70.0</ele><time>2026-04-18T16:21:42.493Z</time></trkpt><trkpt lat="43.8386102" lon="12.7611769"><ele>69.33333333333333</ele><time>2026-04-18T16:21:43.495Z</time></trkpt><trkpt lat="43.8385523" lon="12.7608914"><ele>68.66666666666667</ele><time>2026-04-18T16:21:44.493Z</time></trkpt><trkpt lat="43.8384955" lon="12.7606034"><ele>68.0</ele><time>2026-04-18T16:21:45.493Z</time></trkpt><trkpt lat="43.8384381" lon="12.7603104"><ele>68.66666666666667</ele><time>2026-04-18T16:21:46.494Z</time></trkpt><trkpt lat="43.8383814" lon="12.7600127"><ele>69.33333333333333</ele><time>2026-04-18T16:21:47.493Z</time></trkpt><trkpt lat="43.8383234" lon="12.7597125"><ele>70.0</ele><time>2026-04-18T16:21:48.493Z</time></trkpt><trkpt lat="43.8382663" lon="12.7594109"><ele>69.5</ele><time>2026-04-18T16:21:49.495Z</time></trkpt><trkpt lat="43.8382082" lon="12.7591065"><ele>69.0</ele><time>2026-04-18T16:21:50.494Z</time></trkpt><trkpt lat="43.8381472" lon="12.7587989"><ele>68.5</ele><time>2026-04-18T16:21:51.494Z</time></trkpt><trkpt lat="43.8380851" lon="12.7584937"><ele>68.0</ele><time>2026-04-18T16:21:52.495Z</time></trkpt><trkpt lat="43.8380244" lon="12.7581896"><ele>68.0</ele><time>2026-04-18T16:21:53.494Z</time></trkpt><trkpt lat="43.8379646" lon="12.7578836"><ele>68.0</ele><time>2026-04-18T16:21:54.495Z</time></trkpt><trkpt lat="43.8379028" lon="12.7575773"><ele>66.5</ele><time>2026-04-18T16:21:55.495Z</time></trkpt><trkpt lat="43.837837" lon="12.7572737"><ele>65.0</ele><time>2026-04-18T16:21:56.494Z</time></trkpt><trkpt lat="43.8377713" lon="12.7569731"><ele>64.5</ele><time>2026-04-18T16:21:57.493Z</time></trkpt><trkpt lat="43.8376992" lon="12.7566757"><ele>64.0</ele><time>2026-04-18T16:21:58.494Z</time></trkpt><trkpt lat="43.8376228" lon="12.7563849"><ele>63.33333333333333</ele><time>2026-04-18T16:21:59.493Z</time></trkpt><trkpt lat="43.8375405" lon="12.7560895"><ele>62.66666666666667</ele><time>2026-04-18T16:22:00.586Z</time></trkpt><trkpt lat="43.837462" lon="12.7558115"><ele>62.0</ele><time>2026-04-18T16:22:01.496Z</time></trkpt><trkpt lat="43.8373766" lon="12.7555169"><ele>62.0</ele><time>2026-04-18T16:22:02.504Z</time></trkpt><trkpt lat="43.8372953" lon="12.7552262"><ele>62.0</ele><time>2026-04-18T16:22:03.493Z</time></trkpt><trkpt lat="43.8372128" lon="12.7549348"><ele>60.66666666666667</ele><time>2026-04-18T16:22:04.498Z</time></trkpt><trkpt lat="43.8371297" lon="12.754645"><ele>59.33333333333333</ele><time>2026-04-18T16:22:05.497Z</time></trkpt><trkpt lat="43.8370497" lon="12.7543603"><ele>58.0</ele><time>2026-04-18T16:22:06.494Z</time></trkpt><trkpt lat="43.8369656" lon="12.754073"><ele>57.666666666666664</ele><time>2026-04-18T16:22:07.494Z</time></trkpt><trkpt lat="43.836885" lon="12.7537902"><ele>57.33333333333333</ele><time>2026-04-18T16:22:08.493Z</time></trkpt><trkpt lat="43.8368071" lon="12.7535181"><ele>57.0</ele><time>2026-04-18T16:22:09.493Z</time></trkpt><trkpt lat="43.836729" lon="12.7532588"><ele>56.66666666666667</ele><time>2026-04-18T16:22:10.493Z</time></trkpt><trkpt lat="43.8366548" lon="12.7530116"><ele>56.333333333333336</ele><time>2026-04-18T16:22:11.493Z</time></trkpt><trkpt lat="43.8365848" lon="12.7527813"><ele>56.0</ele><time>2026-04-18T16:22:12.493Z</time></trkpt><trkpt lat="43.8365217" lon="12.7525616"><ele>55.66666666666667</ele><time>2026-04-18T16:22:13.496Z</time></trkpt><trkpt lat="43.8364629" lon="12.7523502"><ele>55.33333333333333</ele><time>2026-04-18T16:22:14.494Z</time></trkpt><trkpt lat="43.8364026" lon="12.7521524"><ele>55.0</ele><time>2026-04-18T16:22:15.493Z</time></trkpt><trkpt lat="43.8363462" lon="12.7519658"><ele>54.75</ele><time>2026-04-18T16:22:16.493Z</time></trkpt><trkpt lat="43.8362969" lon="12.7517844"><ele>54.5</ele><time>2026-04-18T16:22:17.493Z</time></trkpt><trkpt lat="43.8362506" lon="12.7516162"><ele>54.25</ele><time>2026-04-18T16:22:18.492Z</time></trkpt><trkpt lat="43.8362111" lon="12.7514633"><ele>54.0</ele><time>2026-04-18T16:22:19.493Z</time></trkpt><trkpt lat="43.8361826" lon="12.751319"><ele>54.0</ele><time>2026-04-18T16:22:20.493Z</time></trkpt><trkpt lat="43.8361733" lon="12.7511808"><ele>54.00000000000001</ele><time>2026-04-18T16:22:21.494Z</time></trkpt><trkpt lat="43.8361852" lon="12.7510527"><ele>54.00000000000001</ele><time>2026-04-18T16:22:22.494Z</time></trkpt><trkpt lat="43.8362276" lon="12.7509389"><ele>54.0</ele><time>2026-04-18T16:22:23.493Z</time></trkpt><trkpt lat="43.8362796" lon="12.7508298"><ele>54.0</ele><time>2026-04-18T16:22:24.494Z</time></trkpt><trkpt lat="43.8363199" lon="12.7507198"><ele>54.6</ele><time>2026-04-18T16:22:25.492Z</time></trkpt><trkpt lat="43.8363273" lon="12.7506021"><ele>55.2</ele><time>2026-04-18T16:22:26.511Z</time></trkpt><trkpt lat="43.836304" lon="12.7504974"><ele>55.800000000000004</ele><time>2026-04-18T16:22:27.492Z</time></trkpt><trkpt lat="43.8362331" lon="12.7504127"><ele>56.400000000000006</ele><time>2026-04-18T16:22:28.497Z</time></trkpt><trkpt lat="43.8361166" lon="12.7503459"><ele>57.0</ele><time>2026-04-18T16:22:29.492Z</time></trkpt><trkpt lat="43.835987" lon="12.7502627"><ele>59.0</ele><time>2026-04-18T16:22:30.492Z</time></trkpt><trkpt lat="43.8358744" lon="12.7501222"><ele>61.0</ele><time>2026-04-18T16:22:31.494Z</time></trkpt><trkpt lat="43.8357813" lon="12.7499426"><ele>63.0</ele><time>2026-04-18T16:22:32.493Z</time></trkpt><trkpt lat="43.8356927" lon="12.7497401"><ele>63.0</ele><time>2026-04-18T16:22:33.492Z</time></trkpt><trkpt lat="43.8355888" lon="12.7495094"><ele>63.0</ele><time>2026-04-18T16:22:34.493Z</time></trkpt><trkpt lat="43.8354738" lon="12.7492524"><ele>63.0</ele><time>2026-04-18T16:22:35.493Z</time></trkpt><trkpt lat="43.8353515" lon="12.7489846"><ele>64.0</ele><time>2026-04-18T16:22:36.494Z</time></trkpt><trkpt lat="43.8352246" lon="12.7486915"><ele>65.0</ele><time>2026-04-18T16:22:37.492Z</time></trkpt><trkpt lat="43.8350817" lon="12.7483883"><ele>65.0</ele><time>2026-04-18T16:22:38.493Z</time></trkpt><trkpt lat="43.8349267" lon="12.7481033"><ele>65.0</ele><time>2026-04-18T16:22:39.492Z</time></trkpt><trkpt lat="43.83477" lon="12.7478183"><ele>65.0</ele><time>2026-04-18T16:22:40.492Z</time></trkpt><trkpt lat="43.834625" lon="12.74754"><ele>65.0</ele><time>2026-04-18T16:22:41.493Z</time></trkpt><trkpt lat="43.8344967" lon="12.7472833"><ele>65.0</ele><time>2026-04-18T16:22:42.492Z</time></trkpt><trkpt lat="43.834385" lon="12.7470567"><ele>65.0</ele><time>2026-04-18T16:22:43.492Z</time></trkpt><trkpt lat="43.83429" lon="12.7468667"><ele>65.0</ele><time>2026-04-18T16:22:44.492Z</time></trkpt><trkpt lat="43.8342083" lon="12.7467217"><ele>65.4</ele><time>2026-04-18T16:22:45.492Z</time></trkpt><trkpt lat="43.8341433" lon="12.7466033"><ele>65.8</ele><time>2026-04-18T16:22:46.492Z</time></trkpt><trkpt lat="43.83409" lon="12.7464967"><ele>66.2</ele><time>2026-04-18T16:22:47.493Z</time></trkpt><trkpt lat="43.8340433" lon="12.74636"><ele>66.6</ele><time>2026-04-18T16:22:49.493Z</time></trkpt><trkpt lat="43.8340567" lon="12.7462233"><ele>67.0</ele><time>2026-04-18T16:22:52.494Z</time></trkpt><trkpt lat="43.8341233" lon="12.7461"><ele>67.33333333333333</ele><time>2026-04-18T16:22:54.493Z</time></trkpt><trkpt lat="43.8341783" lon="12.7460383"><ele>67.66666666666666</ele><time>2026-04-18T16:22:55.493Z</time></trkpt><trkpt lat="43.834245" lon="12.7460083"><ele>68.0</ele><time>2026-04-18T16:22:56.493Z</time></trkpt><trkpt lat="43.8343317" lon="12.7459967"><ele>68.33333333333333</ele><time>2026-04-18T16:22:57.492Z</time></trkpt><trkpt lat="43.8344267" lon="12.7460217"><ele>68.66666666666667</ele><time>2026-04-18T16:22:58.493Z</time></trkpt><trkpt lat="43.8345117" lon="12.746045"><ele>69.0</ele><time>2026-04-18T16:22:59.492Z</time></trkpt><trkpt lat="43.8345967" lon="12.7460733"><ele>69.0</ele><time>2026-04-18T16:23:00.493Z</time></trkpt><trkpt lat="43.8346783" lon="12.7460867"><ele>69.0</ele><time>2026-04-18T16:23:01.493Z</time></trkpt><trkpt lat="43.8347767" lon="12.74612"><ele>69.0</ele><time>2026-04-18T16:23:02.493Z</time></trkpt><trkpt lat="43.834875" lon="12.7461483"><ele>69.0</ele><time>2026-04-18T16:23:03.493Z</time></trkpt><trkpt lat="43.8349783" lon="12.7461767"><ele>69.0</ele><time>2026-04-18T16:23:04.492Z</time></trkpt><trkpt lat="43.8350833" lon="12.7462"><ele>69.25</ele><time>2026-04-18T16:23:05.492Z</time></trkpt><trkpt lat="43.8351917" lon="12.7462233"><ele>69.5</ele><time>2026-04-18T16:23:06.492Z</time></trkpt><trkpt lat="43.8353067" lon="12.7462383"><ele>69.75</ele><time>2026-04-18T16:23:07.494Z</time></trkpt><trkpt lat="43.8354267" lon="12.7462483"><ele>70.0</ele><time>2026-04-18T16:23:08.493Z</time></trkpt><trkpt lat="43.8355433" lon="12.7462417"><ele>70.0</ele><time>2026-04-18T16:23:09.495Z</time></trkpt><trkpt lat="43.8356637" lon="12.7462277"><ele>70.0</ele><time>2026-04-18T16:23:10.492Z</time></trkpt><trkpt lat="43.8357858" lon="12.7462111"><ele>70.0</ele><time>2026-04-18T16:23:11.494Z</time></trkpt><trkpt lat="43.8359118" lon="12.746192"><ele>70.0</ele><time>2026-04-18T16:23:12.502Z</time></trkpt><trkpt lat="43.8360381" lon="12.7461744"><ele>69.5</ele><time>2026-04-18T16:23:13.494Z</time></trkpt><trkpt lat="43.8361714" lon="12.7461492"><ele>69.0</ele><time>2026-04-18T16:23:14.493Z</time></trkpt><trkpt lat="43.8363035" lon="12.746128"><ele>68.5</ele><time>2026-04-18T16:23:15.493Z</time></trkpt><trkpt lat="43.8364423" lon="12.7461032"><ele>68.0</ele><time>2026-04-18T16:23:16.494Z</time></trkpt><trkpt lat="43.836585" lon="12.7460753"><ele>68.0</ele><time>2026-04-18T16:23:17.494Z</time></trkpt><trkpt lat="43.8367172" lon="12.7460513"><ele>68.0</ele><time>2026-04-18T16:23:18.493Z</time></trkpt><trkpt lat="43.8368334" lon="12.7460297"><ele>68.0</ele><time>2026-04-18T16:23:19.494Z</time></trkpt><trkpt lat="43.8369405" lon="12.7460075"><ele>68.0</ele><time>2026-04-18T16:23:20.494Z</time></trkpt><trkpt lat="43.8370404" lon="12.7459901"><ele>68.0</ele><time>2026-04-18T16:23:21.493Z</time></trkpt><trkpt lat="43.8371351" lon="12.7459774"><ele>68.0</ele><time>2026-04-18T16:23:22.492Z</time></trkpt><trkpt lat="43.8372254" lon="12.7459693"><ele>68.0</ele><time>2026-04-18T16:23:23.491Z</time></trkpt><trkpt lat="43.8373109" lon="12.7459704"><ele>68.0</ele><time>2026-04-18T16:23:24.492Z</time></trkpt><trkpt lat="43.8373981" lon="12.7459952"><ele>68.0</ele><time>2026-04-18T16:23:25.493Z</time></trkpt><trkpt lat="43.8374842" lon="12.7460571"><ele>68.0</ele><time>2026-04-18T16:23:26.492Z</time></trkpt><trkpt lat="43.837569" lon="12.746116"><ele>68.0</ele><time>2026-04-18T16:23:27.492Z</time></trkpt><trkpt lat="43.8376542" lon="12.7461485"><ele>68.0</ele><time>2026-04-18T16:23:28.492Z</time></trkpt><trkpt lat="43.8377383" lon="12.7461181"><ele>68.0</ele><time>2026-04-18T16:23:29.493Z</time></trkpt><trkpt lat="43.8378013" lon="12.746029"><ele>68.0</ele><time>2026-04-18T16:23:30.492Z</time></trkpt><trkpt lat="43.8378395" lon="12.7459154"><ele>68.0</ele><time>2026-04-18T16:23:31.494Z</time></trkpt><trkpt lat="43.8378538" lon="12.7458067"><ele>68.0</ele><time>2026-04-18T16:23:32.493Z</time></trkpt><trkpt lat="43.8378331" lon="12.7456893"><ele>68.0</ele><time>2026-04-18T16:23:33.492Z</time></trkpt><trkpt lat="43.837825" lon="12.7455581"><ele>68.0</ele><time>2026-04-18T16:23:34.495Z</time></trkpt><trkpt lat="43.8378612" lon="12.7454205"><ele>68.0</ele><time>2026-04-18T16:23:35.493Z</time></trkpt><trkpt lat="43.8379225" lon="12.7452731"><ele>67.0</ele><time>2026-04-18T16:23:36.493Z</time></trkpt><trkpt lat="43.837998" lon="12.7451123"><ele>66.0</ele><time>2026-04-18T16:23:37.492Z</time></trkpt><trkpt lat="43.8380835" lon="12.7449317"><ele>65.0</ele><time>2026-04-18T16:23:38.492Z</time></trkpt><trkpt lat="43.838177" lon="12.7447365"><ele>65.0</ele><time>2026-04-18T16:23:39.492Z</time></trkpt><trkpt lat="43.8382743" lon="12.7445304"><ele>65.0</ele><time>2026-04-18T16:23:40.492Z</time></trkpt><trkpt lat="43.8383761" lon="12.7443072"><ele>65.0</ele><time>2026-04-18T16:23:41.492Z</time></trkpt><trkpt lat="43.8384872" lon="12.7440705"><ele>65.33333333333334</ele><time>2026-04-18T16:23:42.491Z</time></trkpt><trkpt lat="43.8386011" lon="12.7438227"><ele>65.66666666666667</ele><time>2026-04-18T16:23:43.492Z</time></trkpt><trkpt lat="43.8387144" lon="12.7435687"><ele>66.0</ele><time>2026-04-18T16:23:44.492Z</time></trkpt><trkpt lat="43.8388175" lon="12.7433037"><ele>66.0</ele><time>2026-04-18T16:23:45.492Z</time></trkpt><trkpt lat="43.8389033" lon="12.7430305"><ele>66.0</ele><time>2026-04-18T16:23:46.492Z</time></trkpt><trkpt lat="43.8389564" lon="12.7427354"><ele>66.0</ele><time>2026-04-18T16:23:47.493Z</time></trkpt><trkpt lat="43.8389806" lon="12.742427"><ele>65.5</ele><time>2026-04-18T16:23:48.492Z</time></trkpt><trkpt lat="43.8389877" lon="12.7421146"><ele>65.0</ele><time>2026-04-18T16:23:49.493Z</time></trkpt><trkpt lat="43.8389814" lon="12.7417935"><ele>64.5</ele><time>2026-04-18T16:23:50.493Z</time></trkpt><trkpt lat="43.838966" lon="12.7414709"><ele>64.0</ele><time>2026-04-18T16:23:51.492Z</time></trkpt><trkpt lat="43.8389551" lon="12.7411502"><ele>65.5</ele><time>2026-04-18T16:23:52.492Z</time></trkpt><trkpt lat="43.8389477" lon="12.7408256"><ele>67.0</ele><time>2026-04-18T16:23:53.493Z</time></trkpt><trkpt lat="43.8389373" lon="12.7404991"><ele>67.0</ele><time>2026-04-18T16:23:54.492Z</time></trkpt><trkpt lat="43.8389252" lon="12.7401735"><ele>67.0</ele><time>2026-04-18T16:23:55.492Z</time></trkpt><trkpt lat="43.8389113" lon="12.7398482"><ele>67.0</ele><time>2026-04-18T16:23:56.493Z</time></trkpt><trkpt lat="43.8388995" lon="12.7395207"><ele>67.0</ele><time>2026-04-18T16:23:57.492Z</time></trkpt><trkpt lat="43.8388888" lon="12.7391896"><ele>66.5</ele><time>2026-04-18T16:23:58.492Z</time></trkpt><trkpt lat="43.8388807" lon="12.7388614"><ele>66.0</ele><time>2026-04-18T16:23:59.492Z</time></trkpt><trkpt lat="43.8388718" lon="12.7385315"><ele>65.5</ele><time>2026-04-18T16:24:00.493Z</time></trkpt><trkpt lat="43.8388622" lon="12.7382045"><ele>65.0</ele><time>2026-04-18T16:24:01.492Z</time></trkpt><trkpt lat="43.8388547" lon="12.7378765"><ele>65.5</ele><time>2026-04-18T16:24:02.494Z</time></trkpt><trkpt lat="43.8388454" lon="12.7375458"><ele>66.0</ele><time>2026-04-18T16:24:03.492Z</time></trkpt><trkpt lat="43.8388445" lon="12.7372184"><ele>66.5</ele><time>2026-04-18T16:24:04.492Z</time></trkpt><trkpt lat="43.8388338" lon="12.7368791"><ele>67.0</ele><time>2026-04-18T16:24:05.493Z</time></trkpt><trkpt lat="43.8388144" lon="12.7365423"><ele>67.0</ele><time>2026-04-18T16:24:06.494Z</time></trkpt><trkpt lat="43.8387849" lon="12.7362045"><ele>67.0</ele><time>2026-04-18T16:24:07.492Z</time></trkpt><trkpt lat="43.8387444" lon="12.7358724"><ele>67.5</ele><time>2026-04-18T16:24:08.492Z</time></trkpt><trkpt lat="43.8386947" lon="12.7355414"><ele>68.0</ele><time>2026-04-18T16:24:09.492Z</time></trkpt><trkpt lat="43.8386283" lon="12.7352117"><ele>68.5</ele><time>2026-04-18T16:24:10.492Z</time></trkpt><trkpt lat="43.8385477" lon="12.7348914"><ele>69.0</ele><time>2026-04-18T16:24:11.491Z</time></trkpt><trkpt lat="43.8384631" lon="12.7345737"><ele>69.0</ele><time>2026-04-18T16:24:12.492Z</time></trkpt><trkpt lat="43.8383786" lon="12.7342552"><ele>69.0</ele><time>2026-04-18T16:24:13.492Z</time></trkpt><trkpt lat="43.8382969" lon="12.7339404"><ele>69.0</ele><time>2026-04-18T16:24:14.493Z</time></trkpt><trkpt lat="43.8382187" lon="12.7336299"><ele>69.0</ele><time>2026-04-18T16:24:15.491Z</time></trkpt><trkpt lat="43.8381413" lon="12.7333197"><ele>69.0</ele><time>2026-04-18T16:24:16.491Z</time></trkpt><trkpt lat="43.8380634" lon="12.7330089"><ele>69.0</ele><time>2026-04-18T16:24:17.498Z</time></trkpt><trkpt lat="43.8379817" lon="12.7327032"><ele>69.0</ele><time>2026-04-18T16:24:18.494Z</time></trkpt><trkpt lat="43.8379034" lon="12.7324027"><ele>69.0</ele><time>2026-04-18T16:24:19.493Z</time></trkpt><trkpt lat="43.8378222" lon="12.732106"><ele>70.0</ele><time>2026-04-18T16:24:20.493Z</time></trkpt><trkpt lat="43.8377357" lon="12.7318116"><ele>71.0</ele><time>2026-04-18T16:24:21.492Z</time></trkpt><trkpt lat="43.8376487" lon="12.7315226"><ele>72.0</ele><time>2026-04-18T16:24:22.493Z</time></trkpt><trkpt lat="43.8375636" lon="12.7312382"><ele>73.0</ele><time>2026-04-18T16:24:23.494Z</time></trkpt><trkpt lat="43.8374773" lon="12.7309621"><ele>74.0</ele><time>2026-04-18T16:24:24.493Z</time></trkpt><trkpt lat="43.8373925" lon="12.7307033"><ele>74.0</ele><time>2026-04-18T16:24:25.492Z</time></trkpt><trkpt lat="43.8373116" lon="12.7304531"><ele>74.0</ele><time>2026-04-18T16:24:26.493Z</time></trkpt><trkpt lat="43.8372384" lon="12.7302115"><ele>74.0</ele><time>2026-04-18T16:24:27.492Z</time></trkpt><trkpt lat="43.8371693" lon="12.7299828"><ele>74.0</ele><time>2026-04-18T16:24:28.492Z</time></trkpt><trkpt lat="43.8371006" lon="12.7297645"><ele>74.0</ele><time>2026-04-18T16:24:29.492Z</time></trkpt><trkpt lat="43.8370341" lon="12.7295513"><ele>74.0</ele><time>2026-04-18T16:24:30.493Z</time></trkpt><trkpt lat="43.8369762" lon="12.7293378"><ele>74.0</ele><time>2026-04-18T16:24:31.493Z</time></trkpt><trkpt lat="43.8369362" lon="12.7291159"><ele>74.0</ele><time>2026-04-18T16:24:32.492Z</time></trkpt><trkpt lat="43.8369183" lon="12.728884"><ele>74.0</ele><time>2026-04-18T16:24:33.492Z</time></trkpt><trkpt lat="43.836916" lon="12.7286424"><ele>73.66666666666667</ele><time>2026-04-18T16:24:34.492Z</time></trkpt><trkpt lat="43.8369313" lon="12.7283971"><ele>73.33333333333333</ele><time>2026-04-18T16:24:35.493Z</time></trkpt><trkpt lat="43.8369564" lon="12.7281504"><ele>73.0</ele><time>2026-04-18T16:24:36.493Z</time></trkpt><trkpt lat="43.8369848" lon="12.7279074"><ele>72.33333333333333</ele><time>2026-04-18T16:24:37.493Z</time></trkpt><trkpt lat="43.8370122" lon="12.7276698"><ele>71.66666666666667</ele><time>2026-04-18T16:24:38.493Z</time></trkpt><trkpt lat="43.8370429" lon="12.7274453"><ele>71.0</ele><time>2026-04-18T16:24:39.493Z</time></trkpt><trkpt lat="43.8370674" lon="12.7272246"><ele>71.0</ele><time>2026-04-18T16:24:40.492Z</time></trkpt><trkpt lat="43.8370943" lon="12.7270168"><ele>71.0</ele><time>2026-04-18T16:24:41.493Z</time></trkpt><trkpt lat="43.8371155" lon="12.7268242"><ele>71.0</ele><time>2026-04-18T16:24:42.492Z</time></trkpt><trkpt lat="43.8371365" lon="12.7266521"><ele>71.0</ele><time>2026-04-18T16:24:43.493Z</time></trkpt><trkpt lat="43.8371546" lon="12.7264927"><ele>70.8</ele><time>2026-04-18T16:24:44.493Z</time></trkpt><trkpt lat="43.8371711" lon="12.7263404"><ele>70.6</ele><time>2026-04-18T16:24:45.492Z</time></trkpt><trkpt lat="43.8371882" lon="12.7261923"><ele>70.4</ele><time>2026-04-18T16:24:46.492Z</time></trkpt><trkpt lat="43.8372073" lon="12.7260474"><ele>70.2</ele><time>2026-04-18T16:24:47.493Z</time></trkpt><trkpt lat="43.8372249" lon="12.7258974"><ele>70.0</ele><time>2026-04-18T16:24:48.493Z</time></trkpt><trkpt lat="43.837255" lon="12.7257472"><ele>69.75</ele><time>2026-04-18T16:24:49.493Z</time></trkpt><trkpt lat="43.8373063" lon="12.7256017"><ele>69.5</ele><time>2026-04-18T16:24:50.492Z</time></trkpt><trkpt lat="43.8373813" lon="12.7254648"><ele>69.25</ele><time>2026-04-18T16:24:51.492Z</time></trkpt><trkpt lat="43.8374773" lon="12.7253408"><ele>69.0</ele><time>2026-04-18T16:24:52.5Z</time></trkpt><trkpt lat="43.8375895" lon="12.725229"><ele>69.0</ele><time>2026-04-18T16:24:53.493Z</time></trkpt><trkpt lat="43.8377141" lon="12.7251196"><ele>69.0</ele><time>2026-04-18T16:24:54.493Z</time></trkpt><trkpt lat="43.8378438" lon="12.725003"><ele>69.0</ele><time>2026-04-18T16:24:55.493Z</time></trkpt><trkpt lat="43.8379729" lon="12.7248744"><ele>69.0</ele><time>2026-04-18T16:24:56.492Z</time></trkpt><trkpt lat="43.8381048" lon="12.7247353"><ele>69.0</ele><time>2026-04-18T16:24:57.492Z</time></trkpt><trkpt lat="43.8382385" lon="12.7245919"><ele>69.0</ele><time>2026-04-18T16:24:58.492Z</time></trkpt><trkpt lat="43.8383757" lon="12.7244527"><ele>69.0</ele><time>2026-04-18T16:24:59.492Z</time></trkpt><trkpt lat="43.8385154" lon="12.7243091"><ele>69.0</ele><time>2026-04-18T16:25:00.492Z</time></trkpt><trkpt lat="43.8386419" lon="12.7241478"><ele>69.0</ele><time>2026-04-18T16:25:01.491Z</time></trkpt><trkpt lat="43.8387524" lon="12.7239592"><ele>69.0</ele><time>2026-04-18T16:25:02.493Z</time></trkpt><trkpt lat="43.8388382" lon="12.7237559"><ele>69.0</ele><time>2026-04-18T16:25:03.492Z</time></trkpt><trkpt lat="43.8389176" lon="12.7235397"><ele>69.0</ele><time>2026-04-18T16:25:04.492Z</time></trkpt><trkpt lat="43.8389888" lon="12.7233216"><ele>69.0</ele><time>2026-04-18T16:25:05.493Z</time></trkpt><trkpt lat="43.8390536" lon="12.7231156"><ele>69.0</ele><time>2026-04-18T16:25:06.492Z</time></trkpt><trkpt lat="43.8391163" lon="12.7229282"><ele>69.0</ele><time>2026-04-18T16:25:07.492Z</time></trkpt><trkpt lat="43.8391764" lon="12.7227571"><ele>69.0</ele><time>2026-04-18T16:25:08.493Z</time></trkpt><trkpt lat="43.839231" lon="12.722597"><ele>69.0</ele><time>2026-04-18T16:25:09.492Z</time></trkpt><trkpt lat="43.8392677" lon="12.7224393"><ele>69.0</ele><time>2026-04-18T16:25:10.492Z</time></trkpt><trkpt lat="43.8392805" lon="12.722277"><ele>69.0</ele><time>2026-04-18T16:25:11.491Z</time></trkpt><trkpt lat="43.8392487" lon="12.7221096"><ele>69.0</ele><time>2026-04-18T16:25:12.492Z</time></trkpt><trkpt lat="43.8391851" lon="12.7219366"><ele>68.66666666666667</ele><time>2026-04-18T16:25:13.492Z</time></trkpt><trkpt lat="43.8390853" lon="12.721741"><ele>68.33333333333334</ele><time>2026-04-18T16:25:14.492Z</time></trkpt><trkpt lat="43.8389698" lon="12.7215297"><ele>68.0</ele><time>2026-04-18T16:25:15.492Z</time></trkpt><trkpt lat="43.8388503" lon="12.7212961"><ele>68.0</ele><time>2026-04-18T16:25:16.493Z</time></trkpt><trkpt lat="43.8387349" lon="12.7210577"><ele>68.0</ele><time>2026-04-18T16:25:17.494Z</time></trkpt><trkpt lat="43.8386139" lon="12.7208243"><ele>68.0</ele><time>2026-04-18T16:25:18.492Z</time></trkpt><trkpt lat="43.8384913" lon="12.7205875"><ele>68.0</ele><time>2026-04-18T16:25:19.493Z</time></trkpt><trkpt lat="43.8383677" lon="12.7203533"><ele>68.0</ele><time>2026-04-18T16:25:20.493Z</time></trkpt><trkpt lat="43.8382462" lon="12.7201217"><ele>68.0</ele><time>2026-04-18T16:25:21.493Z</time></trkpt><trkpt lat="43.8381234" lon="12.7198885"><ele>68.0</ele><time>2026-04-18T16:25:22.51Z</time></trkpt><trkpt lat="43.8380052" lon="12.7196723"><ele>68.0</ele><time>2026-04-18T16:25:23.493Z</time></trkpt><trkpt lat="43.8378884" lon="12.7194643"><ele>68.0</ele><time>2026-04-18T16:25:24.493Z</time></trkpt><trkpt lat="43.837775" lon="12.7192585"><ele>67.66666666666667</ele><time>2026-04-18T16:25:25.499Z</time></trkpt><trkpt lat="43.837661" lon="12.7190561"><ele>67.33333333333333</ele><time>2026-04-18T16:25:26.493Z</time></trkpt><trkpt lat="43.8375495" lon="12.7188584"><ele>67.0</ele><time>2026-04-18T16:25:27.504Z</time></trkpt><trkpt lat="43.8374415" lon="12.718665"><ele>67.66666666666666</ele><time>2026-04-18T16:25:28.494Z</time></trkpt><trkpt lat="43.8373404" lon="12.7184733"><ele>68.33333333333333</ele><time>2026-04-18T16:25:29.492Z</time></trkpt><trkpt lat="43.8372478" lon="12.7182958"><ele>69.0</ele><time>2026-04-18T16:25:30.491Z</time></trkpt><trkpt lat="43.8371613" lon="12.7181375"><ele>69.0</ele><time>2026-04-18T16:25:31.492Z</time></trkpt><trkpt lat="43.8370849" lon="12.7180031"><ele>69.0</ele><time>2026-04-18T16:25:32.492Z</time></trkpt><trkpt lat="43.8370203" lon="12.7178747"><ele>69.0</ele><time>2026-04-18T16:25:33.492Z</time></trkpt><trkpt lat="43.8369761" lon="12.7177658"><ele>69.0</ele><time>2026-04-18T16:25:34.491Z</time></trkpt><trkpt lat="43.8369569" lon="12.7176615"><ele>69.0</ele><time>2026-04-18T16:25:35.491Z</time></trkpt><trkpt lat="43.8369759" lon="12.7175645"><ele>69.0</ele><time>2026-04-18T16:25:36.493Z</time></trkpt><trkpt lat="43.837022" lon="12.7174876"><ele>69.0</ele><time>2026-04-18T16:25:37.491Z</time></trkpt><trkpt lat="43.8370976" lon="12.7174453"><ele>69.0</ele><time>2026-04-18T16:25:38.492Z</time></trkpt><trkpt lat="43.8371912" lon="12.7174377"><ele>69.0</ele><time>2026-04-18T16:25:39.491Z</time></trkpt><trkpt lat="43.8373305" lon="12.7174618"><ele>69.0</ele><time>2026-04-18T16:25:40.491Z</time></trkpt><trkpt lat="43.837496" lon="12.7174889"><ele>68.66666666666667</ele><time>2026-04-18T16:25:41.492Z</time></trkpt><trkpt lat="43.8376869" lon="12.7175112"><ele>68.33333333333334</ele><time>2026-04-18T16:25:42.495Z</time></trkpt><trkpt lat="43.837895" lon="12.7175316"><ele>68.0</ele><time>2026-04-18T16:25:43.502Z</time></trkpt><trkpt lat="43.8381134" lon="12.717563"><ele>68.0</ele><time>2026-04-18T16:25:44.493Z</time></trkpt><trkpt lat="43.8383325" lon="12.7175995"><ele>68.0</ele><time>2026-04-18T16:25:45.492Z</time></trkpt><trkpt lat="43.8385481" lon="12.7176451"><ele>68.0</ele><time>2026-04-18T16:25:46.493Z</time></trkpt><trkpt lat="43.8387563" lon="12.7177133"><ele>67.66666666666667</ele><time>2026-04-18T16:25:47.491Z</time></trkpt><trkpt lat="43.8389574" lon="12.7178038"><ele>67.33333333333333</ele><time>2026-04-18T16:25:48.491Z</time></trkpt><trkpt lat="43.8391539" lon="12.7179157"><ele>67.0</ele><time>2026-04-18T16:25:49.493Z</time></trkpt><trkpt lat="43.8393512" lon="12.7180346"><ele>67.0</ele><time>2026-04-18T16:25:50.492Z</time></trkpt><trkpt lat="43.8395522" lon="12.7181549"><ele>67.0</ele><time>2026-04-18T16:25:51.491Z</time></trkpt><trkpt lat="43.8397556" lon="12.7182699"><ele>67.0</ele><time>2026-04-18T16:25:52.491Z</time></trkpt><trkpt lat="43.8399603" lon="12.7183836"><ele>67.0</ele><time>2026-04-18T16:25:53.491Z</time></trkpt><trkpt lat="43.8401547" lon="12.7184938"><ele>67.0</ele><time>2026-04-18T16:25:54.491Z</time></trkpt><trkpt lat="43.8403406" lon="12.7186008"><ele>67.0</ele><time>2026-04-18T16:25:55.492Z</time></trkpt><trkpt lat="43.8405188" lon="12.7187053"><ele>67.0</ele><time>2026-04-18T16:25:56.492Z</time></trkpt><trkpt lat="43.8406957" lon="12.7188045"><ele>67.0</ele><time>2026-04-18T16:25:57.492Z</time></trkpt><trkpt lat="43.8408757" lon="12.7189027"><ele>67.0</ele><time>2026-04-18T16:25:58.491Z</time></trkpt><trkpt lat="43.8410536" lon="12.7190028"><ele>66.66666666666666</ele><time>2026-04-18T16:25:59.496Z</time></trkpt><trkpt lat="43.841231" lon="12.7191028"><ele>66.33333333333333</ele><time>2026-04-18T16:26:00.491Z</time></trkpt><trkpt lat="43.8414104" lon="12.7191997"><ele>66.0</ele><time>2026-04-18T16:26:01.491Z</time></trkpt><trkpt lat="43.8415874" lon="12.7192959"><ele>66.0</ele><time>2026-04-18T16:26:02.493Z</time></trkpt><trkpt lat="43.8417681" lon="12.7193812"><ele>66.0</ele><time>2026-04-18T16:26:03.492Z</time></trkpt><trkpt lat="43.8419549" lon="12.7194517"><ele>66.0</ele><time>2026-04-18T16:26:04.491Z</time></trkpt><trkpt lat="43.8421438" lon="12.7195133"><ele>65.0</ele><time>2026-04-18T16:26:05.491Z</time></trkpt><trkpt lat="43.8423353" lon="12.7195704"><ele>64.0</ele><time>2026-04-18T16:26:06.491Z</time></trkpt><trkpt lat="43.8425288" lon="12.7196286"><ele>63.0</ele><time>2026-04-18T16:26:07.492Z</time></trkpt><trkpt lat="43.8427242" lon="12.7196831"><ele>62.0</ele><time>2026-04-18T16:26:08.493Z</time></trkpt><trkpt lat="43.842918" lon="12.7197438"><ele>61.0</ele><time>2026-04-18T16:26:09.491Z</time></trkpt><trkpt lat="43.8431066" lon="12.7198038"><ele>60.0</ele><time>2026-04-18T16:26:10.492Z</time></trkpt><trkpt lat="43.8432947" lon="12.7198629"><ele>60.66666666666667</ele><time>2026-04-18T16:26:11.491Z</time></trkpt><trkpt lat="43.8434822" lon="12.7199221"><ele>61.333333333333336</ele><time>2026-04-18T16:26:12.49Z</time></trkpt><trkpt lat="43.8436702" lon="12.7199781"><ele>62.0</ele><time>2026-04-18T16:26:13.491Z</time></trkpt><trkpt lat="43.8438572" lon="12.7200402"><ele>62.0</ele><time>2026-04-18T16:26:14.491Z</time></trkpt><trkpt lat="43.8440445" lon="12.7201021"><ele>62.0</ele><time>2026-04-18T16:26:15.49Z</time></trkpt><trkpt lat="43.8442265" lon="12.7201739"><ele>62.0</ele><time>2026-04-18T16:26:16.489Z</time></trkpt><trkpt lat="43.8444109" lon="12.7202368"><ele>61.66666666666667</ele><time>2026-04-18T16:26:17.491Z</time></trkpt><trkpt lat="43.8445973" lon="12.7202967"><ele>61.33333333333333</ele><time>2026-04-18T16:26:18.491Z</time></trkpt><trkpt lat="43.8447871" lon="12.7203544"><ele>61.0</ele><time>2026-04-18T16:26:19.491Z</time></trkpt><trkpt lat="43.8449812" lon="12.7204138"><ele>61.0</ele><time>2026-04-18T16:26:20.493Z</time></trkpt><trkpt lat="43.84518" lon="12.7204927"><ele>61.0</ele><time>2026-04-18T16:26:21.491Z</time></trkpt><trkpt lat="43.8453863" lon="12.720556"><ele>61.0</ele><time>2026-04-18T16:26:22.491Z</time></trkpt><trkpt lat="43.8456038" lon="12.7206016"><ele>61.0</ele><time>2026-04-18T16:26:23.49Z</time></trkpt><trkpt lat="43.8458179" lon="12.7206477"><ele>61.0</ele><time>2026-04-18T16:26:24.49Z</time></trkpt><trkpt lat="43.8460251" lon="12.7206806"><ele>61.0</ele><time>2026-04-18T16:26:25.49Z</time></trkpt><trkpt lat="43.8462222" lon="12.7206888"><ele>58.33333333333333</ele><time>2026-04-18T16:26:26.492Z</time></trkpt><trkpt lat="43.8464076" lon="12.7206614"><ele>55.66666666666667</ele><time>2026-04-18T16:26:27.49Z</time></trkpt><trkpt lat="43.8465776" lon="12.7206113"><ele>53.0</ele><time>2026-04-18T16:26:28.49Z</time></trkpt><trkpt lat="43.8467303" lon="12.7205607"><ele>53.0</ele><time>2026-04-18T16:26:29.491Z</time></trkpt><trkpt lat="43.8468665" lon="12.7205382"><ele>53.0</ele><time>2026-04-18T16:26:30.493Z</time></trkpt><trkpt lat="43.8469813" lon="12.7205302"><ele>53.0</ele><time>2026-04-18T16:26:31.502Z</time></trkpt><trkpt lat="43.8471647" lon="12.7205474"><ele>53.0</ele><time>2026-04-18T16:26:33.492Z</time></trkpt><trkpt lat="43.8472559" lon="12.7205659"><ele>53.0</ele><time>2026-04-18T16:26:34.491Z</time></trkpt><trkpt lat="43.8473435" lon="12.7205722"><ele>53.0</ele><time>2026-04-18T16:26:35.49Z</time></trkpt><trkpt lat="43.8473927" lon="12.7205064"><ele>53.0</ele><time>2026-04-18T16:26:36.491Z</time></trkpt><trkpt lat="43.8474196" lon="12.7203915"><ele>53.0</ele><time>2026-04-18T16:26:37.499Z</time></trkpt><trkpt lat="43.8474236" lon="12.7202392"><ele>53.0</ele><time>2026-04-18T16:26:38.49Z</time></trkpt><trkpt lat="43.8474133" lon="12.7200253"><ele>53.333333333333336</ele><time>2026-04-18T16:26:39.492Z</time></trkpt><trkpt lat="43.8474016" lon="12.7197824"><ele>53.66666666666667</ele><time>2026-04-18T16:26:40.491Z</time></trkpt><trkpt lat="43.8473758" lon="12.7195278"><ele>54.0</ele><time>2026-04-18T16:26:41.494Z</time></trkpt><trkpt lat="43.8473293" lon="12.7192545"><ele>54.0</ele><time>2026-04-18T16:26:42.49Z</time></trkpt><trkpt lat="43.8472744" lon="12.7189731"><ele>54.0</ele><time>2026-04-18T16:26:43.495Z</time></trkpt><trkpt lat="43.8472194" lon="12.7187013"><ele>54.0</ele><time>2026-04-18T16:26:44.495Z</time></trkpt><trkpt lat="43.8471715" lon="12.7184409"><ele>54.0</ele><time>2026-04-18T16:26:45.493Z</time></trkpt><trkpt lat="43.8471306" lon="12.718193"><ele>54.0</ele><time>2026-04-18T16:26:46.491Z</time></trkpt><trkpt lat="43.8470945" lon="12.7179586"><ele>54.0</ele><time>2026-04-18T16:26:47.492Z</time></trkpt><trkpt lat="43.8470582" lon="12.717735"><ele>54.0</ele><time>2026-04-18T16:26:48.491Z</time></trkpt><trkpt lat="43.8470231" lon="12.7175181"><ele>54.0</ele><time>2026-04-18T16:26:49.495Z</time></trkpt><trkpt lat="43.8469847" lon="12.7173027"><ele>54.0</ele><time>2026-04-18T16:26:50.498Z</time></trkpt><trkpt lat="43.8469476" lon="12.7170847"><ele>54.0</ele><time>2026-04-18T16:26:51.492Z</time></trkpt><trkpt lat="43.846908" lon="12.7168557"><ele>54.0</ele><time>2026-04-18T16:26:52.494Z</time></trkpt><trkpt lat="43.8468651" lon="12.7166179"><ele>54.0</ele><time>2026-04-18T16:26:53.491Z</time></trkpt><trkpt lat="43.8468189" lon="12.7163718"><ele>54.33333333333333</ele><time>2026-04-18T16:26:54.491Z</time></trkpt><trkpt lat="43.8467702" lon="12.7161245"><ele>54.666666666666664</ele><time>2026-04-18T16:26:55.491Z</time></trkpt><trkpt lat="43.8467103" lon="12.7158816"><ele>55.0</ele><time>2026-04-18T16:26:56.491Z</time></trkpt><trkpt lat="43.8466293" lon="12.7156432"><ele>55.0</ele><time>2026-04-18T16:26:57.492Z</time></trkpt><trkpt lat="43.8465318" lon="12.7154176"><ele>55.0</ele><time>2026-04-18T16:26:58.492Z</time></trkpt><trkpt lat="43.8464242" lon="12.7152041"><ele>55.0</ele><time>2026-04-18T16:26:59.498Z</time></trkpt><trkpt lat="43.8463132" lon="12.715001"><ele>54.33333333333333</ele><time>2026-04-18T16:27:00.491Z</time></trkpt><trkpt lat="43.8462003" lon="12.7148048"><ele>53.66666666666667</ele><time>2026-04-18T16:27:01.491Z</time></trkpt><trkpt lat="43.8460916" lon="12.7146105"><ele>53.0</ele><time>2026-04-18T16:27:02.492Z</time></trkpt><trkpt lat="43.8459833" lon="12.7144154"><ele>54.66666666666667</ele><time>2026-04-18T16:27:03.491Z</time></trkpt><trkpt lat="43.8458822" lon="12.7142261"><ele>56.33333333333333</ele><time>2026-04-18T16:27:04.49Z</time></trkpt><trkpt lat="43.84578" lon="12.7140439"><ele>58.0</ele><time>2026-04-18T16:27:05.491Z</time></trkpt><trkpt lat="43.8456775" lon="12.7138716"><ele>58.0</ele><time>2026-04-18T16:27:06.491Z</time></trkpt><trkpt lat="43.8455745" lon="12.7136996"><ele>58.0</ele><time>2026-04-18T16:27:07.491Z</time></trkpt><trkpt lat="43.8454717" lon="12.7135213"><ele>58.0</ele><time>2026-04-18T16:27:08.491Z</time></trkpt><trkpt lat="43.8453679" lon="12.7133357"><ele>57.666666666666664</ele><time>2026-04-18T16:27:09.493Z</time></trkpt><trkpt lat="43.8452573" lon="12.713138"><ele>57.33333333333333</ele><time>2026-04-18T16:27:10.49Z</time></trkpt><trkpt lat="43.8451331" lon="12.7129239"><ele>57.0</ele><time>2026-04-18T16:27:11.49Z</time></trkpt><trkpt lat="43.8449948" lon="12.7126831"><ele>57.0</ele><time>2026-04-18T16:27:12.492Z</time></trkpt><trkpt lat="43.8448439" lon="12.7124127"><ele>57.0</ele><time>2026-04-18T16:27:13.49Z</time></trkpt><trkpt lat="43.8446952" lon="12.712134"><ele>56.0</ele><time>2026-04-18T16:27:14.491Z</time></trkpt><trkpt lat="43.8445428" lon="12.7118474"><ele>55.0</ele><time>2026-04-18T16:27:15.491Z</time></trkpt><trkpt lat="43.8443879" lon="12.7115656"><ele>56.5</ele><time>2026-04-18T16:27:16.491Z</time></trkpt><trkpt lat="43.8442285" lon="12.7112692"><ele>58.0</ele><time>2026-04-18T16:27:17.492Z</time></trkpt><trkpt lat="43.8440665" lon="12.7109654"><ele>58.0</ele><time>2026-04-18T16:27:18.49Z</time></trkpt><trkpt lat="43.8439058" lon="12.7106708"><ele>58.0</ele><time>2026-04-18T16:27:19.492Z</time></trkpt><trkpt lat="43.8437466" lon="12.7103781"><ele>58.5</ele><time>2026-04-18T16:27:20.491Z</time></trkpt><trkpt lat="43.8435757" lon="12.7101178"><ele>59.0</ele><time>2026-04-18T16:27:21.49Z</time></trkpt><trkpt lat="43.8433839" lon="12.7099"><ele>59.0</ele><time>2026-04-18T16:27:22.49Z</time></trkpt><trkpt lat="43.8431772" lon="12.7097127"><ele>59.0</ele><time>2026-04-18T16:27:23.491Z</time></trkpt><trkpt lat="43.8429655" lon="12.7095583"><ele>59.0</ele><time>2026-04-18T16:27:24.491Z</time></trkpt><trkpt lat="43.8427583" lon="12.709418"><ele>59.0</ele><time>2026-04-18T16:27:25.491Z</time></trkpt><trkpt lat="43.842558" lon="12.7092822"><ele>60.66666666666667</ele><time>2026-04-18T16:27:26.494Z</time></trkpt><trkpt lat="43.8423687" lon="12.7091453"><ele>62.33333333333333</ele><time>2026-04-18T16:27:27.49Z</time></trkpt><trkpt lat="43.8421855" lon="12.7090071"><ele>64.0</ele><time>2026-04-18T16:27:28.491Z</time></trkpt><trkpt lat="43.8420019" lon="12.7088594"><ele>64.0</ele><time>2026-04-18T16:27:29.49Z</time></trkpt><trkpt lat="43.8418216" lon="12.7086914"><ele>64.0</ele><time>2026-04-18T16:27:30.491Z</time></trkpt><trkpt lat="43.841663" lon="12.7084914"><ele>64.0</ele><time>2026-04-18T16:27:31.491Z</time></trkpt><trkpt lat="43.8415259" lon="12.7082619"><ele>65.5</ele><time>2026-04-18T16:27:32.49Z</time></trkpt><trkpt lat="43.8413969" lon="12.7080131"><ele>67.0</ele><time>2026-04-18T16:27:33.492Z</time></trkpt><trkpt lat="43.8412631" lon="12.7077475"><ele>69.5</ele><time>2026-04-18T16:27:34.49Z</time></trkpt><trkpt lat="43.8411235" lon="12.7074684"><ele>72.0</ele><time>2026-04-18T16:27:35.5Z</time></trkpt><trkpt lat="43.8409887" lon="12.7071758"><ele>70.5</ele><time>2026-04-18T16:27:36.491Z</time></trkpt><trkpt lat="43.8408551" lon="12.7068846"><ele>69.0</ele><time>2026-04-18T16:27:37.49Z</time></trkpt><trkpt lat="43.8407232" lon="12.7065988"><ele>69.0</ele><time>2026-04-18T16:27:38.491Z</time></trkpt><trkpt lat="43.840594" lon="12.7063247"><ele>69.0</ele><time>2026-04-18T16:27:39.493Z</time></trkpt><trkpt lat="43.8404636" lon="12.7060552"><ele>69.5</ele><time>2026-04-18T16:27:40.491Z</time></trkpt><trkpt lat="43.8403361" lon="12.7057831"><ele>70.0</ele><time>2026-04-18T16:27:41.492Z</time></trkpt><trkpt lat="43.8402082" lon="12.7055158"><ele>70.5</ele><time>2026-04-18T16:27:42.491Z</time></trkpt><trkpt lat="43.8400817" lon="12.7052543"><ele>71.0</ele><time>2026-04-18T16:27:43.49Z</time></trkpt><trkpt lat="43.8399556" lon="12.7049957"><ele>71.0</ele><time>2026-04-18T16:27:44.492Z</time></trkpt><trkpt lat="43.8398293" lon="12.7047432"><ele>71.0</ele><time>2026-04-18T16:27:45.492Z</time></trkpt><trkpt lat="43.8397046" lon="12.7044979"><ele>71.0</ele><time>2026-04-18T16:27:46.49Z</time></trkpt><trkpt lat="43.8395851" lon="12.7042566"><ele>72.33333333333334</ele><time>2026-04-18T16:27:47.49Z</time></trkpt><trkpt lat="43.8394723" lon="12.7040079"><ele>73.66666666666667</ele><time>2026-04-18T16:27:48.49Z</time></trkpt><trkpt lat="43.8393766" lon="12.7037411"><ele>75.0</ele><time>2026-04-18T16:27:49.491Z</time></trkpt><trkpt lat="43.8393129" lon="12.7034498"><ele>74.5</ele><time>2026-04-18T16:27:50.492Z</time></trkpt><trkpt lat="43.8392787" lon="12.703147"><ele>74.0</ele><time>2026-04-18T16:27:51.491Z</time></trkpt><trkpt lat="43.8392753" lon="12.7028176"><ele>74.5</ele><time>2026-04-18T16:27:52.499Z</time></trkpt><trkpt lat="43.8392841" lon="12.7024721"><ele>75.0</ele><time>2026-04-18T16:27:53.491Z</time></trkpt><trkpt lat="43.8392922" lon="12.7021236"><ele>75.5</ele><time>2026-04-18T16:27:54.491Z</time></trkpt><trkpt lat="43.8392979" lon="12.7017805"><ele>76.0</ele><time>2026-04-18T16:27:55.492Z</time></trkpt><trkpt lat="43.8393042" lon="12.7014423"><ele>78.5</ele><time>2026-04-18T16:27:56.491Z</time></trkpt><trkpt lat="43.8393096" lon="12.7011148"><ele>81.0</ele><time>2026-04-18T16:27:57.491Z</time></trkpt><trkpt lat="43.8393071" lon="12.7007979"><ele>80.5</ele><time>2026-04-18T16:27:58.492Z</time></trkpt><trkpt lat="43.8392989" lon="12.7004848"><ele>80.0</ele><time>2026-04-18T16:27:59.492Z</time></trkpt><trkpt lat="43.8392645" lon="12.7001707"><ele>80.0</ele><time>2026-04-18T16:28:00.49Z</time></trkpt><trkpt lat="43.8391992" lon="12.6998598"><ele>80.0</ele><time>2026-04-18T16:28:01.491Z</time></trkpt><trkpt lat="43.8391001" lon="12.6995573"><ele>81.0</ele><time>2026-04-18T16:28:02.501Z</time></trkpt><trkpt lat="43.8389833" lon="12.6992642"><ele>82.0</ele><time>2026-04-18T16:28:03.49Z</time></trkpt><trkpt lat="43.8388588" lon="12.6989702"><ele>82.0</ele><time>2026-04-18T16:28:04.49Z</time></trkpt><trkpt lat="43.8387371" lon="12.6986773"><ele>82.0</ele><time>2026-04-18T16:28:05.491Z</time></trkpt><trkpt lat="43.8386209" lon="12.6983845"><ele>81.5</ele><time>2026-04-18T16:28:06.49Z</time></trkpt><trkpt lat="43.8384992" lon="12.6980965"><ele>81.0</ele><time>2026-04-18T16:28:07.49Z</time></trkpt><trkpt lat="43.8383761" lon="12.697811"><ele>81.5</ele><time>2026-04-18T16:28:08.49Z</time></trkpt><trkpt lat="43.8382575" lon="12.6975223"><ele>82.0</ele><time>2026-04-18T16:28:09.49Z</time></trkpt><trkpt lat="43.8381375" lon="12.6972329"><ele>82.0</ele><time>2026-04-18T16:28:10.49Z</time></trkpt><trkpt lat="43.8380173" lon="12.696942"><ele>82.0</ele><time>2026-04-18T16:28:11.49Z</time></trkpt><trkpt lat="43.8378999" lon="12.6966491"><ele>82.5</ele><time>2026-04-18T16:28:12.49Z</time></trkpt><trkpt lat="43.8377846" lon="12.6963557"><ele>83.0</ele><time>2026-04-18T16:28:13.491Z</time></trkpt><trkpt lat="43.8376679" lon="12.6960621"><ele>81.5</ele><time>2026-04-18T16:28:14.49Z</time></trkpt><trkpt lat="43.8375551" lon="12.6957648"><ele>80.0</ele><time>2026-04-18T16:28:15.49Z</time></trkpt><trkpt lat="43.8374417" lon="12.6954692"><ele>80.0</ele><time>2026-04-18T16:28:16.491Z</time></trkpt><trkpt lat="43.8373248" lon="12.6951764"><ele>80.0</ele><time>2026-04-18T16:28:17.492Z</time></trkpt><trkpt lat="43.8372079" lon="12.694886"><ele>80.0</ele><time>2026-04-18T16:28:18.49Z</time></trkpt><trkpt lat="43.8370881" lon="12.6945963"><ele>80.0</ele><time>2026-04-18T16:28:19.491Z</time></trkpt><trkpt lat="43.8369679" lon="12.6943067"><ele>79.5</ele><time>2026-04-18T16:28:20.491Z</time></trkpt><trkpt lat="43.8368485" lon="12.6940183"><ele>79.0</ele><time>2026-04-18T16:28:21.49Z</time></trkpt><trkpt lat="43.8367292" lon="12.6937322"><ele>81.0</ele><time>2026-04-18T16:28:22.49Z</time></trkpt><trkpt lat="43.8366093" lon="12.6934522"><ele>83.0</ele><time>2026-04-18T16:28:23.491Z</time></trkpt><trkpt lat="43.8364944" lon="12.693177"><ele>83.0</ele><time>2026-04-18T16:28:24.494Z</time></trkpt><trkpt lat="43.8363823" lon="12.6929047"><ele>83.0</ele><time>2026-04-18T16:28:25.491Z</time></trkpt><trkpt lat="43.836272" lon="12.6926332"><ele>84.5</ele><time>2026-04-18T16:28:26.491Z</time></trkpt><trkpt lat="43.8361646" lon="12.6923593"><ele>86.0</ele><time>2026-04-18T16:28:27.49Z</time></trkpt><trkpt lat="43.8360664" lon="12.6920759"><ele>86.0</ele><time>2026-04-18T16:28:28.491Z</time></trkpt><trkpt lat="43.8359781" lon="12.6917828"><ele>86.0</ele><time>2026-04-18T16:28:29.49Z</time></trkpt><trkpt lat="43.835901" lon="12.6914835"><ele>86.0</ele><time>2026-04-18T16:28:30.491Z</time></trkpt><trkpt lat="43.8358265" lon="12.6911802"><ele>86.0</ele><time>2026-04-18T16:28:31.5Z</time></trkpt><trkpt lat="43.8357603" lon="12.6908726"><ele>85.5</ele><time>2026-04-18T16:28:32.492Z</time></trkpt><trkpt lat="43.8356919" lon="12.6905674"><ele>85.0</ele><time>2026-04-18T16:28:33.494Z</time></trkpt><trkpt lat="43.8356228" lon="12.6902673"><ele>85.66666666666666</ele><time>2026-04-18T16:28:34.491Z</time></trkpt><trkpt lat="43.8355558" lon="12.6899708"><ele>86.33333333333333</ele><time>2026-04-18T16:28:35.494Z</time></trkpt><trkpt lat="43.8354896" lon="12.6896835"><ele>87.0</ele><time>2026-04-18T16:28:36.493Z</time></trkpt><trkpt lat="43.8354281" lon="12.6894064"><ele>87.33333333333333</ele><time>2026-04-18T16:28:37.498Z</time></trkpt><trkpt lat="43.8353659" lon="12.68914"><ele>87.66666666666666</ele><time>2026-04-18T16:28:38.491Z</time></trkpt><trkpt lat="43.8353028" lon="12.6888847"><ele>88.0</ele><time>2026-04-18T16:28:39.49Z</time></trkpt><trkpt lat="43.835243" lon="12.6886435"><ele>88.66666666666666</ele><time>2026-04-18T16:28:40.49Z</time></trkpt><trkpt lat="43.8351863" lon="12.6884145"><ele>89.33333333333333</ele><time>2026-04-18T16:28:41.49Z</time></trkpt><trkpt lat="43.8351283" lon="12.6881864"><ele>90.0</ele><time>2026-04-18T16:28:42.492Z</time></trkpt><trkpt lat="43.83507" lon="12.687968"><ele>89.33333333333333</ele><time>2026-04-18T16:28:43.49Z</time></trkpt><trkpt lat="43.8350124" lon="12.6877644"><ele>88.66666666666666</ele><time>2026-04-18T16:28:44.491Z</time></trkpt><trkpt lat="43.8349545" lon="12.6875679"><ele>88.0</ele><time>2026-04-18T16:28:45.49Z</time></trkpt><trkpt lat="43.8348924" lon="12.687383"><ele>88.0</ele><time>2026-04-18T16:28:46.491Z</time></trkpt><trkpt lat="43.8348156" lon="12.6872095"><ele>88.0</ele><time>2026-04-18T16:28:47.49Z</time></trkpt><trkpt lat="43.8347222" lon="12.6870563"><ele>88.0</ele><time>2026-04-18T16:28:48.49Z</time></trkpt><trkpt lat="43.8346079" lon="12.6869247"><ele>88.0</ele><time>2026-04-18T16:28:49.489Z</time></trkpt><trkpt lat="43.8344727" lon="12.6868014"><ele>88.33333333333333</ele><time>2026-04-18T16:28:50.491Z</time></trkpt><trkpt lat="43.8343252" lon="12.686677"><ele>88.66666666666667</ele><time>2026-04-18T16:28:51.49Z</time></trkpt><trkpt lat="43.8341668" lon="12.6865395"><ele>89.0</ele><time>2026-04-18T16:28:52.49Z</time></trkpt><trkpt lat="43.8339999" lon="12.6863947"><ele>87.66666666666667</ele><time>2026-04-18T16:28:53.491Z</time></trkpt><trkpt lat="43.833828" lon="12.6862467"><ele>86.33333333333333</ele><time>2026-04-18T16:28:54.49Z</time></trkpt><trkpt lat="43.8336543" lon="12.6860919"><ele>85.0</ele><time>2026-04-18T16:28:55.49Z</time></trkpt><trkpt lat="43.8334788" lon="12.6859353"><ele>84.66666666666666</ele><time>2026-04-18T16:28:56.491Z</time></trkpt><trkpt lat="43.8333045" lon="12.6857719"><ele>84.33333333333333</ele><time>2026-04-18T16:28:57.49Z</time></trkpt><trkpt lat="43.8331319" lon="12.6856061"><ele>84.0</ele><time>2026-04-18T16:28:58.492Z</time></trkpt><trkpt lat="43.8329634" lon="12.6854472"><ele>84.0</ele><time>2026-04-18T16:28:59.49Z</time></trkpt><trkpt lat="43.8327992" lon="12.6852918"><ele>84.0</ele><time>2026-04-18T16:29:00.49Z</time></trkpt><trkpt lat="43.8326388" lon="12.6851415"><ele>84.0</ele><time>2026-04-18T16:29:01.49Z</time></trkpt><trkpt lat="43.8324796" lon="12.6849977"><ele>82.66666666666667</ele><time>2026-04-18T16:29:02.491Z</time></trkpt><trkpt lat="43.8323329" lon="12.6848626"><ele>81.33333333333334</ele><time>2026-04-18T16:29:03.491Z</time></trkpt><trkpt lat="43.8321932" lon="12.6847331"><ele>80.0</ele><time>2026-04-18T16:29:04.491Z</time></trkpt><trkpt lat="43.8320629" lon="12.6846125"><ele>80.0</ele><time>2026-04-18T16:29:05.49Z</time></trkpt><trkpt lat="43.8319372" lon="12.6845091"><ele>80.0</ele><time>2026-04-18T16:29:06.49Z</time></trkpt><trkpt lat="43.8318298" lon="12.6844189"><ele>80.0</ele><time>2026-04-18T16:29:07.49Z</time></trkpt><trkpt lat="43.8317421" lon="12.6843486"><ele>80.0</ele><time>2026-04-18T16:29:08.491Z</time></trkpt><trkpt lat="43.831671" lon="12.6842976"><ele>80.16666666666667</ele><time>2026-04-18T16:29:09.49Z</time></trkpt><trkpt lat="43.8316097" lon="12.6842722"><ele>80.33333333333334</ele><time>2026-04-18T16:29:10.49Z</time></trkpt><trkpt lat="43.8315179" lon="12.6843669"><ele>80.5</ele><time>2026-04-18T16:29:12.49Z</time></trkpt><trkpt lat="43.831478" lon="12.6844522"><ele>80.66666666666667</ele><time>2026-04-18T16:29:13.49Z</time></trkpt><trkpt lat="43.8314387" lon="12.6845549"><ele>80.83333333333333</ele><time>2026-04-18T16:29:14.49Z</time></trkpt><trkpt lat="43.8313978" lon="12.6846635"><ele>81.0</ele><time>2026-04-18T16:29:15.49Z</time></trkpt><trkpt lat="43.8313585" lon="12.6847696"><ele>81.0</ele><time>2026-04-18T16:29:16.49Z</time></trkpt><trkpt lat="43.8313087" lon="12.6848783"><ele>81.0</ele><time>2026-04-18T16:29:17.492Z</time></trkpt><trkpt lat="43.8312508" lon="12.6849952"><ele>81.0</ele><time>2026-04-18T16:29:18.491Z</time></trkpt><trkpt lat="43.8311916" lon="12.6851106"><ele>81.0</ele><time>2026-04-18T16:29:19.491Z</time></trkpt><trkpt lat="43.8311315" lon="12.6852129"><ele>81.0</ele><time>2026-04-18T16:29:20.491Z</time></trkpt><trkpt lat="43.8310654" lon="12.6852878"><ele>81.0</ele><time>2026-04-18T16:29:21.49Z</time></trkpt><trkpt lat="43.830994" lon="12.6853348"><ele>81.0</ele><time>2026-04-18T16:29:22.492Z</time></trkpt><trkpt lat="43.8309107" lon="12.6853314"><ele>81.0</ele><time>2026-04-18T16:29:23.49Z</time></trkpt><trkpt lat="43.8308129" lon="12.685289"><ele>81.0</ele><time>2026-04-18T16:29:24.491Z</time></trkpt><trkpt lat="43.8307165" lon="12.6852116"><ele>81.0</ele><time>2026-04-18T16:29:25.491Z</time></trkpt><trkpt lat="43.8306318" lon="12.685121"><ele>81.0</ele><time>2026-04-18T16:29:26.491Z</time></trkpt><trkpt lat="43.8305535" lon="12.6850406"><ele>81.0</ele><time>2026-04-18T16:29:27.49Z</time></trkpt><trkpt lat="43.8304814" lon="12.6849724"><ele>81.0</ele><time>2026-04-18T16:29:28.49Z</time></trkpt><trkpt lat="43.8304209" lon="12.6849093"><ele>81.0</ele><time>2026-04-18T16:29:29.491Z</time></trkpt><trkpt lat="43.8303697" lon="12.6848505"><ele>81.0</ele><time>2026-04-18T16:29:30.49Z</time></trkpt><trkpt lat="43.8303251" lon="12.684772"><ele>81.0</ele><time>2026-04-18T16:29:32.49Z</time></trkpt><trkpt lat="43.8303594" lon="12.6846897"><ele>81.0</ele><time>2026-04-18T16:29:34.49Z</time></trkpt><trkpt lat="43.8304202" lon="12.6846038"><ele>81.0</ele><time>2026-04-18T16:29:36.49Z</time></trkpt><trkpt lat="43.830482" lon="12.6845773"><ele>81.0</ele><time>2026-04-18T16:29:38.491Z</time></trkpt><trkpt lat="43.8305457" lon="12.6846218"><ele>81.0</ele><time>2026-04-18T16:29:40.49Z</time></trkpt></trkseg></trk></gpx>